<?xml version="1.0" encoding="UTF-8" standalone="no" ?>
<gpx xmlns="http://www.topografix.com/GPX/1/1" xmlns:xsi="http://www.w3.org/2001/XMLSchema-instance" xsi:schemaLocation="http://www.topografix.com/GPX/1/1 http://www.topografix.com/GPX/1/1/gpx.xsd" version="1.1" creator="VisuGPX - https://www.visugpx.com">
  <metadata>
    <name>Col Vert par St Paul de varces</name>
    <desc><![CDATA[Au départ du lieu dit les Buissons]]></desc>
  </metadata>
  <trk>
    <name><![CDATA[2011-01-29T12:14:15Z]]></name>
    <trkseg>
      <trkpt lat="45.07343" lon="5.65735">
        <ele>330.6</ele>
        <time>2011-01-29T12:14:15Z</time>
      </trkpt>
      <trkpt lat="45.07345" lon="5.65729">
        <ele>327.4</ele>
        <time>2011-01-29T12:14:18Z</time>
      </trkpt>
      <trkpt lat="45.07347" lon="5.65725">
        <ele>327.8</ele>
        <time>2011-01-29T12:14:21Z</time>
      </trkpt>
      <trkpt lat="45.07348" lon="5.65722">
        <ele>328.6</ele>
        <time>2011-01-29T12:14:24Z</time>
      </trkpt>
      <trkpt lat="45.07352" lon="5.65712">
        <ele>329.8</ele>
        <time>2011-01-29T12:14:30Z</time>
      </trkpt>
      <trkpt lat="45.07354" lon="5.65704">
        <ele>330.8</ele>
        <time>2011-01-29T12:14:34Z</time>
      </trkpt>
      <trkpt lat="45.07354" lon="5.65688">
        <ele>332</ele>
        <time>2011-01-29T12:14:42Z</time>
      </trkpt>
      <trkpt lat="45.07354" lon="5.65686">
        <ele>332.2</ele>
        <time>2011-01-29T12:14:43Z</time>
      </trkpt>
      <trkpt lat="45.07349" lon="5.65669">
        <ele>333.2</ele>
        <time>2011-01-29T12:14:52Z</time>
      </trkpt>
      <trkpt lat="45.07346" lon="5.65662">
        <ele>333.6</ele>
        <time>2011-01-29T12:14:56Z</time>
      </trkpt>
      <trkpt lat="45.07343" lon="5.65653">
        <ele>334</ele>
        <time>2011-01-29T12:15:01Z</time>
      </trkpt>
      <trkpt lat="45.07336" lon="5.65641">
        <ele>334.4</ele>
        <time>2011-01-29T12:15:09Z</time>
      </trkpt>
      <trkpt lat="45.07327" lon="5.65629">
        <ele>334.6</ele>
        <time>2011-01-29T12:15:14Z</time>
      </trkpt>
      <trkpt lat="45.07322" lon="5.65621">
        <ele>335</ele>
        <time>2011-01-29T12:15:17Z</time>
      </trkpt>
      <trkpt lat="45.07318" lon="5.65616">
        <ele>335.2</ele>
        <time>2011-01-29T12:15:19Z</time>
      </trkpt>
      <trkpt lat="45.07308" lon="5.65604">
        <ele>335.8</ele>
        <time>2011-01-29T12:15:24Z</time>
      </trkpt>
      <trkpt lat="45.073" lon="5.65591">
        <ele>336.4</ele>
        <time>2011-01-29T12:15:30Z</time>
      </trkpt>
      <trkpt lat="45.07298" lon="5.65586">
        <ele>336.6</ele>
        <time>2011-01-29T12:15:32Z</time>
      </trkpt>
      <trkpt lat="45.073" lon="5.65584">
        <ele>336.6</ele>
        <time>2011-01-29T12:15:33Z</time>
      </trkpt>
      <trkpt lat="45.07301" lon="5.65581">
        <ele>336.6</ele>
        <time>2011-01-29T12:15:34Z</time>
      </trkpt>
      <trkpt lat="45.07311" lon="5.65563">
        <ele>336.8</ele>
        <time>2011-01-29T12:15:41Z</time>
      </trkpt>
      <trkpt lat="45.07313" lon="5.6556">
        <ele>337</ele>
        <time>2011-01-29T12:15:42Z</time>
      </trkpt>
      <trkpt lat="45.07319" lon="5.65546">
        <ele>337.2</ele>
        <time>2011-01-29T12:15:47Z</time>
      </trkpt>
      <trkpt lat="45.07321" lon="5.6554">
        <ele>337.2</ele>
        <time>2011-01-29T12:15:49Z</time>
      </trkpt>
      <trkpt lat="45.07324" lon="5.65528">
        <ele>337.2</ele>
        <time>2011-01-29T12:15:53Z</time>
      </trkpt>
      <trkpt lat="45.07325" lon="5.65516">
        <ele>337.2</ele>
        <time>2011-01-29T12:15:57Z</time>
      </trkpt>
      <trkpt lat="45.07326" lon="5.65505">
        <ele>337.4</ele>
        <time>2011-01-29T12:16:00Z</time>
      </trkpt>
      <trkpt lat="45.07331" lon="5.6549">
        <ele>337.4</ele>
        <time>2011-01-29T12:16:05Z</time>
      </trkpt>
      <trkpt lat="45.0734" lon="5.65477">
        <ele>337.2</ele>
        <time>2011-01-29T12:16:11Z</time>
      </trkpt>
      <trkpt lat="45.07344" lon="5.65469">
        <ele>337.2</ele>
        <time>2011-01-29T12:16:14Z</time>
      </trkpt>
      <trkpt lat="45.07348" lon="5.65462">
        <ele>337.2</ele>
        <time>2011-01-29T12:16:17Z</time>
      </trkpt>
      <trkpt lat="45.07355" lon="5.65445">
        <ele>337.2</ele>
        <time>2011-01-29T12:16:23Z</time>
      </trkpt>
      <trkpt lat="45.07361" lon="5.65426">
        <ele>337.4</ele>
        <time>2011-01-29T12:16:29Z</time>
      </trkpt>
      <trkpt lat="45.07363" lon="5.65419">
        <ele>337.6</ele>
        <time>2011-01-29T12:16:31Z</time>
      </trkpt>
      <trkpt lat="45.07368" lon="5.65407">
        <ele>337.8</ele>
        <time>2011-01-29T12:16:35Z</time>
      </trkpt>
      <trkpt lat="45.07372" lon="5.65396">
        <ele>337.8</ele>
        <time>2011-01-29T12:16:39Z</time>
      </trkpt>
      <trkpt lat="45.07375" lon="5.6539">
        <ele>338</ele>
        <time>2011-01-29T12:16:41Z</time>
      </trkpt>
      <trkpt lat="45.07383" lon="5.65372">
        <ele>338.2</ele>
        <time>2011-01-29T12:16:48Z</time>
      </trkpt>
      <trkpt lat="45.07388" lon="5.65357">
        <ele>338.4</ele>
        <time>2011-01-29T12:16:53Z</time>
      </trkpt>
      <trkpt lat="45.07391" lon="5.65348">
        <ele>338.8</ele>
        <time>2011-01-29T12:16:56Z</time>
      </trkpt>
      <trkpt lat="45.07395" lon="5.65335">
        <ele>339</ele>
        <time>2011-01-29T12:17:00Z</time>
      </trkpt>
      <trkpt lat="45.07397" lon="5.65323">
        <ele>339.6</ele>
        <time>2011-01-29T12:17:04Z</time>
      </trkpt>
      <trkpt lat="45.07398" lon="5.65318">
        <ele>339.6</ele>
        <time>2011-01-29T12:17:06Z</time>
      </trkpt>
      <trkpt lat="45.07403" lon="5.653">
        <ele>340.4</ele>
        <time>2011-01-29T12:17:13Z</time>
      </trkpt>
      <trkpt lat="45.07403" lon="5.65298">
        <ele>340.4</ele>
        <time>2011-01-29T12:17:14Z</time>
      </trkpt>
      <trkpt lat="45.07407" lon="5.65282">
        <ele>341</ele>
        <time>2011-01-29T12:17:21Z</time>
      </trkpt>
      <trkpt lat="45.07409" lon="5.65272">
        <ele>341.4</ele>
        <time>2011-01-29T12:17:25Z</time>
      </trkpt>
      <trkpt lat="45.07411" lon="5.65264">
        <ele>341.8</ele>
        <time>2011-01-29T12:17:28Z</time>
      </trkpt>
      <trkpt lat="45.07413" lon="5.65248">
        <ele>342.8</ele>
        <time>2011-01-29T12:17:34Z</time>
      </trkpt>
      <trkpt lat="45.07414" lon="5.65246">
        <ele>343</ele>
        <time>2011-01-29T12:17:35Z</time>
      </trkpt>
      <trkpt lat="45.07417" lon="5.65232">
        <ele>344</ele>
        <time>2011-01-29T12:17:41Z</time>
      </trkpt>
      <trkpt lat="45.07424" lon="5.65223">
        <ele>345</ele>
        <time>2011-01-29T12:17:46Z</time>
      </trkpt>
      <trkpt lat="45.07425" lon="5.65221">
        <ele>345.2</ele>
        <time>2011-01-29T12:17:47Z</time>
      </trkpt>
      <trkpt lat="45.07434" lon="5.65207">
        <ele>346.4</ele>
        <time>2011-01-29T12:17:54Z</time>
      </trkpt>
      <trkpt lat="45.07435" lon="5.65201">
        <ele>346.8</ele>
        <time>2011-01-29T12:17:56Z</time>
      </trkpt>
      <trkpt lat="45.07436" lon="5.65188">
        <ele>347.6</ele>
        <time>2011-01-29T12:18:01Z</time>
      </trkpt>
      <trkpt lat="45.07435" lon="5.65175">
        <ele>348.4</ele>
        <time>2011-01-29T12:18:06Z</time>
      </trkpt>
      <trkpt lat="45.07435" lon="5.65168">
        <ele>348.8</ele>
        <time>2011-01-29T12:18:09Z</time>
      </trkpt>
      <trkpt lat="45.07437" lon="5.65152">
        <ele>349.8</ele>
        <time>2011-01-29T12:18:15Z</time>
      </trkpt>
      <trkpt lat="45.07438" lon="5.65147">
        <ele>350.2</ele>
        <time>2011-01-29T12:18:17Z</time>
      </trkpt>
      <trkpt lat="45.0744" lon="5.65139">
        <ele>350.8</ele>
        <time>2011-01-29T12:18:20Z</time>
      </trkpt>
      <trkpt lat="45.07444" lon="5.65126">
        <ele>352</ele>
        <time>2011-01-29T12:18:25Z</time>
      </trkpt>
      <trkpt lat="45.07445" lon="5.65123">
        <ele>352.4</ele>
        <time>2011-01-29T12:18:26Z</time>
      </trkpt>
      <trkpt lat="45.07448" lon="5.65115">
        <ele>353.2</ele>
        <time>2011-01-29T12:18:30Z</time>
      </trkpt>
      <trkpt lat="45.07453" lon="5.6511">
        <ele>353.6</ele>
        <time>2011-01-29T12:18:35Z</time>
      </trkpt>
      <trkpt lat="45.07458" lon="5.65104">
        <ele>353.8</ele>
        <time>2011-01-29T12:18:39Z</time>
      </trkpt>
      <trkpt lat="45.07459" lon="5.65103">
        <ele>354</ele>
        <time>2011-01-29T12:18:40Z</time>
      </trkpt>
      <trkpt lat="45.07462" lon="5.65102">
        <ele>354</ele>
        <time>2011-01-29T12:18:42Z</time>
      </trkpt>
      <trkpt lat="45.07466" lon="5.65098">
        <ele>354.2</ele>
        <time>2011-01-29T12:18:45Z</time>
      </trkpt>
      <trkpt lat="45.07472" lon="5.65095">
        <ele>353.8</ele>
        <time>2011-01-29T12:18:51Z</time>
      </trkpt>
      <trkpt lat="45.0747" lon="5.65087">
        <ele>358.6</ele>
        <time>2011-01-29T12:19:16Z</time>
      </trkpt>
      <trkpt lat="45.07473" lon="5.65084">
        <ele>359</ele>
        <time>2011-01-29T12:19:18Z</time>
      </trkpt>
      <trkpt lat="45.07474" lon="5.65081">
        <ele>359.4</ele>
        <time>2011-01-29T12:19:20Z</time>
      </trkpt>
      <trkpt lat="45.07472" lon="5.65076">
        <ele>359.8</ele>
        <time>2011-01-29T12:19:22Z</time>
      </trkpt>
      <trkpt lat="45.07469" lon="5.65071">
        <ele>360.2</ele>
        <time>2011-01-29T12:19:24Z</time>
      </trkpt>
      <trkpt lat="45.07466" lon="5.65066">
        <ele>360.8</ele>
        <time>2011-01-29T12:19:26Z</time>
      </trkpt>
      <trkpt lat="45.07463" lon="5.6506">
        <ele>361.2</ele>
        <time>2011-01-29T12:19:28Z</time>
      </trkpt>
      <trkpt lat="45.07457" lon="5.65046">
        <ele>362</ele>
        <time>2011-01-29T12:19:33Z</time>
      </trkpt>
      <trkpt lat="45.07456" lon="5.65044">
        <ele>362.2</ele>
        <time>2011-01-29T12:19:34Z</time>
      </trkpt>
      <trkpt lat="45.07453" lon="5.65035">
        <ele>362.4</ele>
        <time>2011-01-29T12:19:38Z</time>
      </trkpt>
      <trkpt lat="45.0745" lon="5.65027">
        <ele>362.6</ele>
        <time>2011-01-29T12:19:41Z</time>
      </trkpt>
      <trkpt lat="45.07448" lon="5.6502">
        <ele>362.8</ele>
        <time>2011-01-29T12:19:43Z</time>
      </trkpt>
      <trkpt lat="45.07441" lon="5.64999">
        <ele>363</ele>
        <time>2011-01-29T12:19:49Z</time>
      </trkpt>
      <trkpt lat="45.07439" lon="5.64994">
        <ele>363</ele>
        <time>2011-01-29T12:19:50Z</time>
      </trkpt>
      <trkpt lat="45.07434" lon="5.64982">
        <ele>363.4</ele>
        <time>2011-01-29T12:19:54Z</time>
      </trkpt>
      <trkpt lat="45.07428" lon="5.64972">
        <ele>363.4</ele>
        <time>2011-01-29T12:19:58Z</time>
      </trkpt>
      <trkpt lat="45.07425" lon="5.64968">
        <ele>363.6</ele>
        <time>2011-01-29T12:20:00Z</time>
      </trkpt>
      <trkpt lat="45.07416" lon="5.6496">
        <ele>363.8</ele>
        <time>2011-01-29T12:20:05Z</time>
      </trkpt>
      <trkpt lat="45.07413" lon="5.64956">
        <ele>363.8</ele>
        <time>2011-01-29T12:20:07Z</time>
      </trkpt>
      <trkpt lat="45.07406" lon="5.64947">
        <ele>364.2</ele>
        <time>2011-01-29T12:20:11Z</time>
      </trkpt>
      <trkpt lat="45.07401" lon="5.64936">
        <ele>364.8</ele>
        <time>2011-01-29T12:20:15Z</time>
      </trkpt>
      <trkpt lat="45.07398" lon="5.64932">
        <ele>364.8</ele>
        <time>2011-01-29T12:20:17Z</time>
      </trkpt>
      <trkpt lat="45.07389" lon="5.64918">
        <ele>365.8</ele>
        <time>2011-01-29T12:20:23Z</time>
      </trkpt>
      <trkpt lat="45.07387" lon="5.64915">
        <ele>365.8</ele>
        <time>2011-01-29T12:20:24Z</time>
      </trkpt>
      <trkpt lat="45.07379" lon="5.649">
        <ele>366.2</ele>
        <time>2011-01-29T12:20:29Z</time>
      </trkpt>
      <trkpt lat="45.07375" lon="5.64895">
        <ele>366.4</ele>
        <time>2011-01-29T12:20:31Z</time>
      </trkpt>
      <trkpt lat="45.07371" lon="5.64889">
        <ele>366.2</ele>
        <time>2011-01-29T12:20:34Z</time>
      </trkpt>
      <trkpt lat="45.07364" lon="5.64873">
        <ele>366.6</ele>
        <time>2011-01-29T12:20:40Z</time>
      </trkpt>
      <trkpt lat="45.07362" lon="5.6487">
        <ele>366.6</ele>
        <time>2011-01-29T12:20:41Z</time>
      </trkpt>
      <trkpt lat="45.07354" lon="5.64858">
        <ele>367</ele>
        <time>2011-01-29T12:20:46Z</time>
      </trkpt>
      <trkpt lat="45.07351" lon="5.64854">
        <ele>367.2</ele>
        <time>2011-01-29T12:20:48Z</time>
      </trkpt>
      <trkpt lat="45.07344" lon="5.64836">
        <ele>367.4</ele>
        <time>2011-01-29T12:20:54Z</time>
      </trkpt>
      <trkpt lat="45.07342" lon="5.64828">
        <ele>367.6</ele>
        <time>2011-01-29T12:20:57Z</time>
      </trkpt>
      <trkpt lat="45.07341" lon="5.64822">
        <ele>367.6</ele>
        <time>2011-01-29T12:20:59Z</time>
      </trkpt>
      <trkpt lat="45.07341" lon="5.64806">
        <ele>367.4</ele>
        <time>2011-01-29T12:21:05Z</time>
      </trkpt>
      <trkpt lat="45.07341" lon="5.648">
        <ele>367.4</ele>
        <time>2011-01-29T12:21:07Z</time>
      </trkpt>
      <trkpt lat="45.07339" lon="5.6478">
        <ele>367.8</ele>
        <time>2011-01-29T12:21:13Z</time>
      </trkpt>
      <trkpt lat="45.07339" lon="5.64772">
        <ele>367.8</ele>
        <time>2011-01-29T12:21:15Z</time>
      </trkpt>
      <trkpt lat="45.07339" lon="5.64759">
        <ele>367.8</ele>
        <time>2011-01-29T12:21:19Z</time>
      </trkpt>
      <trkpt lat="45.07339" lon="5.64744">
        <ele>368.2</ele>
        <time>2011-01-29T12:21:23Z</time>
      </trkpt>
      <trkpt lat="45.07339" lon="5.64741">
        <ele>368.2</ele>
        <time>2011-01-29T12:21:24Z</time>
      </trkpt>
      <trkpt lat="45.07341" lon="5.64724">
        <ele>368.2</ele>
        <time>2011-01-29T12:21:29Z</time>
      </trkpt>
      <trkpt lat="45.07341" lon="5.64717">
        <ele>368.4</ele>
        <time>2011-01-29T12:21:31Z</time>
      </trkpt>
      <trkpt lat="45.07339" lon="5.64701">
        <ele>368.6</ele>
        <time>2011-01-29T12:21:36Z</time>
      </trkpt>
      <trkpt lat="45.07337" lon="5.64692">
        <ele>368.6</ele>
        <time>2011-01-29T12:21:39Z</time>
      </trkpt>
      <trkpt lat="45.07335" lon="5.64684">
        <ele>368.4</ele>
        <time>2011-01-29T12:21:42Z</time>
      </trkpt>
      <trkpt lat="45.0733" lon="5.64668">
        <ele>368.4</ele>
        <time>2011-01-29T12:21:48Z</time>
      </trkpt>
      <trkpt lat="45.07327" lon="5.64663">
        <ele>368.4</ele>
        <time>2011-01-29T12:21:50Z</time>
      </trkpt>
      <trkpt lat="45.07323" lon="5.64647">
        <ele>368.2</ele>
        <time>2011-01-29T12:21:56Z</time>
      </trkpt>
      <trkpt lat="45.07323" lon="5.64645">
        <ele>368.2</ele>
        <time>2011-01-29T12:21:57Z</time>
      </trkpt>
      <trkpt lat="45.07323" lon="5.64645">
        <ele>368.2</ele>
        <time>2011-01-29T12:21:57Z</time>
      </trkpt>
      <trkpt lat="45.07318" lon="5.64629">
        <ele>367.8</ele>
        <time>2011-01-29T12:22:03Z</time>
      </trkpt>
      <trkpt lat="45.07315" lon="5.64619">
        <ele>367.8</ele>
        <time>2011-01-29T12:22:07Z</time>
      </trkpt>
      <trkpt lat="45.07312" lon="5.64607">
        <ele>367.8</ele>
        <time>2011-01-29T12:22:11Z</time>
      </trkpt>
      <trkpt lat="45.07308" lon="5.64593">
        <ele>368</ele>
        <time>2011-01-29T12:22:16Z</time>
      </trkpt>
      <trkpt lat="45.07307" lon="5.6459">
        <ele>368</ele>
        <time>2011-01-29T12:22:17Z</time>
      </trkpt>
      <trkpt lat="45.07303" lon="5.64572">
        <ele>368.4</ele>
        <time>2011-01-29T12:22:23Z</time>
      </trkpt>
      <trkpt lat="45.07302" lon="5.64569">
        <ele>368.6</ele>
        <time>2011-01-29T12:22:24Z</time>
      </trkpt>
      <trkpt lat="45.07296" lon="5.64548">
        <ele>369.2</ele>
        <time>2011-01-29T12:22:31Z</time>
      </trkpt>
      <trkpt lat="45.07295" lon="5.64545">
        <ele>369.4</ele>
        <time>2011-01-29T12:22:32Z</time>
      </trkpt>
      <trkpt lat="45.07289" lon="5.64527">
        <ele>370.4</ele>
        <time>2011-01-29T12:22:38Z</time>
      </trkpt>
      <trkpt lat="45.07287" lon="5.64522">
        <ele>370.6</ele>
        <time>2011-01-29T12:22:40Z</time>
      </trkpt>
      <trkpt lat="45.07285" lon="5.6451">
        <ele>371.2</ele>
        <time>2011-01-29T12:22:44Z</time>
      </trkpt>
      <trkpt lat="45.07281" lon="5.64498">
        <ele>371.8</ele>
        <time>2011-01-29T12:22:49Z</time>
      </trkpt>
      <trkpt lat="45.0728" lon="5.64494">
        <ele>372.2</ele>
        <time>2011-01-29T12:22:50Z</time>
      </trkpt>
      <trkpt lat="45.07275" lon="5.64474">
        <ele>373.4</ele>
        <time>2011-01-29T12:22:57Z</time>
      </trkpt>
      <trkpt lat="45.07274" lon="5.64471">
        <ele>373.6</ele>
        <time>2011-01-29T12:22:58Z</time>
      </trkpt>
      <trkpt lat="45.0727" lon="5.64457">
        <ele>374.4</ele>
        <time>2011-01-29T12:23:03Z</time>
      </trkpt>
      <trkpt lat="45.07269" lon="5.64445">
        <ele>375.2</ele>
        <time>2011-01-29T12:23:07Z</time>
      </trkpt>
      <trkpt lat="45.07268" lon="5.64442">
        <ele>375.4</ele>
        <time>2011-01-29T12:23:09Z</time>
      </trkpt>
      <trkpt lat="45.07265" lon="5.64429">
        <ele>376.2</ele>
        <time>2011-01-29T12:23:13Z</time>
      </trkpt>
      <trkpt lat="45.07261" lon="5.64419">
        <ele>377.2</ele>
        <time>2011-01-29T12:23:17Z</time>
      </trkpt>
      <trkpt lat="45.07261" lon="5.64411">
        <ele>378</ele>
        <time>2011-01-29T12:23:20Z</time>
      </trkpt>
      <trkpt lat="45.07258" lon="5.64405">
        <ele>378.6</ele>
        <time>2011-01-29T12:23:23Z</time>
      </trkpt>
      <trkpt lat="45.07257" lon="5.64403">
        <ele>379</ele>
        <time>2011-01-29T12:23:24Z</time>
      </trkpt>
      <trkpt lat="45.07254" lon="5.64394">
        <ele>379.8</ele>
        <time>2011-01-29T12:23:27Z</time>
      </trkpt>
      <trkpt lat="45.07252" lon="5.64387">
        <ele>380.4</ele>
        <time>2011-01-29T12:23:29Z</time>
      </trkpt>
      <trkpt lat="45.07247" lon="5.64374">
        <ele>380.8</ele>
        <time>2011-01-29T12:23:34Z</time>
      </trkpt>
      <trkpt lat="45.07245" lon="5.64369">
        <ele>381</ele>
        <time>2011-01-29T12:23:36Z</time>
      </trkpt>
      <trkpt lat="45.07241" lon="5.6436">
        <ele>381.6</ele>
        <time>2011-01-29T12:23:40Z</time>
      </trkpt>
      <trkpt lat="45.07235" lon="5.64347">
        <ele>382</ele>
        <time>2011-01-29T12:23:45Z</time>
      </trkpt>
      <trkpt lat="45.07233" lon="5.64345">
        <ele>382.2</ele>
        <time>2011-01-29T12:23:46Z</time>
      </trkpt>
      <trkpt lat="45.07227" lon="5.64336">
        <ele>382.2</ele>
        <time>2011-01-29T12:23:51Z</time>
      </trkpt>
      <trkpt lat="45.07223" lon="5.6433">
        <ele>382.2</ele>
        <time>2011-01-29T12:23:54Z</time>
      </trkpt>
      <trkpt lat="45.07222" lon="5.64328">
        <ele>382.2</ele>
        <time>2011-01-29T12:23:55Z</time>
      </trkpt>
      <trkpt lat="45.07214" lon="5.64319">
        <ele>382.2</ele>
        <time>2011-01-29T12:24:00Z</time>
      </trkpt>
      <trkpt lat="45.07209" lon="5.64309">
        <ele>382.6</ele>
        <time>2011-01-29T12:24:04Z</time>
      </trkpt>
      <trkpt lat="45.07207" lon="5.64307">
        <ele>382.6</ele>
        <time>2011-01-29T12:24:05Z</time>
      </trkpt>
      <trkpt lat="45.07199" lon="5.64296">
        <ele>383.4</ele>
        <time>2011-01-29T12:24:10Z</time>
      </trkpt>
      <trkpt lat="45.07195" lon="5.64292">
        <ele>383.4</ele>
        <time>2011-01-29T12:24:13Z</time>
      </trkpt>
      <trkpt lat="45.0719" lon="5.64286">
        <ele>383.8</ele>
        <time>2011-01-29T12:24:16Z</time>
      </trkpt>
      <trkpt lat="45.07181" lon="5.64277">
        <ele>384.6</ele>
        <time>2011-01-29T12:24:21Z</time>
      </trkpt>
      <trkpt lat="45.07179" lon="5.64276">
        <ele>384.6</ele>
        <time>2011-01-29T12:24:22Z</time>
      </trkpt>
      <trkpt lat="45.07174" lon="5.64273">
        <ele>385.2</ele>
        <time>2011-01-29T12:24:25Z</time>
      </trkpt>
      <trkpt lat="45.0717" lon="5.6427">
        <ele>386.2</ele>
        <time>2011-01-29T12:24:27Z</time>
      </trkpt>
      <trkpt lat="45.07165" lon="5.64263">
        <ele>387.6</ele>
        <time>2011-01-29T12:24:31Z</time>
      </trkpt>
      <trkpt lat="45.07162" lon="5.64256">
        <ele>388.6</ele>
        <time>2011-01-29T12:24:35Z</time>
      </trkpt>
      <trkpt lat="45.07161" lon="5.64251">
        <ele>389.6</ele>
        <time>2011-01-29T12:24:41Z</time>
      </trkpt>
      <trkpt lat="45.07162" lon="5.64249">
        <ele>389.6</ele>
        <time>2011-01-29T12:24:49Z</time>
      </trkpt>
      <trkpt lat="45.07159" lon="5.64254">
        <ele>390.4</ele>
        <time>2011-01-29T12:25:03Z</time>
      </trkpt>
      <trkpt lat="45.07158" lon="5.64253">
        <ele>390.2</ele>
        <time>2011-01-29T12:25:05Z</time>
      </trkpt>
      <trkpt lat="45.07154" lon="5.64253">
        <ele>390.8</ele>
        <time>2011-01-29T12:25:07Z</time>
      </trkpt>
      <trkpt lat="45.07155" lon="5.64243">
        <ele>390.6</ele>
        <time>2011-01-29T12:25:11Z</time>
      </trkpt>
      <trkpt lat="45.07156" lon="5.64239">
        <ele>390.6</ele>
        <time>2011-01-29T12:25:13Z</time>
      </trkpt>
      <trkpt lat="45.07158" lon="5.64235">
        <ele>390.6</ele>
        <time>2011-01-29T12:25:15Z</time>
      </trkpt>
      <trkpt lat="45.0716" lon="5.64227">
        <ele>390.6</ele>
        <time>2011-01-29T12:25:19Z</time>
      </trkpt>
      <trkpt lat="45.07163" lon="5.64209">
        <ele>390.8</ele>
        <time>2011-01-29T12:25:26Z</time>
      </trkpt>
      <trkpt lat="45.07169" lon="5.64193">
        <ele>390.8</ele>
        <time>2011-01-29T12:25:32Z</time>
      </trkpt>
      <trkpt lat="45.07169" lon="5.64184">
        <ele>390.8</ele>
        <time>2011-01-29T12:25:35Z</time>
      </trkpt>
      <trkpt lat="45.07169" lon="5.64175">
        <ele>391.2</ele>
        <time>2011-01-29T12:25:38Z</time>
      </trkpt>
      <trkpt lat="45.07167" lon="5.64159">
        <ele>391.6</ele>
        <time>2011-01-29T12:25:43Z</time>
      </trkpt>
      <trkpt lat="45.07166" lon="5.64152">
        <ele>392</ele>
        <time>2011-01-29T12:25:45Z</time>
      </trkpt>
      <trkpt lat="45.07163" lon="5.64134">
        <ele>393</ele>
        <time>2011-01-29T12:25:52Z</time>
      </trkpt>
      <trkpt lat="45.07162" lon="5.64131">
        <ele>393</ele>
        <time>2011-01-29T12:25:53Z</time>
      </trkpt>
      <trkpt lat="45.07159" lon="5.64114">
        <ele>394.4</ele>
        <time>2011-01-29T12:25:59Z</time>
      </trkpt>
      <trkpt lat="45.07157" lon="5.64105">
        <ele>395.2</ele>
        <time>2011-01-29T12:26:02Z</time>
      </trkpt>
      <trkpt lat="45.07157" lon="5.64098">
        <ele>395.8</ele>
        <time>2011-01-29T12:26:04Z</time>
      </trkpt>
      <trkpt lat="45.0716" lon="5.64085">
        <ele>397</ele>
        <time>2011-01-29T12:26:09Z</time>
      </trkpt>
      <trkpt lat="45.07161" lon="5.64078">
        <ele>397.4</ele>
        <time>2011-01-29T12:26:11Z</time>
      </trkpt>
      <trkpt lat="45.07163" lon="5.64068">
        <ele>398</ele>
        <time>2011-01-29T12:26:14Z</time>
      </trkpt>
      <trkpt lat="45.07166" lon="5.64054">
        <ele>399.2</ele>
        <time>2011-01-29T12:26:20Z</time>
      </trkpt>
      <trkpt lat="45.07166" lon="5.64052">
        <ele>399.4</ele>
        <time>2011-01-29T12:26:21Z</time>
      </trkpt>
      <trkpt lat="45.07165" lon="5.64038">
        <ele>400.2</ele>
        <time>2011-01-29T12:26:26Z</time>
      </trkpt>
      <trkpt lat="45.0716" lon="5.64029">
        <ele>401.4</ele>
        <time>2011-01-29T12:26:31Z</time>
      </trkpt>
      <trkpt lat="45.07152" lon="5.64017">
        <ele>403.4</ele>
        <time>2011-01-29T12:26:37Z</time>
      </trkpt>
      <trkpt lat="45.07152" lon="5.64015">
        <ele>403.8</ele>
        <time>2011-01-29T12:26:38Z</time>
      </trkpt>
      <trkpt lat="45.07149" lon="5.64009">
        <ele>404.4</ele>
        <time>2011-01-29T12:26:41Z</time>
      </trkpt>
      <trkpt lat="45.07147" lon="5.64005">
        <ele>404.8</ele>
        <time>2011-01-29T12:26:43Z</time>
      </trkpt>
      <trkpt lat="45.07144" lon="5.63998">
        <ele>405.4</ele>
        <time>2011-01-29T12:26:48Z</time>
      </trkpt>
      <trkpt lat="45.07144" lon="5.63996">
        <ele>405.6</ele>
        <time>2011-01-29T12:26:49Z</time>
      </trkpt>
      <trkpt lat="45.07141" lon="5.63986">
        <ele>405.6</ele>
        <time>2011-01-29T12:26:54Z</time>
      </trkpt>
      <trkpt lat="45.07141" lon="5.63984">
        <ele>405.4</ele>
        <time>2011-01-29T12:26:55Z</time>
      </trkpt>
      <trkpt lat="45.07139" lon="5.6397">
        <ele>405.6</ele>
        <time>2011-01-29T12:27:02Z</time>
      </trkpt>
      <trkpt lat="45.07138" lon="5.63959">
        <ele>405.6</ele>
        <time>2011-01-29T12:27:07Z</time>
      </trkpt>
      <trkpt lat="45.07138" lon="5.63953">
        <ele>405.8</ele>
        <time>2011-01-29T12:27:10Z</time>
      </trkpt>
      <trkpt lat="45.07137" lon="5.63938">
        <ele>406</ele>
        <time>2011-01-29T12:27:17Z</time>
      </trkpt>
      <trkpt lat="45.07137" lon="5.63934">
        <ele>406.2</ele>
        <time>2011-01-29T12:27:19Z</time>
      </trkpt>
      <trkpt lat="45.07135" lon="5.63922">
        <ele>406.4</ele>
        <time>2011-01-29T12:27:24Z</time>
      </trkpt>
      <trkpt lat="45.07132" lon="5.63908">
        <ele>407.2</ele>
        <time>2011-01-29T12:27:31Z</time>
      </trkpt>
      <trkpt lat="45.07131" lon="5.63905">
        <ele>407.2</ele>
        <time>2011-01-29T12:27:32Z</time>
      </trkpt>
      <trkpt lat="45.07126" lon="5.63895">
        <ele>407.8</ele>
        <time>2011-01-29T12:27:38Z</time>
      </trkpt>
      <trkpt lat="45.07121" lon="5.63887">
        <ele>408.4</ele>
        <time>2011-01-29T12:27:42Z</time>
      </trkpt>
      <trkpt lat="45.07115" lon="5.63881">
        <ele>409.4</ele>
        <time>2011-01-29T12:27:45Z</time>
      </trkpt>
      <trkpt lat="45.07105" lon="5.63871">
        <ele>411.2</ele>
        <time>2011-01-29T12:27:50Z</time>
      </trkpt>
      <trkpt lat="45.07095" lon="5.63856">
        <ele>413.4</ele>
        <time>2011-01-29T12:27:56Z</time>
      </trkpt>
      <trkpt lat="45.0709" lon="5.63852">
        <ele>414</ele>
        <time>2011-01-29T12:27:58Z</time>
      </trkpt>
      <trkpt lat="45.07084" lon="5.63847">
        <ele>415</ele>
        <time>2011-01-29T12:28:01Z</time>
      </trkpt>
      <trkpt lat="45.07072" lon="5.63843">
        <ele>416.6</ele>
        <time>2011-01-29T12:28:06Z</time>
      </trkpt>
      <trkpt lat="45.07067" lon="5.63843">
        <ele>417</ele>
        <time>2011-01-29T12:28:08Z</time>
      </trkpt>
      <trkpt lat="45.07056" lon="5.63837">
        <ele>417.4</ele>
        <time>2011-01-29T12:28:14Z</time>
      </trkpt>
      <trkpt lat="45.07054" lon="5.63835">
        <ele>417.6</ele>
        <time>2011-01-29T12:28:15Z</time>
      </trkpt>
      <trkpt lat="45.07043" lon="5.63827">
        <ele>418</ele>
        <time>2011-01-29T12:28:20Z</time>
      </trkpt>
      <trkpt lat="45.07037" lon="5.63819">
        <ele>418.6</ele>
        <time>2011-01-29T12:28:23Z</time>
      </trkpt>
      <trkpt lat="45.07032" lon="5.63811">
        <ele>418.4</ele>
        <time>2011-01-29T12:28:27Z</time>
      </trkpt>
      <trkpt lat="45.07024" lon="5.63801">
        <ele>418.6</ele>
        <time>2011-01-29T12:28:31Z</time>
      </trkpt>
      <trkpt lat="45.07023" lon="5.63799">
        <ele>418.6</ele>
        <time>2011-01-29T12:28:32Z</time>
      </trkpt>
      <trkpt lat="45.07014" lon="5.63788">
        <ele>419</ele>
        <time>2011-01-29T12:28:37Z</time>
      </trkpt>
      <trkpt lat="45.0701" lon="5.63783">
        <ele>419.2</ele>
        <time>2011-01-29T12:28:39Z</time>
      </trkpt>
      <trkpt lat="45.07004" lon="5.63775">
        <ele>419.2</ele>
        <time>2011-01-29T12:28:43Z</time>
      </trkpt>
      <trkpt lat="45.06997" lon="5.63766">
        <ele>419.4</ele>
        <time>2011-01-29T12:28:47Z</time>
      </trkpt>
      <trkpt lat="45.06994" lon="5.63761">
        <ele>419.4</ele>
        <time>2011-01-29T12:28:49Z</time>
      </trkpt>
      <trkpt lat="45.06984" lon="5.63749">
        <ele>419.4</ele>
        <time>2011-01-29T12:28:55Z</time>
      </trkpt>
      <trkpt lat="45.06983" lon="5.63747">
        <ele>419.4</ele>
        <time>2011-01-29T12:28:56Z</time>
      </trkpt>
      <trkpt lat="45.06974" lon="5.63737">
        <ele>419.4</ele>
        <time>2011-01-29T12:29:01Z</time>
      </trkpt>
      <trkpt lat="45.06968" lon="5.6373">
        <ele>420</ele>
        <time>2011-01-29T12:29:04Z</time>
      </trkpt>
      <trkpt lat="45.06964" lon="5.63726">
        <ele>420</ele>
        <time>2011-01-29T12:29:06Z</time>
      </trkpt>
      <trkpt lat="45.06953" lon="5.63716">
        <ele>421.2</ele>
        <time>2011-01-29T12:29:11Z</time>
      </trkpt>
      <trkpt lat="45.06951" lon="5.63713">
        <ele>421.4</ele>
        <time>2011-01-29T12:29:12Z</time>
      </trkpt>
      <trkpt lat="45.06942" lon="5.63707">
        <ele>422.6</ele>
        <time>2011-01-29T12:29:16Z</time>
      </trkpt>
      <trkpt lat="45.06934" lon="5.63701">
        <ele>423.6</ele>
        <time>2011-01-29T12:29:20Z</time>
      </trkpt>
      <trkpt lat="45.06931" lon="5.63698">
        <ele>424</ele>
        <time>2011-01-29T12:29:22Z</time>
      </trkpt>
      <trkpt lat="45.06918" lon="5.63685">
        <ele>425.4</ele>
        <time>2011-01-29T12:29:29Z</time>
      </trkpt>
      <trkpt lat="45.06908" lon="5.63672">
        <ele>426.2</ele>
        <time>2011-01-29T12:29:35Z</time>
      </trkpt>
      <trkpt lat="45.06903" lon="5.63667">
        <ele>426.6</ele>
        <time>2011-01-29T12:29:38Z</time>
      </trkpt>
      <trkpt lat="45.06902" lon="5.63664">
        <ele>426.8</ele>
        <time>2011-01-29T12:29:40Z</time>
      </trkpt>
      <trkpt lat="45.06899" lon="5.63659">
        <ele>427.2</ele>
        <time>2011-01-29T12:29:41Z</time>
      </trkpt>
      <trkpt lat="45.06891" lon="5.63649">
        <ele>427.6</ele>
        <time>2011-01-29T12:29:47Z</time>
      </trkpt>
      <trkpt lat="45.0689" lon="5.63647">
        <ele>427.6</ele>
        <time>2011-01-29T12:29:48Z</time>
      </trkpt>
      <trkpt lat="45.06881" lon="5.63639">
        <ele>428.6</ele>
        <time>2011-01-29T12:29:53Z</time>
      </trkpt>
      <trkpt lat="45.06879" lon="5.63634">
        <ele>428.8</ele>
        <time>2011-01-29T12:29:55Z</time>
      </trkpt>
      <trkpt lat="45.06875" lon="5.63631">
        <ele>429</ele>
        <time>2011-01-29T12:29:57Z</time>
      </trkpt>
      <trkpt lat="45.06863" lon="5.6362">
        <ele>429.8</ele>
        <time>2011-01-29T12:30:04Z</time>
      </trkpt>
      <trkpt lat="45.06858" lon="5.63616">
        <ele>429.8</ele>
        <time>2011-01-29T12:30:07Z</time>
      </trkpt>
      <trkpt lat="45.06851" lon="5.63613">
        <ele>430.4</ele>
        <time>2011-01-29T12:30:10Z</time>
      </trkpt>
      <trkpt lat="45.06843" lon="5.63606">
        <ele>430.6</ele>
        <time>2011-01-29T12:30:15Z</time>
      </trkpt>
      <trkpt lat="45.0684" lon="5.63604">
        <ele>430.8</ele>
        <time>2011-01-29T12:30:16Z</time>
      </trkpt>
      <trkpt lat="45.06833" lon="5.63598">
        <ele>431</ele>
        <time>2011-01-29T12:30:20Z</time>
      </trkpt>
      <trkpt lat="45.06825" lon="5.63588">
        <ele>431.4</ele>
        <time>2011-01-29T12:30:25Z</time>
      </trkpt>
      <trkpt lat="45.06824" lon="5.63586">
        <ele>431.6</ele>
        <time>2011-01-29T12:30:26Z</time>
      </trkpt>
      <trkpt lat="45.06817" lon="5.63579">
        <ele>431.8</ele>
        <time>2011-01-29T12:30:30Z</time>
      </trkpt>
      <trkpt lat="45.06816" lon="5.63578">
        <ele>432</ele>
        <time>2011-01-29T12:30:31Z</time>
      </trkpt>
      <trkpt lat="45.0681" lon="5.63572">
        <ele>432.4</ele>
        <time>2011-01-29T12:30:34Z</time>
      </trkpt>
      <trkpt lat="45.06805" lon="5.63566">
        <ele>432.8</ele>
        <time>2011-01-29T12:30:37Z</time>
      </trkpt>
      <trkpt lat="45.06795" lon="5.63556">
        <ele>434.4</ele>
        <time>2011-01-29T12:30:42Z</time>
      </trkpt>
      <trkpt lat="45.06793" lon="5.63555">
        <ele>434.8</ele>
        <time>2011-01-29T12:30:43Z</time>
      </trkpt>
      <trkpt lat="45.06782" lon="5.63542">
        <ele>436.8</ele>
        <time>2011-01-29T12:30:49Z</time>
      </trkpt>
      <trkpt lat="45.0678" lon="5.6354">
        <ele>437.2</ele>
        <time>2011-01-29T12:30:50Z</time>
      </trkpt>
      <trkpt lat="45.06774" lon="5.63533">
        <ele>437.8</ele>
        <time>2011-01-29T12:30:54Z</time>
      </trkpt>
      <trkpt lat="45.06765" lon="5.63525">
        <ele>439</ele>
        <time>2011-01-29T12:30:58Z</time>
      </trkpt>
      <trkpt lat="45.06757" lon="5.63518">
        <ele>439.6</ele>
        <time>2011-01-29T12:31:02Z</time>
      </trkpt>
      <trkpt lat="45.06748" lon="5.63511">
        <ele>440.8</ele>
        <time>2011-01-29T12:31:06Z</time>
      </trkpt>
      <trkpt lat="45.06742" lon="5.63505">
        <ele>441.4</ele>
        <time>2011-01-29T12:31:09Z</time>
      </trkpt>
      <trkpt lat="45.06733" lon="5.63495">
        <ele>442.6</ele>
        <time>2011-01-29T12:31:14Z</time>
      </trkpt>
      <trkpt lat="45.06729" lon="5.63492">
        <ele>442.6</ele>
        <time>2011-01-29T12:31:16Z</time>
      </trkpt>
      <trkpt lat="45.06724" lon="5.63488">
        <ele>442.8</ele>
        <time>2011-01-29T12:31:19Z</time>
      </trkpt>
      <trkpt lat="45.0672" lon="5.63487">
        <ele>443</ele>
        <time>2011-01-29T12:31:21Z</time>
      </trkpt>
      <trkpt lat="45.06716" lon="5.63486">
        <ele>442.8</ele>
        <time>2011-01-29T12:31:23Z</time>
      </trkpt>
      <trkpt lat="45.06708" lon="5.63483">
        <ele>442.6</ele>
        <time>2011-01-29T12:31:27Z</time>
      </trkpt>
      <trkpt lat="45.06699" lon="5.63475">
        <ele>442.8</ele>
        <time>2011-01-29T12:31:31Z</time>
      </trkpt>
      <trkpt lat="45.06695" lon="5.63471">
        <ele>442.6</ele>
        <time>2011-01-29T12:31:33Z</time>
      </trkpt>
      <trkpt lat="45.06686" lon="5.63463">
        <ele>442.6</ele>
        <time>2011-01-29T12:31:38Z</time>
      </trkpt>
      <trkpt lat="45.06682" lon="5.6346">
        <ele>442.4</ele>
        <time>2011-01-29T12:31:40Z</time>
      </trkpt>
      <trkpt lat="45.06675" lon="5.63454">
        <ele>442.2</ele>
        <time>2011-01-29T12:31:44Z</time>
      </trkpt>
      <trkpt lat="45.06674" lon="5.63453">
        <ele>442.2</ele>
        <time>2011-01-29T12:31:45Z</time>
      </trkpt>
      <trkpt lat="45.06667" lon="5.63445">
        <ele>442</ele>
        <time>2011-01-29T12:31:49Z</time>
      </trkpt>
      <trkpt lat="45.06664" lon="5.63442">
        <ele>441.8</ele>
        <time>2011-01-29T12:31:51Z</time>
      </trkpt>
      <trkpt lat="45.06654" lon="5.63431">
        <ele>441.6</ele>
        <time>2011-01-29T12:31:57Z</time>
      </trkpt>
      <trkpt lat="45.06653" lon="5.63429">
        <ele>441.4</ele>
        <time>2011-01-29T12:31:58Z</time>
      </trkpt>
      <trkpt lat="45.06644" lon="5.63419">
        <ele>441.2</ele>
        <time>2011-01-29T12:32:03Z</time>
      </trkpt>
      <trkpt lat="45.06639" lon="5.63413">
        <ele>441.2</ele>
        <time>2011-01-29T12:32:06Z</time>
      </trkpt>
      <trkpt lat="45.06632" lon="5.63406">
        <ele>441</ele>
        <time>2011-01-29T12:32:10Z</time>
      </trkpt>
      <trkpt lat="45.06623" lon="5.63397">
        <ele>441</ele>
        <time>2011-01-29T12:32:14Z</time>
      </trkpt>
      <trkpt lat="45.06621" lon="5.63395">
        <ele>441</ele>
        <time>2011-01-29T12:32:15Z</time>
      </trkpt>
      <trkpt lat="45.06619" lon="5.63393">
        <ele>441.2</ele>
        <time>2011-01-29T12:32:16Z</time>
      </trkpt>
      <trkpt lat="45.06614" lon="5.63388">
        <ele>441</ele>
        <time>2011-01-29T12:32:19Z</time>
      </trkpt>
      <trkpt lat="45.06607" lon="5.6338">
        <ele>441</ele>
        <time>2011-01-29T12:32:23Z</time>
      </trkpt>
      <trkpt lat="45.06601" lon="5.63372">
        <ele>441</ele>
        <time>2011-01-29T12:32:27Z</time>
      </trkpt>
      <trkpt lat="45.06593" lon="5.63362">
        <ele>441</ele>
        <time>2011-01-29T12:32:32Z</time>
      </trkpt>
      <trkpt lat="45.06591" lon="5.63359">
        <ele>441</ele>
        <time>2011-01-29T12:32:33Z</time>
      </trkpt>
      <trkpt lat="45.06581" lon="5.63348">
        <ele>441.4</ele>
        <time>2011-01-29T12:32:39Z</time>
      </trkpt>
      <trkpt lat="45.06578" lon="5.63344">
        <ele>441.6</ele>
        <time>2011-01-29T12:32:41Z</time>
      </trkpt>
      <trkpt lat="45.06572" lon="5.63337">
        <ele>441.8</ele>
        <time>2011-01-29T12:32:45Z</time>
      </trkpt>
      <trkpt lat="45.06562" lon="5.63329">
        <ele>442.4</ele>
        <time>2011-01-29T12:32:50Z</time>
      </trkpt>
      <trkpt lat="45.06561" lon="5.63326">
        <ele>442.6</ele>
        <time>2011-01-29T12:32:51Z</time>
      </trkpt>
      <trkpt lat="45.06551" lon="5.63314">
        <ele>443.6</ele>
        <time>2011-01-29T12:32:57Z</time>
      </trkpt>
      <trkpt lat="45.06548" lon="5.63311">
        <ele>444</ele>
        <time>2011-01-29T12:32:59Z</time>
      </trkpt>
      <trkpt lat="45.06542" lon="5.63307">
        <ele>444.6</ele>
        <time>2011-01-29T12:33:02Z</time>
      </trkpt>
      <trkpt lat="45.06534" lon="5.63301">
        <ele>445</ele>
        <time>2011-01-29T12:33:07Z</time>
      </trkpt>
      <trkpt lat="45.06531" lon="5.633">
        <ele>445.2</ele>
        <time>2011-01-29T12:33:09Z</time>
      </trkpt>
      <trkpt lat="45.06525" lon="5.63297">
        <ele>445.2</ele>
        <time>2011-01-29T12:33:12Z</time>
      </trkpt>
      <trkpt lat="45.06514" lon="5.63286">
        <ele>446.2</ele>
        <time>2011-01-29T12:33:18Z</time>
      </trkpt>
      <trkpt lat="45.06501" lon="5.6328">
        <ele>447.2</ele>
        <time>2011-01-29T12:33:24Z</time>
      </trkpt>
      <trkpt lat="45.06497" lon="5.63276">
        <ele>447.4</ele>
        <time>2011-01-29T12:33:26Z</time>
      </trkpt>
      <trkpt lat="45.06492" lon="5.63272">
        <ele>447.8</ele>
        <time>2011-01-29T12:33:29Z</time>
      </trkpt>
      <trkpt lat="45.06481" lon="5.63262">
        <ele>449.4</ele>
        <time>2011-01-29T12:33:35Z</time>
      </trkpt>
      <trkpt lat="45.06472" lon="5.63256">
        <ele>450.6</ele>
        <time>2011-01-29T12:33:40Z</time>
      </trkpt>
      <trkpt lat="45.06465" lon="5.6325">
        <ele>451.2</ele>
        <time>2011-01-29T12:33:44Z</time>
      </trkpt>
      <trkpt lat="45.06463" lon="5.63248">
        <ele>451.6</ele>
        <time>2011-01-29T12:33:45Z</time>
      </trkpt>
      <trkpt lat="45.06454" lon="5.63241">
        <ele>452.6</ele>
        <time>2011-01-29T12:33:50Z</time>
      </trkpt>
      <trkpt lat="45.06448" lon="5.63236">
        <ele>453.4</ele>
        <time>2011-01-29T12:33:53Z</time>
      </trkpt>
      <trkpt lat="45.06444" lon="5.63233">
        <ele>453.8</ele>
        <time>2011-01-29T12:33:55Z</time>
      </trkpt>
      <trkpt lat="45.06437" lon="5.63227">
        <ele>455</ele>
        <time>2011-01-29T12:33:59Z</time>
      </trkpt>
      <trkpt lat="45.06432" lon="5.63222">
        <ele>455.6</ele>
        <time>2011-01-29T12:34:02Z</time>
      </trkpt>
      <trkpt lat="45.06428" lon="5.63219">
        <ele>456.4</ele>
        <time>2011-01-29T12:34:04Z</time>
      </trkpt>
      <trkpt lat="45.06418" lon="5.63208">
        <ele>457.8</ele>
        <time>2011-01-29T12:34:10Z</time>
      </trkpt>
      <trkpt lat="45.06416" lon="5.63206">
        <ele>458.2</ele>
        <time>2011-01-29T12:34:11Z</time>
      </trkpt>
      <trkpt lat="45.06407" lon="5.632">
        <ele>459.2</ele>
        <time>2011-01-29T12:34:16Z</time>
      </trkpt>
      <trkpt lat="45.06403" lon="5.63198">
        <ele>459.8</ele>
        <time>2011-01-29T12:34:19Z</time>
      </trkpt>
      <trkpt lat="45.06397" lon="5.632">
        <ele>460.6</ele>
        <time>2011-01-29T12:34:22Z</time>
      </trkpt>
      <trkpt lat="45.06394" lon="5.632">
        <ele>461.2</ele>
        <time>2011-01-29T12:34:24Z</time>
      </trkpt>
      <trkpt lat="45.06381" lon="5.63192">
        <ele>462.4</ele>
        <time>2011-01-29T12:34:34Z</time>
      </trkpt>
      <trkpt lat="45.0638" lon="5.63192">
        <ele>462.4</ele>
        <time>2011-01-29T12:34:35Z</time>
      </trkpt>
      <trkpt lat="45.06376" lon="5.63189">
        <ele>462.6</ele>
        <time>2011-01-29T12:34:38Z</time>
      </trkpt>
      <trkpt lat="45.06372" lon="5.63186">
        <ele>462.8</ele>
        <time>2011-01-29T12:34:41Z</time>
      </trkpt>
      <trkpt lat="45.06364" lon="5.63183">
        <ele>463</ele>
        <time>2011-01-29T12:34:47Z</time>
      </trkpt>
      <trkpt lat="45.06362" lon="5.63183">
        <ele>463</ele>
        <time>2011-01-29T12:34:48Z</time>
      </trkpt>
      <trkpt lat="45.06353" lon="5.63178">
        <ele>462.8</ele>
        <time>2011-01-29T12:34:55Z</time>
      </trkpt>
      <trkpt lat="45.06344" lon="5.63173">
        <ele>462.6</ele>
        <time>2011-01-29T12:35:02Z</time>
      </trkpt>
      <trkpt lat="45.06343" lon="5.63172">
        <ele>462.4</ele>
        <time>2011-01-29T12:35:03Z</time>
      </trkpt>
      <trkpt lat="45.06333" lon="5.6317">
        <ele>461.8</ele>
        <time>2011-01-29T12:35:10Z</time>
      </trkpt>
      <trkpt lat="45.06327" lon="5.63167">
        <ele>461.8</ele>
        <time>2011-01-29T12:35:14Z</time>
      </trkpt>
      <trkpt lat="45.06326" lon="5.63166">
        <ele>461.8</ele>
        <time>2011-01-29T12:35:15Z</time>
      </trkpt>
      <trkpt lat="45.06323" lon="5.63165">
        <ele>461.6</ele>
        <time>2011-01-29T12:35:17Z</time>
      </trkpt>
      <trkpt lat="45.06312" lon="5.63164">
        <ele>461.4</ele>
        <time>2011-01-29T12:35:24Z</time>
      </trkpt>
      <trkpt lat="45.06308" lon="5.63165">
        <ele>461.2</ele>
        <time>2011-01-29T12:35:27Z</time>
      </trkpt>
      <trkpt lat="45.06298" lon="5.63163">
        <ele>461.2</ele>
        <time>2011-01-29T12:35:32Z</time>
      </trkpt>
      <trkpt lat="45.06288" lon="5.63165">
        <ele>461.6</ele>
        <time>2011-01-29T12:35:37Z</time>
      </trkpt>
      <trkpt lat="45.06287" lon="5.63165">
        <ele>461.4</ele>
        <time>2011-01-29T12:35:38Z</time>
      </trkpt>
      <trkpt lat="45.06276" lon="5.63162">
        <ele>462.4</ele>
        <time>2011-01-29T12:35:45Z</time>
      </trkpt>
      <trkpt lat="45.06271" lon="5.63161">
        <ele>463</ele>
        <time>2011-01-29T12:35:48Z</time>
      </trkpt>
      <trkpt lat="45.06267" lon="5.63159">
        <ele>463.6</ele>
        <time>2011-01-29T12:35:50Z</time>
      </trkpt>
      <trkpt lat="45.06256" lon="5.63153">
        <ele>465.2</ele>
        <time>2011-01-29T12:35:55Z</time>
      </trkpt>
      <trkpt lat="45.06254" lon="5.63152">
        <ele>465.4</ele>
        <time>2011-01-29T12:35:56Z</time>
      </trkpt>
      <trkpt lat="45.06243" lon="5.63147">
        <ele>466.8</ele>
        <time>2011-01-29T12:36:01Z</time>
      </trkpt>
      <trkpt lat="45.06236" lon="5.63143">
        <ele>467.8</ele>
        <time>2011-01-29T12:36:04Z</time>
      </trkpt>
      <trkpt lat="45.06231" lon="5.6314">
        <ele>468.8</ele>
        <time>2011-01-29T12:36:06Z</time>
      </trkpt>
      <trkpt lat="45.06218" lon="5.63134">
        <ele>470.2</ele>
        <time>2011-01-29T12:36:13Z</time>
      </trkpt>
      <trkpt lat="45.06206" lon="5.63124">
        <ele>471.6</ele>
        <time>2011-01-29T12:36:19Z</time>
      </trkpt>
      <trkpt lat="45.06201" lon="5.63121">
        <ele>472.2</ele>
        <time>2011-01-29T12:36:21Z</time>
      </trkpt>
      <trkpt lat="45.06197" lon="5.63116">
        <ele>472.6</ele>
        <time>2011-01-29T12:36:24Z</time>
      </trkpt>
      <trkpt lat="45.06186" lon="5.63106">
        <ele>474</ele>
        <time>2011-01-29T12:36:30Z</time>
      </trkpt>
      <trkpt lat="45.06179" lon="5.63096">
        <ele>475.4</ele>
        <time>2011-01-29T12:36:38Z</time>
      </trkpt>
      <trkpt lat="45.06173" lon="5.63091">
        <ele>476.2</ele>
        <time>2011-01-29T12:36:43Z</time>
      </trkpt>
      <trkpt lat="45.06171" lon="5.6309">
        <ele>476.4</ele>
        <time>2011-01-29T12:36:44Z</time>
      </trkpt>
      <trkpt lat="45.06165" lon="5.63082">
        <ele>477.2</ele>
        <time>2011-01-29T12:36:51Z</time>
      </trkpt>
      <trkpt lat="45.06157" lon="5.63075">
        <ele>478.2</ele>
        <time>2011-01-29T12:36:57Z</time>
      </trkpt>
      <trkpt lat="45.06156" lon="5.63073">
        <ele>478.4</ele>
        <time>2011-01-29T12:36:58Z</time>
      </trkpt>
      <trkpt lat="45.06149" lon="5.63065">
        <ele>479</ele>
        <time>2011-01-29T12:37:05Z</time>
      </trkpt>
      <trkpt lat="45.06141" lon="5.6306">
        <ele>480.4</ele>
        <time>2011-01-29T12:37:11Z</time>
      </trkpt>
      <trkpt lat="45.06139" lon="5.63058">
        <ele>481</ele>
        <time>2011-01-29T12:37:12Z</time>
      </trkpt>
      <trkpt lat="45.06136" lon="5.63055">
        <ele>481.6</ele>
        <time>2011-01-29T12:37:16Z</time>
      </trkpt>
      <trkpt lat="45.06133" lon="5.6305">
        <ele>482.6</ele>
        <time>2011-01-29T12:37:19Z</time>
      </trkpt>
      <trkpt lat="45.06126" lon="5.63044">
        <ele>484.2</ele>
        <time>2011-01-29T12:37:27Z</time>
      </trkpt>
      <trkpt lat="45.06125" lon="5.63043">
        <ele>484.6</ele>
        <time>2011-01-29T12:37:29Z</time>
      </trkpt>
      <trkpt lat="45.06119" lon="5.63039">
        <ele>485.2</ele>
        <time>2011-01-29T12:37:33Z</time>
      </trkpt>
      <trkpt lat="45.06108" lon="5.63031">
        <ele>485.8</ele>
        <time>2011-01-29T12:37:42Z</time>
      </trkpt>
      <trkpt lat="45.06106" lon="5.6303">
        <ele>485.8</ele>
        <time>2011-01-29T12:37:44Z</time>
      </trkpt>
      <trkpt lat="45.06094" lon="5.63024">
        <ele>485.6</ele>
        <time>2011-01-29T12:37:54Z</time>
      </trkpt>
      <trkpt lat="45.0609" lon="5.63023">
        <ele>485.8</ele>
        <time>2011-01-29T12:37:56Z</time>
      </trkpt>
      <trkpt lat="45.06084" lon="5.6302">
        <ele>485.8</ele>
        <time>2011-01-29T12:38:02Z</time>
      </trkpt>
      <trkpt lat="45.06073" lon="5.63016">
        <ele>485.6</ele>
        <time>2011-01-29T12:38:11Z</time>
      </trkpt>
      <trkpt lat="45.06072" lon="5.63015">
        <ele>485.6</ele>
        <time>2011-01-29T12:38:12Z</time>
      </trkpt>
      <trkpt lat="45.06068" lon="5.63013">
        <ele>485.6</ele>
        <time>2011-01-29T12:38:14Z</time>
      </trkpt>
      <trkpt lat="45.06064" lon="5.6301">
        <ele>485.8</ele>
        <time>2011-01-29T12:38:18Z</time>
      </trkpt>
      <trkpt lat="45.06059" lon="5.63008">
        <ele>486.4</ele>
        <time>2011-01-29T12:38:21Z</time>
      </trkpt>
      <trkpt lat="45.06055" lon="5.63004">
        <ele>486.6</ele>
        <time>2011-01-29T12:38:24Z</time>
      </trkpt>
      <trkpt lat="45.06051" lon="5.63">
        <ele>487.4</ele>
        <time>2011-01-29T12:38:27Z</time>
      </trkpt>
      <trkpt lat="45.0604" lon="5.62993">
        <ele>489.8</ele>
        <time>2011-01-29T12:38:35Z</time>
      </trkpt>
      <trkpt lat="45.06039" lon="5.62991">
        <ele>490</ele>
        <time>2011-01-29T12:38:36Z</time>
      </trkpt>
      <trkpt lat="45.06033" lon="5.62984">
        <ele>491.4</ele>
        <time>2011-01-29T12:38:42Z</time>
      </trkpt>
      <trkpt lat="45.06025" lon="5.62976">
        <ele>492.4</ele>
        <time>2011-01-29T12:38:50Z</time>
      </trkpt>
      <trkpt lat="45.06021" lon="5.62972">
        <ele>493</ele>
        <time>2011-01-29T12:38:53Z</time>
      </trkpt>
      <trkpt lat="45.06018" lon="5.6297">
        <ele>493</ele>
        <time>2011-01-29T12:38:56Z</time>
      </trkpt>
      <trkpt lat="45.06017" lon="5.62969">
        <ele>492.8</ele>
        <time>2011-01-29T12:38:57Z</time>
      </trkpt>
      <trkpt lat="45.06013" lon="5.62966">
        <ele>493</ele>
        <time>2011-01-29T12:39:00Z</time>
      </trkpt>
      <trkpt lat="45.06008" lon="5.62964">
        <ele>493</ele>
        <time>2011-01-29T12:39:03Z</time>
      </trkpt>
      <trkpt lat="45.05999" lon="5.62959">
        <ele>493.2</ele>
        <time>2011-01-29T12:39:10Z</time>
      </trkpt>
      <trkpt lat="45.0599" lon="5.62956">
        <ele>493.2</ele>
        <time>2011-01-29T12:39:16Z</time>
      </trkpt>
      <trkpt lat="45.05979" lon="5.62952">
        <ele>493</ele>
        <time>2011-01-29T12:39:23Z</time>
      </trkpt>
      <trkpt lat="45.05975" lon="5.6295">
        <ele>493</ele>
        <time>2011-01-29T12:39:25Z</time>
      </trkpt>
      <trkpt lat="45.05973" lon="5.6295">
        <ele>493</ele>
        <time>2011-01-29T12:39:26Z</time>
      </trkpt>
      <trkpt lat="45.05971" lon="5.62949">
        <ele>493</ele>
        <time>2011-01-29T12:39:27Z</time>
      </trkpt>
      <trkpt lat="45.0597" lon="5.62948">
        <ele>494.4</ele>
        <time>2011-01-29T12:39:32Z</time>
      </trkpt>
      <trkpt lat="45.05963" lon="5.6294">
        <ele>500.4</ele>
        <time>2011-01-29T12:39:50Z</time>
      </trkpt>
      <trkpt lat="45.05958" lon="5.62938">
        <ele>500.2</ele>
        <time>2011-01-29T12:39:55Z</time>
      </trkpt>
      <trkpt lat="45.05957" lon="5.62937">
        <ele>500.2</ele>
        <time>2011-01-29T12:39:56Z</time>
      </trkpt>
      <trkpt lat="45.05951" lon="5.6293">
        <ele>500.2</ele>
        <time>2011-01-29T12:40:00Z</time>
      </trkpt>
      <trkpt lat="45.05943" lon="5.62922">
        <ele>500</ele>
        <time>2011-01-29T12:40:05Z</time>
      </trkpt>
      <trkpt lat="45.05942" lon="5.6292">
        <ele>500</ele>
        <time>2011-01-29T12:40:06Z</time>
      </trkpt>
      <trkpt lat="45.05935" lon="5.62912">
        <ele>500</ele>
        <time>2011-01-29T12:40:10Z</time>
      </trkpt>
      <trkpt lat="45.05928" lon="5.62902">
        <ele>500.2</ele>
        <time>2011-01-29T12:40:15Z</time>
      </trkpt>
      <trkpt lat="45.05927" lon="5.629">
        <ele>500.2</ele>
        <time>2011-01-29T12:40:16Z</time>
      </trkpt>
      <trkpt lat="45.05919" lon="5.62888">
        <ele>500.6</ele>
        <time>2011-01-29T12:40:22Z</time>
      </trkpt>
      <trkpt lat="45.05914" lon="5.62882">
        <ele>500.6</ele>
        <time>2011-01-29T12:40:25Z</time>
      </trkpt>
      <trkpt lat="45.05909" lon="5.62876">
        <ele>500.6</ele>
        <time>2011-01-29T12:40:28Z</time>
      </trkpt>
      <trkpt lat="45.059" lon="5.62865">
        <ele>500.4</ele>
        <time>2011-01-29T12:40:33Z</time>
      </trkpt>
      <trkpt lat="45.05893" lon="5.62853">
        <ele>500.4</ele>
        <time>2011-01-29T12:40:40Z</time>
      </trkpt>
      <trkpt lat="45.0589" lon="5.62847">
        <ele>500.4</ele>
        <time>2011-01-29T12:40:44Z</time>
      </trkpt>
      <trkpt lat="45.05889" lon="5.62845">
        <ele>500.2</ele>
        <time>2011-01-29T12:40:45Z</time>
      </trkpt>
      <trkpt lat="45.05889" lon="5.62843">
        <ele>500.2</ele>
        <time>2011-01-29T12:40:46Z</time>
      </trkpt>
      <trkpt lat="45.05886" lon="5.62836">
        <ele>500.2</ele>
        <time>2011-01-29T12:40:50Z</time>
      </trkpt>
      <trkpt lat="45.05885" lon="5.62833">
        <ele>500.2</ele>
        <time>2011-01-29T12:40:53Z</time>
      </trkpt>
      <trkpt lat="45.05884" lon="5.62831">
        <ele>500</ele>
        <time>2011-01-29T12:40:54Z</time>
      </trkpt>
      <trkpt lat="45.05885" lon="5.62824">
        <ele>500</ele>
        <time>2011-01-29T12:40:58Z</time>
      </trkpt>
      <trkpt lat="45.05886" lon="5.6282">
        <ele>500</ele>
        <time>2011-01-29T12:41:00Z</time>
      </trkpt>
      <trkpt lat="45.05885" lon="5.62812">
        <ele>500.4</ele>
        <time>2011-01-29T12:41:04Z</time>
      </trkpt>
      <trkpt lat="45.05884" lon="5.62808">
        <ele>500.6</ele>
        <time>2011-01-29T12:41:07Z</time>
      </trkpt>
      <trkpt lat="45.05882" lon="5.62803">
        <ele>501</ele>
        <time>2011-01-29T12:41:10Z</time>
      </trkpt>
      <trkpt lat="45.05879" lon="5.62797">
        <ele>502</ele>
        <time>2011-01-29T12:41:13Z</time>
      </trkpt>
      <trkpt lat="45.05874" lon="5.62796">
        <ele>502.6</ele>
        <time>2011-01-29T12:41:16Z</time>
      </trkpt>
      <trkpt lat="45.05868" lon="5.62792">
        <ele>504.2</ele>
        <time>2011-01-29T12:41:22Z</time>
      </trkpt>
      <trkpt lat="45.05864" lon="5.62782">
        <ele>506.2</ele>
        <time>2011-01-29T12:41:29Z</time>
      </trkpt>
      <trkpt lat="45.05863" lon="5.62781">
        <ele>506.4</ele>
        <time>2011-01-29T12:41:30Z</time>
      </trkpt>
      <trkpt lat="45.05863" lon="5.62772">
        <ele>507.8</ele>
        <time>2011-01-29T12:41:35Z</time>
      </trkpt>
      <trkpt lat="45.0586" lon="5.62764">
        <ele>508.6</ele>
        <time>2011-01-29T12:41:40Z</time>
      </trkpt>
      <trkpt lat="45.05859" lon="5.62759">
        <ele>509.2</ele>
        <time>2011-01-29T12:41:43Z</time>
      </trkpt>
      <trkpt lat="45.05859" lon="5.62757">
        <ele>509.4</ele>
        <time>2011-01-29T12:41:44Z</time>
      </trkpt>
      <trkpt lat="45.05859" lon="5.62756">
        <ele>509.6</ele>
        <time>2011-01-29T12:41:45Z</time>
      </trkpt>
      <trkpt lat="45.05857" lon="5.62753">
        <ele>510</ele>
        <time>2011-01-29T12:41:48Z</time>
      </trkpt>
      <trkpt lat="45.05851" lon="5.62746">
        <ele>510.6</ele>
        <time>2011-01-29T12:41:54Z</time>
      </trkpt>
      <trkpt lat="45.05851" lon="5.62744">
        <ele>510.6</ele>
        <time>2011-01-29T12:41:55Z</time>
      </trkpt>
      <trkpt lat="45.05847" lon="5.6274">
        <ele>511.2</ele>
        <time>2011-01-29T12:41:59Z</time>
      </trkpt>
      <trkpt lat="45.05847" lon="5.62741">
        <ele>511.4</ele>
        <time>2011-01-29T12:42:00Z</time>
      </trkpt>
      <trkpt lat="45.05846" lon="5.62742">
        <ele>511.8</ele>
        <time>2011-01-29T12:42:02Z</time>
      </trkpt>
      <trkpt lat="45.05846" lon="5.62739">
        <ele>511.8</ele>
        <time>2011-01-29T12:42:03Z</time>
      </trkpt>
      <trkpt lat="45.05846" lon="5.62735">
        <ele>512</ele>
        <time>2011-01-29T12:42:05Z</time>
      </trkpt>
      <trkpt lat="45.05844" lon="5.6273">
        <ele>512.8</ele>
        <time>2011-01-29T12:42:08Z</time>
      </trkpt>
      <trkpt lat="45.05842" lon="5.62726">
        <ele>513.4</ele>
        <time>2011-01-29T12:42:11Z</time>
      </trkpt>
      <trkpt lat="45.0584" lon="5.62722">
        <ele>513.8</ele>
        <time>2011-01-29T12:42:14Z</time>
      </trkpt>
      <trkpt lat="45.05839" lon="5.62719">
        <ele>514.4</ele>
        <time>2011-01-29T12:42:16Z</time>
      </trkpt>
      <trkpt lat="45.05837" lon="5.62717">
        <ele>515.2</ele>
        <time>2011-01-29T12:42:18Z</time>
      </trkpt>
      <trkpt lat="45.05836" lon="5.62714">
        <ele>516</ele>
        <time>2011-01-29T12:42:21Z</time>
      </trkpt>
      <trkpt lat="45.05833" lon="5.6271">
        <ele>517</ele>
        <time>2011-01-29T12:42:24Z</time>
      </trkpt>
      <trkpt lat="45.05827" lon="5.62705">
        <ele>519.8</ele>
        <time>2011-01-29T12:42:31Z</time>
      </trkpt>
      <trkpt lat="45.05825" lon="5.62703">
        <ele>520.4</ele>
        <time>2011-01-29T12:42:33Z</time>
      </trkpt>
      <trkpt lat="45.05819" lon="5.62696">
        <ele>522.8</ele>
        <time>2011-01-29T12:42:39Z</time>
      </trkpt>
      <trkpt lat="45.05814" lon="5.62685">
        <ele>524</ele>
        <time>2011-01-29T12:42:45Z</time>
      </trkpt>
      <trkpt lat="45.05812" lon="5.62683">
        <ele>524</ele>
        <time>2011-01-29T12:42:46Z</time>
      </trkpt>
      <trkpt lat="45.05805" lon="5.62679">
        <ele>524.8</ele>
        <time>2011-01-29T12:42:51Z</time>
      </trkpt>
      <trkpt lat="45.05795" lon="5.62675">
        <ele>526</ele>
        <time>2011-01-29T12:42:57Z</time>
      </trkpt>
      <trkpt lat="45.05793" lon="5.62674">
        <ele>526.2</ele>
        <time>2011-01-29T12:42:58Z</time>
      </trkpt>
      <trkpt lat="45.05792" lon="5.62673">
        <ele>526.4</ele>
        <time>2011-01-29T12:42:59Z</time>
      </trkpt>
      <trkpt lat="45.05786" lon="5.62672">
        <ele>527.4</ele>
        <time>2011-01-29T12:43:03Z</time>
      </trkpt>
      <trkpt lat="45.05783" lon="5.62669">
        <ele>528</ele>
        <time>2011-01-29T12:43:05Z</time>
      </trkpt>
      <trkpt lat="45.05777" lon="5.62666">
        <ele>529.2</ele>
        <time>2011-01-29T12:43:09Z</time>
      </trkpt>
      <trkpt lat="45.05776" lon="5.62665">
        <ele>529.8</ele>
        <time>2011-01-29T12:43:10Z</time>
      </trkpt>
      <trkpt lat="45.05773" lon="5.62663">
        <ele>530.4</ele>
        <time>2011-01-29T12:43:12Z</time>
      </trkpt>
      <trkpt lat="45.0577" lon="5.6266">
        <ele>531.2</ele>
        <time>2011-01-29T12:43:15Z</time>
      </trkpt>
      <trkpt lat="45.05766" lon="5.62652">
        <ele>532.2</ele>
        <time>2011-01-29T12:43:20Z</time>
      </trkpt>
      <trkpt lat="45.05764" lon="5.62649">
        <ele>532.8</ele>
        <time>2011-01-29T12:43:22Z</time>
      </trkpt>
      <trkpt lat="45.05763" lon="5.62647">
        <ele>533</ele>
        <time>2011-01-29T12:43:23Z</time>
      </trkpt>
      <trkpt lat="45.05761" lon="5.62642">
        <ele>533.6</ele>
        <time>2011-01-29T12:43:26Z</time>
      </trkpt>
      <trkpt lat="45.05755" lon="5.62631">
        <ele>534.8</ele>
        <time>2011-01-29T12:43:32Z</time>
      </trkpt>
      <trkpt lat="45.05753" lon="5.62627">
        <ele>535</ele>
        <time>2011-01-29T12:43:34Z</time>
      </trkpt>
      <trkpt lat="45.05749" lon="5.6262">
        <ele>535.6</ele>
        <time>2011-01-29T12:43:38Z</time>
      </trkpt>
      <trkpt lat="45.05744" lon="5.62613">
        <ele>536.4</ele>
        <time>2011-01-29T12:43:43Z</time>
      </trkpt>
      <trkpt lat="45.05742" lon="5.62609">
        <ele>536.6</ele>
        <time>2011-01-29T12:43:45Z</time>
      </trkpt>
      <trkpt lat="45.05741" lon="5.62608">
        <ele>536.8</ele>
        <time>2011-01-29T12:43:46Z</time>
      </trkpt>
      <trkpt lat="45.05738" lon="5.62599">
        <ele>536.8</ele>
        <time>2011-01-29T12:43:50Z</time>
      </trkpt>
      <trkpt lat="45.05732" lon="5.62587">
        <ele>536.8</ele>
        <time>2011-01-29T12:43:58Z</time>
      </trkpt>
      <trkpt lat="45.05731" lon="5.62585">
        <ele>536.8</ele>
        <time>2011-01-29T12:43:59Z</time>
      </trkpt>
      <trkpt lat="45.05727" lon="5.62576">
        <ele>536.4</ele>
        <time>2011-01-29T12:44:05Z</time>
      </trkpt>
      <trkpt lat="45.05725" lon="5.62569">
        <ele>536.4</ele>
        <time>2011-01-29T12:44:10Z</time>
      </trkpt>
      <trkpt lat="45.05722" lon="5.62563">
        <ele>536.4</ele>
        <time>2011-01-29T12:44:12Z</time>
      </trkpt>
      <trkpt lat="45.05717" lon="5.62556">
        <ele>536.6</ele>
        <time>2011-01-29T12:44:15Z</time>
      </trkpt>
      <trkpt lat="45.05709" lon="5.62545">
        <ele>537</ele>
        <time>2011-01-29T12:44:20Z</time>
      </trkpt>
      <trkpt lat="45.05708" lon="5.62543">
        <ele>537</ele>
        <time>2011-01-29T12:44:21Z</time>
      </trkpt>
      <trkpt lat="45.05699" lon="5.6253">
        <ele>537.4</ele>
        <time>2011-01-29T12:44:26Z</time>
      </trkpt>
      <trkpt lat="45.05695" lon="5.62524">
        <ele>537.8</ele>
        <time>2011-01-29T12:44:28Z</time>
      </trkpt>
      <trkpt lat="45.0569" lon="5.62516">
        <ele>538</ele>
        <time>2011-01-29T12:44:31Z</time>
      </trkpt>
      <trkpt lat="45.05682" lon="5.62504">
        <ele>539</ele>
        <time>2011-01-29T12:44:36Z</time>
      </trkpt>
      <trkpt lat="45.05679" lon="5.62499">
        <ele>539</ele>
        <time>2011-01-29T12:44:38Z</time>
      </trkpt>
      <trkpt lat="45.05671" lon="5.62491">
        <ele>539.8</ele>
        <time>2011-01-29T12:44:43Z</time>
      </trkpt>
      <trkpt lat="45.05667" lon="5.62487">
        <ele>540.4</ele>
        <time>2011-01-29T12:44:46Z</time>
      </trkpt>
      <trkpt lat="45.05663" lon="5.62484">
        <ele>540.8</ele>
        <time>2011-01-29T12:44:48Z</time>
      </trkpt>
      <trkpt lat="45.05651" lon="5.62474">
        <ele>541.4</ele>
        <time>2011-01-29T12:44:55Z</time>
      </trkpt>
      <trkpt lat="45.05644" lon="5.62466">
        <ele>542</ele>
        <time>2011-01-29T12:45:01Z</time>
      </trkpt>
      <trkpt lat="45.05636" lon="5.62459">
        <ele>543</ele>
        <time>2011-01-29T12:45:07Z</time>
      </trkpt>
      <trkpt lat="45.05627" lon="5.62453">
        <ele>544</ele>
        <time>2011-01-29T12:45:14Z</time>
      </trkpt>
      <trkpt lat="45.0562" lon="5.62447">
        <ele>545.4</ele>
        <time>2011-01-29T12:45:20Z</time>
      </trkpt>
      <trkpt lat="45.05619" lon="5.62446">
        <ele>545.6</ele>
        <time>2011-01-29T12:45:21Z</time>
      </trkpt>
      <trkpt lat="45.05614" lon="5.6244">
        <ele>547</ele>
        <time>2011-01-29T12:45:26Z</time>
      </trkpt>
      <trkpt lat="45.05607" lon="5.62434">
        <ele>548.4</ele>
        <time>2011-01-29T12:45:32Z</time>
      </trkpt>
      <trkpt lat="45.05604" lon="5.62432">
        <ele>549.4</ele>
        <time>2011-01-29T12:45:35Z</time>
      </trkpt>
      <trkpt lat="45.05598" lon="5.62428">
        <ele>550.6</ele>
        <time>2011-01-29T12:45:40Z</time>
      </trkpt>
      <trkpt lat="45.0559" lon="5.62424">
        <ele>551.6</ele>
        <time>2011-01-29T12:45:46Z</time>
      </trkpt>
      <trkpt lat="45.05587" lon="5.62422">
        <ele>552.2</ele>
        <time>2011-01-29T12:45:49Z</time>
      </trkpt>
      <trkpt lat="45.0558" lon="5.6242">
        <ele>553.2</ele>
        <time>2011-01-29T12:45:54Z</time>
      </trkpt>
      <trkpt lat="45.05568" lon="5.62416">
        <ele>554.8</ele>
        <time>2011-01-29T12:46:02Z</time>
      </trkpt>
      <trkpt lat="45.05565" lon="5.62416">
        <ele>555.4</ele>
        <time>2011-01-29T12:46:04Z</time>
      </trkpt>
      <trkpt lat="45.05557" lon="5.62413">
        <ele>556.6</ele>
        <time>2011-01-29T12:46:11Z</time>
      </trkpt>
      <trkpt lat="45.05552" lon="5.62412">
        <ele>557</ele>
        <time>2011-01-29T12:46:15Z</time>
      </trkpt>
      <trkpt lat="45.05549" lon="5.62411">
        <ele>557.2</ele>
        <time>2011-01-29T12:46:17Z</time>
      </trkpt>
      <trkpt lat="45.05547" lon="5.6241">
        <ele>557.2</ele>
        <time>2011-01-29T12:46:19Z</time>
      </trkpt>
      <trkpt lat="45.05545" lon="5.6241">
        <ele>557.2</ele>
        <time>2011-01-29T12:46:20Z</time>
      </trkpt>
      <trkpt lat="45.05538" lon="5.62409">
        <ele>557.4</ele>
        <time>2011-01-29T12:46:25Z</time>
      </trkpt>
      <trkpt lat="45.05531" lon="5.62408">
        <ele>557.2</ele>
        <time>2011-01-29T12:46:30Z</time>
      </trkpt>
      <trkpt lat="45.05527" lon="5.62409">
        <ele>557.2</ele>
        <time>2011-01-29T12:46:32Z</time>
      </trkpt>
      <trkpt lat="45.05516" lon="5.62406">
        <ele>557.2</ele>
        <time>2011-01-29T12:46:38Z</time>
      </trkpt>
      <trkpt lat="45.05512" lon="5.62404">
        <ele>557.4</ele>
        <time>2011-01-29T12:46:40Z</time>
      </trkpt>
      <trkpt lat="45.05507" lon="5.62398">
        <ele>557.6</ele>
        <time>2011-01-29T12:46:43Z</time>
      </trkpt>
      <trkpt lat="45.05498" lon="5.62387">
        <ele>558.2</ele>
        <time>2011-01-29T12:46:49Z</time>
      </trkpt>
      <trkpt lat="45.05489" lon="5.62389">
        <ele>559.8</ele>
        <time>2011-01-29T12:46:53Z</time>
      </trkpt>
      <trkpt lat="45.05486" lon="5.62389">
        <ele>560.2</ele>
        <time>2011-01-29T12:46:54Z</time>
      </trkpt>
      <trkpt lat="45.05477" lon="5.62383">
        <ele>561.8</ele>
        <time>2011-01-29T12:46:59Z</time>
      </trkpt>
      <trkpt lat="45.05474" lon="5.62381">
        <ele>562.6</ele>
        <time>2011-01-29T12:47:01Z</time>
      </trkpt>
      <trkpt lat="45.05463" lon="5.62375">
        <ele>564.2</ele>
        <time>2011-01-29T12:47:07Z</time>
      </trkpt>
      <trkpt lat="45.0546" lon="5.62374">
        <ele>564.4</ele>
        <time>2011-01-29T12:47:08Z</time>
      </trkpt>
      <trkpt lat="45.05456" lon="5.62377">
        <ele>565.4</ele>
        <time>2011-01-29T12:47:10Z</time>
      </trkpt>
      <trkpt lat="45.05452" lon="5.6238">
        <ele>566.2</ele>
        <time>2011-01-29T12:47:12Z</time>
      </trkpt>
      <trkpt lat="45.05443" lon="5.62386">
        <ele>568</ele>
        <time>2011-01-29T12:47:16Z</time>
      </trkpt>
      <trkpt lat="45.0544" lon="5.6239">
        <ele>568.8</ele>
        <time>2011-01-29T12:47:18Z</time>
      </trkpt>
      <trkpt lat="45.05428" lon="5.62398">
        <ele>570.8</ele>
        <time>2011-01-29T12:47:23Z</time>
      </trkpt>
      <trkpt lat="45.05426" lon="5.62399">
        <ele>571.2</ele>
        <time>2011-01-29T12:47:24Z</time>
      </trkpt>
      <trkpt lat="45.05417" lon="5.62404">
        <ele>572.6</ele>
        <time>2011-01-29T12:47:28Z</time>
      </trkpt>
      <trkpt lat="45.05407" lon="5.62409">
        <ele>574.4</ele>
        <time>2011-01-29T12:47:32Z</time>
      </trkpt>
      <trkpt lat="45.05401" lon="5.6241">
        <ele>575.2</ele>
        <time>2011-01-29T12:47:34Z</time>
      </trkpt>
      <trkpt lat="45.05391" lon="5.62415">
        <ele>577</ele>
        <time>2011-01-29T12:47:38Z</time>
      </trkpt>
      <trkpt lat="45.05389" lon="5.62416">
        <ele>577.6</ele>
        <time>2011-01-29T12:47:39Z</time>
      </trkpt>
      <trkpt lat="45.05377" lon="5.62418">
        <ele>579.4</ele>
        <time>2011-01-29T12:47:43Z</time>
      </trkpt>
      <trkpt lat="45.05369" lon="5.62417">
        <ele>581.4</ele>
        <time>2011-01-29T12:47:46Z</time>
      </trkpt>
      <trkpt lat="45.05363" lon="5.62418">
        <ele>582.8</ele>
        <time>2011-01-29T12:47:48Z</time>
      </trkpt>
      <trkpt lat="45.0535" lon="5.62416">
        <ele>585.8</ele>
        <time>2011-01-29T12:47:53Z</time>
      </trkpt>
      <trkpt lat="45.05347" lon="5.62416">
        <ele>586.6</ele>
        <time>2011-01-29T12:47:54Z</time>
      </trkpt>
      <trkpt lat="45.0533" lon="5.62414">
        <ele>590</ele>
        <time>2011-01-29T12:48:01Z</time>
      </trkpt>
      <trkpt lat="45.05313" lon="5.62416">
        <ele>592.4</ele>
        <time>2011-01-29T12:48:08Z</time>
      </trkpt>
      <trkpt lat="45.05311" lon="5.62416">
        <ele>592.6</ele>
        <time>2011-01-29T12:48:09Z</time>
      </trkpt>
      <trkpt lat="45.05309" lon="5.62417">
        <ele>592.6</ele>
        <time>2011-01-29T12:48:10Z</time>
      </trkpt>
      <trkpt lat="45.05302" lon="5.6242">
        <ele>593.6</ele>
        <time>2011-01-29T12:48:13Z</time>
      </trkpt>
      <trkpt lat="45.05294" lon="5.62424">
        <ele>594.4</ele>
        <time>2011-01-29T12:48:16Z</time>
      </trkpt>
      <trkpt lat="45.05288" lon="5.62426">
        <ele>595</ele>
        <time>2011-01-29T12:48:18Z</time>
      </trkpt>
      <trkpt lat="45.05278" lon="5.62429">
        <ele>596.6</ele>
        <time>2011-01-29T12:48:22Z</time>
      </trkpt>
      <trkpt lat="45.05276" lon="5.62431">
        <ele>597.2</ele>
        <time>2011-01-29T12:48:23Z</time>
      </trkpt>
      <trkpt lat="45.05261" lon="5.62439">
        <ele>600.2</ele>
        <time>2011-01-29T12:48:28Z</time>
      </trkpt>
      <trkpt lat="45.05258" lon="5.62441">
        <ele>601.2</ele>
        <time>2011-01-29T12:48:29Z</time>
      </trkpt>
      <trkpt lat="45.05245" lon="5.62448">
        <ele>604.8</ele>
        <time>2011-01-29T12:48:34Z</time>
      </trkpt>
      <trkpt lat="45.05241" lon="5.62453">
        <ele>606.6</ele>
        <time>2011-01-29T12:48:36Z</time>
      </trkpt>
      <trkpt lat="45.05236" lon="5.62458">
        <ele>608.8</ele>
        <time>2011-01-29T12:48:38Z</time>
      </trkpt>
      <trkpt lat="45.05227" lon="5.62472">
        <ele>613.4</ele>
        <time>2011-01-29T12:48:43Z</time>
      </trkpt>
      <trkpt lat="45.0522" lon="5.62482">
        <ele>617.6</ele>
        <time>2011-01-29T12:48:47Z</time>
      </trkpt>
      <trkpt lat="45.05212" lon="5.62488">
        <ele>620.6</ele>
        <time>2011-01-29T12:48:52Z</time>
      </trkpt>
      <trkpt lat="45.05211" lon="5.62488">
        <ele>620.8</ele>
        <time>2011-01-29T12:48:53Z</time>
      </trkpt>
      <trkpt lat="45.05205" lon="5.62495">
        <ele>620.8</ele>
        <time>2011-01-29T12:48:58Z</time>
      </trkpt>
      <trkpt lat="45.05203" lon="5.62506">
        <ele>620.2</ele>
        <time>2011-01-29T12:49:03Z</time>
      </trkpt>
      <trkpt lat="45.05203" lon="5.6251">
        <ele>619.8</ele>
        <time>2011-01-29T12:49:05Z</time>
      </trkpt>
      <trkpt lat="45.05202" lon="5.62516">
        <ele>619.2</ele>
        <time>2011-01-29T12:49:08Z</time>
      </trkpt>
      <trkpt lat="45.05198" lon="5.6252">
        <ele>618.4</ele>
        <time>2011-01-29T12:49:12Z</time>
      </trkpt>
      <trkpt lat="45.05197" lon="5.6252">
        <ele>618.2</ele>
        <time>2011-01-29T12:49:13Z</time>
      </trkpt>
      <trkpt lat="45.0519" lon="5.62519">
        <ele>617.2</ele>
        <time>2011-01-29T12:49:18Z</time>
      </trkpt>
      <trkpt lat="45.05189" lon="5.62519">
        <ele>617</ele>
        <time>2011-01-29T12:49:19Z</time>
      </trkpt>
      <trkpt lat="45.05186" lon="5.62521">
        <ele>616.4</ele>
        <time>2011-01-29T12:49:22Z</time>
      </trkpt>
      <trkpt lat="45.05184" lon="5.62521">
        <ele>616.2</ele>
        <time>2011-01-29T12:49:23Z</time>
      </trkpt>
      <trkpt lat="45.05179" lon="5.62522">
        <ele>615.4</ele>
        <time>2011-01-29T12:49:28Z</time>
      </trkpt>
      <trkpt lat="45.05174" lon="5.62522">
        <ele>614.8</ele>
        <time>2011-01-29T12:49:32Z</time>
      </trkpt>
      <trkpt lat="45.05171" lon="5.62522">
        <ele>614.4</ele>
        <time>2011-01-29T12:49:35Z</time>
      </trkpt>
      <trkpt lat="45.05168" lon="5.62522">
        <ele>613.8</ele>
        <time>2011-01-29T12:49:39Z</time>
      </trkpt>
      <trkpt lat="45.05164" lon="5.62523">
        <ele>613.4</ele>
        <time>2011-01-29T12:49:43Z</time>
      </trkpt>
      <trkpt lat="45.05163" lon="5.62524">
        <ele>613.2</ele>
        <time>2011-01-29T12:49:44Z</time>
      </trkpt>
      <trkpt lat="45.05162" lon="5.62524">
        <ele>613</ele>
        <time>2011-01-29T12:49:45Z</time>
      </trkpt>
      <trkpt lat="45.0516" lon="5.62523">
        <ele>612.6</ele>
        <time>2011-01-29T12:49:48Z</time>
      </trkpt>
      <trkpt lat="45.05156" lon="5.62525">
        <ele>612</ele>
        <time>2011-01-29T12:49:53Z</time>
      </trkpt>
      <trkpt lat="45.05153" lon="5.62528">
        <ele>611.4</ele>
        <time>2011-01-29T12:49:58Z</time>
      </trkpt>
      <trkpt lat="45.05151" lon="5.62527">
        <ele>610.8</ele>
        <time>2011-01-29T12:50:02Z</time>
      </trkpt>
      <trkpt lat="45.0515" lon="5.62527">
        <ele>610.8</ele>
        <time>2011-01-29T12:50:03Z</time>
      </trkpt>
      <trkpt lat="45.05147" lon="5.62529">
        <ele>610.4</ele>
        <time>2011-01-29T12:50:08Z</time>
      </trkpt>
      <trkpt lat="45.05142" lon="5.62527">
        <ele>610.2</ele>
        <time>2011-01-29T12:50:14Z</time>
      </trkpt>
      <trkpt lat="45.0514" lon="5.62528">
        <ele>610</ele>
        <time>2011-01-29T12:50:16Z</time>
      </trkpt>
      <trkpt lat="45.0514" lon="5.62528">
        <ele>610</ele>
        <time>2011-01-29T12:50:17Z</time>
      </trkpt>
      <trkpt lat="45.05135" lon="5.62531">
        <ele>609.8</ele>
        <time>2011-01-29T12:50:22Z</time>
      </trkpt>
      <trkpt lat="45.0513" lon="5.62531">
        <ele>609.8</ele>
        <time>2011-01-29T12:50:26Z</time>
      </trkpt>
      <trkpt lat="45.05129" lon="5.62531">
        <ele>610</ele>
        <time>2011-01-29T12:50:27Z</time>
      </trkpt>
      <trkpt lat="45.05127" lon="5.62531">
        <ele>610</ele>
        <time>2011-01-29T12:50:29Z</time>
      </trkpt>
      <trkpt lat="45.05123" lon="5.62533">
        <ele>610.6</ele>
        <time>2011-01-29T12:50:33Z</time>
      </trkpt>
      <trkpt lat="45.05123" lon="5.62534">
        <ele>610.6</ele>
        <time>2011-01-29T12:50:34Z</time>
      </trkpt>
      <trkpt lat="45.05121" lon="5.62535">
        <ele>610.6</ele>
        <time>2011-01-29T12:50:36Z</time>
      </trkpt>
      <trkpt lat="45.05118" lon="5.62537">
        <ele>610.8</ele>
        <time>2011-01-29T12:50:39Z</time>
      </trkpt>
      <trkpt lat="45.05115" lon="5.62538">
        <ele>611</ele>
        <time>2011-01-29T12:50:41Z</time>
      </trkpt>
      <trkpt lat="45.05114" lon="5.62539">
        <ele>611</ele>
        <time>2011-01-29T12:50:42Z</time>
      </trkpt>
      <trkpt lat="45.05113" lon="5.62542">
        <ele>611</ele>
        <time>2011-01-29T12:50:45Z</time>
      </trkpt>
      <trkpt lat="45.05111" lon="5.62545">
        <ele>611.2</ele>
        <time>2011-01-29T12:50:48Z</time>
      </trkpt>
      <trkpt lat="45.05107" lon="5.62549">
        <ele>611.2</ele>
        <time>2011-01-29T12:50:52Z</time>
      </trkpt>
      <trkpt lat="45.05104" lon="5.62552">
        <ele>611</ele>
        <time>2011-01-29T12:50:55Z</time>
      </trkpt>
      <trkpt lat="45.05103" lon="5.62552">
        <ele>611</ele>
        <time>2011-01-29T12:50:56Z</time>
      </trkpt>
      <trkpt lat="45.051" lon="5.62556">
        <ele>611.2</ele>
        <time>2011-01-29T12:51:00Z</time>
      </trkpt>
      <trkpt lat="45.05099" lon="5.62557">
        <ele>611.4</ele>
        <time>2011-01-29T12:51:01Z</time>
      </trkpt>
      <trkpt lat="45.05098" lon="5.62559">
        <ele>611.4</ele>
        <time>2011-01-29T12:51:03Z</time>
      </trkpt>
      <trkpt lat="45.05095" lon="5.6256">
        <ele>612</ele>
        <time>2011-01-29T12:51:07Z</time>
      </trkpt>
      <trkpt lat="45.05093" lon="5.62561">
        <ele>612.2</ele>
        <time>2011-01-29T12:51:09Z</time>
      </trkpt>
      <trkpt lat="45.0509" lon="5.62562">
        <ele>612.6</ele>
        <time>2011-01-29T12:51:12Z</time>
      </trkpt>
      <trkpt lat="45.05087" lon="5.62564">
        <ele>613.2</ele>
        <time>2011-01-29T12:51:15Z</time>
      </trkpt>
      <trkpt lat="45.05085" lon="5.62566">
        <ele>613.6</ele>
        <time>2011-01-29T12:51:17Z</time>
      </trkpt>
      <trkpt lat="45.05082" lon="5.62568">
        <ele>614.2</ele>
        <time>2011-01-29T12:51:20Z</time>
      </trkpt>
      <trkpt lat="45.0508" lon="5.62568">
        <ele>615</ele>
        <time>2011-01-29T12:51:22Z</time>
      </trkpt>
      <trkpt lat="45.05078" lon="5.62569">
        <ele>615.6</ele>
        <time>2011-01-29T12:51:25Z</time>
      </trkpt>
      <trkpt lat="45.05073" lon="5.62571">
        <ele>617</ele>
        <time>2011-01-29T12:51:30Z</time>
      </trkpt>
      <trkpt lat="45.0507" lon="5.62571">
        <ele>617.6</ele>
        <time>2011-01-29T12:51:32Z</time>
      </trkpt>
      <trkpt lat="45.05069" lon="5.62571">
        <ele>617.8</ele>
        <time>2011-01-29T12:51:33Z</time>
      </trkpt>
      <trkpt lat="45.05069" lon="5.62571">
        <ele>618</ele>
        <time>2011-01-29T12:51:34Z</time>
      </trkpt>
      <trkpt lat="45.05065" lon="5.62572">
        <ele>619.2</ele>
        <time>2011-01-29T12:51:37Z</time>
      </trkpt>
      <trkpt lat="45.05061" lon="5.62574">
        <ele>620.4</ele>
        <time>2011-01-29T12:51:41Z</time>
      </trkpt>
      <trkpt lat="45.05056" lon="5.62574">
        <ele>622</ele>
        <time>2011-01-29T12:51:46Z</time>
      </trkpt>
      <trkpt lat="45.05053" lon="5.62575">
        <ele>623</ele>
        <time>2011-01-29T12:51:50Z</time>
      </trkpt>
      <trkpt lat="45.05051" lon="5.62576">
        <ele>623.6</ele>
        <time>2011-01-29T12:51:53Z</time>
      </trkpt>
      <trkpt lat="45.0505" lon="5.62576">
        <ele>623.8</ele>
        <time>2011-01-29T12:51:54Z</time>
      </trkpt>
      <trkpt lat="45.05045" lon="5.62577">
        <ele>625.2</ele>
        <time>2011-01-29T12:51:59Z</time>
      </trkpt>
      <trkpt lat="45.05041" lon="5.62578">
        <ele>626.4</ele>
        <time>2011-01-29T12:52:03Z</time>
      </trkpt>
      <trkpt lat="45.05039" lon="5.62578">
        <ele>626.6</ele>
        <time>2011-01-29T12:52:04Z</time>
      </trkpt>
      <trkpt lat="45.05033" lon="5.62579">
        <ele>628.6</ele>
        <time>2011-01-29T12:52:09Z</time>
      </trkpt>
      <trkpt lat="45.05028" lon="5.62579">
        <ele>630.4</ele>
        <time>2011-01-29T12:52:13Z</time>
      </trkpt>
      <trkpt lat="45.05025" lon="5.62581">
        <ele>630.8</ele>
        <time>2011-01-29T12:52:16Z</time>
      </trkpt>
      <trkpt lat="45.05019" lon="5.62585">
        <ele>631.4</ele>
        <time>2011-01-29T12:52:22Z</time>
      </trkpt>
      <trkpt lat="45.05016" lon="5.62588">
        <ele>632</ele>
        <time>2011-01-29T12:52:25Z</time>
      </trkpt>
      <trkpt lat="45.05014" lon="5.62592">
        <ele>632</ele>
        <time>2011-01-29T12:52:28Z</time>
      </trkpt>
      <trkpt lat="45.0501" lon="5.62598">
        <ele>632.8</ele>
        <time>2011-01-29T12:52:33Z</time>
      </trkpt>
      <trkpt lat="45.05008" lon="5.626">
        <ele>633</ele>
        <time>2011-01-29T12:52:35Z</time>
      </trkpt>
      <trkpt lat="45.05007" lon="5.62602">
        <ele>633.2</ele>
        <time>2011-01-29T12:52:37Z</time>
      </trkpt>
      <trkpt lat="45.05007" lon="5.62604">
        <ele>633.4</ele>
        <time>2011-01-29T12:52:38Z</time>
      </trkpt>
      <trkpt lat="45.05003" lon="5.62606">
        <ele>634</ele>
        <time>2011-01-29T12:52:42Z</time>
      </trkpt>
      <trkpt lat="45.05002" lon="5.62607">
        <ele>634.2</ele>
        <time>2011-01-29T12:52:43Z</time>
      </trkpt>
      <trkpt lat="45.04998" lon="5.62611">
        <ele>634.6</ele>
        <time>2011-01-29T12:52:48Z</time>
      </trkpt>
      <trkpt lat="45.04994" lon="5.62614">
        <ele>635.4</ele>
        <time>2011-01-29T12:52:52Z</time>
      </trkpt>
      <trkpt lat="45.04992" lon="5.62615">
        <ele>635.6</ele>
        <time>2011-01-29T12:52:54Z</time>
      </trkpt>
      <trkpt lat="45.04989" lon="5.62616">
        <ele>636</ele>
        <time>2011-01-29T12:52:57Z</time>
      </trkpt>
      <trkpt lat="45.04988" lon="5.62616">
        <ele>636.2</ele>
        <time>2011-01-29T12:52:58Z</time>
      </trkpt>
      <trkpt lat="45.04986" lon="5.62616">
        <ele>636.4</ele>
        <time>2011-01-29T12:52:59Z</time>
      </trkpt>
      <trkpt lat="45.04978" lon="5.62619">
        <ele>637.8</ele>
        <time>2011-01-29T12:53:05Z</time>
      </trkpt>
      <trkpt lat="45.0497" lon="5.62622">
        <ele>639.2</ele>
        <time>2011-01-29T12:53:11Z</time>
      </trkpt>
      <trkpt lat="45.04968" lon="5.62622">
        <ele>639.4</ele>
        <time>2011-01-29T12:53:12Z</time>
      </trkpt>
      <trkpt lat="45.04962" lon="5.62624">
        <ele>640</ele>
        <time>2011-01-29T12:53:17Z</time>
      </trkpt>
      <trkpt lat="45.04957" lon="5.62626">
        <ele>641</ele>
        <time>2011-01-29T12:53:21Z</time>
      </trkpt>
      <trkpt lat="45.04954" lon="5.62627">
        <ele>641.6</ele>
        <time>2011-01-29T12:53:23Z</time>
      </trkpt>
      <trkpt lat="45.04951" lon="5.62625">
        <ele>642.2</ele>
        <time>2011-01-29T12:53:26Z</time>
      </trkpt>
      <trkpt lat="45.04947" lon="5.62624">
        <ele>642.8</ele>
        <time>2011-01-29T12:53:29Z</time>
      </trkpt>
      <trkpt lat="45.04939" lon="5.62622">
        <ele>644.6</ele>
        <time>2011-01-29T12:53:35Z</time>
      </trkpt>
      <trkpt lat="45.04933" lon="5.62619">
        <ele>645.8</ele>
        <time>2011-01-29T12:53:39Z</time>
      </trkpt>
      <trkpt lat="45.0493" lon="5.62618">
        <ele>646.4</ele>
        <time>2011-01-29T12:53:41Z</time>
      </trkpt>
      <trkpt lat="45.04927" lon="5.62617">
        <ele>647</ele>
        <time>2011-01-29T12:53:43Z</time>
      </trkpt>
      <trkpt lat="45.04922" lon="5.62617">
        <ele>647.8</ele>
        <time>2011-01-29T12:53:46Z</time>
      </trkpt>
      <trkpt lat="45.04916" lon="5.62614">
        <ele>649</ele>
        <time>2011-01-29T12:53:51Z</time>
      </trkpt>
      <trkpt lat="45.04914" lon="5.62613">
        <ele>649.4</ele>
        <time>2011-01-29T12:53:52Z</time>
      </trkpt>
      <trkpt lat="45.04911" lon="5.62613">
        <ele>650</ele>
        <time>2011-01-29T12:53:54Z</time>
      </trkpt>
      <trkpt lat="45.04909" lon="5.62612">
        <ele>650.4</ele>
        <time>2011-01-29T12:53:56Z</time>
      </trkpt>
      <trkpt lat="45.04901" lon="5.6261">
        <ele>651.8</ele>
        <time>2011-01-29T12:54:02Z</time>
      </trkpt>
      <trkpt lat="45.04896" lon="5.62607">
        <ele>652.8</ele>
        <time>2011-01-29T12:54:05Z</time>
      </trkpt>
      <trkpt lat="45.04888" lon="5.62603">
        <ele>654.2</ele>
        <time>2011-01-29T12:54:09Z</time>
      </trkpt>
      <trkpt lat="45.04879" lon="5.626">
        <ele>656</ele>
        <time>2011-01-29T12:54:13Z</time>
      </trkpt>
      <trkpt lat="45.04876" lon="5.62599">
        <ele>656.8</ele>
        <time>2011-01-29T12:54:14Z</time>
      </trkpt>
      <trkpt lat="45.04865" lon="5.62595">
        <ele>659</ele>
        <time>2011-01-29T12:54:18Z</time>
      </trkpt>
      <trkpt lat="45.04861" lon="5.62594">
        <ele>660.4</ele>
        <time>2011-01-29T12:54:20Z</time>
      </trkpt>
      <trkpt lat="45.04855" lon="5.62591">
        <ele>661.8</ele>
        <time>2011-01-29T12:54:23Z</time>
      </trkpt>
      <trkpt lat="45.04845" lon="5.62583">
        <ele>665</ele>
        <time>2011-01-29T12:54:29Z</time>
      </trkpt>
      <trkpt lat="45.04833" lon="5.62576">
        <ele>667.4</ele>
        <time>2011-01-29T12:54:35Z</time>
      </trkpt>
      <trkpt lat="45.04828" lon="5.62571">
        <ele>668.4</ele>
        <time>2011-01-29T12:54:38Z</time>
      </trkpt>
      <trkpt lat="45.04825" lon="5.62569">
        <ele>668.8</ele>
        <time>2011-01-29T12:54:40Z</time>
      </trkpt>
      <trkpt lat="45.04822" lon="5.62568">
        <ele>669.2</ele>
        <time>2011-01-29T12:54:42Z</time>
      </trkpt>
      <trkpt lat="45.04819" lon="5.62567">
        <ele>670</ele>
        <time>2011-01-29T12:54:45Z</time>
      </trkpt>
      <trkpt lat="45.04817" lon="5.62566">
        <ele>670.4</ele>
        <time>2011-01-29T12:54:47Z</time>
      </trkpt>
      <trkpt lat="45.04815" lon="5.62566">
        <ele>670.8</ele>
        <time>2011-01-29T12:54:48Z</time>
      </trkpt>
      <trkpt lat="45.04814" lon="5.62565">
        <ele>671.2</ele>
        <time>2011-01-29T12:54:49Z</time>
      </trkpt>
      <trkpt lat="45.0481" lon="5.62564">
        <ele>672</ele>
        <time>2011-01-29T12:54:52Z</time>
      </trkpt>
      <trkpt lat="45.04809" lon="5.62563">
        <ele>672</ele>
        <time>2011-01-29T12:54:53Z</time>
      </trkpt>
      <trkpt lat="45.04806" lon="5.62562">
        <ele>672.6</ele>
        <time>2011-01-29T12:54:56Z</time>
      </trkpt>
      <trkpt lat="45.04805" lon="5.62562">
        <ele>672.6</ele>
        <time>2011-01-29T12:54:57Z</time>
      </trkpt>
      <trkpt lat="45.04798" lon="5.62564">
        <ele>673.6</ele>
        <time>2011-01-29T12:55:03Z</time>
      </trkpt>
      <trkpt lat="45.04792" lon="5.62566">
        <ele>673.8</ele>
        <time>2011-01-29T12:55:07Z</time>
      </trkpt>
      <trkpt lat="45.04791" lon="5.62565">
        <ele>674</ele>
        <time>2011-01-29T12:55:08Z</time>
      </trkpt>
      <trkpt lat="45.04789" lon="5.62565">
        <ele>674</ele>
        <time>2011-01-29T12:55:09Z</time>
      </trkpt>
      <trkpt lat="45.04783" lon="5.62563">
        <ele>674.8</ele>
        <time>2011-01-29T12:55:13Z</time>
      </trkpt>
      <trkpt lat="45.04781" lon="5.62561">
        <ele>674.6</ele>
        <time>2011-01-29T12:55:15Z</time>
      </trkpt>
      <trkpt lat="45.04778" lon="5.62559">
        <ele>674.8</ele>
        <time>2011-01-29T12:55:18Z</time>
      </trkpt>
      <trkpt lat="45.04775" lon="5.62557">
        <ele>675</ele>
        <time>2011-01-29T12:55:20Z</time>
      </trkpt>
      <trkpt lat="45.04768" lon="5.62548">
        <ele>674.8</ele>
        <time>2011-01-29T12:55:26Z</time>
      </trkpt>
      <trkpt lat="45.04762" lon="5.62538">
        <ele>674.8</ele>
        <time>2011-01-29T12:55:32Z</time>
      </trkpt>
      <trkpt lat="45.0476" lon="5.62535">
        <ele>674.8</ele>
        <time>2011-01-29T12:55:34Z</time>
      </trkpt>
      <trkpt lat="45.04748" lon="5.62524">
        <ele>675</ele>
        <time>2011-01-29T12:55:42Z</time>
      </trkpt>
      <trkpt lat="45.04747" lon="5.62523">
        <ele>675.2</ele>
        <time>2011-01-29T12:55:43Z</time>
      </trkpt>
      <trkpt lat="45.0474" lon="5.62518">
        <ele>675.6</ele>
        <time>2011-01-29T12:55:48Z</time>
      </trkpt>
      <trkpt lat="45.0473" lon="5.62515">
        <ele>676.6</ele>
        <time>2011-01-29T12:55:54Z</time>
      </trkpt>
      <trkpt lat="45.04729" lon="5.62514">
        <ele>676.6</ele>
        <time>2011-01-29T12:55:55Z</time>
      </trkpt>
      <trkpt lat="45.04721" lon="5.62512">
        <ele>677.4</ele>
        <time>2011-01-29T12:56:00Z</time>
      </trkpt>
      <trkpt lat="45.04715" lon="5.62508">
        <ele>678.2</ele>
        <time>2011-01-29T12:56:05Z</time>
      </trkpt>
      <trkpt lat="45.04712" lon="5.62506">
        <ele>678.6</ele>
        <time>2011-01-29T12:56:07Z</time>
      </trkpt>
      <trkpt lat="45.04709" lon="5.62504">
        <ele>679.4</ele>
        <time>2011-01-29T12:56:09Z</time>
      </trkpt>
      <trkpt lat="45.04707" lon="5.62503">
        <ele>679.4</ele>
        <time>2011-01-29T12:56:10Z</time>
      </trkpt>
      <trkpt lat="45.04702" lon="5.62495">
        <ele>680.6</ele>
        <time>2011-01-29T12:56:15Z</time>
      </trkpt>
      <trkpt lat="45.04696" lon="5.6249">
        <ele>681.4</ele>
        <time>2011-01-29T12:56:20Z</time>
      </trkpt>
      <trkpt lat="45.04695" lon="5.62489">
        <ele>681.4</ele>
        <time>2011-01-29T12:56:21Z</time>
      </trkpt>
      <trkpt lat="45.04691" lon="5.62486">
        <ele>682</ele>
        <time>2011-01-29T12:56:25Z</time>
      </trkpt>
      <trkpt lat="45.04687" lon="5.6248">
        <ele>682</ele>
        <time>2011-01-29T12:56:28Z</time>
      </trkpt>
      <trkpt lat="45.04682" lon="5.62474">
        <ele>682.4</ele>
        <time>2011-01-29T12:56:33Z</time>
      </trkpt>
      <trkpt lat="45.04681" lon="5.62473">
        <ele>682.6</ele>
        <time>2011-01-29T12:56:34Z</time>
      </trkpt>
      <trkpt lat="45.04674" lon="5.62466">
        <ele>684</ele>
        <time>2011-01-29T12:56:40Z</time>
      </trkpt>
      <trkpt lat="45.0467" lon="5.62462">
        <ele>685.2</ele>
        <time>2011-01-29T12:56:43Z</time>
      </trkpt>
      <trkpt lat="45.04669" lon="5.62459">
        <ele>685.6</ele>
        <time>2011-01-29T12:56:45Z</time>
      </trkpt>
      <trkpt lat="45.04668" lon="5.62458">
        <ele>686</ele>
        <time>2011-01-29T12:56:46Z</time>
      </trkpt>
      <trkpt lat="45.04662" lon="5.62449">
        <ele>688.2</ele>
        <time>2011-01-29T12:56:52Z</time>
      </trkpt>
      <trkpt lat="45.04656" lon="5.62439">
        <ele>690.2</ele>
        <time>2011-01-29T12:56:58Z</time>
      </trkpt>
      <trkpt lat="45.04647" lon="5.62427">
        <ele>692.6</ele>
        <time>2011-01-29T12:57:06Z</time>
      </trkpt>
      <trkpt lat="45.04646" lon="5.62425">
        <ele>693</ele>
        <time>2011-01-29T12:57:07Z</time>
      </trkpt>
      <trkpt lat="45.04643" lon="5.6242">
        <ele>694</ele>
        <time>2011-01-29T12:57:11Z</time>
      </trkpt>
      <trkpt lat="45.04642" lon="5.6242">
        <ele>694.4</ele>
        <time>2011-01-29T12:57:12Z</time>
      </trkpt>
      <trkpt lat="45.04633" lon="5.62414">
        <ele>696.8</ele>
        <time>2011-01-29T12:57:19Z</time>
      </trkpt>
      <trkpt lat="45.04628" lon="5.62408">
        <ele>697.8</ele>
        <time>2011-01-29T12:57:24Z</time>
      </trkpt>
      <trkpt lat="45.04623" lon="5.62399">
        <ele>699</ele>
        <time>2011-01-29T12:57:29Z</time>
      </trkpt>
      <trkpt lat="45.04618" lon="5.62394">
        <ele>699.8</ele>
        <time>2011-01-29T12:57:33Z</time>
      </trkpt>
      <trkpt lat="45.04614" lon="5.62389">
        <ele>700.2</ele>
        <time>2011-01-29T12:57:37Z</time>
      </trkpt>
      <trkpt lat="45.04603" lon="5.62378">
        <ele>700.6</ele>
        <time>2011-01-29T12:57:44Z</time>
      </trkpt>
      <trkpt lat="45.04599" lon="5.62373">
        <ele>700.8</ele>
        <time>2011-01-29T12:57:46Z</time>
      </trkpt>
      <trkpt lat="45.04588" lon="5.62366">
        <ele>700.8</ele>
        <time>2011-01-29T12:57:51Z</time>
      </trkpt>
      <trkpt lat="45.04581" lon="5.62361">
        <ele>701.2</ele>
        <time>2011-01-29T12:57:54Z</time>
      </trkpt>
      <trkpt lat="45.04575" lon="5.62358">
        <ele>701.2</ele>
        <time>2011-01-29T12:57:57Z</time>
      </trkpt>
      <trkpt lat="45.04567" lon="5.62348">
        <ele>701.6</ele>
        <time>2011-01-29T12:58:02Z</time>
      </trkpt>
      <trkpt lat="45.04566" lon="5.62346">
        <ele>701.8</ele>
        <time>2011-01-29T12:58:03Z</time>
      </trkpt>
      <trkpt lat="45.04563" lon="5.62339">
        <ele>702</ele>
        <time>2011-01-29T12:58:07Z</time>
      </trkpt>
      <trkpt lat="45.04555" lon="5.62328">
        <ele>703</ele>
        <time>2011-01-29T12:58:16Z</time>
      </trkpt>
      <trkpt lat="45.04554" lon="5.62326">
        <ele>703.2</ele>
        <time>2011-01-29T12:58:17Z</time>
      </trkpt>
      <trkpt lat="45.04547" lon="5.62316">
        <ele>704.8</ele>
        <time>2011-01-29T12:58:23Z</time>
      </trkpt>
      <trkpt lat="45.04544" lon="5.62312">
        <ele>705.6</ele>
        <time>2011-01-29T12:58:26Z</time>
      </trkpt>
      <trkpt lat="45.04542" lon="5.62309">
        <ele>706.2</ele>
        <time>2011-01-29T12:58:28Z</time>
      </trkpt>
      <trkpt lat="45.04541" lon="5.62307">
        <ele>706.6</ele>
        <time>2011-01-29T12:58:29Z</time>
      </trkpt>
      <trkpt lat="45.0454" lon="5.62306">
        <ele>706.6</ele>
        <time>2011-01-29T12:58:30Z</time>
      </trkpt>
      <trkpt lat="45.04537" lon="5.62301">
        <ele>707.6</ele>
        <time>2011-01-29T12:58:34Z</time>
      </trkpt>
      <trkpt lat="45.04537" lon="5.623">
        <ele>707.8</ele>
        <time>2011-01-29T12:58:35Z</time>
      </trkpt>
      <trkpt lat="45.04533" lon="5.62293">
        <ele>708.2</ele>
        <time>2011-01-29T12:58:41Z</time>
      </trkpt>
      <trkpt lat="45.0453" lon="5.62287">
        <ele>708.8</ele>
        <time>2011-01-29T12:58:46Z</time>
      </trkpt>
      <trkpt lat="45.0453" lon="5.62286">
        <ele>708.8</ele>
        <time>2011-01-29T12:58:47Z</time>
      </trkpt>
      <trkpt lat="45.04528" lon="5.62283">
        <ele>709.2</ele>
        <time>2011-01-29T12:58:50Z</time>
      </trkpt>
      <trkpt lat="45.04528" lon="5.62279">
        <ele>709.6</ele>
        <time>2011-01-29T12:58:53Z</time>
      </trkpt>
      <trkpt lat="45.04526" lon="5.62276">
        <ele>710</ele>
        <time>2011-01-29T12:58:56Z</time>
      </trkpt>
      <trkpt lat="45.04525" lon="5.62273">
        <ele>710</ele>
        <time>2011-01-29T12:58:58Z</time>
      </trkpt>
      <trkpt lat="45.04523" lon="5.6227">
        <ele>710.2</ele>
        <time>2011-01-29T12:59:01Z</time>
      </trkpt>
      <trkpt lat="45.04523" lon="5.62269">
        <ele>710.2</ele>
        <time>2011-01-29T12:59:02Z</time>
      </trkpt>
      <trkpt lat="45.0452" lon="5.62265">
        <ele>710.4</ele>
        <time>2011-01-29T12:59:05Z</time>
      </trkpt>
      <trkpt lat="45.04518" lon="5.62262">
        <ele>710.2</ele>
        <time>2011-01-29T12:59:07Z</time>
      </trkpt>
      <trkpt lat="45.04514" lon="5.62251">
        <ele>710.4</ele>
        <time>2011-01-29T12:59:13Z</time>
      </trkpt>
      <trkpt lat="45.04513" lon="5.62243">
        <ele>710.4</ele>
        <time>2011-01-29T12:59:17Z</time>
      </trkpt>
      <trkpt lat="45.04513" lon="5.62241">
        <ele>710.6</ele>
        <time>2011-01-29T12:59:18Z</time>
      </trkpt>
      <trkpt lat="45.04511" lon="5.62228">
        <ele>710.6</ele>
        <time>2011-01-29T12:59:25Z</time>
      </trkpt>
      <trkpt lat="45.0451" lon="5.62218">
        <ele>710.4</ele>
        <time>2011-01-29T12:59:30Z</time>
      </trkpt>
      <trkpt lat="45.0451" lon="5.62214">
        <ele>710.4</ele>
        <time>2011-01-29T12:59:32Z</time>
      </trkpt>
      <trkpt lat="45.04509" lon="5.62207">
        <ele>710.4</ele>
        <time>2011-01-29T12:59:36Z</time>
      </trkpt>
      <trkpt lat="45.04508" lon="5.62205">
        <ele>710.4</ele>
        <time>2011-01-29T12:59:37Z</time>
      </trkpt>
      <trkpt lat="45.04507" lon="5.62199">
        <ele>710.4</ele>
        <time>2011-01-29T12:59:40Z</time>
      </trkpt>
      <trkpt lat="45.04506" lon="5.62196">
        <ele>710.4</ele>
        <time>2011-01-29T12:59:42Z</time>
      </trkpt>
      <trkpt lat="45.04505" lon="5.62193">
        <ele>710.4</ele>
        <time>2011-01-29T12:59:44Z</time>
      </trkpt>
      <trkpt lat="45.04502" lon="5.62186">
        <ele>710.4</ele>
        <time>2011-01-29T12:59:48Z</time>
      </trkpt>
      <trkpt lat="45.04499" lon="5.62175">
        <ele>710.2</ele>
        <time>2011-01-29T12:59:53Z</time>
      </trkpt>
      <trkpt lat="45.04497" lon="5.6217">
        <ele>710.2</ele>
        <time>2011-01-29T12:59:56Z</time>
      </trkpt>
      <trkpt lat="45.04494" lon="5.62162">
        <ele>710.2</ele>
        <time>2011-01-29T13:00:01Z</time>
      </trkpt>
      <trkpt lat="45.04488" lon="5.6215">
        <ele>710.2</ele>
        <time>2011-01-29T13:00:08Z</time>
      </trkpt>
      <trkpt lat="45.04487" lon="5.62148">
        <ele>710.2</ele>
        <time>2011-01-29T13:00:09Z</time>
      </trkpt>
      <trkpt lat="45.04479" lon="5.62137">
        <ele>711</ele>
        <time>2011-01-29T13:00:16Z</time>
      </trkpt>
      <trkpt lat="45.04474" lon="5.6213">
        <ele>711.8</ele>
        <time>2011-01-29T13:00:21Z</time>
      </trkpt>
      <trkpt lat="45.04472" lon="5.62124">
        <ele>712.6</ele>
        <time>2011-01-29T13:00:25Z</time>
      </trkpt>
      <trkpt lat="45.04469" lon="5.62119">
        <ele>713.6</ele>
        <time>2011-01-29T13:00:29Z</time>
      </trkpt>
      <trkpt lat="45.04468" lon="5.62118">
        <ele>713.8</ele>
        <time>2011-01-29T13:00:30Z</time>
      </trkpt>
      <trkpt lat="45.04464" lon="5.62112">
        <ele>715.2</ele>
        <time>2011-01-29T13:00:35Z</time>
      </trkpt>
      <trkpt lat="45.04463" lon="5.6211">
        <ele>715.4</ele>
        <time>2011-01-29T13:00:36Z</time>
      </trkpt>
      <trkpt lat="45.04461" lon="5.62106">
        <ele>716.2</ele>
        <time>2011-01-29T13:00:39Z</time>
      </trkpt>
      <trkpt lat="45.04455" lon="5.62098">
        <ele>717.8</ele>
        <time>2011-01-29T13:00:45Z</time>
      </trkpt>
      <trkpt lat="45.04453" lon="5.62096">
        <ele>718.2</ele>
        <time>2011-01-29T13:00:47Z</time>
      </trkpt>
      <trkpt lat="45.04452" lon="5.62093">
        <ele>718.8</ele>
        <time>2011-01-29T13:00:49Z</time>
      </trkpt>
      <trkpt lat="45.04451" lon="5.62091">
        <ele>719</ele>
        <time>2011-01-29T13:00:50Z</time>
      </trkpt>
      <trkpt lat="45.04447" lon="5.62083">
        <ele>720.2</ele>
        <time>2011-01-29T13:00:55Z</time>
      </trkpt>
      <trkpt lat="45.04439" lon="5.62072">
        <ele>721.8</ele>
        <time>2011-01-29T13:01:03Z</time>
      </trkpt>
      <trkpt lat="45.04438" lon="5.6207">
        <ele>722</ele>
        <time>2011-01-29T13:01:04Z</time>
      </trkpt>
      <trkpt lat="45.04432" lon="5.62057">
        <ele>723.8</ele>
        <time>2011-01-29T13:01:11Z</time>
      </trkpt>
      <trkpt lat="45.04427" lon="5.62051">
        <ele>724.8</ele>
        <time>2011-01-29T13:01:15Z</time>
      </trkpt>
      <trkpt lat="45.04424" lon="5.62046">
        <ele>725.4</ele>
        <time>2011-01-29T13:01:18Z</time>
      </trkpt>
      <trkpt lat="45.04418" lon="5.62034">
        <ele>726.8</ele>
        <time>2011-01-29T13:01:25Z</time>
      </trkpt>
      <trkpt lat="45.04416" lon="5.6203">
        <ele>727</ele>
        <time>2011-01-29T13:01:27Z</time>
      </trkpt>
      <trkpt lat="45.04413" lon="5.62025">
        <ele>727.6</ele>
        <time>2011-01-29T13:01:30Z</time>
      </trkpt>
      <trkpt lat="45.04405" lon="5.62013">
        <ele>728.6</ele>
        <time>2011-01-29T13:01:37Z</time>
      </trkpt>
      <trkpt lat="45.04404" lon="5.62011">
        <ele>728.8</ele>
        <time>2011-01-29T13:01:38Z</time>
      </trkpt>
      <trkpt lat="45.04396" lon="5.62">
        <ele>729.6</ele>
        <time>2011-01-29T13:01:44Z</time>
      </trkpt>
      <trkpt lat="45.04393" lon="5.61989">
        <ele>730.2</ele>
        <time>2011-01-29T13:01:50Z</time>
      </trkpt>
      <trkpt lat="45.04391" lon="5.61985">
        <ele>730.4</ele>
        <time>2011-01-29T13:01:52Z</time>
      </trkpt>
      <trkpt lat="45.04385" lon="5.61972">
        <ele>731.4</ele>
        <time>2011-01-29T13:01:59Z</time>
      </trkpt>
      <trkpt lat="45.04382" lon="5.61968">
        <ele>732</ele>
        <time>2011-01-29T13:02:01Z</time>
      </trkpt>
      <trkpt lat="45.04378" lon="5.61961">
        <ele>733.4</ele>
        <time>2011-01-29T13:02:06Z</time>
      </trkpt>
      <trkpt lat="45.04373" lon="5.61951">
        <ele>735.4</ele>
        <time>2011-01-29T13:02:13Z</time>
      </trkpt>
      <trkpt lat="45.0437" lon="5.61947">
        <ele>736.4</ele>
        <time>2011-01-29T13:02:16Z</time>
      </trkpt>
      <trkpt lat="45.04366" lon="5.61941">
        <ele>737.6</ele>
        <time>2011-01-29T13:02:20Z</time>
      </trkpt>
      <trkpt lat="45.04364" lon="5.61939">
        <ele>738</ele>
        <time>2011-01-29T13:02:22Z</time>
      </trkpt>
      <trkpt lat="45.04362" lon="5.61937">
        <ele>739</ele>
        <time>2011-01-29T13:02:26Z</time>
      </trkpt>
      <trkpt lat="45.04361" lon="5.61936">
        <ele>739.4</ele>
        <time>2011-01-29T13:02:27Z</time>
      </trkpt>
      <trkpt lat="45.04358" lon="5.61934">
        <ele>741</ele>
        <time>2011-01-29T13:02:32Z</time>
      </trkpt>
      <trkpt lat="45.04354" lon="5.61932">
        <ele>742.6</ele>
        <time>2011-01-29T13:02:36Z</time>
      </trkpt>
      <trkpt lat="45.04353" lon="5.61931">
        <ele>743</ele>
        <time>2011-01-29T13:02:37Z</time>
      </trkpt>
      <trkpt lat="45.04351" lon="5.61928">
        <ele>743.6</ele>
        <time>2011-01-29T13:02:39Z</time>
      </trkpt>
      <trkpt lat="45.04348" lon="5.61925">
        <ele>744.8</ele>
        <time>2011-01-29T13:02:42Z</time>
      </trkpt>
      <trkpt lat="45.04344" lon="5.61921">
        <ele>746.2</ele>
        <time>2011-01-29T13:02:46Z</time>
      </trkpt>
      <trkpt lat="45.04344" lon="5.61919">
        <ele>747</ele>
        <time>2011-01-29T13:02:48Z</time>
      </trkpt>
      <trkpt lat="45.04344" lon="5.61918">
        <ele>747.2</ele>
        <time>2011-01-29T13:02:49Z</time>
      </trkpt>
      <trkpt lat="45.0434" lon="5.61914">
        <ele>749.8</ele>
        <time>2011-01-29T13:02:54Z</time>
      </trkpt>
      <trkpt lat="45.0434" lon="5.61913">
        <ele>750.2</ele>
        <time>2011-01-29T13:02:55Z</time>
      </trkpt>
      <trkpt lat="45.04334" lon="5.61903">
        <ele>753</ele>
        <time>2011-01-29T13:03:01Z</time>
      </trkpt>
      <trkpt lat="45.04332" lon="5.61899">
        <ele>753.6</ele>
        <time>2011-01-29T13:03:03Z</time>
      </trkpt>
      <trkpt lat="45.04332" lon="5.61894">
        <ele>754.2</ele>
        <time>2011-01-29T13:03:05Z</time>
      </trkpt>
      <trkpt lat="45.04331" lon="5.61893">
        <ele>754.6</ele>
        <time>2011-01-29T13:03:06Z</time>
      </trkpt>
      <trkpt lat="45.04327" lon="5.61886">
        <ele>756</ele>
        <time>2011-01-29T13:03:12Z</time>
      </trkpt>
      <trkpt lat="45.04326" lon="5.61885">
        <ele>756.2</ele>
        <time>2011-01-29T13:03:13Z</time>
      </trkpt>
      <trkpt lat="45.04322" lon="5.61881">
        <ele>757.8</ele>
        <time>2011-01-29T13:03:17Z</time>
      </trkpt>
      <trkpt lat="45.04322" lon="5.6188">
        <ele>758</ele>
        <time>2011-01-29T13:03:18Z</time>
      </trkpt>
      <trkpt lat="45.04317" lon="5.61876">
        <ele>759.4</ele>
        <time>2011-01-29T13:03:23Z</time>
      </trkpt>
      <trkpt lat="45.04315" lon="5.61876">
        <ele>760.2</ele>
        <time>2011-01-29T13:03:25Z</time>
      </trkpt>
      <trkpt lat="45.04313" lon="5.61875">
        <ele>760.8</ele>
        <time>2011-01-29T13:03:27Z</time>
      </trkpt>
      <trkpt lat="45.04311" lon="5.61874">
        <ele>761.6</ele>
        <time>2011-01-29T13:03:30Z</time>
      </trkpt>
      <trkpt lat="45.04307" lon="5.6187">
        <ele>763.4</ele>
        <time>2011-01-29T13:03:36Z</time>
      </trkpt>
      <trkpt lat="45.04305" lon="5.6187">
        <ele>769.8</ele>
        <time>2011-01-29T13:03:50Z</time>
      </trkpt>
      <trkpt lat="45.04304" lon="5.61868">
        <ele>771.6</ele>
        <time>2011-01-29T13:03:53Z</time>
      </trkpt>
      <trkpt lat="45.04302" lon="5.61864">
        <ele>772.2</ele>
        <time>2011-01-29T13:03:55Z</time>
      </trkpt>
      <trkpt lat="45.04301" lon="5.61862">
        <ele>773</ele>
        <time>2011-01-29T13:03:57Z</time>
      </trkpt>
      <trkpt lat="45.04296" lon="5.61859">
        <ele>775.6</ele>
        <time>2011-01-29T13:04:03Z</time>
      </trkpt>
      <trkpt lat="45.04295" lon="5.61857">
        <ele>776.2</ele>
        <time>2011-01-29T13:04:05Z</time>
      </trkpt>
      <trkpt lat="45.04294" lon="5.61856">
        <ele>776.4</ele>
        <time>2011-01-29T13:04:06Z</time>
      </trkpt>
      <trkpt lat="45.0429" lon="5.61853">
        <ele>778</ele>
        <time>2011-01-29T13:04:12Z</time>
      </trkpt>
      <trkpt lat="45.0429" lon="5.61852">
        <ele>778.4</ele>
        <time>2011-01-29T13:04:13Z</time>
      </trkpt>
      <trkpt lat="45.04289" lon="5.6185">
        <ele>778.6</ele>
        <time>2011-01-29T13:04:15Z</time>
      </trkpt>
      <trkpt lat="45.04288" lon="5.61848">
        <ele>778.6</ele>
        <time>2011-01-29T13:04:16Z</time>
      </trkpt>
      <trkpt lat="45.04286" lon="5.61844">
        <ele>778.8</ele>
        <time>2011-01-29T13:04:19Z</time>
      </trkpt>
      <trkpt lat="45.04285" lon="5.61843">
        <ele>779</ele>
        <time>2011-01-29T13:04:20Z</time>
      </trkpt>
      <trkpt lat="45.04282" lon="5.61839">
        <ele>779.2</ele>
        <time>2011-01-29T13:04:25Z</time>
      </trkpt>
      <trkpt lat="45.0428" lon="5.61837">
        <ele>779.4</ele>
        <time>2011-01-29T13:04:27Z</time>
      </trkpt>
      <trkpt lat="45.04277" lon="5.61835">
        <ele>779.8</ele>
        <time>2011-01-29T13:04:30Z</time>
      </trkpt>
      <trkpt lat="45.04274" lon="5.61833">
        <ele>780</ele>
        <time>2011-01-29T13:04:33Z</time>
      </trkpt>
      <trkpt lat="45.04274" lon="5.61833">
        <ele>780</ele>
        <time>2011-01-29T13:04:34Z</time>
      </trkpt>
      <trkpt lat="45.0427" lon="5.61829">
        <ele>780.6</ele>
        <time>2011-01-29T13:04:39Z</time>
      </trkpt>
      <trkpt lat="45.04264" lon="5.6183">
        <ele>781.8</ele>
        <time>2011-01-29T13:04:44Z</time>
      </trkpt>
      <trkpt lat="45.0426" lon="5.61829">
        <ele>783</ele>
        <time>2011-01-29T13:04:48Z</time>
      </trkpt>
      <trkpt lat="45.04258" lon="5.61829">
        <ele>783.8</ele>
        <time>2011-01-29T13:04:50Z</time>
      </trkpt>
      <trkpt lat="45.04256" lon="5.61829">
        <ele>784</ele>
        <time>2011-01-29T13:04:51Z</time>
      </trkpt>
      <trkpt lat="45.04255" lon="5.61827">
        <ele>784.6</ele>
        <time>2011-01-29T13:04:53Z</time>
      </trkpt>
      <trkpt lat="45.04252" lon="5.61823">
        <ele>785.6</ele>
        <time>2011-01-29T13:04:57Z</time>
      </trkpt>
      <trkpt lat="45.04251" lon="5.61822">
        <ele>785.8</ele>
        <time>2011-01-29T13:04:58Z</time>
      </trkpt>
      <trkpt lat="45.04246" lon="5.61818">
        <ele>787</ele>
        <time>2011-01-29T13:05:03Z</time>
      </trkpt>
      <trkpt lat="45.04242" lon="5.61816">
        <ele>788.6</ele>
        <time>2011-01-29T13:05:07Z</time>
      </trkpt>
      <trkpt lat="45.04241" lon="5.61816">
        <ele>789</ele>
        <time>2011-01-29T13:05:08Z</time>
      </trkpt>
      <trkpt lat="45.0424" lon="5.61815">
        <ele>789.4</ele>
        <time>2011-01-29T13:05:09Z</time>
      </trkpt>
      <trkpt lat="45.04238" lon="5.61815">
        <ele>790</ele>
        <time>2011-01-29T13:05:11Z</time>
      </trkpt>
      <trkpt lat="45.04232" lon="5.61812">
        <ele>792.4</ele>
        <time>2011-01-29T13:05:17Z</time>
      </trkpt>
      <trkpt lat="45.04225" lon="5.61811">
        <ele>795</ele>
        <time>2011-01-29T13:05:23Z</time>
      </trkpt>
      <trkpt lat="45.04224" lon="5.6181">
        <ele>795.4</ele>
        <time>2011-01-29T13:05:24Z</time>
      </trkpt>
      <trkpt lat="45.04223" lon="5.6181">
        <ele>795.8</ele>
        <time>2011-01-29T13:05:25Z</time>
      </trkpt>
      <trkpt lat="45.0422" lon="5.61809">
        <ele>797</ele>
        <time>2011-01-29T13:05:28Z</time>
      </trkpt>
      <trkpt lat="45.04218" lon="5.61808">
        <ele>797.8</ele>
        <time>2011-01-29T13:05:30Z</time>
      </trkpt>
      <trkpt lat="45.04212" lon="5.61806">
        <ele>799.6</ele>
        <time>2011-01-29T13:05:35Z</time>
      </trkpt>
      <trkpt lat="45.04206" lon="5.61803">
        <ele>801.4</ele>
        <time>2011-01-29T13:05:40Z</time>
      </trkpt>
      <trkpt lat="45.04204" lon="5.61802">
        <ele>802</ele>
        <time>2011-01-29T13:05:41Z</time>
      </trkpt>
      <trkpt lat="45.04197" lon="5.61798">
        <ele>805.8</ele>
        <time>2011-01-29T13:05:48Z</time>
      </trkpt>
      <trkpt lat="45.04194" lon="5.61797">
        <ele>807.2</ele>
        <time>2011-01-29T13:05:51Z</time>
      </trkpt>
      <trkpt lat="45.04192" lon="5.61797">
        <ele>808.4</ele>
        <time>2011-01-29T13:05:54Z</time>
      </trkpt>
      <trkpt lat="45.04188" lon="5.61796">
        <ele>809.6</ele>
        <time>2011-01-29T13:05:57Z</time>
      </trkpt>
      <trkpt lat="45.04187" lon="5.61794">
        <ele>810.2</ele>
        <time>2011-01-29T13:05:59Z</time>
      </trkpt>
      <trkpt lat="45.04187" lon="5.61793">
        <ele>810.4</ele>
        <time>2011-01-29T13:06:00Z</time>
      </trkpt>
      <trkpt lat="45.04186" lon="5.61793">
        <ele>810.8</ele>
        <time>2011-01-29T13:06:02Z</time>
      </trkpt>
      <trkpt lat="45.04185" lon="5.61792">
        <ele>811</ele>
        <time>2011-01-29T13:06:04Z</time>
      </trkpt>
      <trkpt lat="45.04182" lon="5.61792">
        <ele>811.6</ele>
        <time>2011-01-29T13:06:08Z</time>
      </trkpt>
      <trkpt lat="45.04179" lon="5.6179">
        <ele>812</ele>
        <time>2011-01-29T13:06:12Z</time>
      </trkpt>
      <trkpt lat="45.04175" lon="5.61789">
        <ele>813</ele>
        <time>2011-01-29T13:06:16Z</time>
      </trkpt>
      <trkpt lat="45.04173" lon="5.61787">
        <ele>813.6</ele>
        <time>2011-01-29T13:06:18Z</time>
      </trkpt>
      <trkpt lat="45.04171" lon="5.61786">
        <ele>814.2</ele>
        <time>2011-01-29T13:06:20Z</time>
      </trkpt>
      <trkpt lat="45.04169" lon="5.61786">
        <ele>814.6</ele>
        <time>2011-01-29T13:06:22Z</time>
      </trkpt>
      <trkpt lat="45.04167" lon="5.61786">
        <ele>815.4</ele>
        <time>2011-01-29T13:06:24Z</time>
      </trkpt>
      <trkpt lat="45.04165" lon="5.61785">
        <ele>816.4</ele>
        <time>2011-01-29T13:06:26Z</time>
      </trkpt>
      <trkpt lat="45.04163" lon="5.61785">
        <ele>817.4</ele>
        <time>2011-01-29T13:06:28Z</time>
      </trkpt>
      <trkpt lat="45.04159" lon="5.61782">
        <ele>819.8</ele>
        <time>2011-01-29T13:06:33Z</time>
      </trkpt>
      <trkpt lat="45.04156" lon="5.6178">
        <ele>822</ele>
        <time>2011-01-29T13:06:37Z</time>
      </trkpt>
      <trkpt lat="45.04155" lon="5.6178">
        <ele>822.6</ele>
        <time>2011-01-29T13:06:38Z</time>
      </trkpt>
      <trkpt lat="45.04153" lon="5.61778">
        <ele>824.2</ele>
        <time>2011-01-29T13:06:42Z</time>
      </trkpt>
      <trkpt lat="45.0415" lon="5.61779">
        <ele>825.8</ele>
        <time>2011-01-29T13:06:47Z</time>
      </trkpt>
      <trkpt lat="45.04148" lon="5.6178">
        <ele>826.8</ele>
        <time>2011-01-29T13:06:52Z</time>
      </trkpt>
      <trkpt lat="45.04146" lon="5.61779">
        <ele>827.6</ele>
        <time>2011-01-29T13:06:56Z</time>
      </trkpt>
      <trkpt lat="45.04142" lon="5.6178">
        <ele>829.2</ele>
        <time>2011-01-29T13:07:00Z</time>
      </trkpt>
      <trkpt lat="45.04139" lon="5.61779">
        <ele>830.2</ele>
        <time>2011-01-29T13:07:04Z</time>
      </trkpt>
      <trkpt lat="45.04138" lon="5.61779">
        <ele>830.8</ele>
        <time>2011-01-29T13:07:06Z</time>
      </trkpt>
      <trkpt lat="45.04137" lon="5.61779">
        <ele>831.2</ele>
        <time>2011-01-29T13:07:08Z</time>
      </trkpt>
      <trkpt lat="45.04135" lon="5.61781">
        <ele>832.2</ele>
        <time>2011-01-29T13:07:14Z</time>
      </trkpt>
      <trkpt lat="45.04134" lon="5.61785">
        <ele>832.6</ele>
        <time>2011-01-29T13:07:18Z</time>
      </trkpt>
      <trkpt lat="45.04134" lon="5.61787">
        <ele>833</ele>
        <time>2011-01-29T13:07:21Z</time>
      </trkpt>
      <trkpt lat="45.04135" lon="5.61792">
        <ele>833.4</ele>
        <time>2011-01-29T13:07:26Z</time>
      </trkpt>
      <trkpt lat="45.04136" lon="5.61796">
        <ele>833.8</ele>
        <time>2011-01-29T13:07:30Z</time>
      </trkpt>
      <trkpt lat="45.04137" lon="5.61799">
        <ele>834.4</ele>
        <time>2011-01-29T13:07:35Z</time>
      </trkpt>
      <trkpt lat="45.04137" lon="5.61799">
        <ele>834.6</ele>
        <time>2011-01-29T13:07:36Z</time>
      </trkpt>
      <trkpt lat="45.04138" lon="5.618">
        <ele>835.6</ele>
        <time>2011-01-29T13:07:40Z</time>
      </trkpt>
      <trkpt lat="45.0414" lon="5.61802">
        <ele>836.8</ele>
        <time>2011-01-29T13:07:45Z</time>
      </trkpt>
      <trkpt lat="45.04144" lon="5.61806">
        <ele>838</ele>
        <time>2011-01-29T13:07:49Z</time>
      </trkpt>
      <trkpt lat="45.04145" lon="5.61807">
        <ele>838.4</ele>
        <time>2011-01-29T13:07:50Z</time>
      </trkpt>
      <trkpt lat="45.04146" lon="5.61809">
        <ele>838.6</ele>
        <time>2011-01-29T13:07:52Z</time>
      </trkpt>
      <trkpt lat="45.04146" lon="5.6181">
        <ele>838.6</ele>
        <time>2011-01-29T13:07:53Z</time>
      </trkpt>
      <trkpt lat="45.04148" lon="5.61813">
        <ele>839.4</ele>
        <time>2011-01-29T13:07:56Z</time>
      </trkpt>
      <trkpt lat="45.04148" lon="5.61814">
        <ele>839.8</ele>
        <time>2011-01-29T13:07:57Z</time>
      </trkpt>
      <trkpt lat="45.04149" lon="5.61815">
        <ele>840</ele>
        <time>2011-01-29T13:07:58Z</time>
      </trkpt>
      <trkpt lat="45.04149" lon="5.61816">
        <ele>840.4</ele>
        <time>2011-01-29T13:07:59Z</time>
      </trkpt>
      <trkpt lat="45.04153" lon="5.61822">
        <ele>841.6</ele>
        <time>2011-01-29T13:08:04Z</time>
      </trkpt>
      <trkpt lat="45.04154" lon="5.61823">
        <ele>841.8</ele>
        <time>2011-01-29T13:08:05Z</time>
      </trkpt>
      <trkpt lat="45.04155" lon="5.61826">
        <ele>842.6</ele>
        <time>2011-01-29T13:08:07Z</time>
      </trkpt>
      <trkpt lat="45.04158" lon="5.61829">
        <ele>843.6</ele>
        <time>2011-01-29T13:08:11Z</time>
      </trkpt>
      <trkpt lat="45.04163" lon="5.61833">
        <ele>844.4</ele>
        <time>2011-01-29T13:08:16Z</time>
      </trkpt>
      <trkpt lat="45.04163" lon="5.61834">
        <ele>844.8</ele>
        <time>2011-01-29T13:08:17Z</time>
      </trkpt>
      <trkpt lat="45.04165" lon="5.61837">
        <ele>845.6</ele>
        <time>2011-01-29T13:08:20Z</time>
      </trkpt>
      <trkpt lat="45.04168" lon="5.61842">
        <ele>846.6</ele>
        <time>2011-01-29T13:08:24Z</time>
      </trkpt>
      <trkpt lat="45.04169" lon="5.61845">
        <ele>848</ele>
        <time>2011-01-29T13:08:28Z</time>
      </trkpt>
      <trkpt lat="45.0417" lon="5.61847">
        <ele>848.6</ele>
        <time>2011-01-29T13:08:30Z</time>
      </trkpt>
      <trkpt lat="45.04171" lon="5.61851">
        <ele>850.4</ele>
        <time>2011-01-29T13:08:34Z</time>
      </trkpt>
      <trkpt lat="45.04171" lon="5.61852">
        <ele>850.8</ele>
        <time>2011-01-29T13:08:35Z</time>
      </trkpt>
      <trkpt lat="45.04173" lon="5.61855">
        <ele>852.2</ele>
        <time>2011-01-29T13:08:39Z</time>
      </trkpt>
      <trkpt lat="45.04174" lon="5.61859">
        <ele>854.2</ele>
        <time>2011-01-29T13:08:44Z</time>
      </trkpt>
      <trkpt lat="45.04173" lon="5.61864">
        <ele>855.8</ele>
        <time>2011-01-29T13:08:48Z</time>
      </trkpt>
      <trkpt lat="45.04174" lon="5.61865">
        <ele>856</ele>
        <time>2011-01-29T13:08:49Z</time>
      </trkpt>
      <trkpt lat="45.04175" lon="5.61868">
        <ele>856.6</ele>
        <time>2011-01-29T13:08:51Z</time>
      </trkpt>
      <trkpt lat="45.04177" lon="5.61871">
        <ele>857</ele>
        <time>2011-01-29T13:08:53Z</time>
      </trkpt>
      <trkpt lat="45.04179" lon="5.61877">
        <ele>857.6</ele>
        <time>2011-01-29T13:08:57Z</time>
      </trkpt>
      <trkpt lat="45.04182" lon="5.61885">
        <ele>858.2</ele>
        <time>2011-01-29T13:09:02Z</time>
      </trkpt>
      <trkpt lat="45.04182" lon="5.61887">
        <ele>858.4</ele>
        <time>2011-01-29T13:09:05Z</time>
      </trkpt>
      <trkpt lat="45.04182" lon="5.6189">
        <ele>859</ele>
        <time>2011-01-29T13:09:07Z</time>
      </trkpt>
      <trkpt lat="45.04185" lon="5.61899">
        <ele>859.2</ele>
        <time>2011-01-29T13:09:13Z</time>
      </trkpt>
      <trkpt lat="45.04185" lon="5.619">
        <ele>859.2</ele>
        <time>2011-01-29T13:09:14Z</time>
      </trkpt>
      <trkpt lat="45.04186" lon="5.61902">
        <ele>859.2</ele>
        <time>2011-01-29T13:09:15Z</time>
      </trkpt>
      <trkpt lat="45.04189" lon="5.61915">
        <ele>859.4</ele>
        <time>2011-01-29T13:09:23Z</time>
      </trkpt>
      <trkpt lat="45.0419" lon="5.61917">
        <ele>859.4</ele>
        <time>2011-01-29T13:09:24Z</time>
      </trkpt>
      <trkpt lat="45.04192" lon="5.61922">
        <ele>859.6</ele>
        <time>2011-01-29T13:09:29Z</time>
      </trkpt>
      <trkpt lat="45.04193" lon="5.61925">
        <ele>859.8</ele>
        <time>2011-01-29T13:09:31Z</time>
      </trkpt>
      <trkpt lat="45.04194" lon="5.61935">
        <ele>860</ele>
        <time>2011-01-29T13:09:37Z</time>
      </trkpt>
      <trkpt lat="45.04195" lon="5.61936">
        <ele>860</ele>
        <time>2011-01-29T13:09:38Z</time>
      </trkpt>
      <trkpt lat="45.04194" lon="5.61942">
        <ele>860.8</ele>
        <time>2011-01-29T13:09:42Z</time>
      </trkpt>
      <trkpt lat="45.04194" lon="5.61944">
        <ele>861</ele>
        <time>2011-01-29T13:09:43Z</time>
      </trkpt>
      <trkpt lat="45.04193" lon="5.61949">
        <ele>861.8</ele>
        <time>2011-01-29T13:09:46Z</time>
      </trkpt>
      <trkpt lat="45.04192" lon="5.61954">
        <ele>862.6</ele>
        <time>2011-01-29T13:09:49Z</time>
      </trkpt>
      <trkpt lat="45.04187" lon="5.61967">
        <ele>865.2</ele>
        <time>2011-01-29T13:09:56Z</time>
      </trkpt>
      <trkpt lat="45.04185" lon="5.61972">
        <ele>866.4</ele>
        <time>2011-01-29T13:09:58Z</time>
      </trkpt>
      <trkpt lat="45.04184" lon="5.61976">
        <ele>867.2</ele>
        <time>2011-01-29T13:10:00Z</time>
      </trkpt>
      <trkpt lat="45.04182" lon="5.61983">
        <ele>869.4</ele>
        <time>2011-01-29T13:10:04Z</time>
      </trkpt>
      <trkpt lat="45.04181" lon="5.6199">
        <ele>872</ele>
        <time>2011-01-29T13:10:10Z</time>
      </trkpt>
      <trkpt lat="45.04184" lon="5.61997">
        <ele>874.4</ele>
        <time>2011-01-29T13:10:16Z</time>
      </trkpt>
      <trkpt lat="45.04184" lon="5.62001">
        <ele>875.4</ele>
        <time>2011-01-29T13:10:20Z</time>
      </trkpt>
      <trkpt lat="45.04185" lon="5.62003">
        <ele>875.8</ele>
        <time>2011-01-29T13:10:22Z</time>
      </trkpt>
      <trkpt lat="45.04186" lon="5.62012">
        <ele>877.4</ele>
        <time>2011-01-29T13:10:29Z</time>
      </trkpt>
      <trkpt lat="45.04186" lon="5.62017">
        <ele>878.2</ele>
        <time>2011-01-29T13:10:32Z</time>
      </trkpt>
      <trkpt lat="45.04186" lon="5.62021">
        <ele>879.2</ele>
        <time>2011-01-29T13:10:35Z</time>
      </trkpt>
      <trkpt lat="45.04185" lon="5.62022">
        <ele>879.4</ele>
        <time>2011-01-29T13:10:36Z</time>
      </trkpt>
      <trkpt lat="45.04183" lon="5.62026">
        <ele>879.8</ele>
        <time>2011-01-29T13:10:39Z</time>
      </trkpt>
      <trkpt lat="45.04182" lon="5.62027">
        <ele>880.4</ele>
        <time>2011-01-29T13:10:41Z</time>
      </trkpt>
      <trkpt lat="45.04182" lon="5.62028">
        <ele>880.6</ele>
        <time>2011-01-29T13:10:42Z</time>
      </trkpt>
      <trkpt lat="45.04182" lon="5.62029">
        <ele>880.8</ele>
        <time>2011-01-29T13:10:44Z</time>
      </trkpt>
      <trkpt lat="45.04181" lon="5.6203">
        <ele>881.2</ele>
        <time>2011-01-29T13:10:45Z</time>
      </trkpt>
      <trkpt lat="45.0418" lon="5.62032">
        <ele>881.8</ele>
        <time>2011-01-29T13:10:49Z</time>
      </trkpt>
      <trkpt lat="45.04179" lon="5.62034">
        <ele>882.4</ele>
        <time>2011-01-29T13:10:50Z</time>
      </trkpt>
      <trkpt lat="45.04177" lon="5.62036">
        <ele>883.4</ele>
        <time>2011-01-29T13:10:52Z</time>
      </trkpt>
      <trkpt lat="45.04174" lon="5.62036">
        <ele>884.2</ele>
        <time>2011-01-29T13:10:54Z</time>
      </trkpt>
      <trkpt lat="45.04171" lon="5.62037">
        <ele>885.6</ele>
        <time>2011-01-29T13:10:58Z</time>
      </trkpt>
      <trkpt lat="45.04167" lon="5.62039">
        <ele>887.8</ele>
        <time>2011-01-29T13:11:03Z</time>
      </trkpt>
      <trkpt lat="45.04167" lon="5.62039">
        <ele>888.2</ele>
        <time>2011-01-29T13:11:04Z</time>
      </trkpt>
      <trkpt lat="45.04166" lon="5.62039">
        <ele>889.6</ele>
        <time>2011-01-29T13:11:08Z</time>
      </trkpt>
      <trkpt lat="45.04164" lon="5.62037">
        <ele>890.4</ele>
        <time>2011-01-29T13:11:10Z</time>
      </trkpt>
      <trkpt lat="45.04162" lon="5.62035">
        <ele>891.6</ele>
        <time>2011-01-29T13:11:13Z</time>
      </trkpt>
      <trkpt lat="45.04161" lon="5.62035">
        <ele>892.2</ele>
        <time>2011-01-29T13:11:14Z</time>
      </trkpt>
      <trkpt lat="45.04158" lon="5.62035">
        <ele>893.6</ele>
        <time>2011-01-29T13:11:18Z</time>
      </trkpt>
      <trkpt lat="45.04156" lon="5.62033">
        <ele>894.4</ele>
        <time>2011-01-29T13:11:20Z</time>
      </trkpt>
      <trkpt lat="45.04155" lon="5.62033">
        <ele>894.8</ele>
        <time>2011-01-29T13:11:21Z</time>
      </trkpt>
      <trkpt lat="45.0415" lon="5.62027">
        <ele>896.2</ele>
        <time>2011-01-29T13:11:27Z</time>
      </trkpt>
      <trkpt lat="45.04147" lon="5.62022">
        <ele>897.2</ele>
        <time>2011-01-29T13:11:31Z</time>
      </trkpt>
      <trkpt lat="45.04146" lon="5.6202">
        <ele>897.6</ele>
        <time>2011-01-29T13:11:33Z</time>
      </trkpt>
      <trkpt lat="45.04144" lon="5.62019">
        <ele>898</ele>
        <time>2011-01-29T13:11:35Z</time>
      </trkpt>
      <trkpt lat="45.04141" lon="5.62017">
        <ele>899.2</ele>
        <time>2011-01-29T13:11:39Z</time>
      </trkpt>
      <trkpt lat="45.04135" lon="5.62011">
        <ele>901.2</ele>
        <time>2011-01-29T13:11:45Z</time>
      </trkpt>
      <trkpt lat="45.04133" lon="5.62008">
        <ele>901.6</ele>
        <time>2011-01-29T13:11:47Z</time>
      </trkpt>
      <trkpt lat="45.0413" lon="5.62003">
        <ele>902.6</ele>
        <time>2011-01-29T13:11:50Z</time>
      </trkpt>
      <trkpt lat="45.04126" lon="5.62">
        <ele>903.8</ele>
        <time>2011-01-29T13:11:54Z</time>
      </trkpt>
      <trkpt lat="45.04125" lon="5.62001">
        <ele>904.2</ele>
        <time>2011-01-29T13:11:55Z</time>
      </trkpt>
      <trkpt lat="45.04122" lon="5.62">
        <ele>905.2</ele>
        <time>2011-01-29T13:11:59Z</time>
      </trkpt>
      <trkpt lat="45.04121" lon="5.61999">
        <ele>905.4</ele>
        <time>2011-01-29T13:12:00Z</time>
      </trkpt>
      <trkpt lat="45.04121" lon="5.61998">
        <ele>905.6</ele>
        <time>2011-01-29T13:12:01Z</time>
      </trkpt>
      <trkpt lat="45.04117" lon="5.61998">
        <ele>907.2</ele>
        <time>2011-01-29T13:12:06Z</time>
      </trkpt>
      <trkpt lat="45.04113" lon="5.61997">
        <ele>908.2</ele>
        <time>2011-01-29T13:12:11Z</time>
      </trkpt>
      <trkpt lat="45.04111" lon="5.61998">
        <ele>908.6</ele>
        <time>2011-01-29T13:12:12Z</time>
      </trkpt>
      <trkpt lat="45.04109" lon="5.61999">
        <ele>909.4</ele>
        <time>2011-01-29T13:12:14Z</time>
      </trkpt>
      <trkpt lat="45.04106" lon="5.61998">
        <ele>909.6</ele>
        <time>2011-01-29T13:12:18Z</time>
      </trkpt>
      <trkpt lat="45.04106" lon="5.61996">
        <ele>909.6</ele>
        <time>2011-01-29T13:12:21Z</time>
      </trkpt>
      <trkpt lat="45.04103" lon="5.61993">
        <ele>910.4</ele>
        <time>2011-01-29T13:12:25Z</time>
      </trkpt>
      <trkpt lat="45.04103" lon="5.61982">
        <ele>910.4</ele>
        <time>2011-01-29T13:12:32Z</time>
      </trkpt>
      <trkpt lat="45.04104" lon="5.61979">
        <ele>910.6</ele>
        <time>2011-01-29T13:12:34Z</time>
      </trkpt>
      <trkpt lat="45.04104" lon="5.61977">
        <ele>910.6</ele>
        <time>2011-01-29T13:12:35Z</time>
      </trkpt>
      <trkpt lat="45.04103" lon="5.61974">
        <ele>910.8</ele>
        <time>2011-01-29T13:12:37Z</time>
      </trkpt>
      <trkpt lat="45.04103" lon="5.61971">
        <ele>910.8</ele>
        <time>2011-01-29T13:12:40Z</time>
      </trkpt>
      <trkpt lat="45.04102" lon="5.61969">
        <ele>910.8</ele>
        <time>2011-01-29T13:12:41Z</time>
      </trkpt>
      <trkpt lat="45.04101" lon="5.61961">
        <ele>911.6</ele>
        <time>2011-01-29T13:12:48Z</time>
      </trkpt>
      <trkpt lat="45.04099" lon="5.61956">
        <ele>911.8</ele>
        <time>2011-01-29T13:12:54Z</time>
      </trkpt>
      <trkpt lat="45.04098" lon="5.61953">
        <ele>911.8</ele>
        <time>2011-01-29T13:12:59Z</time>
      </trkpt>
      <trkpt lat="45.04097" lon="5.61948">
        <ele>911.6</ele>
        <time>2011-01-29T13:13:03Z</time>
      </trkpt>
      <trkpt lat="45.04094" lon="5.61942">
        <ele>911.6</ele>
        <time>2011-01-29T13:13:09Z</time>
      </trkpt>
      <trkpt lat="45.04089" lon="5.61937">
        <ele>911.6</ele>
        <time>2011-01-29T13:13:15Z</time>
      </trkpt>
      <trkpt lat="45.04087" lon="5.61934">
        <ele>911.8</ele>
        <time>2011-01-29T13:13:19Z</time>
      </trkpt>
      <trkpt lat="45.04086" lon="5.61932">
        <ele>912</ele>
        <time>2011-01-29T13:13:21Z</time>
      </trkpt>
      <trkpt lat="45.04081" lon="5.61929">
        <ele>912.8</ele>
        <time>2011-01-29T13:13:27Z</time>
      </trkpt>
      <trkpt lat="45.04076" lon="5.61926">
        <ele>913.8</ele>
        <time>2011-01-29T13:13:32Z</time>
      </trkpt>
      <trkpt lat="45.04073" lon="5.61925">
        <ele>914.8</ele>
        <time>2011-01-29T13:13:36Z</time>
      </trkpt>
      <trkpt lat="45.04072" lon="5.61925">
        <ele>915.2</ele>
        <time>2011-01-29T13:13:37Z</time>
      </trkpt>
      <trkpt lat="45.04071" lon="5.61924">
        <ele>915.4</ele>
        <time>2011-01-29T13:13:38Z</time>
      </trkpt>
      <trkpt lat="45.04068" lon="5.61923">
        <ele>916.8</ele>
        <time>2011-01-29T13:13:42Z</time>
      </trkpt>
      <trkpt lat="45.04059" lon="5.61923">
        <ele>920</ele>
        <time>2011-01-29T13:13:49Z</time>
      </trkpt>
      <trkpt lat="45.04058" lon="5.61924">
        <ele>920.6</ele>
        <time>2011-01-29T13:13:50Z</time>
      </trkpt>
      <trkpt lat="45.04053" lon="5.61925">
        <ele>922.2</ele>
        <time>2011-01-29T13:13:53Z</time>
      </trkpt>
      <trkpt lat="45.04052" lon="5.61925">
        <ele>922.4</ele>
        <time>2011-01-29T13:13:54Z</time>
      </trkpt>
      <trkpt lat="45.04044" lon="5.61923">
        <ele>925.6</ele>
        <time>2011-01-29T13:14:00Z</time>
      </trkpt>
      <trkpt lat="45.04036" lon="5.61916">
        <ele>928.2</ele>
        <time>2011-01-29T13:14:06Z</time>
      </trkpt>
      <trkpt lat="45.04035" lon="5.61915">
        <ele>928.6</ele>
        <time>2011-01-29T13:14:07Z</time>
      </trkpt>
      <trkpt lat="45.04029" lon="5.61906">
        <ele>930.6</ele>
        <time>2011-01-29T13:14:14Z</time>
      </trkpt>
      <trkpt lat="45.04024" lon="5.61899">
        <ele>931.6</ele>
        <time>2011-01-29T13:14:21Z</time>
      </trkpt>
      <trkpt lat="45.04023" lon="5.61898">
        <ele>931.8</ele>
        <time>2011-01-29T13:14:22Z</time>
      </trkpt>
      <trkpt lat="45.0402" lon="5.61894">
        <ele>932.6</ele>
        <time>2011-01-29T13:14:25Z</time>
      </trkpt>
      <trkpt lat="45.04018" lon="5.61891">
        <ele>932.8</ele>
        <time>2011-01-29T13:14:27Z</time>
      </trkpt>
      <trkpt lat="45.04016" lon="5.61887">
        <ele>932.8</ele>
        <time>2011-01-29T13:14:30Z</time>
      </trkpt>
      <trkpt lat="45.04011" lon="5.61882">
        <ele>933.6</ele>
        <time>2011-01-29T13:14:33Z</time>
      </trkpt>
      <trkpt lat="45.0401" lon="5.6188">
        <ele>934</ele>
        <time>2011-01-29T13:14:34Z</time>
      </trkpt>
      <trkpt lat="45.04008" lon="5.61878">
        <ele>934.4</ele>
        <time>2011-01-29T13:14:35Z</time>
      </trkpt>
      <trkpt lat="45.04003" lon="5.6187">
        <ele>935.2</ele>
        <time>2011-01-29T13:14:38Z</time>
      </trkpt>
      <trkpt lat="45.03997" lon="5.6186">
        <ele>936.6</ele>
        <time>2011-01-29T13:14:42Z</time>
      </trkpt>
      <trkpt lat="45.03996" lon="5.61858">
        <ele>937</ele>
        <time>2011-01-29T13:14:43Z</time>
      </trkpt>
      <trkpt lat="45.03995" lon="5.61856">
        <ele>937.2</ele>
        <time>2011-01-29T13:14:44Z</time>
      </trkpt>
      <trkpt lat="45.03988" lon="5.61848">
        <ele>939</ele>
        <time>2011-01-29T13:14:48Z</time>
      </trkpt>
      <trkpt lat="45.03985" lon="5.61842">
        <ele>939.6</ele>
        <time>2011-01-29T13:14:50Z</time>
      </trkpt>
      <trkpt lat="45.0398" lon="5.61831">
        <ele>940.4</ele>
        <time>2011-01-29T13:14:53Z</time>
      </trkpt>
      <trkpt lat="45.03979" lon="5.61829">
        <ele>940.8</ele>
        <time>2011-01-29T13:14:54Z</time>
      </trkpt>
      <trkpt lat="45.03974" lon="5.61822">
        <ele>942</ele>
        <time>2011-01-29T13:14:57Z</time>
      </trkpt>
      <trkpt lat="45.03972" lon="5.61819">
        <ele>942.4</ele>
        <time>2011-01-29T13:14:58Z</time>
      </trkpt>
      <trkpt lat="45.03967" lon="5.6181">
        <ele>943.8</ele>
        <time>2011-01-29T13:15:03Z</time>
      </trkpt>
      <trkpt lat="45.03961" lon="5.618">
        <ele>945.6</ele>
        <time>2011-01-29T13:15:08Z</time>
      </trkpt>
      <trkpt lat="45.03959" lon="5.61795">
        <ele>946.4</ele>
        <time>2011-01-29T13:15:10Z</time>
      </trkpt>
      <trkpt lat="45.03955" lon="5.61789">
        <ele>947.6</ele>
        <time>2011-01-29T13:15:13Z</time>
      </trkpt>
      <trkpt lat="45.03948" lon="5.61785">
        <ele>949.2</ele>
        <time>2011-01-29T13:15:17Z</time>
      </trkpt>
      <trkpt lat="45.03943" lon="5.61781">
        <ele>949.6</ele>
        <time>2011-01-29T13:15:19Z</time>
      </trkpt>
      <trkpt lat="45.03935" lon="5.61772">
        <ele>951.2</ele>
        <time>2011-01-29T13:15:24Z</time>
      </trkpt>
      <trkpt lat="45.03934" lon="5.61771">
        <ele>951.2</ele>
        <time>2011-01-29T13:15:25Z</time>
      </trkpt>
      <trkpt lat="45.03934" lon="5.61768">
        <ele>951.8</ele>
        <time>2011-01-29T13:15:27Z</time>
      </trkpt>
      <trkpt lat="45.03933" lon="5.61759">
        <ele>952.6</ele>
        <time>2011-01-29T13:15:31Z</time>
      </trkpt>
      <trkpt lat="45.03932" lon="5.61745">
        <ele>953</ele>
        <time>2011-01-29T13:15:38Z</time>
      </trkpt>
      <trkpt lat="45.03931" lon="5.61742">
        <ele>953</ele>
        <time>2011-01-29T13:15:40Z</time>
      </trkpt>
      <trkpt lat="45.03932" lon="5.61737">
        <ele>952.6</ele>
        <time>2011-01-29T13:15:44Z</time>
      </trkpt>
      <trkpt lat="45.03932" lon="5.61728">
        <ele>952.2</ele>
        <time>2011-01-29T13:15:50Z</time>
      </trkpt>
      <trkpt lat="45.03933" lon="5.61724">
        <ele>952.2</ele>
        <time>2011-01-29T13:15:52Z</time>
      </trkpt>
      <trkpt lat="45.03933" lon="5.6172">
        <ele>952</ele>
        <time>2011-01-29T13:15:55Z</time>
      </trkpt>
      <trkpt lat="45.03935" lon="5.61715">
        <ele>951.8</ele>
        <time>2011-01-29T13:15:58Z</time>
      </trkpt>
      <trkpt lat="45.03935" lon="5.61714">
        <ele>951.8</ele>
        <time>2011-01-29T13:15:59Z</time>
      </trkpt>
      <trkpt lat="45.03935" lon="5.61712">
        <ele>951.8</ele>
        <time>2011-01-29T13:16:00Z</time>
      </trkpt>
      <trkpt lat="45.03934" lon="5.617">
        <ele>951.6</ele>
        <time>2011-01-29T13:16:06Z</time>
      </trkpt>
      <trkpt lat="45.03934" lon="5.61699">
        <ele>951.6</ele>
        <time>2011-01-29T13:16:07Z</time>
      </trkpt>
      <trkpt lat="45.03932" lon="5.61692">
        <ele>951.6</ele>
        <time>2011-01-29T13:16:11Z</time>
      </trkpt>
      <trkpt lat="45.03932" lon="5.6169">
        <ele>951.6</ele>
        <time>2011-01-29T13:16:12Z</time>
      </trkpt>
      <trkpt lat="45.03927" lon="5.61684">
        <ele>951.6</ele>
        <time>2011-01-29T13:16:17Z</time>
      </trkpt>
      <trkpt lat="45.03919" lon="5.61677">
        <ele>952.6</ele>
        <time>2011-01-29T13:16:24Z</time>
      </trkpt>
      <trkpt lat="45.03917" lon="5.61675">
        <ele>953</ele>
        <time>2011-01-29T13:16:26Z</time>
      </trkpt>
      <trkpt lat="45.03911" lon="5.6167">
        <ele>954</ele>
        <time>2011-01-29T13:16:31Z</time>
      </trkpt>
      <trkpt lat="45.03902" lon="5.61663">
        <ele>956</ele>
        <time>2011-01-29T13:16:38Z</time>
      </trkpt>
      <trkpt lat="45.039" lon="5.61663">
        <ele>956.4</ele>
        <time>2011-01-29T13:16:39Z</time>
      </trkpt>
      <trkpt lat="45.03898" lon="5.61659">
        <ele>957</ele>
        <time>2011-01-29T13:16:41Z</time>
      </trkpt>
      <trkpt lat="45.03897" lon="5.61656">
        <ele>957.4</ele>
        <time>2011-01-29T13:16:43Z</time>
      </trkpt>
      <trkpt lat="45.03891" lon="5.61648">
        <ele>959.2</ele>
        <time>2011-01-29T13:16:49Z</time>
      </trkpt>
      <trkpt lat="45.03888" lon="5.61644">
        <ele>960</ele>
        <time>2011-01-29T13:16:52Z</time>
      </trkpt>
      <trkpt lat="45.03884" lon="5.61635">
        <ele>963</ele>
        <time>2011-01-29T13:16:58Z</time>
      </trkpt>
      <trkpt lat="45.03876" lon="5.61624">
        <ele>965.2</ele>
        <time>2011-01-29T13:17:05Z</time>
      </trkpt>
      <trkpt lat="45.03871" lon="5.61617">
        <ele>966.2</ele>
        <time>2011-01-29T13:17:10Z</time>
      </trkpt>
      <trkpt lat="45.03863" lon="5.61607">
        <ele>967</ele>
        <time>2011-01-29T13:17:17Z</time>
      </trkpt>
      <trkpt lat="45.03862" lon="5.61606">
        <ele>967</ele>
        <time>2011-01-29T13:17:18Z</time>
      </trkpt>
      <trkpt lat="45.03857" lon="5.616">
        <ele>967.2</ele>
        <time>2011-01-29T13:17:23Z</time>
      </trkpt>
      <trkpt lat="45.03851" lon="5.61594">
        <ele>967.4</ele>
        <time>2011-01-29T13:17:28Z</time>
      </trkpt>
      <trkpt lat="45.03848" lon="5.61591">
        <ele>967.4</ele>
        <time>2011-01-29T13:17:31Z</time>
      </trkpt>
      <trkpt lat="45.03844" lon="5.61589">
        <ele>967.6</ele>
        <time>2011-01-29T13:17:34Z</time>
      </trkpt>
      <trkpt lat="45.03839" lon="5.61583">
        <ele>967.8</ele>
        <time>2011-01-29T13:17:40Z</time>
      </trkpt>
      <trkpt lat="45.03835" lon="5.61581">
        <ele>968</ele>
        <time>2011-01-29T13:17:45Z</time>
      </trkpt>
      <trkpt lat="45.03835" lon="5.61581">
        <ele>968</ele>
        <time>2011-01-29T13:17:46Z</time>
      </trkpt>
      <trkpt lat="45.03833" lon="5.61578">
        <ele>968.2</ele>
        <time>2011-01-29T13:17:49Z</time>
      </trkpt>
      <trkpt lat="45.03832" lon="5.61577">
        <ele>968.2</ele>
        <time>2011-01-29T13:17:50Z</time>
      </trkpt>
      <trkpt lat="45.03832" lon="5.61576">
        <ele>968.2</ele>
        <time>2011-01-29T13:17:51Z</time>
      </trkpt>
      <trkpt lat="45.03831" lon="5.61574">
        <ele>968.2</ele>
        <time>2011-01-29T13:17:53Z</time>
      </trkpt>
      <trkpt lat="45.0383" lon="5.61574">
        <ele>968.2</ele>
        <time>2011-01-29T13:17:54Z</time>
      </trkpt>
      <trkpt lat="45.03828" lon="5.6157">
        <ele>968.4</ele>
        <time>2011-01-29T13:17:58Z</time>
      </trkpt>
      <trkpt lat="45.03826" lon="5.61568">
        <ele>968.4</ele>
        <time>2011-01-29T13:18:01Z</time>
      </trkpt>
      <trkpt lat="45.03826" lon="5.61567">
        <ele>968.4</ele>
        <time>2011-01-29T13:18:02Z</time>
      </trkpt>
      <trkpt lat="45.03825" lon="5.61565">
        <ele>968.4</ele>
        <time>2011-01-29T13:18:04Z</time>
      </trkpt>
      <trkpt lat="45.03824" lon="5.61563">
        <ele>968.4</ele>
        <time>2011-01-29T13:18:06Z</time>
      </trkpt>
      <trkpt lat="45.03823" lon="5.6156">
        <ele>968.4</ele>
        <time>2011-01-29T13:18:08Z</time>
      </trkpt>
      <trkpt lat="45.03823" lon="5.61558">
        <ele>968.4</ele>
        <time>2011-01-29T13:18:10Z</time>
      </trkpt>
      <trkpt lat="45.03822" lon="5.61557">
        <ele>968.6</ele>
        <time>2011-01-29T13:18:12Z</time>
      </trkpt>
      <trkpt lat="45.03821" lon="5.61554">
        <ele>968.6</ele>
        <time>2011-01-29T13:18:15Z</time>
      </trkpt>
      <trkpt lat="45.0382" lon="5.61553">
        <ele>968.6</ele>
        <time>2011-01-29T13:18:17Z</time>
      </trkpt>
      <trkpt lat="45.03819" lon="5.61551">
        <ele>968.6</ele>
        <time>2011-01-29T13:18:19Z</time>
      </trkpt>
      <trkpt lat="45.03816" lon="5.61548">
        <ele>969</ele>
        <time>2011-01-29T13:18:23Z</time>
      </trkpt>
      <trkpt lat="45.03813" lon="5.61544">
        <ele>969.4</ele>
        <time>2011-01-29T13:18:28Z</time>
      </trkpt>
      <trkpt lat="45.03811" lon="5.61542">
        <ele>969.6</ele>
        <time>2011-01-29T13:18:30Z</time>
      </trkpt>
      <trkpt lat="45.03808" lon="5.61541">
        <ele>969.8</ele>
        <time>2011-01-29T13:18:33Z</time>
      </trkpt>
      <trkpt lat="45.03806" lon="5.6154">
        <ele>970</ele>
        <time>2011-01-29T13:18:35Z</time>
      </trkpt>
      <trkpt lat="45.03805" lon="5.61539">
        <ele>970</ele>
        <time>2011-01-29T13:18:36Z</time>
      </trkpt>
      <trkpt lat="45.03805" lon="5.61538">
        <ele>970</ele>
        <time>2011-01-29T13:18:37Z</time>
      </trkpt>
      <trkpt lat="45.03801" lon="5.61532">
        <ele>970.8</ele>
        <time>2011-01-29T13:18:43Z</time>
      </trkpt>
      <trkpt lat="45.03798" lon="5.61525">
        <ele>971.6</ele>
        <time>2011-01-29T13:18:48Z</time>
      </trkpt>
      <trkpt lat="45.03797" lon="5.61523">
        <ele>971.6</ele>
        <time>2011-01-29T13:18:49Z</time>
      </trkpt>
      <trkpt lat="45.03793" lon="5.61518">
        <ele>973</ele>
        <time>2011-01-29T13:18:54Z</time>
      </trkpt>
      <trkpt lat="45.03788" lon="5.61515">
        <ele>974.8</ele>
        <time>2011-01-29T13:18:59Z</time>
      </trkpt>
      <trkpt lat="45.03785" lon="5.61512">
        <ele>975.6</ele>
        <time>2011-01-29T13:19:01Z</time>
      </trkpt>
      <trkpt lat="45.03781" lon="5.61507">
        <ele>977.2</ele>
        <time>2011-01-29T13:19:05Z</time>
      </trkpt>
      <trkpt lat="45.0378" lon="5.61503">
        <ele>977.8</ele>
        <time>2011-01-29T13:19:07Z</time>
      </trkpt>
      <trkpt lat="45.03777" lon="5.61487">
        <ele>980.6</ele>
        <time>2011-01-29T13:19:15Z</time>
      </trkpt>
      <trkpt lat="45.03776" lon="5.61481">
        <ele>982.4</ele>
        <time>2011-01-29T13:19:18Z</time>
      </trkpt>
      <trkpt lat="45.03775" lon="5.61475">
        <ele>983.6</ele>
        <time>2011-01-29T13:19:21Z</time>
      </trkpt>
      <trkpt lat="45.03773" lon="5.61469">
        <ele>984.8</ele>
        <time>2011-01-29T13:19:24Z</time>
      </trkpt>
      <trkpt lat="45.03772" lon="5.61465">
        <ele>985.6</ele>
        <time>2011-01-29T13:19:26Z</time>
      </trkpt>
      <trkpt lat="45.03769" lon="5.61458">
        <ele>986.8</ele>
        <time>2011-01-29T13:19:28Z</time>
      </trkpt>
      <trkpt lat="45.03767" lon="5.61454">
        <ele>987.2</ele>
        <time>2011-01-29T13:19:29Z</time>
      </trkpt>
      <trkpt lat="45.03765" lon="5.61446">
        <ele>987.8</ele>
        <time>2011-01-29T13:19:31Z</time>
      </trkpt>
      <trkpt lat="45.03763" lon="5.61444">
        <ele>988.4</ele>
        <time>2011-01-29T13:19:32Z</time>
      </trkpt>
      <trkpt lat="45.03758" lon="5.61438">
        <ele>989.4</ele>
        <time>2011-01-29T13:19:34Z</time>
      </trkpt>
      <trkpt lat="45.03756" lon="5.61435">
        <ele>989.6</ele>
        <time>2011-01-29T13:19:35Z</time>
      </trkpt>
      <trkpt lat="45.03752" lon="5.61423">
        <ele>990.8</ele>
        <time>2011-01-29T13:19:38Z</time>
      </trkpt>
      <trkpt lat="45.03751" lon="5.61418">
        <ele>991.2</ele>
        <time>2011-01-29T13:19:39Z</time>
      </trkpt>
      <trkpt lat="45.03752" lon="5.61414">
        <ele>991.8</ele>
        <time>2011-01-29T13:19:40Z</time>
      </trkpt>
      <trkpt lat="45.03754" lon="5.61399">
        <ele>993.4</ele>
        <time>2011-01-29T13:19:44Z</time>
      </trkpt>
      <trkpt lat="45.03757" lon="5.61386">
        <ele>994.2</ele>
        <time>2011-01-29T13:19:48Z</time>
      </trkpt>
      <trkpt lat="45.03758" lon="5.6138">
        <ele>994.6</ele>
        <time>2011-01-29T13:19:50Z</time>
      </trkpt>
      <trkpt lat="45.03759" lon="5.61366">
        <ele>996.6</ele>
        <time>2011-01-29T13:19:55Z</time>
      </trkpt>
      <trkpt lat="45.03757" lon="5.6136">
        <ele>997</ele>
        <time>2011-01-29T13:19:58Z</time>
      </trkpt>
      <trkpt lat="45.03754" lon="5.61355">
        <ele>997.4</ele>
        <time>2011-01-29T13:20:00Z</time>
      </trkpt>
      <trkpt lat="45.03749" lon="5.61347">
        <ele>998.6</ele>
        <time>2011-01-29T13:20:04Z</time>
      </trkpt>
      <trkpt lat="45.03747" lon="5.61345">
        <ele>998.8</ele>
        <time>2011-01-29T13:20:06Z</time>
      </trkpt>
      <trkpt lat="45.03744" lon="5.61341">
        <ele>999.2</ele>
        <time>2011-01-29T13:20:09Z</time>
      </trkpt>
      <trkpt lat="45.0374" lon="5.61339">
        <ele>1000</ele>
        <time>2011-01-29T13:20:13Z</time>
      </trkpt>
      <trkpt lat="45.03732" lon="5.61334">
        <ele>1000.8</ele>
        <time>2011-01-29T13:20:20Z</time>
      </trkpt>
      <trkpt lat="45.03728" lon="5.6133">
        <ele>1001</ele>
        <time>2011-01-29T13:20:24Z</time>
      </trkpt>
      <trkpt lat="45.03726" lon="5.61327">
        <ele>1001</ele>
        <time>2011-01-29T13:20:26Z</time>
      </trkpt>
      <trkpt lat="45.03719" lon="5.6132">
        <ele>1001.6</ele>
        <time>2011-01-29T13:20:33Z</time>
      </trkpt>
      <trkpt lat="45.03712" lon="5.61316">
        <ele>1002.2</ele>
        <time>2011-01-29T13:20:38Z</time>
      </trkpt>
      <trkpt lat="45.03711" lon="5.61316">
        <ele>1002.4</ele>
        <time>2011-01-29T13:20:39Z</time>
      </trkpt>
      <trkpt lat="45.03704" lon="5.61313">
        <ele>1003</ele>
        <time>2011-01-29T13:20:45Z</time>
      </trkpt>
      <trkpt lat="45.03696" lon="5.61311">
        <ele>1004.2</ele>
        <time>2011-01-29T13:20:51Z</time>
      </trkpt>
      <trkpt lat="45.03695" lon="5.61311">
        <ele>1004.6</ele>
        <time>2011-01-29T13:20:52Z</time>
      </trkpt>
      <trkpt lat="45.0369" lon="5.6131">
        <ele>1005.6</ele>
        <time>2011-01-29T13:20:56Z</time>
      </trkpt>
      <trkpt lat="45.03685" lon="5.6131">
        <ele>1007</ele>
        <time>2011-01-29T13:21:01Z</time>
      </trkpt>
      <trkpt lat="45.03685" lon="5.61309">
        <ele>1007.2</ele>
        <time>2011-01-29T13:21:02Z</time>
      </trkpt>
      <trkpt lat="45.03683" lon="5.61304">
        <ele>1015</ele>
        <time>2011-01-29T13:22:03Z</time>
      </trkpt>
      <trkpt lat="45.0368" lon="5.61303">
        <ele>1015.6</ele>
        <time>2011-01-29T13:22:06Z</time>
      </trkpt>
      <trkpt lat="45.03679" lon="5.61303">
        <ele>1015.6</ele>
        <time>2011-01-29T13:22:07Z</time>
      </trkpt>
      <trkpt lat="45.03672" lon="5.61299">
        <ele>1016.2</ele>
        <time>2011-01-29T13:22:13Z</time>
      </trkpt>
      <trkpt lat="45.03667" lon="5.61293">
        <ele>1016</ele>
        <time>2011-01-29T13:22:19Z</time>
      </trkpt>
      <trkpt lat="45.03657" lon="5.61284">
        <ele>1015.8</ele>
        <time>2011-01-29T13:22:25Z</time>
      </trkpt>
      <trkpt lat="45.0365" lon="5.61279">
        <ele>1015.8</ele>
        <time>2011-01-29T13:22:29Z</time>
      </trkpt>
      <trkpt lat="45.03645" lon="5.61277">
        <ele>1015.8</ele>
        <time>2011-01-29T13:22:32Z</time>
      </trkpt>
      <trkpt lat="45.03643" lon="5.61276">
        <ele>1015.8</ele>
        <time>2011-01-29T13:22:33Z</time>
      </trkpt>
      <trkpt lat="45.03635" lon="5.61274">
        <ele>1015.6</ele>
        <time>2011-01-29T13:22:37Z</time>
      </trkpt>
      <trkpt lat="45.03631" lon="5.61274">
        <ele>1015.8</ele>
        <time>2011-01-29T13:22:39Z</time>
      </trkpt>
      <trkpt lat="45.03623" lon="5.61274">
        <ele>1016</ele>
        <time>2011-01-29T13:22:43Z</time>
      </trkpt>
      <trkpt lat="45.03612" lon="5.61273">
        <ele>1017.2</ele>
        <time>2011-01-29T13:22:48Z</time>
      </trkpt>
      <trkpt lat="45.0361" lon="5.61272">
        <ele>1017.4</ele>
        <time>2011-01-29T13:22:49Z</time>
      </trkpt>
      <trkpt lat="45.03601" lon="5.61269">
        <ele>1019</ele>
        <time>2011-01-29T13:22:55Z</time>
      </trkpt>
      <trkpt lat="45.03599" lon="5.61269">
        <ele>1019.4</ele>
        <time>2011-01-29T13:22:56Z</time>
      </trkpt>
      <trkpt lat="45.03592" lon="5.61269">
        <ele>1020.6</ele>
        <time>2011-01-29T13:22:59Z</time>
      </trkpt>
      <trkpt lat="45.0359" lon="5.61268">
        <ele>1021.2</ele>
        <time>2011-01-29T13:23:00Z</time>
      </trkpt>
      <trkpt lat="45.03588" lon="5.61267">
        <ele>1021.6</ele>
        <time>2011-01-29T13:23:01Z</time>
      </trkpt>
      <trkpt lat="45.0358" lon="5.61264">
        <ele>1023.6</ele>
        <time>2011-01-29T13:23:06Z</time>
      </trkpt>
      <trkpt lat="45.03575" lon="5.61259">
        <ele>1025.2</ele>
        <time>2011-01-29T13:23:10Z</time>
      </trkpt>
      <trkpt lat="45.0357" lon="5.61255">
        <ele>1026.2</ele>
        <time>2011-01-29T13:23:14Z</time>
      </trkpt>
      <trkpt lat="45.03569" lon="5.61254">
        <ele>1026.4</ele>
        <time>2011-01-29T13:23:15Z</time>
      </trkpt>
      <trkpt lat="45.03563" lon="5.6125">
        <ele>1027</ele>
        <time>2011-01-29T13:23:20Z</time>
      </trkpt>
      <trkpt lat="45.03562" lon="5.61249">
        <ele>1027.2</ele>
        <time>2011-01-29T13:23:21Z</time>
      </trkpt>
      <trkpt lat="45.03559" lon="5.61246">
        <ele>1027.2</ele>
        <time>2011-01-29T13:23:24Z</time>
      </trkpt>
      <trkpt lat="45.03557" lon="5.61243">
        <ele>1027</ele>
        <time>2011-01-29T13:23:26Z</time>
      </trkpt>
      <trkpt lat="45.03556" lon="5.61242">
        <ele>1027</ele>
        <time>2011-01-29T13:23:27Z</time>
      </trkpt>
      <trkpt lat="45.03554" lon="5.61238">
        <ele>1027</ele>
        <time>2011-01-29T13:23:30Z</time>
      </trkpt>
      <trkpt lat="45.03553" lon="5.61236">
        <ele>1027</ele>
        <time>2011-01-29T13:23:32Z</time>
      </trkpt>
      <trkpt lat="45.03548" lon="5.61227">
        <ele>1026.6</ele>
        <time>2011-01-29T13:23:38Z</time>
      </trkpt>
      <trkpt lat="45.03547" lon="5.61226">
        <ele>1026.6</ele>
        <time>2011-01-29T13:23:39Z</time>
      </trkpt>
      <trkpt lat="45.03544" lon="5.61219">
        <ele>1026.6</ele>
        <time>2011-01-29T13:23:44Z</time>
      </trkpt>
      <trkpt lat="45.0354" lon="5.61214">
        <ele>1026.4</ele>
        <time>2011-01-29T13:23:49Z</time>
      </trkpt>
      <trkpt lat="45.03538" lon="5.61211">
        <ele>1026.4</ele>
        <time>2011-01-29T13:23:51Z</time>
      </trkpt>
      <trkpt lat="45.03535" lon="5.61207">
        <ele>1026.4</ele>
        <time>2011-01-29T13:23:54Z</time>
      </trkpt>
      <trkpt lat="45.03534" lon="5.61203">
        <ele>1026.6</ele>
        <time>2011-01-29T13:23:57Z</time>
      </trkpt>
      <trkpt lat="45.03533" lon="5.612">
        <ele>1026.6</ele>
        <time>2011-01-29T13:23:59Z</time>
      </trkpt>
      <trkpt lat="45.03531" lon="5.61187">
        <ele>1027</ele>
        <time>2011-01-29T13:24:06Z</time>
      </trkpt>
      <trkpt lat="45.03531" lon="5.61183">
        <ele>1027</ele>
        <time>2011-01-29T13:24:08Z</time>
      </trkpt>
      <trkpt lat="45.0353" lon="5.61181">
        <ele>1027.2</ele>
        <time>2011-01-29T13:24:09Z</time>
      </trkpt>
      <trkpt lat="45.03529" lon="5.61178">
        <ele>1027.4</ele>
        <time>2011-01-29T13:24:11Z</time>
      </trkpt>
      <trkpt lat="45.03527" lon="5.61171">
        <ele>1027.8</ele>
        <time>2011-01-29T13:24:15Z</time>
      </trkpt>
      <trkpt lat="45.03523" lon="5.6116">
        <ele>1029</ele>
        <time>2011-01-29T13:24:22Z</time>
      </trkpt>
      <trkpt lat="45.03523" lon="5.61158">
        <ele>1029.2</ele>
        <time>2011-01-29T13:24:23Z</time>
      </trkpt>
      <trkpt lat="45.03521" lon="5.61154">
        <ele>1029.4</ele>
        <time>2011-01-29T13:24:26Z</time>
      </trkpt>
      <trkpt lat="45.0352" lon="5.61149">
        <ele>1029.6</ele>
        <time>2011-01-29T13:24:29Z</time>
      </trkpt>
      <trkpt lat="45.03519" lon="5.61144">
        <ele>1029.8</ele>
        <time>2011-01-29T13:24:32Z</time>
      </trkpt>
      <trkpt lat="45.03518" lon="5.61142">
        <ele>1030</ele>
        <time>2011-01-29T13:24:33Z</time>
      </trkpt>
      <trkpt lat="45.03517" lon="5.61137">
        <ele>1030.2</ele>
        <time>2011-01-29T13:24:36Z</time>
      </trkpt>
      <trkpt lat="45.03516" lon="5.61133">
        <ele>1030.2</ele>
        <time>2011-01-29T13:24:38Z</time>
      </trkpt>
      <trkpt lat="45.03512" lon="5.6112">
        <ele>1030.4</ele>
        <time>2011-01-29T13:24:45Z</time>
      </trkpt>
      <trkpt lat="45.03509" lon="5.61113">
        <ele>1030.4</ele>
        <time>2011-01-29T13:24:49Z</time>
      </trkpt>
      <trkpt lat="45.03507" lon="5.61109">
        <ele>1030.4</ele>
        <time>2011-01-29T13:24:52Z</time>
      </trkpt>
      <trkpt lat="45.03502" lon="5.61098">
        <ele>1030.4</ele>
        <time>2011-01-29T13:24:59Z</time>
      </trkpt>
      <trkpt lat="45.03498" lon="5.61092">
        <ele>1030.6</ele>
        <time>2011-01-29T13:25:03Z</time>
      </trkpt>
      <trkpt lat="45.03497" lon="5.61091">
        <ele>1030.6</ele>
        <time>2011-01-29T13:25:04Z</time>
      </trkpt>
      <trkpt lat="45.03493" lon="5.61082">
        <ele>1031</ele>
        <time>2011-01-29T13:25:10Z</time>
      </trkpt>
      <trkpt lat="45.03486" lon="5.61073">
        <ele>1032.2</ele>
        <time>2011-01-29T13:25:16Z</time>
      </trkpt>
      <trkpt lat="45.03484" lon="5.61069">
        <ele>1032.8</ele>
        <time>2011-01-29T13:25:19Z</time>
      </trkpt>
      <trkpt lat="45.03483" lon="5.61068">
        <ele>1033.2</ele>
        <time>2011-01-29T13:25:20Z</time>
      </trkpt>
      <trkpt lat="45.03478" lon="5.61065">
        <ele>1034.6</ele>
        <time>2011-01-29T13:25:24Z</time>
      </trkpt>
      <trkpt lat="45.03475" lon="5.61062">
        <ele>1036.2</ele>
        <time>2011-01-29T13:25:29Z</time>
      </trkpt>
      <trkpt lat="45.03473" lon="5.61056">
        <ele>1037</ele>
        <time>2011-01-29T13:25:32Z</time>
      </trkpt>
      <trkpt lat="45.03473" lon="5.61054">
        <ele>1037.2</ele>
        <time>2011-01-29T13:25:33Z</time>
      </trkpt>
      <trkpt lat="45.03471" lon="5.61048">
        <ele>1038.4</ele>
        <time>2011-01-29T13:25:38Z</time>
      </trkpt>
      <trkpt lat="45.03467" lon="5.61043">
        <ele>1040</ele>
        <time>2011-01-29T13:25:44Z</time>
      </trkpt>
      <trkpt lat="45.03463" lon="5.61039">
        <ele>1041.6</ele>
        <time>2011-01-29T13:25:50Z</time>
      </trkpt>
      <trkpt lat="45.03461" lon="5.61037">
        <ele>1042.2</ele>
        <time>2011-01-29T13:25:52Z</time>
      </trkpt>
      <trkpt lat="45.03458" lon="5.61034">
        <ele>1043.2</ele>
        <time>2011-01-29T13:25:55Z</time>
      </trkpt>
      <trkpt lat="45.03455" lon="5.61029">
        <ele>1044.6</ele>
        <time>2011-01-29T13:25:59Z</time>
      </trkpt>
      <trkpt lat="45.03451" lon="5.61025">
        <ele>1046.4</ele>
        <time>2011-01-29T13:26:04Z</time>
      </trkpt>
      <trkpt lat="45.03451" lon="5.61024">
        <ele>1046.8</ele>
        <time>2011-01-29T13:26:05Z</time>
      </trkpt>
      <trkpt lat="45.03449" lon="5.61023">
        <ele>1047.6</ele>
        <time>2011-01-29T13:26:07Z</time>
      </trkpt>
      <trkpt lat="45.03448" lon="5.61022">
        <ele>1048.4</ele>
        <time>2011-01-29T13:26:09Z</time>
      </trkpt>
      <trkpt lat="45.03447" lon="5.6102">
        <ele>1049</ele>
        <time>2011-01-29T13:26:11Z</time>
      </trkpt>
      <trkpt lat="45.03445" lon="5.61018">
        <ele>1049.8</ele>
        <time>2011-01-29T13:26:13Z</time>
      </trkpt>
      <trkpt lat="45.03444" lon="5.61016">
        <ele>1050.6</ele>
        <time>2011-01-29T13:26:15Z</time>
      </trkpt>
      <trkpt lat="45.03441" lon="5.61012">
        <ele>1052.2</ele>
        <time>2011-01-29T13:26:20Z</time>
      </trkpt>
      <trkpt lat="45.03441" lon="5.61011">
        <ele>1052.4</ele>
        <time>2011-01-29T13:26:21Z</time>
      </trkpt>
      <trkpt lat="45.0344" lon="5.61004">
        <ele>1054</ele>
        <time>2011-01-29T13:26:26Z</time>
      </trkpt>
      <trkpt lat="45.03439" lon="5.61002">
        <ele>1055.2</ele>
        <time>2011-01-29T13:26:29Z</time>
      </trkpt>
      <trkpt lat="45.03439" lon="5.61001">
        <ele>1055.6</ele>
        <time>2011-01-29T13:26:30Z</time>
      </trkpt>
      <trkpt lat="45.0344" lon="5.60999">
        <ele>1056</ele>
        <time>2011-01-29T13:26:31Z</time>
      </trkpt>
      <trkpt lat="45.03438" lon="5.60989">
        <ele>1057.2</ele>
        <time>2011-01-29T13:26:37Z</time>
      </trkpt>
      <trkpt lat="45.03438" lon="5.60985">
        <ele>1057.6</ele>
        <time>2011-01-29T13:26:39Z</time>
      </trkpt>
      <trkpt lat="45.03437" lon="5.60983">
        <ele>1057.8</ele>
        <time>2011-01-29T13:26:41Z</time>
      </trkpt>
      <trkpt lat="45.03436" lon="5.60979">
        <ele>1058.4</ele>
        <time>2011-01-29T13:26:44Z</time>
      </trkpt>
      <trkpt lat="45.03435" lon="5.60978">
        <ele>1058.6</ele>
        <time>2011-01-29T13:26:45Z</time>
      </trkpt>
      <trkpt lat="45.03434" lon="5.60973">
        <ele>1059</ele>
        <time>2011-01-29T13:26:48Z</time>
      </trkpt>
      <trkpt lat="45.03432" lon="5.6097">
        <ele>1059.4</ele>
        <time>2011-01-29T13:26:50Z</time>
      </trkpt>
      <trkpt lat="45.03429" lon="5.60961">
        <ele>1060</ele>
        <time>2011-01-29T13:26:57Z</time>
      </trkpt>
      <trkpt lat="45.03427" lon="5.60958">
        <ele>1060</ele>
        <time>2011-01-29T13:26:59Z</time>
      </trkpt>
      <trkpt lat="45.03425" lon="5.60954">
        <ele>1060.2</ele>
        <time>2011-01-29T13:27:02Z</time>
      </trkpt>
      <trkpt lat="45.03424" lon="5.60952">
        <ele>1060</ele>
        <time>2011-01-29T13:27:04Z</time>
      </trkpt>
      <trkpt lat="45.03421" lon="5.60946">
        <ele>1060.6</ele>
        <time>2011-01-29T13:27:09Z</time>
      </trkpt>
      <trkpt lat="45.03421" lon="5.60943">
        <ele>1060.6</ele>
        <time>2011-01-29T13:27:11Z</time>
      </trkpt>
      <trkpt lat="45.03419" lon="5.6094">
        <ele>1061.6</ele>
        <time>2011-01-29T13:27:15Z</time>
      </trkpt>
      <trkpt lat="45.03418" lon="5.6094">
        <ele>1062</ele>
        <time>2011-01-29T13:27:16Z</time>
      </trkpt>
      <trkpt lat="45.03415" lon="5.60936">
        <ele>1063.6</ele>
        <time>2011-01-29T13:27:21Z</time>
      </trkpt>
      <trkpt lat="45.03412" lon="5.60933">
        <ele>1065</ele>
        <time>2011-01-29T13:27:25Z</time>
      </trkpt>
      <trkpt lat="45.03411" lon="5.60931">
        <ele>1065.2</ele>
        <time>2011-01-29T13:27:26Z</time>
      </trkpt>
      <trkpt lat="45.03411" lon="5.60926">
        <ele>1066.8</ele>
        <time>2011-01-29T13:27:31Z</time>
      </trkpt>
      <trkpt lat="45.03409" lon="5.60921">
        <ele>1068.4</ele>
        <time>2011-01-29T13:27:36Z</time>
      </trkpt>
      <trkpt lat="45.03406" lon="5.60919">
        <ele>1069.4</ele>
        <time>2011-01-29T13:27:39Z</time>
      </trkpt>
      <trkpt lat="45.03405" lon="5.60917">
        <ele>1069.8</ele>
        <time>2011-01-29T13:27:40Z</time>
      </trkpt>
      <trkpt lat="45.03403" lon="5.60913">
        <ele>1071</ele>
        <time>2011-01-29T13:27:44Z</time>
      </trkpt>
      <trkpt lat="45.03402" lon="5.60912">
        <ele>1071.2</ele>
        <time>2011-01-29T13:27:45Z</time>
      </trkpt>
      <trkpt lat="45.03399" lon="5.60907">
        <ele>1072.2</ele>
        <time>2011-01-29T13:27:50Z</time>
      </trkpt>
      <trkpt lat="45.03393" lon="5.60901">
        <ele>1074</ele>
        <time>2011-01-29T13:27:56Z</time>
      </trkpt>
      <trkpt lat="45.0339" lon="5.60899">
        <ele>1075</ele>
        <time>2011-01-29T13:27:59Z</time>
      </trkpt>
      <trkpt lat="45.0339" lon="5.60895">
        <ele>1075.2</ele>
        <time>2011-01-29T13:28:01Z</time>
      </trkpt>
      <trkpt lat="45.03386" lon="5.60889">
        <ele>1076.4</ele>
        <time>2011-01-29T13:28:05Z</time>
      </trkpt>
      <trkpt lat="45.03384" lon="5.60886">
        <ele>1076.8</ele>
        <time>2011-01-29T13:28:07Z</time>
      </trkpt>
      <trkpt lat="45.0338" lon="5.60879">
        <ele>1078</ele>
        <time>2011-01-29T13:28:11Z</time>
      </trkpt>
      <trkpt lat="45.03377" lon="5.60877">
        <ele>1080</ele>
        <time>2011-01-29T13:28:15Z</time>
      </trkpt>
      <trkpt lat="45.03376" lon="5.60876">
        <ele>1080.6</ele>
        <time>2011-01-29T13:28:16Z</time>
      </trkpt>
      <trkpt lat="45.03374" lon="5.60874">
        <ele>1081.6</ele>
        <time>2011-01-29T13:28:18Z</time>
      </trkpt>
      <trkpt lat="45.0337" lon="5.60871">
        <ele>1083.4</ele>
        <time>2011-01-29T13:28:22Z</time>
      </trkpt>
      <trkpt lat="45.03366" lon="5.6086">
        <ele>1085</ele>
        <time>2011-01-29T13:28:28Z</time>
      </trkpt>
      <trkpt lat="45.03365" lon="5.60858">
        <ele>1085.2</ele>
        <time>2011-01-29T13:28:29Z</time>
      </trkpt>
      <trkpt lat="45.03361" lon="5.60853">
        <ele>1086.6</ele>
        <time>2011-01-29T13:28:34Z</time>
      </trkpt>
      <trkpt lat="45.03355" lon="5.6085">
        <ele>1087.2</ele>
        <time>2011-01-29T13:28:40Z</time>
      </trkpt>
      <trkpt lat="45.03354" lon="5.60849">
        <ele>1087.4</ele>
        <time>2011-01-29T13:28:41Z</time>
      </trkpt>
      <trkpt lat="45.0335" lon="5.60847">
        <ele>1087.2</ele>
        <time>2011-01-29T13:28:44Z</time>
      </trkpt>
      <trkpt lat="45.03348" lon="5.60849">
        <ele>1087.4</ele>
        <time>2011-01-29T13:28:45Z</time>
      </trkpt>
      <trkpt lat="45.03347" lon="5.60849">
        <ele>1087.4</ele>
        <time>2011-01-29T13:28:46Z</time>
      </trkpt>
      <trkpt lat="45.03339" lon="5.60851">
        <ele>1088.4</ele>
        <time>2011-01-29T13:28:52Z</time>
      </trkpt>
      <trkpt lat="45.03332" lon="5.60851">
        <ele>1089.2</ele>
        <time>2011-01-29T13:28:58Z</time>
      </trkpt>
      <trkpt lat="45.03331" lon="5.60853">
        <ele>1089.6</ele>
        <time>2011-01-29T13:28:59Z</time>
      </trkpt>
      <trkpt lat="45.0333" lon="5.60854">
        <ele>1089.6</ele>
        <time>2011-01-29T13:29:00Z</time>
      </trkpt>
      <trkpt lat="45.03327" lon="5.60855">
        <ele>1090</ele>
        <time>2011-01-29T13:29:03Z</time>
      </trkpt>
      <trkpt lat="45.03326" lon="5.60856">
        <ele>1090.4</ele>
        <time>2011-01-29T13:29:05Z</time>
      </trkpt>
      <trkpt lat="45.03323" lon="5.60857">
        <ele>1091.2</ele>
        <time>2011-01-29T13:29:09Z</time>
      </trkpt>
      <trkpt lat="45.03322" lon="5.60857">
        <ele>1092.2</ele>
        <time>2011-01-29T13:29:12Z</time>
      </trkpt>
      <trkpt lat="45.03321" lon="5.60857">
        <ele>1092.2</ele>
        <time>2011-01-29T13:29:13Z</time>
      </trkpt>
      <trkpt lat="45.0332" lon="5.60857">
        <ele>1092.4</ele>
        <time>2011-01-29T13:29:14Z</time>
      </trkpt>
      <trkpt lat="45.03316" lon="5.60859">
        <ele>1093.2</ele>
        <time>2011-01-29T13:29:17Z</time>
      </trkpt>
      <trkpt lat="45.03311" lon="5.60861">
        <ele>1094.2</ele>
        <time>2011-01-29T13:29:20Z</time>
      </trkpt>
      <trkpt lat="45.03309" lon="5.60863">
        <ele>1094.8</ele>
        <time>2011-01-29T13:29:22Z</time>
      </trkpt>
      <trkpt lat="45.03302" lon="5.60869">
        <ele>1097</ele>
        <time>2011-01-29T13:29:28Z</time>
      </trkpt>
      <trkpt lat="45.03299" lon="5.60871">
        <ele>1098</ele>
        <time>2011-01-29T13:29:32Z</time>
      </trkpt>
      <trkpt lat="45.03297" lon="5.60871">
        <ele>1098.2</ele>
        <time>2011-01-29T13:29:34Z</time>
      </trkpt>
      <trkpt lat="45.03295" lon="5.60872">
        <ele>1098.6</ele>
        <time>2011-01-29T13:29:36Z</time>
      </trkpt>
      <trkpt lat="45.0329" lon="5.60873">
        <ele>1099.8</ele>
        <time>2011-01-29T13:29:40Z</time>
      </trkpt>
      <trkpt lat="45.03284" lon="5.60871">
        <ele>1100.6</ele>
        <time>2011-01-29T13:29:45Z</time>
      </trkpt>
      <trkpt lat="45.03284" lon="5.6087">
        <ele>1100.8</ele>
        <time>2011-01-29T13:29:46Z</time>
      </trkpt>
      <trkpt lat="45.03278" lon="5.60869">
        <ele>1101.2</ele>
        <time>2011-01-29T13:29:51Z</time>
      </trkpt>
      <trkpt lat="45.03277" lon="5.60869">
        <ele>1101.2</ele>
        <time>2011-01-29T13:29:52Z</time>
      </trkpt>
      <trkpt lat="45.03272" lon="5.60864">
        <ele>1102.6</ele>
        <time>2011-01-29T13:29:56Z</time>
      </trkpt>
      <trkpt lat="45.03265" lon="5.6086">
        <ele>1104.6</ele>
        <time>2011-01-29T13:30:02Z</time>
      </trkpt>
      <trkpt lat="45.0326" lon="5.60859">
        <ele>1106</ele>
        <time>2011-01-29T13:30:06Z</time>
      </trkpt>
      <trkpt lat="45.0326" lon="5.60858">
        <ele>1106.6</ele>
        <time>2011-01-29T13:30:07Z</time>
      </trkpt>
      <trkpt lat="45.03259" lon="5.60857">
        <ele>1107</ele>
        <time>2011-01-29T13:30:08Z</time>
      </trkpt>
      <trkpt lat="45.03253" lon="5.6085">
        <ele>1108</ele>
        <time>2011-01-29T13:30:14Z</time>
      </trkpt>
      <trkpt lat="45.03252" lon="5.6085">
        <ele>1108.4</ele>
        <time>2011-01-29T13:30:15Z</time>
      </trkpt>
      <trkpt lat="45.03248" lon="5.60844">
        <ele>1108.8</ele>
        <time>2011-01-29T13:30:22Z</time>
      </trkpt>
      <trkpt lat="45.03247" lon="5.60843">
        <ele>1108.6</ele>
        <time>2011-01-29T13:30:24Z</time>
      </trkpt>
      <trkpt lat="45.03245" lon="5.60843">
        <ele>1108.6</ele>
        <time>2011-01-29T13:30:26Z</time>
      </trkpt>
      <trkpt lat="45.03244" lon="5.60842">
        <ele>1108.6</ele>
        <time>2011-01-29T13:30:28Z</time>
      </trkpt>
      <trkpt lat="45.03239" lon="5.60842">
        <ele>1108.6</ele>
        <time>2011-01-29T13:30:31Z</time>
      </trkpt>
      <trkpt lat="45.0323" lon="5.60855">
        <ele>1110.2</ele>
        <time>2011-01-29T13:30:36Z</time>
      </trkpt>
      <trkpt lat="45.03227" lon="5.60855">
        <ele>1110.4</ele>
        <time>2011-01-29T13:30:38Z</time>
      </trkpt>
      <trkpt lat="45.03219" lon="5.60859">
        <ele>1111.6</ele>
        <time>2011-01-29T13:30:44Z</time>
      </trkpt>
      <trkpt lat="45.03212" lon="5.60867">
        <ele>1113.2</ele>
        <time>2011-01-29T13:30:50Z</time>
      </trkpt>
      <trkpt lat="45.03211" lon="5.60867">
        <ele>1113.4</ele>
        <time>2011-01-29T13:30:51Z</time>
      </trkpt>
      <trkpt lat="45.0321" lon="5.60867">
        <ele>1113.4</ele>
        <time>2011-01-29T13:30:52Z</time>
      </trkpt>
      <trkpt lat="45.03208" lon="5.60867">
        <ele>1114</ele>
        <time>2011-01-29T13:30:54Z</time>
      </trkpt>
      <trkpt lat="45.03205" lon="5.60869">
        <ele>1115</ele>
        <time>2011-01-29T13:30:57Z</time>
      </trkpt>
      <trkpt lat="45.03203" lon="5.6087">
        <ele>1115.4</ele>
        <time>2011-01-29T13:30:59Z</time>
      </trkpt>
      <trkpt lat="45.032" lon="5.60872">
        <ele>1116.6</ele>
        <time>2011-01-29T13:31:02Z</time>
      </trkpt>
      <trkpt lat="45.03198" lon="5.60877">
        <ele>1118</ele>
        <time>2011-01-29T13:31:08Z</time>
      </trkpt>
      <trkpt lat="45.03196" lon="5.6088">
        <ele>1118.6</ele>
        <time>2011-01-29T13:31:11Z</time>
      </trkpt>
      <trkpt lat="45.03195" lon="5.60881">
        <ele>1119</ele>
        <time>2011-01-29T13:31:13Z</time>
      </trkpt>
      <trkpt lat="45.03194" lon="5.60881">
        <ele>1119.4</ele>
        <time>2011-01-29T13:31:15Z</time>
      </trkpt>
      <trkpt lat="45.03191" lon="5.6088">
        <ele>1119.8</ele>
        <time>2011-01-29T13:31:18Z</time>
      </trkpt>
      <trkpt lat="45.03181" lon="5.60888">
        <ele>1122.2</ele>
        <time>2011-01-29T13:31:25Z</time>
      </trkpt>
      <trkpt lat="45.03178" lon="5.6089">
        <ele>1123</ele>
        <time>2011-01-29T13:31:27Z</time>
      </trkpt>
      <trkpt lat="45.03175" lon="5.60896">
        <ele>1125</ele>
        <time>2011-01-29T13:31:32Z</time>
      </trkpt>
      <trkpt lat="45.03173" lon="5.60905">
        <ele>1127.2</ele>
        <time>2011-01-29T13:31:38Z</time>
      </trkpt>
      <trkpt lat="45.03173" lon="5.60911">
        <ele>1128.2</ele>
        <time>2011-01-29T13:31:44Z</time>
      </trkpt>
      <trkpt lat="45.03173" lon="5.60915">
        <ele>1128.4</ele>
        <time>2011-01-29T13:31:46Z</time>
      </trkpt>
      <trkpt lat="45.0317" lon="5.60922">
        <ele>1128.8</ele>
        <time>2011-01-29T13:31:50Z</time>
      </trkpt>
      <trkpt lat="45.03168" lon="5.60926">
        <ele>1128.8</ele>
        <time>2011-01-29T13:31:52Z</time>
      </trkpt>
      <trkpt lat="45.03163" lon="5.60934">
        <ele>1129</ele>
        <time>2011-01-29T13:31:57Z</time>
      </trkpt>
      <trkpt lat="45.03162" lon="5.60935">
        <ele>1129</ele>
        <time>2011-01-29T13:31:58Z</time>
      </trkpt>
      <trkpt lat="45.03158" lon="5.60941">
        <ele>1129.4</ele>
        <time>2011-01-29T13:32:02Z</time>
      </trkpt>
      <trkpt lat="45.03154" lon="5.60945">
        <ele>1130</ele>
        <time>2011-01-29T13:32:07Z</time>
      </trkpt>
      <trkpt lat="45.03152" lon="5.60947">
        <ele>1130.2</ele>
        <time>2011-01-29T13:32:09Z</time>
      </trkpt>
      <trkpt lat="45.0315" lon="5.60951">
        <ele>1131</ele>
        <time>2011-01-29T13:32:13Z</time>
      </trkpt>
      <trkpt lat="45.03149" lon="5.60953">
        <ele>1131</ele>
        <time>2011-01-29T13:32:14Z</time>
      </trkpt>
      <trkpt lat="45.03148" lon="5.60956">
        <ele>1131.2</ele>
        <time>2011-01-29T13:32:16Z</time>
      </trkpt>
      <trkpt lat="45.03148" lon="5.60959">
        <ele>1131.4</ele>
        <time>2011-01-29T13:32:18Z</time>
      </trkpt>
      <trkpt lat="45.03147" lon="5.60963">
        <ele>1131.8</ele>
        <time>2011-01-29T13:32:20Z</time>
      </trkpt>
      <trkpt lat="45.03145" lon="5.60966">
        <ele>1132</ele>
        <time>2011-01-29T13:32:23Z</time>
      </trkpt>
      <trkpt lat="45.03144" lon="5.60968">
        <ele>1132.2</ele>
        <time>2011-01-29T13:32:25Z</time>
      </trkpt>
      <trkpt lat="45.03143" lon="5.6097">
        <ele>1132</ele>
        <time>2011-01-29T13:32:27Z</time>
      </trkpt>
      <trkpt lat="45.03141" lon="5.60975">
        <ele>1133</ele>
        <time>2011-01-29T13:32:30Z</time>
      </trkpt>
      <trkpt lat="45.0314" lon="5.60979">
        <ele>1133.6</ele>
        <time>2011-01-29T13:32:32Z</time>
      </trkpt>
      <trkpt lat="45.03138" lon="5.60983">
        <ele>1134.4</ele>
        <time>2011-01-29T13:32:35Z</time>
      </trkpt>
      <trkpt lat="45.03137" lon="5.6099">
        <ele>1136</ele>
        <time>2011-01-29T13:32:40Z</time>
      </trkpt>
      <trkpt lat="45.03136" lon="5.60991">
        <ele>1136.8</ele>
        <time>2011-01-29T13:32:42Z</time>
      </trkpt>
      <trkpt lat="45.03135" lon="5.60992">
        <ele>1137.6</ele>
        <time>2011-01-29T13:32:45Z</time>
      </trkpt>
      <trkpt lat="45.03133" lon="5.60993">
        <ele>1138.6</ele>
        <time>2011-01-29T13:32:49Z</time>
      </trkpt>
      <trkpt lat="45.03131" lon="5.60995">
        <ele>1139.2</ele>
        <time>2011-01-29T13:32:52Z</time>
      </trkpt>
      <trkpt lat="45.03129" lon="5.60996">
        <ele>1139.8</ele>
        <time>2011-01-29T13:32:54Z</time>
      </trkpt>
      <trkpt lat="45.03125" lon="5.61002">
        <ele>1141.6</ele>
        <time>2011-01-29T13:33:00Z</time>
      </trkpt>
      <trkpt lat="45.03123" lon="5.61004">
        <ele>1142</ele>
        <time>2011-01-29T13:33:02Z</time>
      </trkpt>
      <trkpt lat="45.03119" lon="5.61008">
        <ele>1142.8</ele>
        <time>2011-01-29T13:33:06Z</time>
      </trkpt>
      <trkpt lat="45.03118" lon="5.61009">
        <ele>1143.2</ele>
        <time>2011-01-29T13:33:08Z</time>
      </trkpt>
      <trkpt lat="45.03117" lon="5.6101">
        <ele>1143.4</ele>
        <time>2011-01-29T13:33:10Z</time>
      </trkpt>
      <trkpt lat="45.03115" lon="5.61011">
        <ele>1144.2</ele>
        <time>2011-01-29T13:33:12Z</time>
      </trkpt>
      <trkpt lat="45.03111" lon="5.61016">
        <ele>1145</ele>
        <time>2011-01-29T13:33:17Z</time>
      </trkpt>
      <trkpt lat="45.03111" lon="5.61017">
        <ele>1145.2</ele>
        <time>2011-01-29T13:33:18Z</time>
      </trkpt>
      <trkpt lat="45.0311" lon="5.61018">
        <ele>1145.4</ele>
        <time>2011-01-29T13:33:19Z</time>
      </trkpt>
      <trkpt lat="45.03107" lon="5.61021">
        <ele>1145.8</ele>
        <time>2011-01-29T13:33:22Z</time>
      </trkpt>
      <trkpt lat="45.03103" lon="5.61025">
        <ele>1147</ele>
        <time>2011-01-29T13:33:28Z</time>
      </trkpt>
      <trkpt lat="45.03102" lon="5.61025">
        <ele>1147.2</ele>
        <time>2011-01-29T13:33:29Z</time>
      </trkpt>
      <trkpt lat="45.03102" lon="5.61028">
        <ele>1147.4</ele>
        <time>2011-01-29T13:33:32Z</time>
      </trkpt>
      <trkpt lat="45.03101" lon="5.61031">
        <ele>1148.4</ele>
        <time>2011-01-29T13:33:37Z</time>
      </trkpt>
      <trkpt lat="45.03096" lon="5.61034">
        <ele>1149.6</ele>
        <time>2011-01-29T13:33:43Z</time>
      </trkpt>
      <trkpt lat="45.03095" lon="5.61034">
        <ele>1149.8</ele>
        <time>2011-01-29T13:33:48Z</time>
      </trkpt>
      <trkpt lat="45.03093" lon="5.61037">
        <ele>1150.4</ele>
        <time>2011-01-29T13:33:53Z</time>
      </trkpt>
      <trkpt lat="45.03091" lon="5.61038">
        <ele>1150.8</ele>
        <time>2011-01-29T13:33:55Z</time>
      </trkpt>
      <trkpt lat="45.0309" lon="5.61039">
        <ele>1151.2</ele>
        <time>2011-01-29T13:33:57Z</time>
      </trkpt>
      <trkpt lat="45.0309" lon="5.61041">
        <ele>1151.2</ele>
        <time>2011-01-29T13:33:58Z</time>
      </trkpt>
      <trkpt lat="45.03088" lon="5.61047">
        <ele>1152.6</ele>
        <time>2011-01-29T13:34:02Z</time>
      </trkpt>
      <trkpt lat="45.03087" lon="5.61049">
        <ele>1153.8</ele>
        <time>2011-01-29T13:34:07Z</time>
      </trkpt>
      <trkpt lat="45.03087" lon="5.61053">
        <ele>1155.4</ele>
        <time>2011-01-29T13:34:12Z</time>
      </trkpt>
      <trkpt lat="45.03083" lon="5.61057">
        <ele>1156.8</ele>
        <time>2011-01-29T13:34:18Z</time>
      </trkpt>
      <trkpt lat="45.0308" lon="5.61059">
        <ele>1157.2</ele>
        <time>2011-01-29T13:34:21Z</time>
      </trkpt>
      <trkpt lat="45.0308" lon="5.61059">
        <ele>1157.4</ele>
        <time>2011-01-29T13:34:22Z</time>
      </trkpt>
      <trkpt lat="45.03079" lon="5.6106">
        <ele>1157.6</ele>
        <time>2011-01-29T13:34:23Z</time>
      </trkpt>
      <trkpt lat="45.03077" lon="5.61062">
        <ele>1158</ele>
        <time>2011-01-29T13:34:26Z</time>
      </trkpt>
      <trkpt lat="45.03076" lon="5.61062">
        <ele>1158.2</ele>
        <time>2011-01-29T13:34:27Z</time>
      </trkpt>
      <trkpt lat="45.0307" lon="5.61069">
        <ele>1159.2</ele>
        <time>2011-01-29T13:34:35Z</time>
      </trkpt>
      <trkpt lat="45.03067" lon="5.61077">
        <ele>1160</ele>
        <time>2011-01-29T13:34:42Z</time>
      </trkpt>
      <trkpt lat="45.03067" lon="5.61078">
        <ele>1160.2</ele>
        <time>2011-01-29T13:34:43Z</time>
      </trkpt>
      <trkpt lat="45.03066" lon="5.61082">
        <ele>1160.6</ele>
        <time>2011-01-29T13:34:47Z</time>
      </trkpt>
      <trkpt lat="45.03065" lon="5.6109">
        <ele>1161.8</ele>
        <time>2011-01-29T13:34:52Z</time>
      </trkpt>
      <trkpt lat="45.03062" lon="5.61098">
        <ele>1163.8</ele>
        <time>2011-01-29T13:34:58Z</time>
      </trkpt>
      <trkpt lat="45.03062" lon="5.61099">
        <ele>1164</ele>
        <time>2011-01-29T13:34:59Z</time>
      </trkpt>
      <trkpt lat="45.0306" lon="5.61101">
        <ele>1165</ele>
        <time>2011-01-29T13:35:02Z</time>
      </trkpt>
      <trkpt lat="45.0306" lon="5.61102">
        <ele>1165.4</ele>
        <time>2011-01-29T13:35:03Z</time>
      </trkpt>
      <trkpt lat="45.03056" lon="5.61107">
        <ele>1167.4</ele>
        <time>2011-01-29T13:35:09Z</time>
      </trkpt>
      <trkpt lat="45.03054" lon="5.61108">
        <ele>1168.2</ele>
        <time>2011-01-29T13:35:12Z</time>
      </trkpt>
      <trkpt lat="45.03051" lon="5.61106">
        <ele>1169</ele>
        <time>2011-01-29T13:35:15Z</time>
      </trkpt>
      <trkpt lat="45.03049" lon="5.61102">
        <ele>1169.8</ele>
        <time>2011-01-29T13:35:18Z</time>
      </trkpt>
      <trkpt lat="45.03047" lon="5.61098">
        <ele>1170.6</ele>
        <time>2011-01-29T13:35:21Z</time>
      </trkpt>
      <trkpt lat="45.03046" lon="5.61097">
        <ele>1170.8</ele>
        <time>2011-01-29T13:35:22Z</time>
      </trkpt>
      <trkpt lat="45.03044" lon="5.61092">
        <ele>1172</ele>
        <time>2011-01-29T13:35:28Z</time>
      </trkpt>
      <trkpt lat="45.03041" lon="5.61087">
        <ele>1174.4</ele>
        <time>2011-01-29T13:35:45Z</time>
      </trkpt>
      <trkpt lat="45.03037" lon="5.61077">
        <ele>1175.4</ele>
        <time>2011-01-29T13:35:52Z</time>
      </trkpt>
      <trkpt lat="45.03036" lon="5.61074">
        <ele>1175.6</ele>
        <time>2011-01-29T13:35:54Z</time>
      </trkpt>
      <trkpt lat="45.03033" lon="5.61062">
        <ele>1175.8</ele>
        <time>2011-01-29T13:36:01Z</time>
      </trkpt>
      <trkpt lat="45.03032" lon="5.61056">
        <ele>1176</ele>
        <time>2011-01-29T13:36:04Z</time>
      </trkpt>
      <trkpt lat="45.03031" lon="5.61053">
        <ele>1176.2</ele>
        <time>2011-01-29T13:36:06Z</time>
      </trkpt>
      <trkpt lat="45.03032" lon="5.61043">
        <ele>1176.6</ele>
        <time>2011-01-29T13:36:12Z</time>
      </trkpt>
      <trkpt lat="45.03033" lon="5.61039">
        <ele>1177</ele>
        <time>2011-01-29T13:36:16Z</time>
      </trkpt>
      <trkpt lat="45.03033" lon="5.61036">
        <ele>1177.2</ele>
        <time>2011-01-29T13:36:18Z</time>
      </trkpt>
      <trkpt lat="45.03034" lon="5.61035">
        <ele>1177.4</ele>
        <time>2011-01-29T13:36:19Z</time>
      </trkpt>
      <trkpt lat="45.03034" lon="5.61033">
        <ele>1177.6</ele>
        <time>2011-01-29T13:36:21Z</time>
      </trkpt>
      <trkpt lat="45.03035" lon="5.61029">
        <ele>1178.2</ele>
        <time>2011-01-29T13:36:24Z</time>
      </trkpt>
      <trkpt lat="45.03035" lon="5.61027">
        <ele>1178.6</ele>
        <time>2011-01-29T13:36:26Z</time>
      </trkpt>
      <trkpt lat="45.03036" lon="5.61026">
        <ele>1178.6</ele>
        <time>2011-01-29T13:36:27Z</time>
      </trkpt>
      <trkpt lat="45.03036" lon="5.61024">
        <ele>1178.8</ele>
        <time>2011-01-29T13:36:28Z</time>
      </trkpt>
      <trkpt lat="45.03038" lon="5.61017">
        <ele>1180.4</ele>
        <time>2011-01-29T13:36:34Z</time>
      </trkpt>
      <trkpt lat="45.0304" lon="5.61007">
        <ele>1182</ele>
        <time>2011-01-29T13:36:40Z</time>
      </trkpt>
      <trkpt lat="45.03041" lon="5.61003">
        <ele>1182.4</ele>
        <time>2011-01-29T13:36:42Z</time>
      </trkpt>
      <trkpt lat="45.03041" lon="5.60997">
        <ele>1183.6</ele>
        <time>2011-01-29T13:36:46Z</time>
      </trkpt>
      <trkpt lat="45.03041" lon="5.60994">
        <ele>1184.2</ele>
        <time>2011-01-29T13:36:48Z</time>
      </trkpt>
      <trkpt lat="45.0304" lon="5.60987">
        <ele>1185.4</ele>
        <time>2011-01-29T13:36:52Z</time>
      </trkpt>
      <trkpt lat="45.0304" lon="5.60978">
        <ele>1187</ele>
        <time>2011-01-29T13:36:58Z</time>
      </trkpt>
      <trkpt lat="45.0304" lon="5.60977">
        <ele>1187.2</ele>
        <time>2011-01-29T13:36:59Z</time>
      </trkpt>
      <trkpt lat="45.03039" lon="5.60972">
        <ele>1188.2</ele>
        <time>2011-01-29T13:37:02Z</time>
      </trkpt>
      <trkpt lat="45.03036" lon="5.60967">
        <ele>1188.8</ele>
        <time>2011-01-29T13:37:05Z</time>
      </trkpt>
      <trkpt lat="45.03033" lon="5.60954">
        <ele>1190.8</ele>
        <time>2011-01-29T13:37:13Z</time>
      </trkpt>
      <trkpt lat="45.03032" lon="5.60953">
        <ele>1191</ele>
        <time>2011-01-29T13:37:14Z</time>
      </trkpt>
      <trkpt lat="45.03031" lon="5.60947">
        <ele>1192</ele>
        <time>2011-01-29T13:37:18Z</time>
      </trkpt>
      <trkpt lat="45.0303" lon="5.60939">
        <ele>1193</ele>
        <time>2011-01-29T13:37:23Z</time>
      </trkpt>
      <trkpt lat="45.0303" lon="5.60938">
        <ele>1193.2</ele>
        <time>2011-01-29T13:37:24Z</time>
      </trkpt>
      <trkpt lat="45.03027" lon="5.6093">
        <ele>1194.2</ele>
        <time>2011-01-29T13:37:29Z</time>
      </trkpt>
      <trkpt lat="45.03026" lon="5.60927">
        <ele>1194.4</ele>
        <time>2011-01-29T13:37:31Z</time>
      </trkpt>
      <trkpt lat="45.03023" lon="5.60914">
        <ele>1195.8</ele>
        <time>2011-01-29T13:37:39Z</time>
      </trkpt>
      <trkpt lat="45.03022" lon="5.60913">
        <ele>1195.8</ele>
        <time>2011-01-29T13:37:40Z</time>
      </trkpt>
      <trkpt lat="45.03022" lon="5.60906">
        <ele>1196.4</ele>
        <time>2011-01-29T13:37:44Z</time>
      </trkpt>
      <trkpt lat="45.03021" lon="5.60902">
        <ele>1196.6</ele>
        <time>2011-01-29T13:37:47Z</time>
      </trkpt>
      <trkpt lat="45.03019" lon="5.60897">
        <ele>1196.6</ele>
        <time>2011-01-29T13:37:50Z</time>
      </trkpt>
      <trkpt lat="45.03018" lon="5.60895">
        <ele>1196.6</ele>
        <time>2011-01-29T13:37:52Z</time>
      </trkpt>
      <trkpt lat="45.03018" lon="5.6089">
        <ele>1196.8</ele>
        <time>2011-01-29T13:37:55Z</time>
      </trkpt>
      <trkpt lat="45.03017" lon="5.60882">
        <ele>1196.6</ele>
        <time>2011-01-29T13:38:00Z</time>
      </trkpt>
      <trkpt lat="45.03017" lon="5.6088">
        <ele>1196.6</ele>
        <time>2011-01-29T13:38:01Z</time>
      </trkpt>
      <trkpt lat="45.03015" lon="5.60875">
        <ele>1196.6</ele>
        <time>2011-01-29T13:38:05Z</time>
      </trkpt>
      <trkpt lat="45.03014" lon="5.60872">
        <ele>1196.6</ele>
        <time>2011-01-29T13:38:07Z</time>
      </trkpt>
      <trkpt lat="45.03011" lon="5.60864">
        <ele>1196.8</ele>
        <time>2011-01-29T13:38:11Z</time>
      </trkpt>
      <trkpt lat="45.0301" lon="5.6086">
        <ele>1197</ele>
        <time>2011-01-29T13:38:13Z</time>
      </trkpt>
      <trkpt lat="45.0301" lon="5.60858">
        <ele>1197.2</ele>
        <time>2011-01-29T13:38:14Z</time>
      </trkpt>
      <trkpt lat="45.03009" lon="5.60851">
        <ele>1197.4</ele>
        <time>2011-01-29T13:38:17Z</time>
      </trkpt>
      <trkpt lat="45.03008" lon="5.60847">
        <ele>1197.6</ele>
        <time>2011-01-29T13:38:19Z</time>
      </trkpt>
      <trkpt lat="45.03009" lon="5.60833">
        <ele>1198.6</ele>
        <time>2011-01-29T13:38:26Z</time>
      </trkpt>
      <trkpt lat="45.03008" lon="5.60831">
        <ele>1198.8</ele>
        <time>2011-01-29T13:38:27Z</time>
      </trkpt>
      <trkpt lat="45.03007" lon="5.60821">
        <ele>1200</ele>
        <time>2011-01-29T13:38:32Z</time>
      </trkpt>
      <trkpt lat="45.03006" lon="5.6081">
        <ele>1201.6</ele>
        <time>2011-01-29T13:38:38Z</time>
      </trkpt>
      <trkpt lat="45.03005" lon="5.60806">
        <ele>1202.2</ele>
        <time>2011-01-29T13:38:40Z</time>
      </trkpt>
      <trkpt lat="45.03006" lon="5.60798">
        <ele>1203.2</ele>
        <time>2011-01-29T13:38:44Z</time>
      </trkpt>
      <trkpt lat="45.03008" lon="5.60787">
        <ele>1204.8</ele>
        <time>2011-01-29T13:38:51Z</time>
      </trkpt>
      <trkpt lat="45.03008" lon="5.60786">
        <ele>1205</ele>
        <time>2011-01-29T13:38:52Z</time>
      </trkpt>
      <trkpt lat="45.03009" lon="5.60781">
        <ele>1205.4</ele>
        <time>2011-01-29T13:38:55Z</time>
      </trkpt>
      <trkpt lat="45.03008" lon="5.60776">
        <ele>1205.8</ele>
        <time>2011-01-29T13:38:58Z</time>
      </trkpt>
      <trkpt lat="45.03009" lon="5.6077">
        <ele>1206.6</ele>
        <time>2011-01-29T13:39:03Z</time>
      </trkpt>
      <trkpt lat="45.03008" lon="5.60768">
        <ele>1207</ele>
        <time>2011-01-29T13:39:04Z</time>
      </trkpt>
      <trkpt lat="45.03004" lon="5.60759">
        <ele>1209.4</ele>
        <time>2011-01-29T13:39:11Z</time>
      </trkpt>
      <trkpt lat="45.03005" lon="5.60757">
        <ele>1209.6</ele>
        <time>2011-01-29T13:39:12Z</time>
      </trkpt>
      <trkpt lat="45.03005" lon="5.60755">
        <ele>1210.4</ele>
        <time>2011-01-29T13:39:14Z</time>
      </trkpt>
      <trkpt lat="45.03005" lon="5.60751">
        <ele>1211.4</ele>
        <time>2011-01-29T13:39:17Z</time>
      </trkpt>
      <trkpt lat="45.03005" lon="5.6075">
        <ele>1211.8</ele>
        <time>2011-01-29T13:39:18Z</time>
      </trkpt>
      <trkpt lat="45.03005" lon="5.60741">
        <ele>1213.2</ele>
        <time>2011-01-29T13:39:24Z</time>
      </trkpt>
      <trkpt lat="45.03006" lon="5.60731">
        <ele>1215.4</ele>
        <time>2011-01-29T13:39:31Z</time>
      </trkpt>
      <trkpt lat="45.03006" lon="5.60729">
        <ele>1215.6</ele>
        <time>2011-01-29T13:39:32Z</time>
      </trkpt>
      <trkpt lat="45.03007" lon="5.60728">
        <ele>1215.8</ele>
        <time>2011-01-29T13:39:33Z</time>
      </trkpt>
      <trkpt lat="45.03008" lon="5.60725">
        <ele>1216.2</ele>
        <time>2011-01-29T13:39:36Z</time>
      </trkpt>
      <trkpt lat="45.03008" lon="5.60724">
        <ele>1216.4</ele>
        <time>2011-01-29T13:39:37Z</time>
      </trkpt>
      <trkpt lat="45.03008" lon="5.6072">
        <ele>1216.8</ele>
        <time>2011-01-29T13:39:40Z</time>
      </trkpt>
      <trkpt lat="45.03009" lon="5.60718">
        <ele>1217</ele>
        <time>2011-01-29T13:39:42Z</time>
      </trkpt>
      <trkpt lat="45.03009" lon="5.60711">
        <ele>1217.6</ele>
        <time>2011-01-29T13:39:46Z</time>
      </trkpt>
      <trkpt lat="45.03008" lon="5.60706">
        <ele>1218.6</ele>
        <time>2011-01-29T13:39:52Z</time>
      </trkpt>
      <trkpt lat="45.0301" lon="5.60702">
        <ele>1219</ele>
        <time>2011-01-29T13:39:56Z</time>
      </trkpt>
      <trkpt lat="45.0301" lon="5.60701">
        <ele>1219</ele>
        <time>2011-01-29T13:39:57Z</time>
      </trkpt>
      <trkpt lat="45.0301" lon="5.60695">
        <ele>1219.8</ele>
        <time>2011-01-29T13:40:01Z</time>
      </trkpt>
      <trkpt lat="45.03011" lon="5.60688">
        <ele>1221</ele>
        <time>2011-01-29T13:40:07Z</time>
      </trkpt>
      <trkpt lat="45.03011" lon="5.60685">
        <ele>1221.2</ele>
        <time>2011-01-29T13:40:09Z</time>
      </trkpt>
      <trkpt lat="45.03012" lon="5.60682">
        <ele>1221.8</ele>
        <time>2011-01-29T13:40:11Z</time>
      </trkpt>
      <trkpt lat="45.03012" lon="5.60677">
        <ele>1222.2</ele>
        <time>2011-01-29T13:40:13Z</time>
      </trkpt>
      <trkpt lat="45.03015" lon="5.60671">
        <ele>1224</ele>
        <time>2011-01-29T13:40:19Z</time>
      </trkpt>
      <trkpt lat="45.03017" lon="5.60667">
        <ele>1225</ele>
        <time>2011-01-29T13:40:22Z</time>
      </trkpt>
      <trkpt lat="45.03017" lon="5.60666">
        <ele>1225.2</ele>
        <time>2011-01-29T13:40:23Z</time>
      </trkpt>
      <trkpt lat="45.03016" lon="5.6066">
        <ele>1227.4</ele>
        <time>2011-01-29T13:40:28Z</time>
      </trkpt>
      <trkpt lat="45.03016" lon="5.60655">
        <ele>1229.2</ele>
        <time>2011-01-29T13:40:33Z</time>
      </trkpt>
      <trkpt lat="45.03016" lon="5.60652">
        <ele>1229.8</ele>
        <time>2011-01-29T13:40:34Z</time>
      </trkpt>
      <trkpt lat="45.03017" lon="5.60649">
        <ele>1231</ele>
        <time>2011-01-29T13:40:37Z</time>
      </trkpt>
      <trkpt lat="45.03016" lon="5.60648">
        <ele>1232</ele>
        <time>2011-01-29T13:40:39Z</time>
      </trkpt>
      <trkpt lat="45.03015" lon="5.60647">
        <ele>1232.4</ele>
        <time>2011-01-29T13:40:40Z</time>
      </trkpt>
      <trkpt lat="45.03014" lon="5.60643">
        <ele>1233.8</ele>
        <time>2011-01-29T13:40:44Z</time>
      </trkpt>
      <trkpt lat="45.03014" lon="5.60638">
        <ele>1235.2</ele>
        <time>2011-01-29T13:40:48Z</time>
      </trkpt>
      <trkpt lat="45.03014" lon="5.60634">
        <ele>1236.4</ele>
        <time>2011-01-29T13:40:52Z</time>
      </trkpt>
      <trkpt lat="45.03015" lon="5.60632">
        <ele>1237</ele>
        <time>2011-01-29T13:40:54Z</time>
      </trkpt>
      <trkpt lat="45.03015" lon="5.60631">
        <ele>1237.4</ele>
        <time>2011-01-29T13:40:55Z</time>
      </trkpt>
      <trkpt lat="45.03016" lon="5.60628">
        <ele>1238.2</ele>
        <time>2011-01-29T13:40:57Z</time>
      </trkpt>
      <trkpt lat="45.03018" lon="5.60625">
        <ele>1240.2</ele>
        <time>2011-01-29T13:41:02Z</time>
      </trkpt>
      <trkpt lat="45.03019" lon="5.60624">
        <ele>1241.2</ele>
        <time>2011-01-29T13:41:04Z</time>
      </trkpt>
      <trkpt lat="45.03021" lon="5.60622">
        <ele>1242.6</ele>
        <time>2011-01-29T13:41:08Z</time>
      </trkpt>
      <trkpt lat="45.03025" lon="5.60617">
        <ele>1244.6</ele>
        <time>2011-01-29T13:41:13Z</time>
      </trkpt>
      <trkpt lat="45.03027" lon="5.60613">
        <ele>1246.6</ele>
        <time>2011-01-29T13:41:18Z</time>
      </trkpt>
      <trkpt lat="45.03027" lon="5.60611">
        <ele>1246.6</ele>
        <time>2011-01-29T13:41:19Z</time>
      </trkpt>
      <trkpt lat="45.03027" lon="5.60606">
        <ele>1247.6</ele>
        <time>2011-01-29T13:41:22Z</time>
      </trkpt>
      <trkpt lat="45.03027" lon="5.60601">
        <ele>1248</ele>
        <time>2011-01-29T13:41:25Z</time>
      </trkpt>
      <trkpt lat="45.03029" lon="5.60595">
        <ele>1248.8</ele>
        <time>2011-01-29T13:41:30Z</time>
      </trkpt>
      <trkpt lat="45.0303" lon="5.60594">
        <ele>1249</ele>
        <time>2011-01-29T13:41:31Z</time>
      </trkpt>
      <trkpt lat="45.0303" lon="5.60593">
        <ele>1249.2</ele>
        <time>2011-01-29T13:41:32Z</time>
      </trkpt>
      <trkpt lat="45.03034" lon="5.60589">
        <ele>1250.8</ele>
        <time>2011-01-29T13:41:37Z</time>
      </trkpt>
      <trkpt lat="45.03036" lon="5.60584">
        <ele>1251.8</ele>
        <time>2011-01-29T13:41:42Z</time>
      </trkpt>
      <trkpt lat="45.03039" lon="5.6058">
        <ele>1252.8</ele>
        <time>2011-01-29T13:41:47Z</time>
      </trkpt>
      <trkpt lat="45.0304" lon="5.60579">
        <ele>1253</ele>
        <time>2011-01-29T13:41:48Z</time>
      </trkpt>
      <trkpt lat="45.03044" lon="5.60578">
        <ele>1253.4</ele>
        <time>2011-01-29T13:41:52Z</time>
      </trkpt>
      <trkpt lat="45.03048" lon="5.60578">
        <ele>1253.8</ele>
        <time>2011-01-29T13:41:56Z</time>
      </trkpt>
      <trkpt lat="45.03048" lon="5.60576">
        <ele>1254.2</ele>
        <time>2011-01-29T13:41:58Z</time>
      </trkpt>
      <trkpt lat="45.0305" lon="5.60576">
        <ele>1254.8</ele>
        <time>2011-01-29T13:42:01Z</time>
      </trkpt>
      <trkpt lat="45.03051" lon="5.60575">
        <ele>1255.2</ele>
        <time>2011-01-29T13:42:03Z</time>
      </trkpt>
      <trkpt lat="45.03054" lon="5.6057">
        <ele>1256.2</ele>
        <time>2011-01-29T13:42:07Z</time>
      </trkpt>
      <trkpt lat="45.03055" lon="5.60564">
        <ele>1256.6</ele>
        <time>2011-01-29T13:42:11Z</time>
      </trkpt>
      <trkpt lat="45.03056" lon="5.60561">
        <ele>1257</ele>
        <time>2011-01-29T13:42:13Z</time>
      </trkpt>
      <trkpt lat="45.03057" lon="5.60559">
        <ele>1257.4</ele>
        <time>2011-01-29T13:42:15Z</time>
      </trkpt>
      <trkpt lat="45.0306" lon="5.60555">
        <ele>1258</ele>
        <time>2011-01-29T13:42:18Z</time>
      </trkpt>
      <trkpt lat="45.0306" lon="5.60554">
        <ele>1258.2</ele>
        <time>2011-01-29T13:42:19Z</time>
      </trkpt>
      <trkpt lat="45.03062" lon="5.60553">
        <ele>1258.6</ele>
        <time>2011-01-29T13:42:22Z</time>
      </trkpt>
      <trkpt lat="45.03065" lon="5.60547">
        <ele>1259</ele>
        <time>2011-01-29T13:42:28Z</time>
      </trkpt>
      <trkpt lat="45.03066" lon="5.60542">
        <ele>1259</ele>
        <time>2011-01-29T13:43:00Z</time>
      </trkpt>
      <trkpt lat="45.03068" lon="5.6054">
        <ele>1259.2</ele>
        <time>2011-01-29T13:43:02Z</time>
      </trkpt>
      <trkpt lat="45.03071" lon="5.60537">
        <ele>1259.4</ele>
        <time>2011-01-29T13:43:05Z</time>
      </trkpt>
      <trkpt lat="45.03074" lon="5.60533">
        <ele>1260</ele>
        <time>2011-01-29T13:43:10Z</time>
      </trkpt>
      <trkpt lat="45.03074" lon="5.60533">
        <ele>1260</ele>
        <time>2011-01-29T13:43:11Z</time>
      </trkpt>
      <trkpt lat="45.03075" lon="5.60533">
        <ele>1260</ele>
        <time>2011-01-29T13:43:12Z</time>
      </trkpt>
      <trkpt lat="45.03079" lon="5.60533">
        <ele>1260.4</ele>
        <time>2011-01-29T13:43:17Z</time>
      </trkpt>
      <trkpt lat="45.03083" lon="5.60531">
        <ele>1260.8</ele>
        <time>2011-01-29T13:43:22Z</time>
      </trkpt>
      <trkpt lat="45.03084" lon="5.6053">
        <ele>1260.8</ele>
        <time>2011-01-29T13:43:23Z</time>
      </trkpt>
      <trkpt lat="45.03088" lon="5.60527">
        <ele>1261.2</ele>
        <time>2011-01-29T13:43:31Z</time>
      </trkpt>
      <trkpt lat="45.0309" lon="5.60522">
        <ele>1261.6</ele>
        <time>2011-01-29T13:43:46Z</time>
      </trkpt>
      <trkpt lat="45.03092" lon="5.60519">
        <ele>1261.8</ele>
        <time>2011-01-29T13:43:50Z</time>
      </trkpt>
      <trkpt lat="45.03094" lon="5.60517">
        <ele>1261.8</ele>
        <time>2011-01-29T13:43:52Z</time>
      </trkpt>
      <trkpt lat="45.03097" lon="5.60516">
        <ele>1262</ele>
        <time>2011-01-29T13:43:55Z</time>
      </trkpt>
      <trkpt lat="45.03102" lon="5.60513">
        <ele>1262.4</ele>
        <time>2011-01-29T13:44:00Z</time>
      </trkpt>
      <trkpt lat="45.03104" lon="5.60512">
        <ele>1262.4</ele>
        <time>2011-01-29T13:44:03Z</time>
      </trkpt>
      <trkpt lat="45.03108" lon="5.60511">
        <ele>1262.4</ele>
        <time>2011-01-29T13:44:07Z</time>
      </trkpt>
      <trkpt lat="45.03115" lon="5.60508">
        <ele>1262.8</ele>
        <time>2011-01-29T13:44:12Z</time>
      </trkpt>
      <trkpt lat="45.03119" lon="5.60506">
        <ele>1263.2</ele>
        <time>2011-01-29T13:44:15Z</time>
      </trkpt>
      <trkpt lat="45.03131" lon="5.60506">
        <ele>1264</ele>
        <time>2011-01-29T13:44:24Z</time>
      </trkpt>
      <trkpt lat="45.03133" lon="5.60505">
        <ele>1264.2</ele>
        <time>2011-01-29T13:44:26Z</time>
      </trkpt>
      <trkpt lat="45.03136" lon="5.60501">
        <ele>1264.4</ele>
        <time>2011-01-29T13:44:30Z</time>
      </trkpt>
      <trkpt lat="45.0314" lon="5.60495">
        <ele>1265.4</ele>
        <time>2011-01-29T13:44:36Z</time>
      </trkpt>
      <trkpt lat="45.03146" lon="5.60486">
        <ele>1266.6</ele>
        <time>2011-01-29T13:44:43Z</time>
      </trkpt>
      <trkpt lat="45.03148" lon="5.60485">
        <ele>1266.8</ele>
        <time>2011-01-29T13:44:44Z</time>
      </trkpt>
      <trkpt lat="45.0315" lon="5.60483">
        <ele>1267.4</ele>
        <time>2011-01-29T13:44:46Z</time>
      </trkpt>
      <trkpt lat="45.03154" lon="5.60478">
        <ele>1268.8</ele>
        <time>2011-01-29T13:44:51Z</time>
      </trkpt>
      <trkpt lat="45.03155" lon="5.60476">
        <ele>1269.6</ele>
        <time>2011-01-29T13:44:53Z</time>
      </trkpt>
      <trkpt lat="45.03156" lon="5.60475">
        <ele>1271</ele>
        <time>2011-01-29T13:44:57Z</time>
      </trkpt>
      <trkpt lat="45.03158" lon="5.60474">
        <ele>1271.6</ele>
        <time>2011-01-29T13:44:59Z</time>
      </trkpt>
      <trkpt lat="45.03159" lon="5.60472">
        <ele>1272.2</ele>
        <time>2011-01-29T13:45:01Z</time>
      </trkpt>
      <trkpt lat="45.03159" lon="5.6047">
        <ele>1272.6</ele>
        <time>2011-01-29T13:45:02Z</time>
      </trkpt>
      <trkpt lat="45.03161" lon="5.60465">
        <ele>1273.2</ele>
        <time>2011-01-29T13:45:05Z</time>
      </trkpt>
      <trkpt lat="45.03161" lon="5.6046">
        <ele>1275.6</ele>
        <time>2011-01-29T13:45:11Z</time>
      </trkpt>
      <trkpt lat="45.03161" lon="5.60455">
        <ele>1276.8</ele>
        <time>2011-01-29T13:45:15Z</time>
      </trkpt>
      <trkpt lat="45.03161" lon="5.60452">
        <ele>1277.8</ele>
        <time>2011-01-29T13:45:18Z</time>
      </trkpt>
      <trkpt lat="45.03163" lon="5.60447">
        <ele>1278.6</ele>
        <time>2011-01-29T13:45:21Z</time>
      </trkpt>
      <trkpt lat="45.03163" lon="5.60444">
        <ele>1280.2</ele>
        <time>2011-01-29T13:45:26Z</time>
      </trkpt>
      <trkpt lat="45.03165" lon="5.60435">
        <ele>1282</ele>
        <time>2011-01-29T13:45:32Z</time>
      </trkpt>
      <trkpt lat="45.03165" lon="5.60433">
        <ele>1282.6</ele>
        <time>2011-01-29T13:45:34Z</time>
      </trkpt>
      <trkpt lat="45.03164" lon="5.6043">
        <ele>1283.2</ele>
        <time>2011-01-29T13:45:36Z</time>
      </trkpt>
      <trkpt lat="45.03163" lon="5.60426">
        <ele>1285</ele>
        <time>2011-01-29T13:45:41Z</time>
      </trkpt>
      <trkpt lat="45.03163" lon="5.60424">
        <ele>1285.2</ele>
        <time>2011-01-29T13:45:42Z</time>
      </trkpt>
      <trkpt lat="45.03163" lon="5.60421">
        <ele>1286.8</ele>
        <time>2011-01-29T13:45:47Z</time>
      </trkpt>
      <trkpt lat="45.03163" lon="5.60419">
        <ele>1287.2</ele>
        <time>2011-01-29T13:45:48Z</time>
      </trkpt>
      <trkpt lat="45.03166" lon="5.60414">
        <ele>1288</ele>
        <time>2011-01-29T13:45:52Z</time>
      </trkpt>
      <trkpt lat="45.03167" lon="5.60412">
        <ele>1288</ele>
        <time>2011-01-29T13:45:53Z</time>
      </trkpt>
      <trkpt lat="45.03168" lon="5.60408">
        <ele>1289</ele>
        <time>2011-01-29T13:45:57Z</time>
      </trkpt>
      <trkpt lat="45.0317" lon="5.60404">
        <ele>1289.8</ele>
        <time>2011-01-29T13:46:01Z</time>
      </trkpt>
      <trkpt lat="45.03171" lon="5.60402">
        <ele>1290</ele>
        <time>2011-01-29T13:46:03Z</time>
      </trkpt>
      <trkpt lat="45.03172" lon="5.604">
        <ele>1290.4</ele>
        <time>2011-01-29T13:46:05Z</time>
      </trkpt>
      <trkpt lat="45.03174" lon="5.60398">
        <ele>1291</ele>
        <time>2011-01-29T13:46:08Z</time>
      </trkpt>
      <trkpt lat="45.03174" lon="5.60397">
        <ele>1291.4</ele>
        <time>2011-01-29T13:46:09Z</time>
      </trkpt>
      <trkpt lat="45.03174" lon="5.60396">
        <ele>1291.4</ele>
        <time>2011-01-29T13:46:10Z</time>
      </trkpt>
      <trkpt lat="45.03175" lon="5.60395">
        <ele>1291.6</ele>
        <time>2011-01-29T13:46:11Z</time>
      </trkpt>
      <trkpt lat="45.03176" lon="5.60393">
        <ele>1292.6</ele>
        <time>2011-01-29T13:46:14Z</time>
      </trkpt>
      <trkpt lat="45.03176" lon="5.60392">
        <ele>1294</ele>
        <time>2011-01-29T13:46:19Z</time>
      </trkpt>
      <trkpt lat="45.03177" lon="5.60391">
        <ele>1294.2</ele>
        <time>2011-01-29T13:46:20Z</time>
      </trkpt>
      <trkpt lat="45.03179" lon="5.6039">
        <ele>1295</ele>
        <time>2011-01-29T13:46:23Z</time>
      </trkpt>
      <trkpt lat="45.0318" lon="5.6039">
        <ele>1295.4</ele>
        <time>2011-01-29T13:46:24Z</time>
      </trkpt>
      <trkpt lat="45.03184" lon="5.60388">
        <ele>1295.8</ele>
        <time>2011-01-29T13:46:28Z</time>
      </trkpt>
      <trkpt lat="45.03185" lon="5.60387">
        <ele>1296.2</ele>
        <time>2011-01-29T13:46:30Z</time>
      </trkpt>
      <trkpt lat="45.03187" lon="5.60387">
        <ele>1296.6</ele>
        <time>2011-01-29T13:46:32Z</time>
      </trkpt>
      <trkpt lat="45.03189" lon="5.60385">
        <ele>1297.2</ele>
        <time>2011-01-29T13:46:35Z</time>
      </trkpt>
      <trkpt lat="45.03191" lon="5.60385">
        <ele>1297.4</ele>
        <time>2011-01-29T13:46:37Z</time>
      </trkpt>
      <trkpt lat="45.03194" lon="5.60383">
        <ele>1297.6</ele>
        <time>2011-01-29T13:46:39Z</time>
      </trkpt>
      <trkpt lat="45.03198" lon="5.6038">
        <ele>1298.4</ele>
        <time>2011-01-29T13:46:44Z</time>
      </trkpt>
      <trkpt lat="45.032" lon="5.60377">
        <ele>1299.4</ele>
        <time>2011-01-29T13:46:50Z</time>
      </trkpt>
      <trkpt lat="45.03201" lon="5.60372">
        <ele>1300</ele>
        <time>2011-01-29T13:46:53Z</time>
      </trkpt>
      <trkpt lat="45.03201" lon="5.60371">
        <ele>1300.2</ele>
        <time>2011-01-29T13:46:54Z</time>
      </trkpt>
      <trkpt lat="45.03202" lon="5.60373">
        <ele>1301.2</ele>
        <time>2011-01-29T13:46:57Z</time>
      </trkpt>
      <trkpt lat="45.03203" lon="5.60372">
        <ele>1301.8</ele>
        <time>2011-01-29T13:46:59Z</time>
      </trkpt>
      <trkpt lat="45.03203" lon="5.60371">
        <ele>1302.2</ele>
        <time>2011-01-29T13:47:01Z</time>
      </trkpt>
      <trkpt lat="45.03203" lon="5.60368">
        <ele>1303.4</ele>
        <time>2011-01-29T13:47:06Z</time>
      </trkpt>
      <trkpt lat="45.03202" lon="5.60364">
        <ele>1304.2</ele>
        <time>2011-01-29T13:47:11Z</time>
      </trkpt>
      <trkpt lat="45.03202" lon="5.6036">
        <ele>1304.6</ele>
        <time>2011-01-29T13:47:13Z</time>
      </trkpt>
      <trkpt lat="45.03202" lon="5.60357">
        <ele>1306.6</ele>
        <time>2011-01-29T13:47:18Z</time>
      </trkpt>
      <trkpt lat="45.03201" lon="5.60353">
        <ele>1308</ele>
        <time>2011-01-29T13:47:22Z</time>
      </trkpt>
      <trkpt lat="45.03203" lon="5.60349">
        <ele>1308.6</ele>
        <time>2011-01-29T13:47:25Z</time>
      </trkpt>
      <trkpt lat="45.03204" lon="5.60346">
        <ele>1309.6</ele>
        <time>2011-01-29T13:47:29Z</time>
      </trkpt>
      <trkpt lat="45.03204" lon="5.60344">
        <ele>1310</ele>
        <time>2011-01-29T13:47:31Z</time>
      </trkpt>
      <trkpt lat="45.03205" lon="5.60341">
        <ele>1310.6</ele>
        <time>2011-01-29T13:47:34Z</time>
      </trkpt>
      <trkpt lat="45.03205" lon="5.60336">
        <ele>1312</ele>
        <time>2011-01-29T13:47:40Z</time>
      </trkpt>
      <trkpt lat="45.03204" lon="5.60331">
        <ele>1313</ele>
        <time>2011-01-29T13:47:45Z</time>
      </trkpt>
      <trkpt lat="45.03205" lon="5.60329">
        <ele>1313.4</ele>
        <time>2011-01-29T13:47:47Z</time>
      </trkpt>
      <trkpt lat="45.03206" lon="5.60327">
        <ele>1313.8</ele>
        <time>2011-01-29T13:47:49Z</time>
      </trkpt>
      <trkpt lat="45.03206" lon="5.60322">
        <ele>1314.4</ele>
        <time>2011-01-29T13:47:53Z</time>
      </trkpt>
      <trkpt lat="45.03205" lon="5.6032">
        <ele>1315</ele>
        <time>2011-01-29T13:47:56Z</time>
      </trkpt>
      <trkpt lat="45.03204" lon="5.60318">
        <ele>1315.6</ele>
        <time>2011-01-29T13:47:58Z</time>
      </trkpt>
      <trkpt lat="45.03203" lon="5.60313">
        <ele>1316.6</ele>
        <time>2011-01-29T13:48:03Z</time>
      </trkpt>
      <trkpt lat="45.03201" lon="5.60309">
        <ele>1317.6</ele>
        <time>2011-01-29T13:48:07Z</time>
      </trkpt>
      <trkpt lat="45.032" lon="5.60308">
        <ele>1318</ele>
        <time>2011-01-29T13:48:09Z</time>
      </trkpt>
      <trkpt lat="45.032" lon="5.60304">
        <ele>1319.2</ele>
        <time>2011-01-29T13:48:13Z</time>
      </trkpt>
      <trkpt lat="45.03199" lon="5.60301">
        <ele>1320.6</ele>
        <time>2011-01-29T13:48:17Z</time>
      </trkpt>
      <trkpt lat="45.03199" lon="5.60296">
        <ele>1322</ele>
        <time>2011-01-29T13:48:22Z</time>
      </trkpt>
      <trkpt lat="45.03198" lon="5.60295">
        <ele>1322.4</ele>
        <time>2011-01-29T13:48:23Z</time>
      </trkpt>
      <trkpt lat="45.03197" lon="5.60292">
        <ele>1323.6</ele>
        <time>2011-01-29T13:48:27Z</time>
      </trkpt>
      <trkpt lat="45.03197" lon="5.60288">
        <ele>1324.8</ele>
        <time>2011-01-29T13:48:32Z</time>
      </trkpt>
      <trkpt lat="45.03199" lon="5.60285">
        <ele>1326.8</ele>
        <time>2011-01-29T13:48:38Z</time>
      </trkpt>
      <trkpt lat="45.032" lon="5.60283">
        <ele>1328.2</ele>
        <time>2011-01-29T13:48:43Z</time>
      </trkpt>
      <trkpt lat="45.03202" lon="5.6028">
        <ele>1329.2</ele>
        <time>2011-01-29T13:48:47Z</time>
      </trkpt>
      <trkpt lat="45.03204" lon="5.60277">
        <ele>1330.6</ele>
        <time>2011-01-29T13:48:52Z</time>
      </trkpt>
      <trkpt lat="45.03205" lon="5.60277">
        <ele>1331.8</ele>
        <time>2011-01-29T13:48:56Z</time>
      </trkpt>
      <trkpt lat="45.03206" lon="5.60276">
        <ele>1332</ele>
        <time>2011-01-29T13:48:57Z</time>
      </trkpt>
      <trkpt lat="45.03207" lon="5.60275">
        <ele>1332.4</ele>
        <time>2011-01-29T13:48:59Z</time>
      </trkpt>
      <trkpt lat="45.03208" lon="5.60274">
        <ele>1332.8</ele>
        <time>2011-01-29T13:49:01Z</time>
      </trkpt>
      <trkpt lat="45.03212" lon="5.6027">
        <ele>1334</ele>
        <time>2011-01-29T13:49:07Z</time>
      </trkpt>
      <trkpt lat="45.03214" lon="5.60268">
        <ele>1335.2</ele>
        <time>2011-01-29T13:49:12Z</time>
      </trkpt>
      <trkpt lat="45.03216" lon="5.60266">
        <ele>1335.8</ele>
        <time>2011-01-29T13:49:15Z</time>
      </trkpt>
      <trkpt lat="45.03219" lon="5.60264">
        <ele>1336.8</ele>
        <time>2011-01-29T13:49:20Z</time>
      </trkpt>
      <trkpt lat="45.03221" lon="5.60264">
        <ele>1337.4</ele>
        <time>2011-01-29T13:49:23Z</time>
      </trkpt>
      <trkpt lat="45.03221" lon="5.60263">
        <ele>1337.6</ele>
        <time>2011-01-29T13:49:24Z</time>
      </trkpt>
      <trkpt lat="45.03225" lon="5.60258">
        <ele>1338.4</ele>
        <time>2011-01-29T13:49:29Z</time>
      </trkpt>
      <trkpt lat="45.03226" lon="5.60257">
        <ele>1338.6</ele>
        <time>2011-01-29T13:49:30Z</time>
      </trkpt>
      <trkpt lat="45.03227" lon="5.60256">
        <ele>1339.2</ele>
        <time>2011-01-29T13:49:33Z</time>
      </trkpt>
      <trkpt lat="45.03229" lon="5.60256">
        <ele>1340.2</ele>
        <time>2011-01-29T13:49:37Z</time>
      </trkpt>
      <trkpt lat="45.03231" lon="5.60255">
        <ele>1341.2</ele>
        <time>2011-01-29T13:49:41Z</time>
      </trkpt>
      <trkpt lat="45.03234" lon="5.60254">
        <ele>1342.8</ele>
        <time>2011-01-29T13:49:46Z</time>
      </trkpt>
      <trkpt lat="45.03236" lon="5.60254">
        <ele>1343.6</ele>
        <time>2011-01-29T13:49:49Z</time>
      </trkpt>
      <trkpt lat="45.03237" lon="5.60254">
        <ele>1344</ele>
        <time>2011-01-29T13:49:51Z</time>
      </trkpt>
      <trkpt lat="45.03241" lon="5.60249">
        <ele>1346</ele>
        <time>2011-01-29T13:49:57Z</time>
      </trkpt>
      <trkpt lat="45.03244" lon="5.60246">
        <ele>1348.4</ele>
        <time>2011-01-29T13:50:04Z</time>
      </trkpt>
      <trkpt lat="45.03248" lon="5.60244">
        <ele>1349.8</ele>
        <time>2011-01-29T13:50:09Z</time>
      </trkpt>
      <trkpt lat="45.03251" lon="5.60239">
        <ele>1350.8</ele>
        <time>2011-01-29T13:50:14Z</time>
      </trkpt>
      <trkpt lat="45.03254" lon="5.60237">
        <ele>1351.6</ele>
        <time>2011-01-29T13:50:18Z</time>
      </trkpt>
      <trkpt lat="45.03255" lon="5.60236">
        <ele>1352</ele>
        <time>2011-01-29T13:50:20Z</time>
      </trkpt>
      <trkpt lat="45.03257" lon="5.60233">
        <ele>1353</ele>
        <time>2011-01-29T13:50:25Z</time>
      </trkpt>
      <trkpt lat="45.03262" lon="5.60227">
        <ele>1354.2</ele>
        <time>2011-01-29T13:50:32Z</time>
      </trkpt>
      <trkpt lat="45.03263" lon="5.60226">
        <ele>1354.8</ele>
        <time>2011-01-29T13:50:36Z</time>
      </trkpt>
      <trkpt lat="45.03266" lon="5.60225">
        <ele>1355.2</ele>
        <time>2011-01-29T13:50:39Z</time>
      </trkpt>
      <trkpt lat="45.03267" lon="5.60223">
        <ele>1355.6</ele>
        <time>2011-01-29T13:50:41Z</time>
      </trkpt>
      <trkpt lat="45.03268" lon="5.60223">
        <ele>1355.6</ele>
        <time>2011-01-29T13:50:42Z</time>
      </trkpt>
      <trkpt lat="45.0327" lon="5.60221">
        <ele>1356.2</ele>
        <time>2011-01-29T13:50:46Z</time>
      </trkpt>
      <trkpt lat="45.03273" lon="5.60221">
        <ele>1357.6</ele>
        <time>2011-01-29T13:50:52Z</time>
      </trkpt>
      <trkpt lat="45.03275" lon="5.6022">
        <ele>1358.4</ele>
        <time>2011-01-29T13:50:56Z</time>
      </trkpt>
      <trkpt lat="45.03279" lon="5.60219">
        <ele>1359.4</ele>
        <time>2011-01-29T13:51:01Z</time>
      </trkpt>
      <trkpt lat="45.03283" lon="5.60218">
        <ele>1361</ele>
        <time>2011-01-29T13:51:08Z</time>
      </trkpt>
      <trkpt lat="45.03287" lon="5.60216">
        <ele>1362</ele>
        <time>2011-01-29T13:51:13Z</time>
      </trkpt>
      <trkpt lat="45.03289" lon="5.60214">
        <ele>1363</ele>
        <time>2011-01-29T13:51:17Z</time>
      </trkpt>
      <trkpt lat="45.03292" lon="5.60213">
        <ele>1363.6</ele>
        <time>2011-01-29T13:51:20Z</time>
      </trkpt>
      <trkpt lat="45.03294" lon="5.60209">
        <ele>1364.2</ele>
        <time>2011-01-29T13:51:23Z</time>
      </trkpt>
      <trkpt lat="45.03296" lon="5.60208">
        <ele>1365</ele>
        <time>2011-01-29T13:51:26Z</time>
      </trkpt>
      <trkpt lat="45.03296" lon="5.60207">
        <ele>1365.4</ele>
        <time>2011-01-29T13:51:27Z</time>
      </trkpt>
      <trkpt lat="45.03298" lon="5.60206">
        <ele>1366.2</ele>
        <time>2011-01-29T13:51:30Z</time>
      </trkpt>
      <trkpt lat="45.033" lon="5.60205">
        <ele>1366.2</ele>
        <time>2011-01-29T13:51:31Z</time>
      </trkpt>
      <trkpt lat="45.03303" lon="5.60204">
        <ele>1367.2</ele>
        <time>2011-01-29T13:51:35Z</time>
      </trkpt>
      <trkpt lat="45.03304" lon="5.60204">
        <ele>1367.8</ele>
        <time>2011-01-29T13:51:37Z</time>
      </trkpt>
      <trkpt lat="45.03305" lon="5.60202">
        <ele>1368.4</ele>
        <time>2011-01-29T13:51:39Z</time>
      </trkpt>
      <trkpt lat="45.03305" lon="5.602">
        <ele>1369</ele>
        <time>2011-01-29T13:51:41Z</time>
      </trkpt>
      <trkpt lat="45.03306" lon="5.60197">
        <ele>1371.2</ele>
        <time>2011-01-29T13:51:46Z</time>
      </trkpt>
      <trkpt lat="45.03307" lon="5.60193">
        <ele>1373.2</ele>
        <time>2011-01-29T13:51:51Z</time>
      </trkpt>
      <trkpt lat="45.03307" lon="5.60189">
        <ele>1375.2</ele>
        <time>2011-01-29T13:51:56Z</time>
      </trkpt>
      <trkpt lat="45.03308" lon="5.60188">
        <ele>1376.4</ele>
        <time>2011-01-29T13:51:59Z</time>
      </trkpt>
      <trkpt lat="45.03308" lon="5.60188">
        <ele>1377.2</ele>
        <time>2011-01-29T13:52:01Z</time>
      </trkpt>
      <trkpt lat="45.0331" lon="5.60183">
        <ele>1378.8</ele>
        <time>2011-01-29T13:52:06Z</time>
      </trkpt>
      <trkpt lat="45.03312" lon="5.6018">
        <ele>1380</ele>
        <time>2011-01-29T13:52:11Z</time>
      </trkpt>
      <trkpt lat="45.0331" lon="5.60177">
        <ele>1381.2</ele>
        <time>2011-01-29T13:52:16Z</time>
      </trkpt>
      <trkpt lat="45.03309" lon="5.60172">
        <ele>1382.4</ele>
        <time>2011-01-29T13:52:21Z</time>
      </trkpt>
      <trkpt lat="45.03306" lon="5.6017">
        <ele>1383.6</ele>
        <time>2011-01-29T13:52:26Z</time>
      </trkpt>
      <trkpt lat="45.03303" lon="5.60167">
        <ele>1384.4</ele>
        <time>2011-01-29T13:52:31Z</time>
      </trkpt>
      <trkpt lat="45.03299" lon="5.60165">
        <ele>1385.4</ele>
        <time>2011-01-29T13:52:37Z</time>
      </trkpt>
      <trkpt lat="45.03298" lon="5.60164">
        <ele>1386</ele>
        <time>2011-01-29T13:52:41Z</time>
      </trkpt>
      <trkpt lat="45.03297" lon="5.60162">
        <ele>1386.2</ele>
        <time>2011-01-29T13:52:42Z</time>
      </trkpt>
      <trkpt lat="45.03294" lon="5.60159">
        <ele>1387.2</ele>
        <time>2011-01-29T13:52:46Z</time>
      </trkpt>
      <trkpt lat="45.03294" lon="5.60155">
        <ele>1388.2</ele>
        <time>2011-01-29T13:52:50Z</time>
      </trkpt>
      <trkpt lat="45.03294" lon="5.60154">
        <ele>1388.6</ele>
        <time>2011-01-29T13:52:51Z</time>
      </trkpt>
      <trkpt lat="45.03295" lon="5.60151">
        <ele>1390</ele>
        <time>2011-01-29T13:52:56Z</time>
      </trkpt>
      <trkpt lat="45.03295" lon="5.60147">
        <ele>1391.6</ele>
        <time>2011-01-29T13:53:01Z</time>
      </trkpt>
      <trkpt lat="45.03296" lon="5.60145">
        <ele>1392.8</ele>
        <time>2011-01-29T13:53:05Z</time>
      </trkpt>
      <trkpt lat="45.03297" lon="5.60145">
        <ele>1393.4</ele>
        <time>2011-01-29T13:53:07Z</time>
      </trkpt>
      <trkpt lat="45.03299" lon="5.60144">
        <ele>1394</ele>
        <time>2011-01-29T13:53:09Z</time>
      </trkpt>
      <trkpt lat="45.03302" lon="5.60143">
        <ele>1395.6</ele>
        <time>2011-01-29T13:53:14Z</time>
      </trkpt>
      <trkpt lat="45.03305" lon="5.60141">
        <ele>1397.2</ele>
        <time>2011-01-29T13:53:19Z</time>
      </trkpt>
      <trkpt lat="45.03306" lon="5.60135">
        <ele>1399.4</ele>
        <time>2011-01-29T13:53:25Z</time>
      </trkpt>
      <trkpt lat="45.03308" lon="5.60132">
        <ele>1400.2</ele>
        <time>2011-01-29T13:53:28Z</time>
      </trkpt>
      <trkpt lat="45.03307" lon="5.60131">
        <ele>1400.8</ele>
        <time>2011-01-29T13:53:30Z</time>
      </trkpt>
      <trkpt lat="45.03306" lon="5.60128">
        <ele>1402.2</ele>
        <time>2011-01-29T13:53:35Z</time>
      </trkpt>
      <trkpt lat="45.03304" lon="5.60125">
        <ele>1403.2</ele>
        <time>2011-01-29T13:53:39Z</time>
      </trkpt>
      <trkpt lat="45.03302" lon="5.60125">
        <ele>1404.2</ele>
        <time>2011-01-29T13:53:43Z</time>
      </trkpt>
      <trkpt lat="45.033" lon="5.60122">
        <ele>1405.8</ele>
        <time>2011-01-29T13:53:49Z</time>
      </trkpt>
      <trkpt lat="45.033" lon="5.60117">
        <ele>1407</ele>
        <time>2011-01-29T13:53:54Z</time>
      </trkpt>
      <trkpt lat="45.03299" lon="5.60116">
        <ele>1407.2</ele>
        <time>2011-01-29T13:53:55Z</time>
      </trkpt>
      <trkpt lat="45.03299" lon="5.60116">
        <ele>1407.4</ele>
        <time>2011-01-29T13:53:56Z</time>
      </trkpt>
      <trkpt lat="45.03303" lon="5.6011">
        <ele>1408.4</ele>
        <time>2011-01-29T13:54:01Z</time>
      </trkpt>
      <trkpt lat="45.03304" lon="5.60109">
        <ele>1409</ele>
        <time>2011-01-29T13:54:03Z</time>
      </trkpt>
      <trkpt lat="45.03303" lon="5.60107">
        <ele>1409.8</ele>
        <time>2011-01-29T13:54:07Z</time>
      </trkpt>
      <trkpt lat="45.03304" lon="5.60101">
        <ele>1411.8</ele>
        <time>2011-01-29T13:54:16Z</time>
      </trkpt>
      <trkpt lat="45.03305" lon="5.60098">
        <ele>1412.8</ele>
        <time>2011-01-29T13:54:20Z</time>
      </trkpt>
      <trkpt lat="45.03308" lon="5.60097">
        <ele>1414</ele>
        <time>2011-01-29T13:54:25Z</time>
      </trkpt>
      <trkpt lat="45.03308" lon="5.60097">
        <ele>1414.4</ele>
        <time>2011-01-29T13:54:26Z</time>
      </trkpt>
      <trkpt lat="45.03308" lon="5.60098">
        <ele>1415.8</ele>
        <time>2011-01-29T13:54:30Z</time>
      </trkpt>
      <trkpt lat="45.03309" lon="5.60095">
        <ele>1417.4</ele>
        <time>2011-01-29T13:54:35Z</time>
      </trkpt>
      <trkpt lat="45.0331" lon="5.60094">
        <ele>1417.8</ele>
        <time>2011-01-29T13:54:36Z</time>
      </trkpt>
      <trkpt lat="45.03309" lon="5.6009">
        <ele>1418.4</ele>
        <time>2011-01-29T13:54:39Z</time>
      </trkpt>
      <trkpt lat="45.03309" lon="5.60088">
        <ele>1419.2</ele>
        <time>2011-01-29T13:54:41Z</time>
      </trkpt>
      <trkpt lat="45.03308" lon="5.60088">
        <ele>1420.2</ele>
        <time>2011-01-29T13:54:44Z</time>
      </trkpt>
      <trkpt lat="45.03307" lon="5.60085">
        <ele>1421.4</ele>
        <time>2011-01-29T13:54:49Z</time>
      </trkpt>
      <trkpt lat="45.03306" lon="5.60083">
        <ele>1423.2</ele>
        <time>2011-01-29T13:54:54Z</time>
      </trkpt>
      <trkpt lat="45.03305" lon="5.60079">
        <ele>1424.4</ele>
        <time>2011-01-29T13:54:59Z</time>
      </trkpt>
      <trkpt lat="45.03305" lon="5.60078">
        <ele>1425</ele>
        <time>2011-01-29T13:55:01Z</time>
      </trkpt>
      <trkpt lat="45.03307" lon="5.60076">
        <ele>1425.8</ele>
        <time>2011-01-29T13:55:04Z</time>
      </trkpt>
      <trkpt lat="45.03307" lon="5.60074">
        <ele>1426.2</ele>
        <time>2011-01-29T13:55:06Z</time>
      </trkpt>
      <trkpt lat="45.03308" lon="5.60072">
        <ele>1426.6</ele>
        <time>2011-01-29T13:55:08Z</time>
      </trkpt>
      <trkpt lat="45.03308" lon="5.60068">
        <ele>1427.6</ele>
        <time>2011-01-29T13:55:13Z</time>
      </trkpt>
      <trkpt lat="45.03309" lon="5.60064">
        <ele>1428.6</ele>
        <time>2011-01-29T13:55:17Z</time>
      </trkpt>
      <trkpt lat="45.03311" lon="5.60062">
        <ele>1429.4</ele>
        <time>2011-01-29T13:55:21Z</time>
      </trkpt>
      <trkpt lat="45.03314" lon="5.60063">
        <ele>1431.2</ele>
        <time>2011-01-29T13:55:28Z</time>
      </trkpt>
      <trkpt lat="45.03317" lon="5.60062">
        <ele>1432.2</ele>
        <time>2011-01-29T13:55:32Z</time>
      </trkpt>
      <trkpt lat="45.03319" lon="5.60061">
        <ele>1432.8</ele>
        <time>2011-01-29T13:55:35Z</time>
      </trkpt>
      <trkpt lat="45.03321" lon="5.60058">
        <ele>1433.2</ele>
        <time>2011-01-29T13:55:38Z</time>
      </trkpt>
      <trkpt lat="45.03322" lon="5.60057">
        <ele>1433.4</ele>
        <time>2011-01-29T13:55:39Z</time>
      </trkpt>
      <trkpt lat="45.03322" lon="5.60057">
        <ele>1434.8</ele>
        <time>2011-01-29T13:55:43Z</time>
      </trkpt>
      <trkpt lat="45.03322" lon="5.60056">
        <ele>1436</ele>
        <time>2011-01-29T13:55:47Z</time>
      </trkpt>
      <trkpt lat="45.03323" lon="5.60052">
        <ele>1437.6</ele>
        <time>2011-01-29T13:55:53Z</time>
      </trkpt>
      <trkpt lat="45.03322" lon="5.60051">
        <ele>1438</ele>
        <time>2011-01-29T13:55:54Z</time>
      </trkpt>
      <trkpt lat="45.03321" lon="5.60049">
        <ele>1438.4</ele>
        <time>2011-01-29T13:55:56Z</time>
      </trkpt>
      <trkpt lat="45.03321" lon="5.60046">
        <ele>1439</ele>
        <time>2011-01-29T13:55:59Z</time>
      </trkpt>
      <trkpt lat="45.03321" lon="5.60044">
        <ele>1439.4</ele>
        <time>2011-01-29T13:56:02Z</time>
      </trkpt>
      <trkpt lat="45.0332" lon="5.60043">
        <ele>1439.6</ele>
        <time>2011-01-29T13:56:03Z</time>
      </trkpt>
      <trkpt lat="45.03319" lon="5.60041">
        <ele>1440.4</ele>
        <time>2011-01-29T13:56:09Z</time>
      </trkpt>
      <trkpt lat="45.03318" lon="5.60037">
        <ele>1440.6</ele>
        <time>2011-01-29T13:56:13Z</time>
      </trkpt>
      <trkpt lat="45.03316" lon="5.60035">
        <ele>1441.2</ele>
        <time>2011-01-29T13:56:18Z</time>
      </trkpt>
      <trkpt lat="45.03316" lon="5.60034">
        <ele>1441.2</ele>
        <time>2011-01-29T13:56:19Z</time>
      </trkpt>
      <trkpt lat="45.03314" lon="5.60032">
        <ele>1441.6</ele>
        <time>2011-01-29T13:56:23Z</time>
      </trkpt>
      <trkpt lat="45.03309" lon="5.60031">
        <ele>1442.2</ele>
        <time>2011-01-29T13:56:31Z</time>
      </trkpt>
      <trkpt lat="45.03307" lon="5.60029">
        <ele>1442.6</ele>
        <time>2011-01-29T13:56:33Z</time>
      </trkpt>
      <trkpt lat="45.03302" lon="5.60024">
        <ele>1443.2</ele>
        <time>2011-01-29T13:56:39Z</time>
      </trkpt>
      <trkpt lat="45.03302" lon="5.60023">
        <ele>1443.4</ele>
        <time>2011-01-29T13:56:40Z</time>
      </trkpt>
      <trkpt lat="45.03303" lon="5.6002">
        <ele>1443.8</ele>
        <time>2011-01-29T13:56:44Z</time>
      </trkpt>
      <trkpt lat="45.03307" lon="5.6002">
        <ele>1445.4</ele>
        <time>2011-01-29T13:56:53Z</time>
      </trkpt>
      <trkpt lat="45.03311" lon="5.6002">
        <ele>1446.2</ele>
        <time>2011-01-29T13:56:58Z</time>
      </trkpt>
      <trkpt lat="45.03312" lon="5.6002">
        <ele>1446.2</ele>
        <time>2011-01-29T13:56:59Z</time>
      </trkpt>
      <trkpt lat="45.03315" lon="5.60019">
        <ele>1446.8</ele>
        <time>2011-01-29T13:57:03Z</time>
      </trkpt>
      <trkpt lat="45.03318" lon="5.60018">
        <ele>1448</ele>
        <time>2011-01-29T13:57:08Z</time>
      </trkpt>
      <trkpt lat="45.03321" lon="5.60017">
        <ele>1448.8</ele>
        <time>2011-01-29T13:57:12Z</time>
      </trkpt>
      <trkpt lat="45.03322" lon="5.60016">
        <ele>1448.8</ele>
        <time>2011-01-29T13:57:13Z</time>
      </trkpt>
      <trkpt lat="45.03325" lon="5.60015">
        <ele>1449.6</ele>
        <time>2011-01-29T13:57:17Z</time>
      </trkpt>
      <trkpt lat="45.03328" lon="5.60013">
        <ele>1450.2</ele>
        <time>2011-01-29T13:57:21Z</time>
      </trkpt>
      <trkpt lat="45.03329" lon="5.60012">
        <ele>1450.4</ele>
        <time>2011-01-29T13:57:22Z</time>
      </trkpt>
      <trkpt lat="45.03331" lon="5.60009">
        <ele>1451.2</ele>
        <time>2011-01-29T13:57:26Z</time>
      </trkpt>
      <trkpt lat="45.03335" lon="5.60006">
        <ele>1451.8</ele>
        <time>2011-01-29T13:57:30Z</time>
      </trkpt>
      <trkpt lat="45.03336" lon="5.60005">
        <ele>1451.8</ele>
        <time>2011-01-29T13:57:31Z</time>
      </trkpt>
      <trkpt lat="45.03338" lon="5.60003">
        <ele>1452.2</ele>
        <time>2011-01-29T13:57:34Z</time>
      </trkpt>
      <trkpt lat="45.03341" lon="5.60002">
        <ele>1452.6</ele>
        <time>2011-01-29T13:57:37Z</time>
      </trkpt>
      <trkpt lat="45.03342" lon="5.60002">
        <ele>1452.8</ele>
        <time>2011-01-29T13:57:38Z</time>
      </trkpt>
      <trkpt lat="45.03344" lon="5.60001">
        <ele>1453.2</ele>
        <time>2011-01-29T13:57:41Z</time>
      </trkpt>
      <trkpt lat="45.03345" lon="5.59999">
        <ele>1453.6</ele>
        <time>2011-01-29T13:57:43Z</time>
      </trkpt>
      <trkpt lat="45.03347" lon="5.6">
        <ele>1455</ele>
        <time>2011-01-29T13:57:48Z</time>
      </trkpt>
      <trkpt lat="45.03351" lon="5.60002">
        <ele>1456.6</ele>
        <time>2011-01-29T13:57:55Z</time>
      </trkpt>
      <trkpt lat="45.03354" lon="5.60001">
        <ele>1457.4</ele>
        <time>2011-01-29T13:57:59Z</time>
      </trkpt>
      <trkpt lat="45.03357" lon="5.6">
        <ele>1458.4</ele>
        <time>2011-01-29T13:58:03Z</time>
      </trkpt>
      <trkpt lat="45.03358" lon="5.59999">
        <ele>1458.6</ele>
        <time>2011-01-29T13:58:04Z</time>
      </trkpt>
      <trkpt lat="45.03361" lon="5.59998">
        <ele>1459.2</ele>
        <time>2011-01-29T13:58:07Z</time>
      </trkpt>
      <trkpt lat="45.03362" lon="5.59997">
        <ele>1459.2</ele>
        <time>2011-01-29T13:58:08Z</time>
      </trkpt>
      <trkpt lat="45.03364" lon="5.59994">
        <ele>1459.4</ele>
        <time>2011-01-29T13:58:11Z</time>
      </trkpt>
      <trkpt lat="45.03365" lon="5.59992">
        <ele>1459.4</ele>
        <time>2011-01-29T13:58:13Z</time>
      </trkpt>
      <trkpt lat="45.0337" lon="5.59987">
        <ele>1459.6</ele>
        <time>2011-01-29T13:58:17Z</time>
      </trkpt>
      <trkpt lat="45.0337" lon="5.59989">
        <ele>1459.8</ele>
        <time>2011-01-29T13:58:18Z</time>
      </trkpt>
      <trkpt lat="45.03373" lon="5.59986">
        <ele>1460</ele>
        <time>2011-01-29T13:58:23Z</time>
      </trkpt>
      <trkpt lat="45.03374" lon="5.59985">
        <ele>1460.4</ele>
        <time>2011-01-29T13:58:25Z</time>
      </trkpt>
      <trkpt lat="45.03375" lon="5.59987">
        <ele>1461</ele>
        <time>2011-01-29T13:58:28Z</time>
      </trkpt>
      <trkpt lat="45.03377" lon="5.5999">
        <ele>1462.4</ele>
        <time>2011-01-29T13:58:33Z</time>
      </trkpt>
      <trkpt lat="45.03378" lon="5.59991">
        <ele>1463</ele>
        <time>2011-01-29T13:58:35Z</time>
      </trkpt>
      <trkpt lat="45.03379" lon="5.59991">
        <ele>1463.4</ele>
        <time>2011-01-29T13:58:36Z</time>
      </trkpt>
      <trkpt lat="45.03379" lon="5.59992">
        <ele>1463.8</ele>
        <time>2011-01-29T13:58:37Z</time>
      </trkpt>
      <trkpt lat="45.03382" lon="5.59991">
        <ele>1465</ele>
        <time>2011-01-29T13:58:40Z</time>
      </trkpt>
      <trkpt lat="45.03386" lon="5.59992">
        <ele>1468</ele>
        <time>2011-01-29T13:58:48Z</time>
      </trkpt>
      <trkpt lat="45.03388" lon="5.59991">
        <ele>1470.4</ele>
        <time>2011-01-29T13:58:53Z</time>
      </trkpt>
      <trkpt lat="45.0339" lon="5.59991">
        <ele>1471</ele>
        <time>2011-01-29T13:58:55Z</time>
      </trkpt>
      <trkpt lat="45.03393" lon="5.5999">
        <ele>1471.4</ele>
        <time>2011-01-29T13:58:57Z</time>
      </trkpt>
      <trkpt lat="45.03395" lon="5.59989">
        <ele>1472.2</ele>
        <time>2011-01-29T13:59:00Z</time>
      </trkpt>
      <trkpt lat="45.03396" lon="5.5999">
        <ele>1472.4</ele>
        <time>2011-01-29T13:59:01Z</time>
      </trkpt>
      <trkpt lat="45.03397" lon="5.59989">
        <ele>1473</ele>
        <time>2011-01-29T13:59:03Z</time>
      </trkpt>
      <trkpt lat="45.03397" lon="5.59991">
        <ele>1473.4</ele>
        <time>2011-01-29T13:59:04Z</time>
      </trkpt>
      <trkpt lat="45.034" lon="5.59993">
        <ele>1474.4</ele>
        <time>2011-01-29T13:59:08Z</time>
      </trkpt>
      <trkpt lat="45.03403" lon="5.59992">
        <ele>1475.6</ele>
        <time>2011-01-29T13:59:12Z</time>
      </trkpt>
      <trkpt lat="45.03404" lon="5.59993">
        <ele>1476</ele>
        <time>2011-01-29T13:59:13Z</time>
      </trkpt>
      <trkpt lat="45.03407" lon="5.59994">
        <ele>1476.8</ele>
        <time>2011-01-29T13:59:16Z</time>
      </trkpt>
      <trkpt lat="45.03408" lon="5.59994">
        <ele>1477</ele>
        <time>2011-01-29T13:59:17Z</time>
      </trkpt>
      <trkpt lat="45.03409" lon="5.59994">
        <ele>1477.2</ele>
        <time>2011-01-29T13:59:18Z</time>
      </trkpt>
      <trkpt lat="45.03411" lon="5.59994">
        <ele>1477.8</ele>
        <time>2011-01-29T13:59:20Z</time>
      </trkpt>
      <trkpt lat="45.03412" lon="5.59994">
        <ele>1478.4</ele>
        <time>2011-01-29T13:59:22Z</time>
      </trkpt>
      <trkpt lat="45.03413" lon="5.59994">
        <ele>1478.8</ele>
        <time>2011-01-29T13:59:23Z</time>
      </trkpt>
      <trkpt lat="45.03414" lon="5.59994">
        <ele>1479.4</ele>
        <time>2011-01-29T13:59:24Z</time>
      </trkpt>
      <trkpt lat="45.03417" lon="5.59992">
        <ele>1479.6</ele>
        <time>2011-01-29T13:59:26Z</time>
      </trkpt>
      <trkpt lat="45.03418" lon="5.59992">
        <ele>1480.2</ele>
        <time>2011-01-29T13:59:28Z</time>
      </trkpt>
      <trkpt lat="45.0342" lon="5.59992">
        <ele>1481.2</ele>
        <time>2011-01-29T13:59:31Z</time>
      </trkpt>
      <trkpt lat="45.03421" lon="5.59994">
        <ele>1481.8</ele>
        <time>2011-01-29T13:59:33Z</time>
      </trkpt>
      <trkpt lat="45.03423" lon="5.59993">
        <ele>1482.4</ele>
        <time>2011-01-29T13:59:35Z</time>
      </trkpt>
      <trkpt lat="45.03425" lon="5.59993">
        <ele>1483.2</ele>
        <time>2011-01-29T13:59:38Z</time>
      </trkpt>
      <trkpt lat="45.03426" lon="5.59993">
        <ele>1483.6</ele>
        <time>2011-01-29T13:59:39Z</time>
      </trkpt>
      <trkpt lat="45.03429" lon="5.59991">
        <ele>1484.6</ele>
        <time>2011-01-29T13:59:42Z</time>
      </trkpt>
      <trkpt lat="45.03431" lon="5.59991">
        <ele>1484.8</ele>
        <time>2011-01-29T13:59:43Z</time>
      </trkpt>
      <trkpt lat="45.03434" lon="5.59989">
        <ele>1485.4</ele>
        <time>2011-01-29T13:59:46Z</time>
      </trkpt>
      <trkpt lat="45.03438" lon="5.59986">
        <ele>1486.2</ele>
        <time>2011-01-29T13:59:50Z</time>
      </trkpt>
      <trkpt lat="45.03442" lon="5.59982">
        <ele>1486.2</ele>
        <time>2011-01-29T13:59:54Z</time>
      </trkpt>
      <trkpt lat="45.03446" lon="5.59981">
        <ele>1486.8</ele>
        <time>2011-01-29T13:59:58Z</time>
      </trkpt>
      <trkpt lat="45.03448" lon="5.59982">
        <ele>1487</ele>
        <time>2011-01-29T14:00:00Z</time>
      </trkpt>
      <trkpt lat="45.0345" lon="5.59981">
        <ele>1487</ele>
        <time>2011-01-29T14:00:02Z</time>
      </trkpt>
      <trkpt lat="45.03452" lon="5.59981">
        <ele>1487</ele>
        <time>2011-01-29T14:00:04Z</time>
      </trkpt>
      <trkpt lat="45.03455" lon="5.59981">
        <ele>1487.6</ele>
        <time>2011-01-29T14:00:07Z</time>
      </trkpt>
      <trkpt lat="45.03459" lon="5.5998">
        <ele>1487.8</ele>
        <time>2011-01-29T14:00:10Z</time>
      </trkpt>
      <trkpt lat="45.0346" lon="5.5998">
        <ele>1487.8</ele>
        <time>2011-01-29T14:00:11Z</time>
      </trkpt>
      <trkpt lat="45.03462" lon="5.5998">
        <ele>1488</ele>
        <time>2011-01-29T14:00:13Z</time>
      </trkpt>
      <trkpt lat="45.03464" lon="5.5998">
        <ele>1488.4</ele>
        <time>2011-01-29T14:00:15Z</time>
      </trkpt>
      <trkpt lat="45.03464" lon="5.5998">
        <ele>1488.6</ele>
        <time>2011-01-29T14:00:16Z</time>
      </trkpt>
      <trkpt lat="45.03467" lon="5.59978">
        <ele>1488.6</ele>
        <time>2011-01-29T14:00:18Z</time>
      </trkpt>
      <trkpt lat="45.03469" lon="5.59978">
        <ele>1488.6</ele>
        <time>2011-01-29T14:00:19Z</time>
      </trkpt>
      <trkpt lat="45.03476" lon="5.59977">
        <ele>1489.4</ele>
        <time>2011-01-29T14:00:26Z</time>
      </trkpt>
      <trkpt lat="45.0348" lon="5.59977">
        <ele>1489.8</ele>
        <time>2011-01-29T14:00:30Z</time>
      </trkpt>
      <trkpt lat="45.03486" lon="5.59976">
        <ele>1490.8</ele>
        <time>2011-01-29T14:00:38Z</time>
      </trkpt>
      <trkpt lat="45.03488" lon="5.59974">
        <ele>1491.2</ele>
        <time>2011-01-29T14:00:42Z</time>
      </trkpt>
      <trkpt lat="45.0349" lon="5.59975">
        <ele>1492</ele>
        <time>2011-01-29T14:00:47Z</time>
      </trkpt>
      <trkpt lat="45.03495" lon="5.59973">
        <ele>1492.2</ele>
        <time>2011-01-29T14:00:51Z</time>
      </trkpt>
      <trkpt lat="45.03499" lon="5.59971">
        <ele>1492.6</ele>
        <time>2011-01-29T14:00:54Z</time>
      </trkpt>
      <trkpt lat="45.035" lon="5.59972">
        <ele>1492.6</ele>
        <time>2011-01-29T14:00:55Z</time>
      </trkpt>
      <trkpt lat="45.03505" lon="5.59973">
        <ele>1494.6</ele>
        <time>2011-01-29T14:01:05Z</time>
      </trkpt>
      <trkpt lat="45.03506" lon="5.59973">
        <ele>1494.8</ele>
        <time>2011-01-29T14:01:06Z</time>
      </trkpt>
      <trkpt lat="45.03508" lon="5.59974">
        <ele>1496</ele>
        <time>2011-01-29T14:01:13Z</time>
      </trkpt>
      <trkpt lat="45.03508" lon="5.59974">
        <ele>1496</ele>
        <time>2011-01-29T14:01:14Z</time>
      </trkpt>
      <trkpt lat="45.03512" lon="5.59972">
        <ele>1497.2</ele>
        <time>2011-01-29T14:01:22Z</time>
      </trkpt>
      <trkpt lat="45.03515" lon="5.5997">
        <ele>1498.4</ele>
        <time>2011-01-29T14:01:29Z</time>
      </trkpt>
      <trkpt lat="45.03519" lon="5.59968">
        <ele>1499.2</ele>
        <time>2011-01-29T14:01:36Z</time>
      </trkpt>
      <trkpt lat="45.03523" lon="5.59966">
        <ele>1499.6</ele>
        <time>2011-01-29T14:01:41Z</time>
      </trkpt>
      <trkpt lat="45.03524" lon="5.59966">
        <ele>1499.6</ele>
        <time>2011-01-29T14:01:42Z</time>
      </trkpt>
      <trkpt lat="45.03527" lon="5.59964">
        <ele>1500.2</ele>
        <time>2011-01-29T14:01:46Z</time>
      </trkpt>
      <trkpt lat="45.03532" lon="5.59961">
        <ele>1501.6</ele>
        <time>2011-01-29T14:01:55Z</time>
      </trkpt>
      <trkpt lat="45.03533" lon="5.59958">
        <ele>1502.2</ele>
        <time>2011-01-29T14:01:58Z</time>
      </trkpt>
      <trkpt lat="45.03535" lon="5.59954">
        <ele>1503</ele>
        <time>2011-01-29T14:02:03Z</time>
      </trkpt>
      <trkpt lat="45.03537" lon="5.59952">
        <ele>1504</ele>
        <time>2011-01-29T14:02:08Z</time>
      </trkpt>
      <trkpt lat="45.03538" lon="5.59951">
        <ele>1504.2</ele>
        <time>2011-01-29T14:02:10Z</time>
      </trkpt>
      <trkpt lat="45.03539" lon="5.5995">
        <ele>1504.4</ele>
        <time>2011-01-29T14:02:12Z</time>
      </trkpt>
      <trkpt lat="45.0354" lon="5.5995">
        <ele>1504.6</ele>
        <time>2011-01-29T14:02:13Z</time>
      </trkpt>
      <trkpt lat="45.03544" lon="5.59947">
        <ele>1505.2</ele>
        <time>2011-01-29T14:02:17Z</time>
      </trkpt>
      <trkpt lat="45.03545" lon="5.59947">
        <ele>1505.4</ele>
        <time>2011-01-29T14:02:18Z</time>
      </trkpt>
      <trkpt lat="45.0355" lon="5.59945">
        <ele>1506.4</ele>
        <time>2011-01-29T14:02:24Z</time>
      </trkpt>
      <trkpt lat="45.03554" lon="5.59944">
        <ele>1506.8</ele>
        <time>2011-01-29T14:02:28Z</time>
      </trkpt>
      <trkpt lat="45.03554" lon="5.59944">
        <ele>1507</ele>
        <time>2011-01-29T14:02:29Z</time>
      </trkpt>
      <trkpt lat="45.03556" lon="5.59944">
        <ele>1507.2</ele>
        <time>2011-01-29T14:02:31Z</time>
      </trkpt>
      <trkpt lat="45.03561" lon="5.59942">
        <ele>1508</ele>
        <time>2011-01-29T14:02:36Z</time>
      </trkpt>
      <trkpt lat="45.03562" lon="5.59942">
        <ele>1508.2</ele>
        <time>2011-01-29T14:02:37Z</time>
      </trkpt>
      <trkpt lat="45.03565" lon="5.59942">
        <ele>1508.4</ele>
        <time>2011-01-29T14:02:40Z</time>
      </trkpt>
      <trkpt lat="45.03569" lon="5.59942">
        <ele>1509</ele>
        <time>2011-01-29T14:02:45Z</time>
      </trkpt>
      <trkpt lat="45.03572" lon="5.59941">
        <ele>1509.4</ele>
        <time>2011-01-29T14:02:49Z</time>
      </trkpt>
      <trkpt lat="45.03573" lon="5.59941">
        <ele>1509.6</ele>
        <time>2011-01-29T14:02:50Z</time>
      </trkpt>
      <trkpt lat="45.03578" lon="5.59941">
        <ele>1510</ele>
        <time>2011-01-29T14:02:55Z</time>
      </trkpt>
      <trkpt lat="45.03583" lon="5.59942">
        <ele>1510.8</ele>
        <time>2011-01-29T14:03:00Z</time>
      </trkpt>
      <trkpt lat="45.03584" lon="5.59943">
        <ele>1511</ele>
        <time>2011-01-29T14:03:01Z</time>
      </trkpt>
      <trkpt lat="45.03587" lon="5.59944">
        <ele>1511.6</ele>
        <time>2011-01-29T14:03:05Z</time>
      </trkpt>
      <trkpt lat="45.03589" lon="5.59945">
        <ele>1512.2</ele>
        <time>2011-01-29T14:03:08Z</time>
      </trkpt>
      <trkpt lat="45.03589" lon="5.59945">
        <ele>1512.4</ele>
        <time>2011-01-29T14:03:09Z</time>
      </trkpt>
      <trkpt lat="45.03594" lon="5.59945">
        <ele>1513.2</ele>
        <time>2011-01-29T14:03:13Z</time>
      </trkpt>
      <trkpt lat="45.03595" lon="5.59945">
        <ele>1513.4</ele>
        <time>2011-01-29T14:03:14Z</time>
      </trkpt>
      <trkpt lat="45.03596" lon="5.59945">
        <ele>1513.6</ele>
        <time>2011-01-29T14:03:15Z</time>
      </trkpt>
      <trkpt lat="45.03597" lon="5.59945">
        <ele>1513.8</ele>
        <time>2011-01-29T14:03:16Z</time>
      </trkpt>
      <trkpt lat="45.03602" lon="5.59947">
        <ele>1514.6</ele>
        <time>2011-01-29T14:03:21Z</time>
      </trkpt>
      <trkpt lat="45.03604" lon="5.59947">
        <ele>1515.2</ele>
        <time>2011-01-29T14:03:24Z</time>
      </trkpt>
      <trkpt lat="45.03605" lon="5.59948">
        <ele>1515.4</ele>
        <time>2011-01-29T14:03:25Z</time>
      </trkpt>
      <trkpt lat="45.03606" lon="5.59948">
        <ele>1515.6</ele>
        <time>2011-01-29T14:03:26Z</time>
      </trkpt>
      <trkpt lat="45.03607" lon="5.59949">
        <ele>1516.2</ele>
        <time>2011-01-29T14:03:28Z</time>
      </trkpt>
      <trkpt lat="45.03608" lon="5.5995">
        <ele>1516.6</ele>
        <time>2011-01-29T14:03:30Z</time>
      </trkpt>
      <trkpt lat="45.03611" lon="5.59951">
        <ele>1517.2</ele>
        <time>2011-01-29T14:03:33Z</time>
      </trkpt>
      <trkpt lat="45.03614" lon="5.59952">
        <ele>1517.6</ele>
        <time>2011-01-29T14:03:35Z</time>
      </trkpt>
      <trkpt lat="45.03621" lon="5.59954">
        <ele>1519.2</ele>
        <time>2011-01-29T14:03:42Z</time>
      </trkpt>
      <trkpt lat="45.03624" lon="5.59954">
        <ele>1520</ele>
        <time>2011-01-29T14:03:45Z</time>
      </trkpt>
      <trkpt lat="45.03626" lon="5.59953">
        <ele>1520.2</ele>
        <time>2011-01-29T14:03:47Z</time>
      </trkpt>
      <trkpt lat="45.03628" lon="5.59952">
        <ele>1520.6</ele>
        <time>2011-01-29T14:03:49Z</time>
      </trkpt>
      <trkpt lat="45.03632" lon="5.59952">
        <ele>1521.4</ele>
        <time>2011-01-29T14:03:52Z</time>
      </trkpt>
      <trkpt lat="45.03634" lon="5.59952">
        <ele>1521.6</ele>
        <time>2011-01-29T14:03:54Z</time>
      </trkpt>
      <trkpt lat="45.03637" lon="5.59952">
        <ele>1522.2</ele>
        <time>2011-01-29T14:03:57Z</time>
      </trkpt>
      <trkpt lat="45.03638" lon="5.59953">
        <ele>1522.4</ele>
        <time>2011-01-29T14:03:58Z</time>
      </trkpt>
      <trkpt lat="45.03644" lon="5.59957">
        <ele>1524</ele>
        <time>2011-01-29T14:04:04Z</time>
      </trkpt>
      <trkpt lat="45.03649" lon="5.59955">
        <ele>1525.2</ele>
        <time>2011-01-29T14:04:09Z</time>
      </trkpt>
      <trkpt lat="45.03651" lon="5.59954">
        <ele>1526</ele>
        <time>2011-01-29T14:04:12Z</time>
      </trkpt>
      <trkpt lat="45.03655" lon="5.59953">
        <ele>1526.8</ele>
        <time>2011-01-29T14:04:16Z</time>
      </trkpt>
      <trkpt lat="45.03657" lon="5.59953">
        <ele>1527</ele>
        <time>2011-01-29T14:04:17Z</time>
      </trkpt>
      <trkpt lat="45.03661" lon="5.59954">
        <ele>1528</ele>
        <time>2011-01-29T14:04:21Z</time>
      </trkpt>
      <trkpt lat="45.03662" lon="5.59954">
        <ele>1528.2</ele>
        <time>2011-01-29T14:04:22Z</time>
      </trkpt>
      <trkpt lat="45.03663" lon="5.59954">
        <ele>1528.4</ele>
        <time>2011-01-29T14:04:23Z</time>
      </trkpt>
      <trkpt lat="45.03665" lon="5.59954">
        <ele>1529</ele>
        <time>2011-01-29T14:04:25Z</time>
      </trkpt>
      <trkpt lat="45.03666" lon="5.59954">
        <ele>1529.2</ele>
        <time>2011-01-29T14:04:26Z</time>
      </trkpt>
      <trkpt lat="45.03668" lon="5.59955">
        <ele>1530</ele>
        <time>2011-01-29T14:04:29Z</time>
      </trkpt>
      <trkpt lat="45.03672" lon="5.5995">
        <ele>1530.6</ele>
        <time>2011-01-29T14:04:33Z</time>
      </trkpt>
      <trkpt lat="45.03673" lon="5.5995">
        <ele>1530.8</ele>
        <time>2011-01-29T14:04:34Z</time>
      </trkpt>
      <trkpt lat="45.03675" lon="5.59948">
        <ele>1531.2</ele>
        <time>2011-01-29T14:04:37Z</time>
      </trkpt>
      <trkpt lat="45.03676" lon="5.59947">
        <ele>1531.2</ele>
        <time>2011-01-29T14:04:38Z</time>
      </trkpt>
      <trkpt lat="45.03678" lon="5.59947">
        <ele>1532</ele>
        <time>2011-01-29T14:04:42Z</time>
      </trkpt>
      <trkpt lat="45.03679" lon="5.59949">
        <ele>1532.6</ele>
        <time>2011-01-29T14:04:48Z</time>
      </trkpt>
      <trkpt lat="45.03681" lon="5.59949">
        <ele>1533.2</ele>
        <time>2011-01-29T14:04:53Z</time>
      </trkpt>
      <trkpt lat="45.03684" lon="5.59949">
        <ele>1534.2</ele>
        <time>2011-01-29T14:05:03Z</time>
      </trkpt>
      <trkpt lat="45.03688" lon="5.59949">
        <ele>1534.8</ele>
        <time>2011-01-29T14:05:09Z</time>
      </trkpt>
      <trkpt lat="45.0369" lon="5.59947">
        <ele>1535.2</ele>
        <time>2011-01-29T14:05:17Z</time>
      </trkpt>
      <trkpt lat="45.03692" lon="5.59945">
        <ele>1535.4</ele>
        <time>2011-01-29T14:05:25Z</time>
      </trkpt>
      <trkpt lat="45.03696" lon="5.59944">
        <ele>1535.6</ele>
        <time>2011-01-29T14:05:30Z</time>
      </trkpt>
      <trkpt lat="45.03697" lon="5.59944">
        <ele>1535.6</ele>
        <time>2011-01-29T14:05:37Z</time>
      </trkpt>
      <trkpt lat="45.03698" lon="5.59944">
        <ele>1535.8</ele>
        <time>2011-01-29T14:05:38Z</time>
      </trkpt>
      <trkpt lat="45.03702" lon="5.59943">
        <ele>1536.2</ele>
        <time>2011-01-29T14:05:44Z</time>
      </trkpt>
      <trkpt lat="45.03706" lon="5.59943">
        <ele>1536.4</ele>
        <time>2011-01-29T14:05:49Z</time>
      </trkpt>
      <trkpt lat="45.03713" lon="5.59944">
        <ele>1536.8</ele>
        <time>2011-01-29T14:05:57Z</time>
      </trkpt>
      <trkpt lat="45.03716" lon="5.59944">
        <ele>1537</ele>
        <time>2011-01-29T14:06:00Z</time>
      </trkpt>
      <trkpt lat="45.03718" lon="5.59944">
        <ele>1537</ele>
        <time>2011-01-29T14:06:02Z</time>
      </trkpt>
      <trkpt lat="45.03725" lon="5.59945">
        <ele>1537.4</ele>
        <time>2011-01-29T14:06:08Z</time>
      </trkpt>
      <trkpt lat="45.03727" lon="5.59945">
        <ele>1537.4</ele>
        <time>2011-01-29T14:06:10Z</time>
      </trkpt>
      <trkpt lat="45.03731" lon="5.59944">
        <ele>1537.6</ele>
        <time>2011-01-29T14:06:14Z</time>
      </trkpt>
      <trkpt lat="45.03734" lon="5.59945">
        <ele>1537.8</ele>
        <time>2011-01-29T14:06:17Z</time>
      </trkpt>
      <trkpt lat="45.03736" lon="5.59945">
        <ele>1538</ele>
        <time>2011-01-29T14:06:20Z</time>
      </trkpt>
      <trkpt lat="45.03742" lon="5.59946">
        <ele>1538.6</ele>
        <time>2011-01-29T14:06:24Z</time>
      </trkpt>
      <trkpt lat="45.03744" lon="5.59948">
        <ele>1538.8</ele>
        <time>2011-01-29T14:06:26Z</time>
      </trkpt>
      <trkpt lat="45.0375" lon="5.5995">
        <ele>1539.8</ele>
        <time>2011-01-29T14:06:32Z</time>
      </trkpt>
      <trkpt lat="45.03752" lon="5.5995">
        <ele>1539.8</ele>
        <time>2011-01-29T14:06:33Z</time>
      </trkpt>
      <trkpt lat="45.03757" lon="5.5995">
        <ele>1540.4</ele>
        <time>2011-01-29T14:06:37Z</time>
      </trkpt>
      <trkpt lat="45.03759" lon="5.59951">
        <ele>1540.8</ele>
        <time>2011-01-29T14:06:39Z</time>
      </trkpt>
      <trkpt lat="45.03762" lon="5.5995">
        <ele>1541</ele>
        <time>2011-01-29T14:06:41Z</time>
      </trkpt>
      <trkpt lat="45.03766" lon="5.5995">
        <ele>1541.8</ele>
        <time>2011-01-29T14:06:46Z</time>
      </trkpt>
      <trkpt lat="45.03769" lon="5.59949">
        <ele>1542.4</ele>
        <time>2011-01-29T14:06:49Z</time>
      </trkpt>
      <trkpt lat="45.0377" lon="5.5995">
        <ele>1542.4</ele>
        <time>2011-01-29T14:06:50Z</time>
      </trkpt>
      <trkpt lat="45.03774" lon="5.59953">
        <ele>1543.4</ele>
        <time>2011-01-29T14:06:55Z</time>
      </trkpt>
      <trkpt lat="45.03775" lon="5.59953">
        <ele>1543.6</ele>
        <time>2011-01-29T14:06:56Z</time>
      </trkpt>
      <trkpt lat="45.03781" lon="5.59955">
        <ele>1544.8</ele>
        <time>2011-01-29T14:07:02Z</time>
      </trkpt>
      <trkpt lat="45.03782" lon="5.59955">
        <ele>1545</ele>
        <time>2011-01-29T14:07:04Z</time>
      </trkpt>
      <trkpt lat="45.03783" lon="5.59956">
        <ele>1545.2</ele>
        <time>2011-01-29T14:07:05Z</time>
      </trkpt>
      <trkpt lat="45.03786" lon="5.59958">
        <ele>1545.8</ele>
        <time>2011-01-29T14:07:08Z</time>
      </trkpt>
      <trkpt lat="45.03787" lon="5.59959">
        <ele>1546</ele>
        <time>2011-01-29T14:07:09Z</time>
      </trkpt>
      <trkpt lat="45.03794" lon="5.59967">
        <ele>1547.2</ele>
        <time>2011-01-29T14:07:16Z</time>
      </trkpt>
      <trkpt lat="45.03801" lon="5.59972">
        <ele>1548.2</ele>
        <time>2011-01-29T14:07:23Z</time>
      </trkpt>
      <trkpt lat="45.03802" lon="5.59973">
        <ele>1548.4</ele>
        <time>2011-01-29T14:07:24Z</time>
      </trkpt>
      <trkpt lat="45.03809" lon="5.59979">
        <ele>1549</ele>
        <time>2011-01-29T14:07:30Z</time>
      </trkpt>
      <trkpt lat="45.03818" lon="5.59986">
        <ele>1549.4</ele>
        <time>2011-01-29T14:07:35Z</time>
      </trkpt>
      <trkpt lat="45.03822" lon="5.59987">
        <ele>1549.6</ele>
        <time>2011-01-29T14:07:37Z</time>
      </trkpt>
      <trkpt lat="45.03834" lon="5.59984">
        <ele>1550.2</ele>
        <time>2011-01-29T14:07:43Z</time>
      </trkpt>
      <trkpt lat="45.03836" lon="5.59983">
        <ele>1550.2</ele>
        <time>2011-01-29T14:07:44Z</time>
      </trkpt>
      <trkpt lat="45.03843" lon="5.59982">
        <ele>1550.8</ele>
        <time>2011-01-29T14:07:48Z</time>
      </trkpt>
      <trkpt lat="45.03849" lon="5.59977">
        <ele>1551.2</ele>
        <time>2011-01-29T14:07:53Z</time>
      </trkpt>
      <trkpt lat="45.03854" lon="5.59973">
        <ele>1551.6</ele>
        <time>2011-01-29T14:07:57Z</time>
      </trkpt>
      <trkpt lat="45.03855" lon="5.59972">
        <ele>1551.8</ele>
        <time>2011-01-29T14:07:58Z</time>
      </trkpt>
      <trkpt lat="45.03861" lon="5.5997">
        <ele>1552.6</ele>
        <time>2011-01-29T14:08:04Z</time>
      </trkpt>
      <trkpt lat="45.03869" lon="5.5997">
        <ele>1553.4</ele>
        <time>2011-01-29T14:08:11Z</time>
      </trkpt>
      <trkpt lat="45.03873" lon="5.5997">
        <ele>1553.8</ele>
        <time>2011-01-29T14:08:14Z</time>
      </trkpt>
      <trkpt lat="45.03877" lon="5.59972">
        <ele>1554.4</ele>
        <time>2011-01-29T14:08:18Z</time>
      </trkpt>
      <trkpt lat="45.03885" lon="5.59976">
        <ele>1555.4</ele>
        <time>2011-01-29T14:08:26Z</time>
      </trkpt>
      <trkpt lat="45.03891" lon="5.59976">
        <ele>1556</ele>
        <time>2011-01-29T14:08:31Z</time>
      </trkpt>
      <trkpt lat="45.03895" lon="5.59974">
        <ele>1556.6</ele>
        <time>2011-01-29T14:08:34Z</time>
      </trkpt>
      <trkpt lat="45.03902" lon="5.59975">
        <ele>1557</ele>
        <time>2011-01-29T14:08:39Z</time>
      </trkpt>
      <trkpt lat="45.03903" lon="5.59976">
        <ele>1557.2</ele>
        <time>2011-01-29T14:08:40Z</time>
      </trkpt>
      <trkpt lat="45.03907" lon="5.59981">
        <ele>1557.8</ele>
        <time>2011-01-29T14:08:44Z</time>
      </trkpt>
      <trkpt lat="45.0391" lon="5.59984">
        <ele>1558</ele>
        <time>2011-01-29T14:08:46Z</time>
      </trkpt>
      <trkpt lat="45.03915" lon="5.59991">
        <ele>1558.8</ele>
        <time>2011-01-29T14:08:51Z</time>
      </trkpt>
      <trkpt lat="45.03916" lon="5.59992">
        <ele>1558.8</ele>
        <time>2011-01-29T14:08:52Z</time>
      </trkpt>
      <trkpt lat="45.03921" lon="5.59998">
        <ele>1559</ele>
        <time>2011-01-29T14:08:56Z</time>
      </trkpt>
      <trkpt lat="45.03923" lon="5.59998">
        <ele>1559.2</ele>
        <time>2011-01-29T14:08:57Z</time>
      </trkpt>
      <trkpt lat="45.03924" lon="5.59999">
        <ele>1559.2</ele>
        <time>2011-01-29T14:08:58Z</time>
      </trkpt>
      <trkpt lat="45.03929" lon="5.60001">
        <ele>1559.6</ele>
        <time>2011-01-29T14:09:02Z</time>
      </trkpt>
      <trkpt lat="45.03934" lon="5.60003">
        <ele>1560.2</ele>
        <time>2011-01-29T14:09:08Z</time>
      </trkpt>
      <trkpt lat="45.03937" lon="5.60003">
        <ele>1560.4</ele>
        <time>2011-01-29T14:09:10Z</time>
      </trkpt>
      <trkpt lat="45.03939" lon="5.60003">
        <ele>1560.6</ele>
        <time>2011-01-29T14:09:12Z</time>
      </trkpt>
      <trkpt lat="45.0394" lon="5.60004">
        <ele>1560.8</ele>
        <time>2011-01-29T14:09:13Z</time>
      </trkpt>
      <trkpt lat="45.03948" lon="5.60006">
        <ele>1561.4</ele>
        <time>2011-01-29T14:09:18Z</time>
      </trkpt>
      <trkpt lat="45.03953" lon="5.60006">
        <ele>1562</ele>
        <time>2011-01-29T14:09:23Z</time>
      </trkpt>
      <trkpt lat="45.03954" lon="5.60007">
        <ele>1562.6</ele>
        <time>2011-01-29T14:09:26Z</time>
      </trkpt>
      <trkpt lat="45.03955" lon="5.60008">
        <ele>1562.8</ele>
        <time>2011-01-29T14:09:28Z</time>
      </trkpt>
      <trkpt lat="45.03956" lon="5.60008">
        <ele>1563</ele>
        <time>2011-01-29T14:09:29Z</time>
      </trkpt>
      <trkpt lat="45.03961" lon="5.60011">
        <ele>1563.8</ele>
        <time>2011-01-29T14:09:34Z</time>
      </trkpt>
      <trkpt lat="45.03966" lon="5.60013">
        <ele>1564.6</ele>
        <time>2011-01-29T14:09:39Z</time>
      </trkpt>
      <trkpt lat="45.03967" lon="5.60013">
        <ele>1564.8</ele>
        <time>2011-01-29T14:09:40Z</time>
      </trkpt>
      <trkpt lat="45.03972" lon="5.60012">
        <ele>1565.4</ele>
        <time>2011-01-29T14:09:44Z</time>
      </trkpt>
      <trkpt lat="45.03974" lon="5.60012">
        <ele>1565.8</ele>
        <time>2011-01-29T14:09:46Z</time>
      </trkpt>
      <trkpt lat="45.03977" lon="5.60013">
        <ele>1566.2</ele>
        <time>2011-01-29T14:09:48Z</time>
      </trkpt>
      <trkpt lat="45.03978" lon="5.60013">
        <ele>1566.2</ele>
        <time>2011-01-29T14:09:49Z</time>
      </trkpt>
      <trkpt lat="45.03984" lon="5.60015">
        <ele>1567</ele>
        <time>2011-01-29T14:09:53Z</time>
      </trkpt>
      <trkpt lat="45.03991" lon="5.60019">
        <ele>1568</ele>
        <time>2011-01-29T14:09:59Z</time>
      </trkpt>
      <trkpt lat="45.03997" lon="5.60023">
        <ele>1568.8</ele>
        <time>2011-01-29T14:10:04Z</time>
      </trkpt>
      <trkpt lat="45.03998" lon="5.60023">
        <ele>1569</ele>
        <time>2011-01-29T14:10:05Z</time>
      </trkpt>
      <trkpt lat="45.04003" lon="5.60021">
        <ele>1569.4</ele>
        <time>2011-01-29T14:10:09Z</time>
      </trkpt>
      <trkpt lat="45.04009" lon="5.60021">
        <ele>1570</ele>
        <time>2011-01-29T14:10:13Z</time>
      </trkpt>
      <trkpt lat="45.04013" lon="5.60023">
        <ele>1570.2</ele>
        <time>2011-01-29T14:10:15Z</time>
      </trkpt>
      <trkpt lat="45.04028" lon="5.60028">
        <ele>1570.6</ele>
        <time>2011-01-29T14:10:21Z</time>
      </trkpt>
      <trkpt lat="45.04033" lon="5.60033">
        <ele>1570.8</ele>
        <time>2011-01-29T14:10:25Z</time>
      </trkpt>
      <trkpt lat="45.04034" lon="5.60034">
        <ele>1571</ele>
        <time>2011-01-29T14:10:27Z</time>
      </trkpt>
      <trkpt lat="45.04035" lon="5.60037">
        <ele>1571.2</ele>
        <time>2011-01-29T14:10:29Z</time>
      </trkpt>
      <trkpt lat="45.04038" lon="5.60036">
        <ele>1571.4</ele>
        <time>2011-01-29T14:10:31Z</time>
      </trkpt>
      <trkpt lat="45.04041" lon="5.60035">
        <ele>1571.8</ele>
        <time>2011-01-29T14:10:34Z</time>
      </trkpt>
      <trkpt lat="45.04044" lon="5.60033">
        <ele>1572</ele>
        <time>2011-01-29T14:10:37Z</time>
      </trkpt>
      <trkpt lat="45.04046" lon="5.60032">
        <ele>1572.2</ele>
        <time>2011-01-29T14:10:39Z</time>
      </trkpt>
      <trkpt lat="45.0405" lon="5.60029">
        <ele>1572.4</ele>
        <time>2011-01-29T14:10:43Z</time>
      </trkpt>
      <trkpt lat="45.04055" lon="5.60027">
        <ele>1573</ele>
        <time>2011-01-29T14:10:47Z</time>
      </trkpt>
      <trkpt lat="45.04061" lon="5.60025">
        <ele>1573.6</ele>
        <time>2011-01-29T14:10:52Z</time>
      </trkpt>
      <trkpt lat="45.04064" lon="5.60025">
        <ele>1573.8</ele>
        <time>2011-01-29T14:10:54Z</time>
      </trkpt>
      <trkpt lat="45.04072" lon="5.60026">
        <ele>1574.6</ele>
        <time>2011-01-29T14:11:00Z</time>
      </trkpt>
      <trkpt lat="45.04079" lon="5.60028">
        <ele>1575.4</ele>
        <time>2011-01-29T14:11:06Z</time>
      </trkpt>
      <trkpt lat="45.04081" lon="5.60029">
        <ele>1575.6</ele>
        <time>2011-01-29T14:11:07Z</time>
      </trkpt>
      <trkpt lat="45.04089" lon="5.6003">
        <ele>1576.4</ele>
        <time>2011-01-29T14:11:14Z</time>
      </trkpt>
      <trkpt lat="45.04092" lon="5.6003">
        <ele>1576.6</ele>
        <time>2011-01-29T14:11:16Z</time>
      </trkpt>
      <trkpt lat="45.04096" lon="5.60031">
        <ele>1577</ele>
        <time>2011-01-29T14:11:19Z</time>
      </trkpt>
      <trkpt lat="45.04098" lon="5.60032">
        <ele>1577.4</ele>
        <time>2011-01-29T14:11:21Z</time>
      </trkpt>
      <trkpt lat="45.04101" lon="5.60032">
        <ele>1577.6</ele>
        <time>2011-01-29T14:11:24Z</time>
      </trkpt>
      <trkpt lat="45.04106" lon="5.60034">
        <ele>1578.2</ele>
        <time>2011-01-29T14:11:28Z</time>
      </trkpt>
      <trkpt lat="45.04113" lon="5.60036">
        <ele>1578.8</ele>
        <time>2011-01-29T14:11:34Z</time>
      </trkpt>
      <trkpt lat="45.04116" lon="5.60036">
        <ele>1579</ele>
        <time>2011-01-29T14:11:37Z</time>
      </trkpt>
      <trkpt lat="45.0412" lon="5.60038">
        <ele>1579.4</ele>
        <time>2011-01-29T14:11:41Z</time>
      </trkpt>
      <trkpt lat="45.04125" lon="5.6004">
        <ele>1580.2</ele>
        <time>2011-01-29T14:11:47Z</time>
      </trkpt>
      <trkpt lat="45.0413" lon="5.60042">
        <ele>1580.8</ele>
        <time>2011-01-29T14:11:52Z</time>
      </trkpt>
      <trkpt lat="45.04131" lon="5.60043">
        <ele>1581</ele>
        <time>2011-01-29T14:11:53Z</time>
      </trkpt>
      <trkpt lat="45.04134" lon="5.60044">
        <ele>1581.2</ele>
        <time>2011-01-29T14:11:55Z</time>
      </trkpt>
      <trkpt lat="45.04137" lon="5.60045">
        <ele>1581.6</ele>
        <time>2011-01-29T14:11:58Z</time>
      </trkpt>
      <trkpt lat="45.04144" lon="5.60048">
        <ele>1582.4</ele>
        <time>2011-01-29T14:12:04Z</time>
      </trkpt>
      <trkpt lat="45.04145" lon="5.60049">
        <ele>1582.6</ele>
        <time>2011-01-29T14:12:05Z</time>
      </trkpt>
      <trkpt lat="45.04148" lon="5.6005">
        <ele>1583</ele>
        <time>2011-01-29T14:12:08Z</time>
      </trkpt>
      <trkpt lat="45.04152" lon="5.6005">
        <ele>1583.4</ele>
        <time>2011-01-29T14:12:11Z</time>
      </trkpt>
      <trkpt lat="45.04154" lon="5.60051">
        <ele>1583.8</ele>
        <time>2011-01-29T14:12:13Z</time>
      </trkpt>
      <trkpt lat="45.04162" lon="5.60051">
        <ele>1584.6</ele>
        <time>2011-01-29T14:12:19Z</time>
      </trkpt>
      <trkpt lat="45.04164" lon="5.60051">
        <ele>1585</ele>
        <time>2011-01-29T14:12:21Z</time>
      </trkpt>
      <trkpt lat="45.04168" lon="5.60051">
        <ele>1585.4</ele>
        <time>2011-01-29T14:12:24Z</time>
      </trkpt>
      <trkpt lat="45.0417" lon="5.60051">
        <ele>1585.8</ele>
        <time>2011-01-29T14:12:26Z</time>
      </trkpt>
      <trkpt lat="45.04174" lon="5.60051">
        <ele>1586.2</ele>
        <time>2011-01-29T14:12:29Z</time>
      </trkpt>
      <trkpt lat="45.04181" lon="5.60052">
        <ele>1586.8</ele>
        <time>2011-01-29T14:12:34Z</time>
      </trkpt>
      <trkpt lat="45.04187" lon="5.60054">
        <ele>1587.6</ele>
        <time>2011-01-29T14:12:39Z</time>
      </trkpt>
      <trkpt lat="45.04188" lon="5.60054">
        <ele>1587.8</ele>
        <time>2011-01-29T14:12:40Z</time>
      </trkpt>
      <trkpt lat="45.04193" lon="5.60053">
        <ele>1588.4</ele>
        <time>2011-01-29T14:12:44Z</time>
      </trkpt>
      <trkpt lat="45.04199" lon="5.60054">
        <ele>1589.2</ele>
        <time>2011-01-29T14:12:49Z</time>
      </trkpt>
      <trkpt lat="45.04206" lon="5.60054">
        <ele>1590.2</ele>
        <time>2011-01-29T14:12:55Z</time>
      </trkpt>
      <trkpt lat="45.04207" lon="5.60054">
        <ele>1590.4</ele>
        <time>2011-01-29T14:12:56Z</time>
      </trkpt>
      <trkpt lat="45.04209" lon="5.60053">
        <ele>1590.8</ele>
        <time>2011-01-29T14:12:58Z</time>
      </trkpt>
      <trkpt lat="45.04211" lon="5.60053">
        <ele>1591</ele>
        <time>2011-01-29T14:13:00Z</time>
      </trkpt>
      <trkpt lat="45.04217" lon="5.60051">
        <ele>1592</ele>
        <time>2011-01-29T14:13:06Z</time>
      </trkpt>
      <trkpt lat="45.04224" lon="5.6005">
        <ele>1593</ele>
        <time>2011-01-29T14:13:12Z</time>
      </trkpt>
      <trkpt lat="45.04225" lon="5.6005">
        <ele>1593.2</ele>
        <time>2011-01-29T14:13:13Z</time>
      </trkpt>
      <trkpt lat="45.04227" lon="5.60051">
        <ele>1593.4</ele>
        <time>2011-01-29T14:13:15Z</time>
      </trkpt>
      <trkpt lat="45.0423" lon="5.60052">
        <ele>1593.8</ele>
        <time>2011-01-29T14:13:17Z</time>
      </trkpt>
      <trkpt lat="45.04238" lon="5.60052">
        <ele>1594.8</ele>
        <time>2011-01-29T14:13:24Z</time>
      </trkpt>
      <trkpt lat="45.04244" lon="5.60053">
        <ele>1595.4</ele>
        <time>2011-01-29T14:13:28Z</time>
      </trkpt>
      <trkpt lat="45.04246" lon="5.60053">
        <ele>1595.4</ele>
        <time>2011-01-29T14:13:29Z</time>
      </trkpt>
      <trkpt lat="45.0426" lon="5.60056">
        <ele>1596</ele>
        <time>2011-01-29T14:13:36Z</time>
      </trkpt>
      <trkpt lat="45.04277" lon="5.60058">
        <ele>1596</ele>
        <time>2011-01-29T14:13:43Z</time>
      </trkpt>
      <trkpt lat="45.04279" lon="5.60058">
        <ele>1596</ele>
        <time>2011-01-29T14:13:44Z</time>
      </trkpt>
      <trkpt lat="45.04285" lon="5.60055">
        <ele>1596</ele>
        <time>2011-01-29T14:13:47Z</time>
      </trkpt>
      <trkpt lat="45.04287" lon="5.60054">
        <ele>1596</ele>
        <time>2011-01-29T14:13:48Z</time>
      </trkpt>
      <trkpt lat="45.04291" lon="5.60053">
        <ele>1596</ele>
        <time>2011-01-29T14:13:50Z</time>
      </trkpt>
      <trkpt lat="45.04297" lon="5.60054">
        <ele>1595.8</ele>
        <time>2011-01-29T14:13:53Z</time>
      </trkpt>
      <trkpt lat="45.04311" lon="5.60055">
        <ele>1595.8</ele>
        <time>2011-01-29T14:14:00Z</time>
      </trkpt>
      <trkpt lat="45.04316" lon="5.60054">
        <ele>1595.8</ele>
        <time>2011-01-29T14:14:03Z</time>
      </trkpt>
      <trkpt lat="45.04323" lon="5.60054">
        <ele>1596</ele>
        <time>2011-01-29T14:14:07Z</time>
      </trkpt>
      <trkpt lat="45.04335" lon="5.60057">
        <ele>1596.2</ele>
        <time>2011-01-29T14:14:13Z</time>
      </trkpt>
      <trkpt lat="45.04337" lon="5.60058">
        <ele>1596.4</ele>
        <time>2011-01-29T14:14:14Z</time>
      </trkpt>
      <trkpt lat="45.04343" lon="5.60061">
        <ele>1597</ele>
        <time>2011-01-29T14:14:20Z</time>
      </trkpt>
      <trkpt lat="45.04349" lon="5.60059">
        <ele>1597.4</ele>
        <time>2011-01-29T14:14:25Z</time>
      </trkpt>
      <trkpt lat="45.04352" lon="5.60058">
        <ele>1597.6</ele>
        <time>2011-01-29T14:14:28Z</time>
      </trkpt>
      <trkpt lat="45.04353" lon="5.60058">
        <ele>1597.6</ele>
        <time>2011-01-29T14:14:29Z</time>
      </trkpt>
      <trkpt lat="45.04356" lon="5.60057">
        <ele>1597.8</ele>
        <time>2011-01-29T14:14:32Z</time>
      </trkpt>
      <trkpt lat="45.04364" lon="5.60057">
        <ele>1598.4</ele>
        <time>2011-01-29T14:14:39Z</time>
      </trkpt>
      <trkpt lat="45.04372" lon="5.60056">
        <ele>1598.8</ele>
        <time>2011-01-29T14:14:44Z</time>
      </trkpt>
      <trkpt lat="45.04375" lon="5.60057">
        <ele>1599</ele>
        <time>2011-01-29T14:14:46Z</time>
      </trkpt>
      <trkpt lat="45.04385" lon="5.60059">
        <ele>1599.6</ele>
        <time>2011-01-29T14:14:53Z</time>
      </trkpt>
      <trkpt lat="45.0439" lon="5.6006">
        <ele>1600.2</ele>
        <time>2011-01-29T14:14:58Z</time>
      </trkpt>
      <trkpt lat="45.04392" lon="5.6006">
        <ele>1600.2</ele>
        <time>2011-01-29T14:14:59Z</time>
      </trkpt>
      <trkpt lat="45.04399" lon="5.60061">
        <ele>1600.8</ele>
        <time>2011-01-29T14:15:05Z</time>
      </trkpt>
      <trkpt lat="45.04408" lon="5.6006">
        <ele>1601.2</ele>
        <time>2011-01-29T14:15:09Z</time>
      </trkpt>
      <trkpt lat="45.0442" lon="5.60059">
        <ele>1601.8</ele>
        <time>2011-01-29T14:15:15Z</time>
      </trkpt>
      <trkpt lat="45.04427" lon="5.6006">
        <ele>1602</ele>
        <time>2011-01-29T14:15:18Z</time>
      </trkpt>
      <trkpt lat="45.04433" lon="5.6006">
        <ele>1602.4</ele>
        <time>2011-01-29T14:15:21Z</time>
      </trkpt>
      <trkpt lat="45.04444" lon="5.60062">
        <ele>1603</ele>
        <time>2011-01-29T14:15:26Z</time>
      </trkpt>
      <trkpt lat="45.04446" lon="5.60063">
        <ele>1603</ele>
        <time>2011-01-29T14:15:27Z</time>
      </trkpt>
      <trkpt lat="45.04458" lon="5.60061">
        <ele>1603.6</ele>
        <time>2011-01-29T14:15:32Z</time>
      </trkpt>
      <trkpt lat="45.04465" lon="5.60061">
        <ele>1604</ele>
        <time>2011-01-29T14:15:35Z</time>
      </trkpt>
      <trkpt lat="45.04467" lon="5.60061">
        <ele>1604.2</ele>
        <time>2011-01-29T14:15:36Z</time>
      </trkpt>
      <trkpt lat="45.0448" lon="5.6006">
        <ele>1604.6</ele>
        <time>2011-01-29T14:15:42Z</time>
      </trkpt>
      <trkpt lat="45.04484" lon="5.6006">
        <ele>1604.6</ele>
        <time>2011-01-29T14:15:44Z</time>
      </trkpt>
      <trkpt lat="45.04493" lon="5.60061">
        <ele>1604.8</ele>
        <time>2011-01-29T14:15:48Z</time>
      </trkpt>
      <trkpt lat="45.04499" lon="5.60058">
        <ele>1605.2</ele>
        <time>2011-01-29T14:15:53Z</time>
      </trkpt>
      <trkpt lat="45.04501" lon="5.60055">
        <ele>1605.6</ele>
        <time>2011-01-29T14:15:58Z</time>
      </trkpt>
      <trkpt lat="45.04502" lon="5.60055">
        <ele>1605.6</ele>
        <time>2011-01-29T14:15:59Z</time>
      </trkpt>
      <trkpt lat="45.04504" lon="5.60053">
        <ele>1605.8</ele>
        <time>2011-01-29T14:16:02Z</time>
      </trkpt>
      <trkpt lat="45.04508" lon="5.6005">
        <ele>1606.6</ele>
        <time>2011-01-29T14:16:08Z</time>
      </trkpt>
      <trkpt lat="45.04511" lon="5.60048">
        <ele>1606.8</ele>
        <time>2011-01-29T14:16:11Z</time>
      </trkpt>
      <trkpt lat="45.04512" lon="5.60047">
        <ele>1607</ele>
        <time>2011-01-29T14:16:13Z</time>
      </trkpt>
      <trkpt lat="45.04516" lon="5.60044">
        <ele>1607.6</ele>
        <time>2011-01-29T14:16:18Z</time>
      </trkpt>
      <trkpt lat="45.04517" lon="5.60043">
        <ele>1607.8</ele>
        <time>2011-01-29T14:16:19Z</time>
      </trkpt>
      <trkpt lat="45.04518" lon="5.60042">
        <ele>1607.8</ele>
        <time>2011-01-29T14:16:20Z</time>
      </trkpt>
      <trkpt lat="45.04522" lon="5.60038">
        <ele>1608.4</ele>
        <time>2011-01-29T14:16:25Z</time>
      </trkpt>
      <trkpt lat="45.04524" lon="5.60034">
        <ele>1608.8</ele>
        <time>2011-01-29T14:16:28Z</time>
      </trkpt>
      <trkpt lat="45.04526" lon="5.60031">
        <ele>1609.2</ele>
        <time>2011-01-29T14:16:31Z</time>
      </trkpt>
      <trkpt lat="45.04527" lon="5.6003">
        <ele>1609.2</ele>
        <time>2011-01-29T14:16:32Z</time>
      </trkpt>
      <trkpt lat="45.04531" lon="5.60025">
        <ele>1609.6</ele>
        <time>2011-01-29T14:16:36Z</time>
      </trkpt>
      <trkpt lat="45.04538" lon="5.6002">
        <ele>1610.4</ele>
        <time>2011-01-29T14:16:42Z</time>
      </trkpt>
      <trkpt lat="45.04545" lon="5.60017">
        <ele>1611.2</ele>
        <time>2011-01-29T14:16:48Z</time>
      </trkpt>
      <trkpt lat="45.04548" lon="5.60017">
        <ele>1611.4</ele>
        <time>2011-01-29T14:16:50Z</time>
      </trkpt>
      <trkpt lat="45.04553" lon="5.60016">
        <ele>1611.8</ele>
        <time>2011-01-29T14:16:54Z</time>
      </trkpt>
      <trkpt lat="45.0456" lon="5.60014">
        <ele>1612.4</ele>
        <time>2011-01-29T14:17:00Z</time>
      </trkpt>
      <trkpt lat="45.04567" lon="5.60012">
        <ele>1613.2</ele>
        <time>2011-01-29T14:17:07Z</time>
      </trkpt>
      <trkpt lat="45.04575" lon="5.60009">
        <ele>1613.8</ele>
        <time>2011-01-29T14:17:14Z</time>
      </trkpt>
      <trkpt lat="45.04582" lon="5.60009">
        <ele>1614.2</ele>
        <time>2011-01-29T14:17:19Z</time>
      </trkpt>
      <trkpt lat="45.04584" lon="5.60009">
        <ele>1614.4</ele>
        <time>2011-01-29T14:17:21Z</time>
      </trkpt>
      <trkpt lat="45.0459" lon="5.60009">
        <ele>1615</ele>
        <time>2011-01-29T14:17:26Z</time>
      </trkpt>
      <trkpt lat="45.04597" lon="5.60009">
        <ele>1615.4</ele>
        <time>2011-01-29T14:17:32Z</time>
      </trkpt>
      <trkpt lat="45.04603" lon="5.60009">
        <ele>1615.8</ele>
        <time>2011-01-29T14:17:37Z</time>
      </trkpt>
      <trkpt lat="45.04613" lon="5.60011">
        <ele>1615.8</ele>
        <time>2011-01-29T14:17:43Z</time>
      </trkpt>
      <trkpt lat="45.0462" lon="5.60008">
        <ele>1616</ele>
        <time>2011-01-29T14:17:47Z</time>
      </trkpt>
      <trkpt lat="45.04622" lon="5.60008">
        <ele>1616</ele>
        <time>2011-01-29T14:17:48Z</time>
      </trkpt>
      <trkpt lat="45.04628" lon="5.60008">
        <ele>1616.2</ele>
        <time>2011-01-29T14:17:52Z</time>
      </trkpt>
      <trkpt lat="45.04635" lon="5.60011">
        <ele>1616.8</ele>
        <time>2011-01-29T14:17:58Z</time>
      </trkpt>
      <trkpt lat="45.04638" lon="5.60012">
        <ele>1617</ele>
        <time>2011-01-29T14:18:02Z</time>
      </trkpt>
      <trkpt lat="45.04639" lon="5.60012">
        <ele>1617.2</ele>
        <time>2011-01-29T14:18:03Z</time>
      </trkpt>
      <trkpt lat="45.04641" lon="5.60012">
        <ele>1617.4</ele>
        <time>2011-01-29T14:18:05Z</time>
      </trkpt>
      <trkpt lat="45.04645" lon="5.60014">
        <ele>1617.6</ele>
        <time>2011-01-29T14:18:08Z</time>
      </trkpt>
      <trkpt lat="45.04653" lon="5.60018">
        <ele>1618</ele>
        <time>2011-01-29T14:18:14Z</time>
      </trkpt>
      <trkpt lat="45.04655" lon="5.6002">
        <ele>1618.2</ele>
        <time>2011-01-29T14:18:16Z</time>
      </trkpt>
      <trkpt lat="45.0466" lon="5.60023">
        <ele>1618.4</ele>
        <time>2011-01-29T14:18:20Z</time>
      </trkpt>
      <trkpt lat="45.04668" lon="5.60026">
        <ele>1619</ele>
        <time>2011-01-29T14:18:26Z</time>
      </trkpt>
      <trkpt lat="45.04673" lon="5.60026">
        <ele>1619.2</ele>
        <time>2011-01-29T14:18:30Z</time>
      </trkpt>
      <trkpt lat="45.04675" lon="5.60025">
        <ele>1619.4</ele>
        <time>2011-01-29T14:18:33Z</time>
      </trkpt>
      <trkpt lat="45.04676" lon="5.60025">
        <ele>1619.4</ele>
        <time>2011-01-29T14:18:34Z</time>
      </trkpt>
      <trkpt lat="45.04681" lon="5.60021">
        <ele>1620</ele>
        <time>2011-01-29T14:18:41Z</time>
      </trkpt>
      <trkpt lat="45.04682" lon="5.6002">
        <ele>1620</ele>
        <time>2011-01-29T14:18:42Z</time>
      </trkpt>
      <trkpt lat="45.04685" lon="5.60017">
        <ele>1620.4</ele>
        <time>2011-01-29T14:18:46Z</time>
      </trkpt>
      <trkpt lat="45.04689" lon="5.60016">
        <ele>1620.6</ele>
        <time>2011-01-29T14:18:49Z</time>
      </trkpt>
      <trkpt lat="45.0469" lon="5.60016">
        <ele>1620.8</ele>
        <time>2011-01-29T14:18:50Z</time>
      </trkpt>
      <trkpt lat="45.04692" lon="5.60016">
        <ele>1621</ele>
        <time>2011-01-29T14:18:52Z</time>
      </trkpt>
      <trkpt lat="45.047" lon="5.60016">
        <ele>1621.4</ele>
        <time>2011-01-29T14:18:58Z</time>
      </trkpt>
      <trkpt lat="45.04706" lon="5.60018">
        <ele>1621.4</ele>
        <time>2011-01-29T14:19:01Z</time>
      </trkpt>
      <trkpt lat="45.0471" lon="5.60021">
        <ele>1621.6</ele>
        <time>2011-01-29T14:19:03Z</time>
      </trkpt>
      <trkpt lat="45.04723" lon="5.60027">
        <ele>1621.8</ele>
        <time>2011-01-29T14:19:08Z</time>
      </trkpt>
      <trkpt lat="45.04736" lon="5.60029">
        <ele>1622.2</ele>
        <time>2011-01-29T14:19:14Z</time>
      </trkpt>
      <trkpt lat="45.04742" lon="5.60029">
        <ele>1622.4</ele>
        <time>2011-01-29T14:19:17Z</time>
      </trkpt>
      <trkpt lat="45.04743" lon="5.60029">
        <ele>1622.4</ele>
        <time>2011-01-29T14:19:18Z</time>
      </trkpt>
      <trkpt lat="45.0475" lon="5.60031">
        <ele>1623</ele>
        <time>2011-01-29T14:19:24Z</time>
      </trkpt>
      <trkpt lat="45.04758" lon="5.60031">
        <ele>1623.6</ele>
        <time>2011-01-29T14:19:30Z</time>
      </trkpt>
      <trkpt lat="45.04761" lon="5.60032">
        <ele>1623.8</ele>
        <time>2011-01-29T14:19:33Z</time>
      </trkpt>
      <trkpt lat="45.04762" lon="5.60032">
        <ele>1624</ele>
        <time>2011-01-29T14:19:34Z</time>
      </trkpt>
      <trkpt lat="45.04765" lon="5.60033">
        <ele>1624.2</ele>
        <time>2011-01-29T14:19:37Z</time>
      </trkpt>
      <trkpt lat="45.04766" lon="5.60034">
        <ele>1624.2</ele>
        <time>2011-01-29T14:19:38Z</time>
      </trkpt>
      <trkpt lat="45.0477" lon="5.60035">
        <ele>1624.6</ele>
        <time>2011-01-29T14:19:42Z</time>
      </trkpt>
      <trkpt lat="45.04778" lon="5.60034">
        <ele>1625.2</ele>
        <time>2011-01-29T14:19:48Z</time>
      </trkpt>
      <trkpt lat="45.04779" lon="5.60034">
        <ele>1625.2</ele>
        <time>2011-01-29T14:19:49Z</time>
      </trkpt>
      <trkpt lat="45.04787" lon="5.60035">
        <ele>1625.8</ele>
        <time>2011-01-29T14:19:57Z</time>
      </trkpt>
      <trkpt lat="45.0479" lon="5.60034">
        <ele>1626</ele>
        <time>2011-01-29T14:20:01Z</time>
      </trkpt>
      <trkpt lat="45.04791" lon="5.60034">
        <ele>1626.2</ele>
        <time>2011-01-29T14:20:03Z</time>
      </trkpt>
      <trkpt lat="45.04796" lon="5.60032">
        <ele>1626.6</ele>
        <time>2011-01-29T14:20:09Z</time>
      </trkpt>
      <trkpt lat="45.04797" lon="5.60031">
        <ele>1626.8</ele>
        <time>2011-01-29T14:20:11Z</time>
      </trkpt>
      <trkpt lat="45.04802" lon="5.6003">
        <ele>1627.2</ele>
        <time>2011-01-29T14:20:15Z</time>
      </trkpt>
      <trkpt lat="45.0481" lon="5.60028">
        <ele>1627.8</ele>
        <time>2011-01-29T14:20:22Z</time>
      </trkpt>
      <trkpt lat="45.04811" lon="5.60027">
        <ele>1627.8</ele>
        <time>2011-01-29T14:20:23Z</time>
      </trkpt>
      <trkpt lat="45.04816" lon="5.60026">
        <ele>1628.2</ele>
        <time>2011-01-29T14:20:28Z</time>
      </trkpt>
      <trkpt lat="45.04824" lon="5.60023">
        <ele>1628.4</ele>
        <time>2011-01-29T14:20:34Z</time>
      </trkpt>
      <trkpt lat="45.04831" lon="5.6002">
        <ele>1628.8</ele>
        <time>2011-01-29T14:20:40Z</time>
      </trkpt>
      <trkpt lat="45.04833" lon="5.60019">
        <ele>1629</ele>
        <time>2011-01-29T14:20:42Z</time>
      </trkpt>
      <trkpt lat="45.04837" lon="5.60016">
        <ele>1629.2</ele>
        <time>2011-01-29T14:20:45Z</time>
      </trkpt>
      <trkpt lat="45.0484" lon="5.60012">
        <ele>1629.6</ele>
        <time>2011-01-29T14:20:48Z</time>
      </trkpt>
      <trkpt lat="45.04844" lon="5.60008">
        <ele>1630.2</ele>
        <time>2011-01-29T14:20:52Z</time>
      </trkpt>
      <trkpt lat="45.04849" lon="5.60005">
        <ele>1631</ele>
        <time>2011-01-29T14:20:57Z</time>
      </trkpt>
      <trkpt lat="45.04849" lon="5.60004">
        <ele>1631.2</ele>
        <time>2011-01-29T14:20:58Z</time>
      </trkpt>
      <trkpt lat="45.0485" lon="5.60003">
        <ele>1631.4</ele>
        <time>2011-01-29T14:20:59Z</time>
      </trkpt>
      <trkpt lat="45.04853" lon="5.60001">
        <ele>1632</ele>
        <time>2011-01-29T14:21:03Z</time>
      </trkpt>
      <trkpt lat="45.04857" lon="5.59997">
        <ele>1633</ele>
        <time>2011-01-29T14:21:08Z</time>
      </trkpt>
      <trkpt lat="45.04858" lon="5.59996">
        <ele>1633.2</ele>
        <time>2011-01-29T14:21:09Z</time>
      </trkpt>
      <trkpt lat="45.04859" lon="5.59995">
        <ele>1633.6</ele>
        <time>2011-01-29T14:21:12Z</time>
      </trkpt>
      <trkpt lat="45.0486" lon="5.59994">
        <ele>1633.8</ele>
        <time>2011-01-29T14:21:13Z</time>
      </trkpt>
      <trkpt lat="45.04861" lon="5.59994">
        <ele>1635.2</ele>
        <time>2011-01-29T14:21:24Z</time>
      </trkpt>
      <trkpt lat="45.04863" lon="5.59991">
        <ele>1636.6</ele>
        <time>2011-01-29T14:21:50Z</time>
      </trkpt>
      <trkpt lat="45.04865" lon="5.59989">
        <ele>1637</ele>
        <time>2011-01-29T14:21:52Z</time>
      </trkpt>
      <trkpt lat="45.04869" lon="5.59983">
        <ele>1637.6</ele>
        <time>2011-01-29T14:21:58Z</time>
      </trkpt>
      <trkpt lat="45.04873" lon="5.59976">
        <ele>1639</ele>
        <time>2011-01-29T14:22:05Z</time>
      </trkpt>
      <trkpt lat="45.04876" lon="5.59972">
        <ele>1640</ele>
        <time>2011-01-29T14:22:10Z</time>
      </trkpt>
      <trkpt lat="45.04877" lon="5.59971">
        <ele>1640.4</ele>
        <time>2011-01-29T14:22:12Z</time>
      </trkpt>
      <trkpt lat="45.04881" lon="5.59969">
        <ele>1641.4</ele>
        <time>2011-01-29T14:22:17Z</time>
      </trkpt>
      <trkpt lat="45.04887" lon="5.59965">
        <ele>1642.6</ele>
        <time>2011-01-29T14:22:24Z</time>
      </trkpt>
      <trkpt lat="45.04888" lon="5.59964">
        <ele>1643.2</ele>
        <time>2011-01-29T14:22:26Z</time>
      </trkpt>
      <trkpt lat="45.04889" lon="5.59962">
        <ele>1643.6</ele>
        <time>2011-01-29T14:22:28Z</time>
      </trkpt>
      <trkpt lat="45.04891" lon="5.5996">
        <ele>1644.2</ele>
        <time>2011-01-29T14:22:31Z</time>
      </trkpt>
      <trkpt lat="45.04893" lon="5.59959">
        <ele>1644.6</ele>
        <time>2011-01-29T14:22:33Z</time>
      </trkpt>
      <trkpt lat="45.04896" lon="5.59954">
        <ele>1646.2</ele>
        <time>2011-01-29T14:22:40Z</time>
      </trkpt>
      <trkpt lat="45.04898" lon="5.59953">
        <ele>1646.8</ele>
        <time>2011-01-29T14:22:43Z</time>
      </trkpt>
      <trkpt lat="45.049" lon="5.59952">
        <ele>1647.2</ele>
        <time>2011-01-29T14:22:45Z</time>
      </trkpt>
      <trkpt lat="45.04904" lon="5.59948">
        <ele>1648</ele>
        <time>2011-01-29T14:22:51Z</time>
      </trkpt>
      <trkpt lat="45.04906" lon="5.59947">
        <ele>1648.4</ele>
        <time>2011-01-29T14:22:54Z</time>
      </trkpt>
      <trkpt lat="45.04907" lon="5.59946">
        <ele>1648.6</ele>
        <time>2011-01-29T14:22:56Z</time>
      </trkpt>
      <trkpt lat="45.04911" lon="5.59945">
        <ele>1649.2</ele>
        <time>2011-01-29T14:23:02Z</time>
      </trkpt>
      <trkpt lat="45.04913" lon="5.59943">
        <ele>1649.6</ele>
        <time>2011-01-29T14:23:06Z</time>
      </trkpt>
      <trkpt lat="45.04918" lon="5.59941">
        <ele>1650.2</ele>
        <time>2011-01-29T14:23:11Z</time>
      </trkpt>
      <trkpt lat="45.04918" lon="5.59941">
        <ele>1650.2</ele>
        <time>2011-01-29T14:23:12Z</time>
      </trkpt>
      <trkpt lat="45.04922" lon="5.59939">
        <ele>1650.8</ele>
        <time>2011-01-29T14:23:17Z</time>
      </trkpt>
      <trkpt lat="45.04926" lon="5.59935">
        <ele>1651.6</ele>
        <time>2011-01-29T14:23:23Z</time>
      </trkpt>
      <trkpt lat="45.0493" lon="5.59932">
        <ele>1652.2</ele>
        <time>2011-01-29T14:23:28Z</time>
      </trkpt>
      <trkpt lat="45.04931" lon="5.59931">
        <ele>1652.6</ele>
        <time>2011-01-29T14:23:30Z</time>
      </trkpt>
      <trkpt lat="45.04936" lon="5.59928">
        <ele>1653.6</ele>
        <time>2011-01-29T14:23:37Z</time>
      </trkpt>
      <trkpt lat="45.04937" lon="5.59927">
        <ele>1654.2</ele>
        <time>2011-01-29T14:23:40Z</time>
      </trkpt>
      <trkpt lat="45.04939" lon="5.59925">
        <ele>1654.4</ele>
        <time>2011-01-29T14:23:42Z</time>
      </trkpt>
      <trkpt lat="45.04942" lon="5.59924">
        <ele>1655</ele>
        <time>2011-01-29T14:23:46Z</time>
      </trkpt>
      <trkpt lat="45.04945" lon="5.59922">
        <ele>1655.8</ele>
        <time>2011-01-29T14:23:50Z</time>
      </trkpt>
      <trkpt lat="45.04945" lon="5.59921">
        <ele>1656</ele>
        <time>2011-01-29T14:23:51Z</time>
      </trkpt>
      <trkpt lat="45.04949" lon="5.59919">
        <ele>1657</ele>
        <time>2011-01-29T14:23:57Z</time>
      </trkpt>
      <trkpt lat="45.04953" lon="5.59917">
        <ele>1658</ele>
        <time>2011-01-29T14:24:03Z</time>
      </trkpt>
      <trkpt lat="45.04954" lon="5.59916">
        <ele>1658.2</ele>
        <time>2011-01-29T14:24:04Z</time>
      </trkpt>
      <trkpt lat="45.04957" lon="5.59913">
        <ele>1659</ele>
        <time>2011-01-29T14:24:09Z</time>
      </trkpt>
      <trkpt lat="45.0496" lon="5.59911">
        <ele>1659.6</ele>
        <time>2011-01-29T14:24:13Z</time>
      </trkpt>
      <trkpt lat="45.04965" lon="5.59907">
        <ele>1660.6</ele>
        <time>2011-01-29T14:24:19Z</time>
      </trkpt>
      <trkpt lat="45.04968" lon="5.59905">
        <ele>1661.4</ele>
        <time>2011-01-29T14:24:24Z</time>
      </trkpt>
      <trkpt lat="45.04969" lon="5.59904">
        <ele>1662.4</ele>
        <time>2011-01-29T14:24:30Z</time>
      </trkpt>
      <trkpt lat="45.0497" lon="5.59902">
        <ele>1662.8</ele>
        <time>2011-01-29T14:24:32Z</time>
      </trkpt>
      <trkpt lat="45.04972" lon="5.599">
        <ele>1663.4</ele>
        <time>2011-01-29T14:24:36Z</time>
      </trkpt>
      <trkpt lat="45.04974" lon="5.59897">
        <ele>1664.6</ele>
        <time>2011-01-29T14:24:42Z</time>
      </trkpt>
      <trkpt lat="45.04979" lon="5.59893">
        <ele>1665.8</ele>
        <time>2011-01-29T14:24:49Z</time>
      </trkpt>
      <trkpt lat="45.04984" lon="5.59888">
        <ele>1667.2</ele>
        <time>2011-01-29T14:24:56Z</time>
      </trkpt>
      <trkpt lat="45.04989" lon="5.59885">
        <ele>1668.4</ele>
        <time>2011-01-29T14:25:02Z</time>
      </trkpt>
      <trkpt lat="45.04992" lon="5.59884">
        <ele>1669.2</ele>
        <time>2011-01-29T14:25:07Z</time>
      </trkpt>
      <trkpt lat="45.05001" lon="5.5988">
        <ele>1670.6</ele>
        <time>2011-01-29T14:25:16Z</time>
      </trkpt>
      <trkpt lat="45.05002" lon="5.5988">
        <ele>1670.8</ele>
        <time>2011-01-29T14:25:17Z</time>
      </trkpt>
      <trkpt lat="45.05007" lon="5.59877">
        <ele>1671.8</ele>
        <time>2011-01-29T14:25:24Z</time>
      </trkpt>
      <trkpt lat="45.05012" lon="5.59874">
        <ele>1673</ele>
        <time>2011-01-29T14:25:32Z</time>
      </trkpt>
      <trkpt lat="45.05016" lon="5.5987">
        <ele>1674</ele>
        <time>2011-01-29T14:25:39Z</time>
      </trkpt>
      <trkpt lat="45.05018" lon="5.59868">
        <ele>1674.2</ele>
        <time>2011-01-29T14:25:42Z</time>
      </trkpt>
      <trkpt lat="45.0502" lon="5.59868">
        <ele>1674.6</ele>
        <time>2011-01-29T14:25:45Z</time>
      </trkpt>
      <trkpt lat="45.05023" lon="5.59866">
        <ele>1674.8</ele>
        <time>2011-01-29T14:25:49Z</time>
      </trkpt>
      <trkpt lat="45.05031" lon="5.59865">
        <ele>1675.6</ele>
        <time>2011-01-29T14:25:58Z</time>
      </trkpt>
      <trkpt lat="45.05036" lon="5.59864">
        <ele>1676</ele>
        <time>2011-01-29T14:26:05Z</time>
      </trkpt>
      <trkpt lat="45.05041" lon="5.59863">
        <ele>1676.6</ele>
        <time>2011-01-29T14:26:11Z</time>
      </trkpt>
      <trkpt lat="45.05048" lon="5.59861">
        <ele>1677.2</ele>
        <time>2011-01-29T14:26:18Z</time>
      </trkpt>
      <trkpt lat="45.05053" lon="5.5986">
        <ele>1677.6</ele>
        <time>2011-01-29T14:26:23Z</time>
      </trkpt>
      <trkpt lat="45.05054" lon="5.5986">
        <ele>1677.6</ele>
        <time>2011-01-29T14:26:24Z</time>
      </trkpt>
      <trkpt lat="45.05059" lon="5.59857">
        <ele>1678</ele>
        <time>2011-01-29T14:26:29Z</time>
      </trkpt>
      <trkpt lat="45.05061" lon="5.59857">
        <ele>1678.2</ele>
        <time>2011-01-29T14:26:31Z</time>
      </trkpt>
      <trkpt lat="45.05062" lon="5.59856">
        <ele>1678.4</ele>
        <time>2011-01-29T14:26:33Z</time>
      </trkpt>
      <trkpt lat="45.05065" lon="5.59855">
        <ele>1678.6</ele>
        <time>2011-01-29T14:26:36Z</time>
      </trkpt>
      <trkpt lat="45.05069" lon="5.59854">
        <ele>1678.8</ele>
        <time>2011-01-29T14:26:42Z</time>
      </trkpt>
      <trkpt lat="45.05071" lon="5.59853">
        <ele>1679</ele>
        <time>2011-01-29T14:26:44Z</time>
      </trkpt>
      <trkpt lat="45.05072" lon="5.59853">
        <ele>1679.2</ele>
        <time>2011-01-29T14:26:46Z</time>
      </trkpt>
      <trkpt lat="45.05076" lon="5.59852">
        <ele>1679.4</ele>
        <time>2011-01-29T14:26:51Z</time>
      </trkpt>
      <trkpt lat="45.0508" lon="5.59852">
        <ele>1679.6</ele>
        <time>2011-01-29T14:26:56Z</time>
      </trkpt>
      <trkpt lat="45.05086" lon="5.59849">
        <ele>1680</ele>
        <time>2011-01-29T14:27:03Z</time>
      </trkpt>
      <trkpt lat="45.05088" lon="5.59849">
        <ele>1680</ele>
        <time>2011-01-29T14:27:05Z</time>
      </trkpt>
      <trkpt lat="45.0509" lon="5.59848">
        <ele>1680.4</ele>
        <time>2011-01-29T14:27:08Z</time>
      </trkpt>
      <trkpt lat="45.05091" lon="5.59847">
        <ele>1680.4</ele>
        <time>2011-01-29T14:27:09Z</time>
      </trkpt>
      <trkpt lat="45.05096" lon="5.59845">
        <ele>1681</ele>
        <time>2011-01-29T14:27:16Z</time>
      </trkpt>
      <trkpt lat="45.05098" lon="5.59843">
        <ele>1681.6</ele>
        <time>2011-01-29T14:27:21Z</time>
      </trkpt>
      <trkpt lat="45.05101" lon="5.59842">
        <ele>1682.6</ele>
        <time>2011-01-29T14:27:27Z</time>
      </trkpt>
      <trkpt lat="45.05105" lon="5.5984">
        <ele>1683.6</ele>
        <time>2011-01-29T14:27:34Z</time>
      </trkpt>
      <trkpt lat="45.05106" lon="5.5984">
        <ele>1684</ele>
        <time>2011-01-29T14:27:36Z</time>
      </trkpt>
      <trkpt lat="45.05107" lon="5.59839">
        <ele>1684.4</ele>
        <time>2011-01-29T14:27:39Z</time>
      </trkpt>
      <trkpt lat="45.05111" lon="5.59839">
        <ele>1685.2</ele>
        <time>2011-01-29T14:27:44Z</time>
      </trkpt>
      <trkpt lat="45.05111" lon="5.59838">
        <ele>1686.2</ele>
        <time>2011-01-29T14:27:52Z</time>
      </trkpt>
      <trkpt lat="45.05116" lon="5.59837">
        <ele>1687.2</ele>
        <time>2011-01-29T14:27:58Z</time>
      </trkpt>
      <trkpt lat="45.05123" lon="5.59834">
        <ele>1688.6</ele>
        <time>2011-01-29T14:28:07Z</time>
      </trkpt>
      <trkpt lat="45.05124" lon="5.59834">
        <ele>1688.8</ele>
        <time>2011-01-29T14:28:08Z</time>
      </trkpt>
      <trkpt lat="45.05128" lon="5.59832">
        <ele>1690</ele>
        <time>2011-01-29T14:28:15Z</time>
      </trkpt>
      <trkpt lat="45.05134" lon="5.59832">
        <ele>1691</ele>
        <time>2011-01-29T14:28:22Z</time>
      </trkpt>
      <trkpt lat="45.05139" lon="5.59831">
        <ele>1692.2</ele>
        <time>2011-01-29T14:28:29Z</time>
      </trkpt>
      <trkpt lat="45.05141" lon="5.59829">
        <ele>1692.6</ele>
        <time>2011-01-29T14:28:32Z</time>
      </trkpt>
      <trkpt lat="45.05143" lon="5.59827">
        <ele>1693.2</ele>
        <time>2011-01-29T14:28:36Z</time>
      </trkpt>
      <trkpt lat="45.05145" lon="5.59824">
        <ele>1694</ele>
        <time>2011-01-29T14:28:42Z</time>
      </trkpt>
      <trkpt lat="45.0515" lon="5.59821">
        <ele>1694.8</ele>
        <time>2011-01-29T14:28:48Z</time>
      </trkpt>
      <trkpt lat="45.05153" lon="5.59819">
        <ele>1695.6</ele>
        <time>2011-01-29T14:28:54Z</time>
      </trkpt>
      <trkpt lat="45.05156" lon="5.59818">
        <ele>1696.6</ele>
        <time>2011-01-29T14:29:01Z</time>
      </trkpt>
      <trkpt lat="45.0516" lon="5.59817">
        <ele>1697.6</ele>
        <time>2011-01-29T14:29:07Z</time>
      </trkpt>
      <trkpt lat="45.05163" lon="5.59816">
        <ele>1698.4</ele>
        <time>2011-01-29T14:29:12Z</time>
      </trkpt>
      <trkpt lat="45.05165" lon="5.59815">
        <ele>1699</ele>
        <time>2011-01-29T14:29:16Z</time>
      </trkpt>
      <trkpt lat="45.05168" lon="5.59815">
        <ele>1700</ele>
        <time>2011-01-29T14:29:22Z</time>
      </trkpt>
      <trkpt lat="45.0517" lon="5.59813">
        <ele>1701</ele>
        <time>2011-01-29T14:29:27Z</time>
      </trkpt>
      <trkpt lat="45.05173" lon="5.59812">
        <ele>1701.6</ele>
        <time>2011-01-29T14:29:32Z</time>
      </trkpt>
      <trkpt lat="45.05174" lon="5.59812">
        <ele>1702</ele>
        <time>2011-01-29T14:29:34Z</time>
      </trkpt>
      <trkpt lat="45.05177" lon="5.59811">
        <ele>1702.8</ele>
        <time>2011-01-29T14:29:38Z</time>
      </trkpt>
      <trkpt lat="45.05179" lon="5.5981">
        <ele>1703.6</ele>
        <time>2011-01-29T14:29:43Z</time>
      </trkpt>
      <trkpt lat="45.05181" lon="5.5981">
        <ele>1704.4</ele>
        <time>2011-01-29T14:29:47Z</time>
      </trkpt>
      <trkpt lat="45.05184" lon="5.59809">
        <ele>1705.4</ele>
        <time>2011-01-29T14:29:52Z</time>
      </trkpt>
      <trkpt lat="45.05187" lon="5.59808">
        <ele>1706.4</ele>
        <time>2011-01-29T14:29:57Z</time>
      </trkpt>
      <trkpt lat="45.0519" lon="5.59804">
        <ele>1707.6</ele>
        <time>2011-01-29T14:30:03Z</time>
      </trkpt>
      <trkpt lat="45.05191" lon="5.59803">
        <ele>1708.2</ele>
        <time>2011-01-29T14:30:06Z</time>
      </trkpt>
      <trkpt lat="45.05193" lon="5.59803">
        <ele>1708.6</ele>
        <time>2011-01-29T14:30:08Z</time>
      </trkpt>
      <trkpt lat="45.05195" lon="5.59802">
        <ele>1709.8</ele>
        <time>2011-01-29T14:30:14Z</time>
      </trkpt>
      <trkpt lat="45.05197" lon="5.598">
        <ele>1710.6</ele>
        <time>2011-01-29T14:30:18Z</time>
      </trkpt>
      <trkpt lat="45.05201" lon="5.59801">
        <ele>1711.8</ele>
        <time>2011-01-29T14:30:24Z</time>
      </trkpt>
      <trkpt lat="45.05204" lon="5.598">
        <ele>1713</ele>
        <time>2011-01-29T14:30:30Z</time>
      </trkpt>
      <trkpt lat="45.05208" lon="5.59797">
        <ele>1714</ele>
        <time>2011-01-29T14:30:36Z</time>
      </trkpt>
      <trkpt lat="45.05211" lon="5.59796">
        <ele>1714.8</ele>
        <time>2011-01-29T14:30:41Z</time>
      </trkpt>
      <trkpt lat="45.05215" lon="5.59795">
        <ele>1715.6</ele>
        <time>2011-01-29T14:30:45Z</time>
      </trkpt>
      <trkpt lat="45.05217" lon="5.59793">
        <ele>1716.4</ele>
        <time>2011-01-29T14:30:50Z</time>
      </trkpt>
      <trkpt lat="45.05219" lon="5.59792">
        <ele>1717.2</ele>
        <time>2011-01-29T14:30:54Z</time>
      </trkpt>
      <trkpt lat="45.05222" lon="5.5979">
        <ele>1718.4</ele>
        <time>2011-01-29T14:31:00Z</time>
      </trkpt>
      <trkpt lat="45.05223" lon="5.59788">
        <ele>1719.4</ele>
        <time>2011-01-29T14:31:06Z</time>
      </trkpt>
      <trkpt lat="45.05225" lon="5.59786">
        <ele>1720</ele>
        <time>2011-01-29T14:31:09Z</time>
      </trkpt>
      <trkpt lat="45.05226" lon="5.59785">
        <ele>1720.6</ele>
        <time>2011-01-29T14:31:12Z</time>
      </trkpt>
      <trkpt lat="45.05228" lon="5.59779">
        <ele>1724</ele>
        <time>2011-01-29T14:31:28Z</time>
      </trkpt>
      <trkpt lat="45.0523" lon="5.59773">
        <ele>1727.2</ele>
        <time>2011-01-29T14:31:44Z</time>
      </trkpt>
      <trkpt lat="45.05232" lon="5.59769">
        <ele>1729.4</ele>
        <time>2011-01-29T14:31:54Z</time>
      </trkpt>
      <trkpt lat="45.05233" lon="5.59767">
        <ele>1730.8</ele>
        <time>2011-01-29T14:32:01Z</time>
      </trkpt>
      <trkpt lat="45.05235" lon="5.59765">
        <ele>1732.4</ele>
        <time>2011-01-29T14:32:09Z</time>
      </trkpt>
      <trkpt lat="45.05237" lon="5.59763">
        <ele>1733.4</ele>
        <time>2011-01-29T14:32:15Z</time>
      </trkpt>
      <trkpt lat="45.05238" lon="5.59761">
        <ele>1734.8</ele>
        <time>2011-01-29T14:32:21Z</time>
      </trkpt>
      <trkpt lat="45.05238" lon="5.59757">
        <ele>1736.2</ele>
        <time>2011-01-29T14:32:28Z</time>
      </trkpt>
      <trkpt lat="45.05239" lon="5.59753">
        <ele>1737.8</ele>
        <time>2011-01-29T14:32:36Z</time>
      </trkpt>
      <trkpt lat="45.05241" lon="5.59751">
        <ele>1739</ele>
        <time>2011-01-29T14:32:43Z</time>
      </trkpt>
      <trkpt lat="45.05243" lon="5.59749">
        <ele>1740.2</ele>
        <time>2011-01-29T14:32:49Z</time>
      </trkpt>
      <trkpt lat="45.05246" lon="5.59748">
        <ele>1741.4</ele>
        <time>2011-01-29T14:32:55Z</time>
      </trkpt>
      <trkpt lat="45.05248" lon="5.59748">
        <ele>1742</ele>
        <time>2011-01-29T14:32:58Z</time>
      </trkpt>
      <trkpt lat="45.0525" lon="5.59748">
        <ele>1742.6</ele>
        <time>2011-01-29T14:33:01Z</time>
      </trkpt>
      <trkpt lat="45.05252" lon="5.59748">
        <ele>1743.6</ele>
        <time>2011-01-29T14:33:08Z</time>
      </trkpt>
      <trkpt lat="45.05251" lon="5.59745">
        <ele>1744.4</ele>
        <time>2011-01-29T14:33:14Z</time>
      </trkpt>
      <trkpt lat="45.05252" lon="5.59743">
        <ele>1744.8</ele>
        <time>2011-01-29T14:33:18Z</time>
      </trkpt>
      <trkpt lat="45.05251" lon="5.59741">
        <ele>1745.6</ele>
        <time>2011-01-29T14:33:23Z</time>
      </trkpt>
      <trkpt lat="45.0525" lon="5.59739">
        <ele>1746.6</ele>
        <time>2011-01-29T14:33:28Z</time>
      </trkpt>
      <trkpt lat="45.05249" lon="5.59737">
        <ele>1748.2</ele>
        <time>2011-01-29T14:33:36Z</time>
      </trkpt>
      <trkpt lat="45.0525" lon="5.59735">
        <ele>1749.4</ele>
        <time>2011-01-29T14:33:42Z</time>
      </trkpt>
      <trkpt lat="45.05251" lon="5.59733">
        <ele>1750.6</ele>
        <time>2011-01-29T14:33:51Z</time>
      </trkpt>
      <trkpt lat="45.05252" lon="5.59733">
        <ele>1750.8</ele>
        <time>2011-01-29T14:33:52Z</time>
      </trkpt>
      <trkpt lat="45.05253" lon="5.59731">
        <ele>1751.6</ele>
        <time>2011-01-29T14:33:59Z</time>
      </trkpt>
      <trkpt lat="45.05252" lon="5.59728">
        <ele>1752.2</ele>
        <time>2011-01-29T14:34:05Z</time>
      </trkpt>
      <trkpt lat="45.05251" lon="5.59725">
        <ele>1752.6</ele>
        <time>2011-01-29T14:34:10Z</time>
      </trkpt>
      <trkpt lat="45.05252" lon="5.59723">
        <ele>1753.6</ele>
        <time>2011-01-29T14:34:16Z</time>
      </trkpt>
      <trkpt lat="45.05254" lon="5.59721">
        <ele>1754.2</ele>
        <time>2011-01-29T14:34:21Z</time>
      </trkpt>
      <trkpt lat="45.05256" lon="5.5972">
        <ele>1755</ele>
        <time>2011-01-29T14:34:26Z</time>
      </trkpt>
      <trkpt lat="45.05257" lon="5.59718">
        <ele>1755.8</ele>
        <time>2011-01-29T14:34:32Z</time>
      </trkpt>
      <trkpt lat="45.05261" lon="5.59719">
        <ele>1756.8</ele>
        <time>2011-01-29T14:34:39Z</time>
      </trkpt>
      <trkpt lat="45.05261" lon="5.59719">
        <ele>1757</ele>
        <time>2011-01-29T14:34:40Z</time>
      </trkpt>
      <trkpt lat="45.05265" lon="5.59721">
        <ele>1758</ele>
        <time>2011-01-29T14:34:45Z</time>
      </trkpt>
      <trkpt lat="45.05269" lon="5.59721">
        <ele>1759</ele>
        <time>2011-01-29T14:34:50Z</time>
      </trkpt>
      <trkpt lat="45.05271" lon="5.59721">
        <ele>1759.6</ele>
        <time>2011-01-29T14:34:54Z</time>
      </trkpt>
      <trkpt lat="45.05272" lon="5.59717">
        <ele>1760.6</ele>
        <time>2011-01-29T14:35:00Z</time>
      </trkpt>
      <trkpt lat="45.05275" lon="5.59716">
        <ele>1761.4</ele>
        <time>2011-01-29T14:35:05Z</time>
      </trkpt>
      <trkpt lat="45.05275" lon="5.59712">
        <ele>1762.2</ele>
        <time>2011-01-29T14:35:09Z</time>
      </trkpt>
      <trkpt lat="45.05276" lon="5.59712">
        <ele>1762.4</ele>
        <time>2011-01-29T14:35:10Z</time>
      </trkpt>
      <trkpt lat="45.05277" lon="5.59713">
        <ele>1767.2</ele>
        <time>2011-01-29T14:35:38Z</time>
      </trkpt>
      <trkpt lat="45.05281" lon="5.59713">
        <ele>1768.2</ele>
        <time>2011-01-29T14:35:43Z</time>
      </trkpt>
      <trkpt lat="45.05285" lon="5.59711">
        <ele>1769.2</ele>
        <time>2011-01-29T14:35:49Z</time>
      </trkpt>
      <trkpt lat="45.05286" lon="5.59708">
        <ele>1770.4</ele>
        <time>2011-01-29T14:35:56Z</time>
      </trkpt>
      <trkpt lat="45.05288" lon="5.59707">
        <ele>1771.2</ele>
        <time>2011-01-29T14:36:02Z</time>
      </trkpt>
      <trkpt lat="45.05288" lon="5.59708">
        <ele>1774</ele>
        <time>2011-01-29T14:36:24Z</time>
      </trkpt>
      <trkpt lat="45.05288" lon="5.59708">
        <ele>1774.4</ele>
        <time>2011-01-29T14:36:27Z</time>
      </trkpt>
      <trkpt lat="45.05287" lon="5.59708">
        <ele>1774.8</ele>
        <time>2011-01-29T14:36:30Z</time>
      </trkpt>
      <trkpt lat="45.05288" lon="5.59708">
        <ele>1775.8</ele>
        <time>2011-01-29T14:36:42Z</time>
      </trkpt>
      <trkpt lat="45.05288" lon="5.59709">
        <ele>1776.4</ele>
        <time>2011-01-29T14:36:49Z</time>
      </trkpt>
      <trkpt lat="45.05289" lon="5.59708">
        <ele>1777.4</ele>
        <time>2011-01-29T14:37:05Z</time>
      </trkpt>
      <trkpt lat="45.0529" lon="5.59706">
        <ele>1778</ele>
        <time>2011-01-29T14:37:38Z</time>
      </trkpt>
      <trkpt lat="45.05289" lon="5.59708">
        <ele>1778.4</ele>
        <time>2011-01-29T14:37:54Z</time>
      </trkpt>
      <trkpt lat="45.0529" lon="5.5971">
        <ele>1778.6</ele>
        <time>2011-01-29T14:39:25Z</time>
      </trkpt>
      <trkpt lat="45.05288" lon="5.59709">
        <ele>1778.8</ele>
        <time>2011-01-29T14:40:07Z</time>
      </trkpt>
      <trkpt lat="45.05287" lon="5.59708">
        <ele>1778.4</ele>
        <time>2011-01-29T14:40:48Z</time>
      </trkpt>
      <trkpt lat="45.05287" lon="5.59708">
        <ele>1778.4</ele>
        <time>2011-01-29T14:41:08Z</time>
      </trkpt>
      <trkpt lat="45.05287" lon="5.59707">
        <ele>1778.4</ele>
        <time>2011-01-29T14:41:12Z</time>
      </trkpt>
      <trkpt lat="45.05283" lon="5.59711">
        <ele>1778.4</ele>
        <time>2011-01-29T14:41:21Z</time>
      </trkpt>
      <trkpt lat="45.05281" lon="5.59712">
        <ele>1778.4</ele>
        <time>2011-01-29T14:41:25Z</time>
      </trkpt>
      <trkpt lat="45.05279" lon="5.59714">
        <ele>1778.2</ele>
        <time>2011-01-29T14:41:30Z</time>
      </trkpt>
      <trkpt lat="45.05277" lon="5.59718">
        <ele>1778.2</ele>
        <time>2011-01-29T14:41:34Z</time>
      </trkpt>
      <trkpt lat="45.05277" lon="5.59721">
        <ele>1778</ele>
        <time>2011-01-29T14:41:37Z</time>
      </trkpt>
      <trkpt lat="45.05272" lon="5.59724">
        <ele>1777.8</ele>
        <time>2011-01-29T14:41:42Z</time>
      </trkpt>
      <trkpt lat="45.05263" lon="5.59721">
        <ele>1777.2</ele>
        <time>2011-01-29T14:41:49Z</time>
      </trkpt>
      <trkpt lat="45.05262" lon="5.59721">
        <ele>1777.2</ele>
        <time>2011-01-29T14:41:50Z</time>
      </trkpt>
      <trkpt lat="45.05261" lon="5.59721">
        <ele>1777</ele>
        <time>2011-01-29T14:41:51Z</time>
      </trkpt>
      <trkpt lat="45.05259" lon="5.59721">
        <ele>1776.8</ele>
        <time>2011-01-29T14:41:53Z</time>
      </trkpt>
      <trkpt lat="45.05258" lon="5.59723">
        <ele>1776.6</ele>
        <time>2011-01-29T14:41:56Z</time>
      </trkpt>
      <trkpt lat="45.05251" lon="5.59725">
        <ele>1776</ele>
        <time>2011-01-29T14:42:02Z</time>
      </trkpt>
      <trkpt lat="45.05245" lon="5.59726">
        <ele>1775</ele>
        <time>2011-01-29T14:42:09Z</time>
      </trkpt>
      <trkpt lat="45.05244" lon="5.59726">
        <ele>1774.6</ele>
        <time>2011-01-29T14:42:12Z</time>
      </trkpt>
      <trkpt lat="45.05241" lon="5.59727">
        <ele>1774.4</ele>
        <time>2011-01-29T14:42:14Z</time>
      </trkpt>
      <trkpt lat="45.05241" lon="5.59727">
        <ele>1774.2</ele>
        <time>2011-01-29T14:42:15Z</time>
      </trkpt>
      <trkpt lat="45.0524" lon="5.59728">
        <ele>1774</ele>
        <time>2011-01-29T14:42:16Z</time>
      </trkpt>
      <trkpt lat="45.05239" lon="5.5973">
        <ele>1773.4</ele>
        <time>2011-01-29T14:42:21Z</time>
      </trkpt>
      <trkpt lat="45.05243" lon="5.59734">
        <ele>1772.4</ele>
        <time>2011-01-29T14:42:27Z</time>
      </trkpt>
      <trkpt lat="45.05248" lon="5.59738">
        <ele>1771.4</ele>
        <time>2011-01-29T14:42:34Z</time>
      </trkpt>
      <trkpt lat="45.05249" lon="5.59739">
        <ele>1771.2</ele>
        <time>2011-01-29T14:42:35Z</time>
      </trkpt>
      <trkpt lat="45.05256" lon="5.59747">
        <ele>1769.6</ele>
        <time>2011-01-29T14:42:44Z</time>
      </trkpt>
      <trkpt lat="45.05253" lon="5.59749">
        <ele>1769</ele>
        <time>2011-01-29T14:42:48Z</time>
      </trkpt>
      <trkpt lat="45.05253" lon="5.59749">
        <ele>1768.8</ele>
        <time>2011-01-29T14:42:49Z</time>
      </trkpt>
      <trkpt lat="45.05248" lon="5.5975">
        <ele>1767.8</ele>
        <time>2011-01-29T14:42:54Z</time>
      </trkpt>
      <trkpt lat="45.05242" lon="5.59751">
        <ele>1766.6</ele>
        <time>2011-01-29T14:43:00Z</time>
      </trkpt>
      <trkpt lat="45.05237" lon="5.59753">
        <ele>1765.4</ele>
        <time>2011-01-29T14:43:07Z</time>
      </trkpt>
      <trkpt lat="45.05236" lon="5.59756">
        <ele>1764.2</ele>
        <time>2011-01-29T14:43:12Z</time>
      </trkpt>
      <trkpt lat="45.05235" lon="5.59762">
        <ele>1763</ele>
        <time>2011-01-29T14:43:18Z</time>
      </trkpt>
      <trkpt lat="45.0523" lon="5.59766">
        <ele>1761.8</ele>
        <time>2011-01-29T14:43:23Z</time>
      </trkpt>
      <trkpt lat="45.05228" lon="5.59767">
        <ele>1761.2</ele>
        <time>2011-01-29T14:43:26Z</time>
      </trkpt>
      <trkpt lat="45.05228" lon="5.59767">
        <ele>1760.8</ele>
        <time>2011-01-29T14:43:28Z</time>
      </trkpt>
      <trkpt lat="45.05226" lon="5.5977">
        <ele>1757.6</ele>
        <time>2011-01-29T14:43:42Z</time>
      </trkpt>
      <trkpt lat="45.05228" lon="5.59772">
        <ele>1756.6</ele>
        <time>2011-01-29T14:43:47Z</time>
      </trkpt>
      <trkpt lat="45.05231" lon="5.59775">
        <ele>1755.4</ele>
        <time>2011-01-29T14:43:52Z</time>
      </trkpt>
      <trkpt lat="45.05229" lon="5.59781">
        <ele>1753.8</ele>
        <time>2011-01-29T14:43:59Z</time>
      </trkpt>
      <trkpt lat="45.05227" lon="5.59787">
        <ele>1752.2</ele>
        <time>2011-01-29T14:44:06Z</time>
      </trkpt>
      <trkpt lat="45.0522" lon="5.59794">
        <ele>1750.6</ele>
        <time>2011-01-29T14:44:13Z</time>
      </trkpt>
      <trkpt lat="45.05219" lon="5.59795">
        <ele>1750.4</ele>
        <time>2011-01-29T14:44:14Z</time>
      </trkpt>
      <trkpt lat="45.05218" lon="5.59795">
        <ele>1750</ele>
        <time>2011-01-29T14:44:15Z</time>
      </trkpt>
      <trkpt lat="45.05216" lon="5.59797">
        <ele>1749.4</ele>
        <time>2011-01-29T14:44:18Z</time>
      </trkpt>
      <trkpt lat="45.05213" lon="5.59799">
        <ele>1748.6</ele>
        <time>2011-01-29T14:44:21Z</time>
      </trkpt>
      <trkpt lat="45.05209" lon="5.59801">
        <ele>1747.8</ele>
        <time>2011-01-29T14:44:24Z</time>
      </trkpt>
      <trkpt lat="45.05207" lon="5.59801">
        <ele>1747.4</ele>
        <time>2011-01-29T14:44:26Z</time>
      </trkpt>
      <trkpt lat="45.05203" lon="5.59802">
        <ele>1746.6</ele>
        <time>2011-01-29T14:44:29Z</time>
      </trkpt>
      <trkpt lat="45.05201" lon="5.59802">
        <ele>1746.2</ele>
        <time>2011-01-29T14:44:31Z</time>
      </trkpt>
      <trkpt lat="45.05198" lon="5.59803">
        <ele>1745.4</ele>
        <time>2011-01-29T14:44:34Z</time>
      </trkpt>
      <trkpt lat="45.05197" lon="5.59804">
        <ele>1745.2</ele>
        <time>2011-01-29T14:44:35Z</time>
      </trkpt>
      <trkpt lat="45.05191" lon="5.59806">
        <ele>1743.8</ele>
        <time>2011-01-29T14:44:40Z</time>
      </trkpt>
      <trkpt lat="45.05187" lon="5.59811">
        <ele>1742.8</ele>
        <time>2011-01-29T14:44:44Z</time>
      </trkpt>
      <trkpt lat="45.05186" lon="5.59811">
        <ele>1742.4</ele>
        <time>2011-01-29T14:44:45Z</time>
      </trkpt>
      <trkpt lat="45.05184" lon="5.59811">
        <ele>1742</ele>
        <time>2011-01-29T14:44:47Z</time>
      </trkpt>
      <trkpt lat="45.0518" lon="5.59813">
        <ele>1740.8</ele>
        <time>2011-01-29T14:44:51Z</time>
      </trkpt>
      <trkpt lat="45.05178" lon="5.59813">
        <ele>1740.4</ele>
        <time>2011-01-29T14:44:53Z</time>
      </trkpt>
      <trkpt lat="45.05175" lon="5.59814">
        <ele>1739.6</ele>
        <time>2011-01-29T14:44:56Z</time>
      </trkpt>
      <trkpt lat="45.05175" lon="5.59814">
        <ele>1739.2</ele>
        <time>2011-01-29T14:44:57Z</time>
      </trkpt>
      <trkpt lat="45.05174" lon="5.59815">
        <ele>1739</ele>
        <time>2011-01-29T14:44:58Z</time>
      </trkpt>
      <trkpt lat="45.05169" lon="5.59818">
        <ele>1737.6</ele>
        <time>2011-01-29T14:45:03Z</time>
      </trkpt>
      <trkpt lat="45.05166" lon="5.59819">
        <ele>1737</ele>
        <time>2011-01-29T14:45:05Z</time>
      </trkpt>
      <trkpt lat="45.0516" lon="5.5982">
        <ele>1735.8</ele>
        <time>2011-01-29T14:45:09Z</time>
      </trkpt>
      <trkpt lat="45.05158" lon="5.59821">
        <ele>1735.4</ele>
        <time>2011-01-29T14:45:11Z</time>
      </trkpt>
      <trkpt lat="45.05156" lon="5.59822">
        <ele>1734.4</ele>
        <time>2011-01-29T14:45:14Z</time>
      </trkpt>
      <trkpt lat="45.05148" lon="5.59826">
        <ele>1733.2</ele>
        <time>2011-01-29T14:45:18Z</time>
      </trkpt>
      <trkpt lat="45.05144" lon="5.59829">
        <ele>1732.6</ele>
        <time>2011-01-29T14:45:20Z</time>
      </trkpt>
      <trkpt lat="45.05138" lon="5.59835">
        <ele>1730.8</ele>
        <time>2011-01-29T14:45:26Z</time>
      </trkpt>
      <trkpt lat="45.05131" lon="5.59836">
        <ele>1729</ele>
        <time>2011-01-29T14:45:32Z</time>
      </trkpt>
      <trkpt lat="45.05129" lon="5.59836">
        <ele>1728.8</ele>
        <time>2011-01-29T14:45:33Z</time>
      </trkpt>
      <trkpt lat="45.05125" lon="5.59838">
        <ele>1727.2</ele>
        <time>2011-01-29T14:45:38Z</time>
      </trkpt>
      <trkpt lat="45.0512" lon="5.5984">
        <ele>1725.4</ele>
        <time>2011-01-29T14:45:44Z</time>
      </trkpt>
      <trkpt lat="45.05113" lon="5.59842">
        <ele>1723.4</ele>
        <time>2011-01-29T14:45:51Z</time>
      </trkpt>
      <trkpt lat="45.05112" lon="5.59842">
        <ele>1723.2</ele>
        <time>2011-01-29T14:45:52Z</time>
      </trkpt>
      <trkpt lat="45.05106" lon="5.59844">
        <ele>1721.6</ele>
        <time>2011-01-29T14:45:57Z</time>
      </trkpt>
      <trkpt lat="45.05102" lon="5.59846">
        <ele>1720</ele>
        <time>2011-01-29T14:46:03Z</time>
      </trkpt>
      <trkpt lat="45.05099" lon="5.59848">
        <ele>1718</ele>
        <time>2011-01-29T14:46:10Z</time>
      </trkpt>
      <trkpt lat="45.05097" lon="5.59849">
        <ele>1716.6</ele>
        <time>2011-01-29T14:46:15Z</time>
      </trkpt>
      <trkpt lat="45.05095" lon="5.5985">
        <ele>1716</ele>
        <time>2011-01-29T14:46:17Z</time>
      </trkpt>
      <trkpt lat="45.0509" lon="5.59852">
        <ele>1714.4</ele>
        <time>2011-01-29T14:46:23Z</time>
      </trkpt>
      <trkpt lat="45.05081" lon="5.59855">
        <ele>1712.2</ele>
        <time>2011-01-29T14:46:31Z</time>
      </trkpt>
      <trkpt lat="45.05077" lon="5.59856">
        <ele>1711.4</ele>
        <time>2011-01-29T14:46:34Z</time>
      </trkpt>
      <trkpt lat="45.05074" lon="5.59857">
        <ele>1710.6</ele>
        <time>2011-01-29T14:46:37Z</time>
      </trkpt>
      <trkpt lat="45.05066" lon="5.59859">
        <ele>1708.6</ele>
        <time>2011-01-29T14:46:45Z</time>
      </trkpt>
      <trkpt lat="45.05061" lon="5.59861">
        <ele>1707.2</ele>
        <time>2011-01-29T14:46:51Z</time>
      </trkpt>
      <trkpt lat="45.05059" lon="5.59862">
        <ele>1706.6</ele>
        <time>2011-01-29T14:46:53Z</time>
      </trkpt>
      <trkpt lat="45.05053" lon="5.59865">
        <ele>1705.2</ele>
        <time>2011-01-29T14:46:59Z</time>
      </trkpt>
      <trkpt lat="45.05048" lon="5.59865">
        <ele>1704.2</ele>
        <time>2011-01-29T14:47:04Z</time>
      </trkpt>
      <trkpt lat="45.05041" lon="5.59867">
        <ele>1703</ele>
        <time>2011-01-29T14:47:10Z</time>
      </trkpt>
      <trkpt lat="45.0504" lon="5.59867">
        <ele>1702.8</ele>
        <time>2011-01-29T14:47:11Z</time>
      </trkpt>
      <trkpt lat="45.05035" lon="5.59868">
        <ele>1701.8</ele>
        <time>2011-01-29T14:47:16Z</time>
      </trkpt>
      <trkpt lat="45.05029" lon="5.5987">
        <ele>1700.6</ele>
        <time>2011-01-29T14:47:22Z</time>
      </trkpt>
      <trkpt lat="45.05025" lon="5.59871">
        <ele>1699.4</ele>
        <time>2011-01-29T14:47:28Z</time>
      </trkpt>
      <trkpt lat="45.05023" lon="5.59872">
        <ele>1699</ele>
        <time>2011-01-29T14:47:30Z</time>
      </trkpt>
      <trkpt lat="45.0502" lon="5.59873">
        <ele>1698.2</ele>
        <time>2011-01-29T14:47:35Z</time>
      </trkpt>
      <trkpt lat="45.05016" lon="5.59877">
        <ele>1697</ele>
        <time>2011-01-29T14:47:41Z</time>
      </trkpt>
      <trkpt lat="45.05013" lon="5.5988">
        <ele>1696.2</ele>
        <time>2011-01-29T14:47:46Z</time>
      </trkpt>
      <trkpt lat="45.05006" lon="5.59882">
        <ele>1695.2</ele>
        <time>2011-01-29T14:47:52Z</time>
      </trkpt>
      <trkpt lat="45.05005" lon="5.59882">
        <ele>1695</ele>
        <time>2011-01-29T14:47:53Z</time>
      </trkpt>
      <trkpt lat="45.04996" lon="5.59886">
        <ele>1693.6</ele>
        <time>2011-01-29T14:48:01Z</time>
      </trkpt>
      <trkpt lat="45.0499" lon="5.5989">
        <ele>1692.6</ele>
        <time>2011-01-29T14:48:07Z</time>
      </trkpt>
      <trkpt lat="45.0499" lon="5.5989">
        <ele>1692.4</ele>
        <time>2011-01-29T14:48:08Z</time>
      </trkpt>
      <trkpt lat="45.04981" lon="5.59896">
        <ele>1691.4</ele>
        <time>2011-01-29T14:48:15Z</time>
      </trkpt>
      <trkpt lat="45.04976" lon="5.59902">
        <ele>1690</ele>
        <time>2011-01-29T14:48:22Z</time>
      </trkpt>
      <trkpt lat="45.04974" lon="5.59905">
        <ele>1689.4</ele>
        <time>2011-01-29T14:48:26Z</time>
      </trkpt>
      <trkpt lat="45.04972" lon="5.59907">
        <ele>1688.8</ele>
        <time>2011-01-29T14:48:29Z</time>
      </trkpt>
      <trkpt lat="45.04971" lon="5.59908">
        <ele>1688.6</ele>
        <time>2011-01-29T14:48:30Z</time>
      </trkpt>
      <trkpt lat="45.04967" lon="5.59911">
        <ele>1687.4</ele>
        <time>2011-01-29T14:48:36Z</time>
      </trkpt>
      <trkpt lat="45.04961" lon="5.59916">
        <ele>1686</ele>
        <time>2011-01-29T14:48:43Z</time>
      </trkpt>
      <trkpt lat="45.04958" lon="5.59918">
        <ele>1685.2</ele>
        <time>2011-01-29T14:48:47Z</time>
      </trkpt>
      <trkpt lat="45.04958" lon="5.59918">
        <ele>1684.8</ele>
        <time>2011-01-29T14:48:49Z</time>
      </trkpt>
      <trkpt lat="45.04954" lon="5.59922">
        <ele>1683</ele>
        <time>2011-01-29T14:49:00Z</time>
      </trkpt>
      <trkpt lat="45.04948" lon="5.59926">
        <ele>1681.8</ele>
        <time>2011-01-29T14:49:06Z</time>
      </trkpt>
      <trkpt lat="45.04941" lon="5.5993">
        <ele>1680.8</ele>
        <time>2011-01-29T14:49:12Z</time>
      </trkpt>
      <trkpt lat="45.04936" lon="5.59934">
        <ele>1679.6</ele>
        <time>2011-01-29T14:49:18Z</time>
      </trkpt>
      <trkpt lat="45.04929" lon="5.5994">
        <ele>1678.4</ele>
        <time>2011-01-29T14:49:25Z</time>
      </trkpt>
      <trkpt lat="45.04926" lon="5.59943">
        <ele>1677.6</ele>
        <time>2011-01-29T14:49:29Z</time>
      </trkpt>
      <trkpt lat="45.04924" lon="5.59944">
        <ele>1677.2</ele>
        <time>2011-01-29T14:49:31Z</time>
      </trkpt>
      <trkpt lat="45.04918" lon="5.59948">
        <ele>1676</ele>
        <time>2011-01-29T14:49:37Z</time>
      </trkpt>
      <trkpt lat="45.04913" lon="5.59949">
        <ele>1675</ele>
        <time>2011-01-29T14:49:42Z</time>
      </trkpt>
      <trkpt lat="45.04913" lon="5.5995">
        <ele>1674.8</ele>
        <time>2011-01-29T14:49:43Z</time>
      </trkpt>
      <trkpt lat="45.04908" lon="5.59951">
        <ele>1674</ele>
        <time>2011-01-29T14:49:48Z</time>
      </trkpt>
      <trkpt lat="45.04907" lon="5.59952">
        <ele>1673.6</ele>
        <time>2011-01-29T14:49:50Z</time>
      </trkpt>
      <trkpt lat="45.04904" lon="5.59955">
        <ele>1673</ele>
        <time>2011-01-29T14:49:54Z</time>
      </trkpt>
      <trkpt lat="45.04899" lon="5.59957">
        <ele>1672</ele>
        <time>2011-01-29T14:50:00Z</time>
      </trkpt>
      <trkpt lat="45.04896" lon="5.59962">
        <ele>1671.2</ele>
        <time>2011-01-29T14:50:04Z</time>
      </trkpt>
      <trkpt lat="45.04894" lon="5.59963">
        <ele>1671</ele>
        <time>2011-01-29T14:50:05Z</time>
      </trkpt>
      <trkpt lat="45.04893" lon="5.59964">
        <ele>1670.8</ele>
        <time>2011-01-29T14:50:06Z</time>
      </trkpt>
      <trkpt lat="45.04886" lon="5.59965">
        <ele>1670</ele>
        <time>2011-01-29T14:50:11Z</time>
      </trkpt>
      <trkpt lat="45.04881" lon="5.59967">
        <ele>1669</ele>
        <time>2011-01-29T14:50:17Z</time>
      </trkpt>
      <trkpt lat="45.04875" lon="5.59971">
        <ele>1667.8</ele>
        <time>2011-01-29T14:50:23Z</time>
      </trkpt>
      <trkpt lat="45.0487" lon="5.59981">
        <ele>1666.4</ele>
        <time>2011-01-29T14:50:30Z</time>
      </trkpt>
      <trkpt lat="45.04865" lon="5.59991">
        <ele>1665.4</ele>
        <time>2011-01-29T14:50:35Z</time>
      </trkpt>
      <trkpt lat="45.04864" lon="5.59992">
        <ele>1665.2</ele>
        <time>2011-01-29T14:50:36Z</time>
      </trkpt>
      <trkpt lat="45.0486" lon="5.6">
        <ele>1664.2</ele>
        <time>2011-01-29T14:50:40Z</time>
      </trkpt>
      <trkpt lat="45.04854" lon="5.60006">
        <ele>1663</ele>
        <time>2011-01-29T14:50:45Z</time>
      </trkpt>
      <trkpt lat="45.04849" lon="5.6001">
        <ele>1662.2</ele>
        <time>2011-01-29T14:50:48Z</time>
      </trkpt>
      <trkpt lat="45.04843" lon="5.60015">
        <ele>1661</ele>
        <time>2011-01-29T14:50:53Z</time>
      </trkpt>
      <trkpt lat="45.04835" lon="5.60022">
        <ele>1659.4</ele>
        <time>2011-01-29T14:50:59Z</time>
      </trkpt>
      <trkpt lat="45.04833" lon="5.60024">
        <ele>1659</ele>
        <time>2011-01-29T14:51:01Z</time>
      </trkpt>
      <trkpt lat="45.04827" lon="5.60025">
        <ele>1657.8</ele>
        <time>2011-01-29T14:51:06Z</time>
      </trkpt>
      <trkpt lat="45.04818" lon="5.60028">
        <ele>1656.6</ele>
        <time>2011-01-29T14:51:11Z</time>
      </trkpt>
      <trkpt lat="45.04817" lon="5.60027">
        <ele>1655.4</ele>
        <time>2011-01-29T14:51:16Z</time>
      </trkpt>
      <trkpt lat="45.04817" lon="5.60027">
        <ele>1652.4</ele>
        <time>2011-01-29T14:51:30Z</time>
      </trkpt>
      <trkpt lat="45.04815" lon="5.60028">
        <ele>1642.2</ele>
        <time>2011-01-29T14:52:30Z</time>
      </trkpt>
      <trkpt lat="45.04814" lon="5.6003">
        <ele>1640.2</ele>
        <time>2011-01-29T14:52:49Z</time>
      </trkpt>
      <trkpt lat="45.04812" lon="5.6003">
        <ele>1637.6</ele>
        <time>2011-01-29T14:53:31Z</time>
      </trkpt>
      <trkpt lat="45.04811" lon="5.6003">
        <ele>1637.2</ele>
        <time>2011-01-29T14:53:35Z</time>
      </trkpt>
      <trkpt lat="45.04811" lon="5.6003">
        <ele>1634.4</ele>
        <time>2011-01-29T14:54:13Z</time>
      </trkpt>
      <trkpt lat="45.04809" lon="5.60031">
        <ele>1634.2</ele>
        <time>2011-01-29T14:54:15Z</time>
      </trkpt>
      <trkpt lat="45.04808" lon="5.60031">
        <ele>1634</ele>
        <time>2011-01-29T14:54:17Z</time>
      </trkpt>
      <trkpt lat="45.04807" lon="5.6003">
        <ele>1634</ele>
        <time>2011-01-29T14:54:18Z</time>
      </trkpt>
      <trkpt lat="45.04801" lon="5.60032">
        <ele>1633.8</ele>
        <time>2011-01-29T14:54:22Z</time>
      </trkpt>
      <trkpt lat="45.04798" lon="5.60033">
        <ele>1633.6</ele>
        <time>2011-01-29T14:54:24Z</time>
      </trkpt>
      <trkpt lat="45.04796" lon="5.60034">
        <ele>1633.4</ele>
        <time>2011-01-29T14:54:27Z</time>
      </trkpt>
      <trkpt lat="45.04791" lon="5.60035">
        <ele>1633</ele>
        <time>2011-01-29T14:54:33Z</time>
      </trkpt>
      <trkpt lat="45.04789" lon="5.60036">
        <ele>1632.8</ele>
        <time>2011-01-29T14:54:35Z</time>
      </trkpt>
      <trkpt lat="45.04784" lon="5.60036">
        <ele>1632.6</ele>
        <time>2011-01-29T14:54:38Z</time>
      </trkpt>
      <trkpt lat="45.04774" lon="5.60034">
        <ele>1632.2</ele>
        <time>2011-01-29T14:54:43Z</time>
      </trkpt>
      <trkpt lat="45.0477" lon="5.60033">
        <ele>1632</ele>
        <time>2011-01-29T14:54:45Z</time>
      </trkpt>
      <trkpt lat="45.04761" lon="5.60031">
        <ele>1631.8</ele>
        <time>2011-01-29T14:54:49Z</time>
      </trkpt>
      <trkpt lat="45.04752" lon="5.60029">
        <ele>1631.4</ele>
        <time>2011-01-29T14:54:53Z</time>
      </trkpt>
      <trkpt lat="45.04747" lon="5.60028">
        <ele>1631.2</ele>
        <time>2011-01-29T14:54:55Z</time>
      </trkpt>
      <trkpt lat="45.04736" lon="5.60028">
        <ele>1630.8</ele>
        <time>2011-01-29T14:55:00Z</time>
      </trkpt>
      <trkpt lat="45.04732" lon="5.60029">
        <ele>1630.6</ele>
        <time>2011-01-29T14:55:02Z</time>
      </trkpt>
      <trkpt lat="45.04725" lon="5.60028">
        <ele>1630.4</ele>
        <time>2011-01-29T14:55:05Z</time>
      </trkpt>
      <trkpt lat="45.04713" lon="5.60021">
        <ele>1629.8</ele>
        <time>2011-01-29T14:55:11Z</time>
      </trkpt>
      <trkpt lat="45.04701" lon="5.60016">
        <ele>1629.2</ele>
        <time>2011-01-29T14:55:17Z</time>
      </trkpt>
      <trkpt lat="45.04695" lon="5.60016">
        <ele>1628.8</ele>
        <time>2011-01-29T14:55:22Z</time>
      </trkpt>
      <trkpt lat="45.04694" lon="5.60016">
        <ele>1628.8</ele>
        <time>2011-01-29T14:55:23Z</time>
      </trkpt>
      <trkpt lat="45.04691" lon="5.60017">
        <ele>1628.6</ele>
        <time>2011-01-29T14:55:25Z</time>
      </trkpt>
      <trkpt lat="45.04686" lon="5.6002">
        <ele>1628.4</ele>
        <time>2011-01-29T14:55:29Z</time>
      </trkpt>
      <trkpt lat="45.04679" lon="5.60025">
        <ele>1628</ele>
        <time>2011-01-29T14:55:35Z</time>
      </trkpt>
      <trkpt lat="45.04677" lon="5.60026">
        <ele>1627.8</ele>
        <time>2011-01-29T14:55:36Z</time>
      </trkpt>
      <trkpt lat="45.04671" lon="5.60029">
        <ele>1627.6</ele>
        <time>2011-01-29T14:55:39Z</time>
      </trkpt>
      <trkpt lat="45.04659" lon="5.60025">
        <ele>1627.2</ele>
        <time>2011-01-29T14:55:44Z</time>
      </trkpt>
      <trkpt lat="45.04657" lon="5.60023">
        <ele>1627.2</ele>
        <time>2011-01-29T14:55:45Z</time>
      </trkpt>
      <trkpt lat="45.04649" lon="5.60017">
        <ele>1626.8</ele>
        <time>2011-01-29T14:55:50Z</time>
      </trkpt>
      <trkpt lat="45.04643" lon="5.60014">
        <ele>1626.6</ele>
        <time>2011-01-29T14:55:55Z</time>
      </trkpt>
      <trkpt lat="45.04642" lon="5.60014">
        <ele>1626.6</ele>
        <time>2011-01-29T14:55:56Z</time>
      </trkpt>
      <trkpt lat="45.04632" lon="5.6001">
        <ele>1626</ele>
        <time>2011-01-29T14:56:03Z</time>
      </trkpt>
      <trkpt lat="45.04625" lon="5.60009">
        <ele>1625.8</ele>
        <time>2011-01-29T14:56:08Z</time>
      </trkpt>
      <trkpt lat="45.04623" lon="5.6001">
        <ele>1625.6</ele>
        <time>2011-01-29T14:56:10Z</time>
      </trkpt>
      <trkpt lat="45.04618" lon="5.60012">
        <ele>1625.2</ele>
        <time>2011-01-29T14:56:14Z</time>
      </trkpt>
      <trkpt lat="45.04614" lon="5.60014">
        <ele>1625</ele>
        <time>2011-01-29T14:56:17Z</time>
      </trkpt>
      <trkpt lat="45.04611" lon="5.60013">
        <ele>1624.8</ele>
        <time>2011-01-29T14:56:19Z</time>
      </trkpt>
      <trkpt lat="45.04605" lon="5.60012">
        <ele>1624.6</ele>
        <time>2011-01-29T14:56:24Z</time>
      </trkpt>
      <trkpt lat="45.04603" lon="5.60012">
        <ele>1624.4</ele>
        <time>2011-01-29T14:56:25Z</time>
      </trkpt>
      <trkpt lat="45.04601" lon="5.60011">
        <ele>1624.4</ele>
        <time>2011-01-29T14:56:27Z</time>
      </trkpt>
      <trkpt lat="45.04597" lon="5.60011">
        <ele>1624.2</ele>
        <time>2011-01-29T14:56:30Z</time>
      </trkpt>
      <trkpt lat="45.04595" lon="5.60011">
        <ele>1624</ele>
        <time>2011-01-29T14:56:32Z</time>
      </trkpt>
      <trkpt lat="45.04591" lon="5.60011">
        <ele>1624</ele>
        <time>2011-01-29T14:56:35Z</time>
      </trkpt>
      <trkpt lat="45.04586" lon="5.60011">
        <ele>1623.8</ele>
        <time>2011-01-29T14:56:39Z</time>
      </trkpt>
      <trkpt lat="45.04583" lon="5.6001">
        <ele>1623.6</ele>
        <time>2011-01-29T14:56:41Z</time>
      </trkpt>
      <trkpt lat="45.04577" lon="5.6001">
        <ele>1623.4</ele>
        <time>2011-01-29T14:56:46Z</time>
      </trkpt>
      <trkpt lat="45.04575" lon="5.60011">
        <ele>1623.2</ele>
        <time>2011-01-29T14:56:48Z</time>
      </trkpt>
      <trkpt lat="45.04567" lon="5.60014">
        <ele>1623</ele>
        <time>2011-01-29T14:56:54Z</time>
      </trkpt>
      <trkpt lat="45.04563" lon="5.60016">
        <ele>1622.8</ele>
        <time>2011-01-29T14:56:56Z</time>
      </trkpt>
      <trkpt lat="45.04555" lon="5.60017">
        <ele>1622.6</ele>
        <time>2011-01-29T14:57:02Z</time>
      </trkpt>
      <trkpt lat="45.04548" lon="5.60018">
        <ele>1622.4</ele>
        <time>2011-01-29T14:57:07Z</time>
      </trkpt>
      <trkpt lat="45.04545" lon="5.60018">
        <ele>1622.2</ele>
        <time>2011-01-29T14:57:09Z</time>
      </trkpt>
      <trkpt lat="45.04542" lon="5.60019">
        <ele>1622</ele>
        <time>2011-01-29T14:57:12Z</time>
      </trkpt>
      <trkpt lat="45.04539" lon="5.60022">
        <ele>1621.8</ele>
        <time>2011-01-29T14:57:15Z</time>
      </trkpt>
      <trkpt lat="45.04533" lon="5.60027">
        <ele>1621.6</ele>
        <time>2011-01-29T14:57:20Z</time>
      </trkpt>
      <trkpt lat="45.04531" lon="5.60028">
        <ele>1621.4</ele>
        <time>2011-01-29T14:57:21Z</time>
      </trkpt>
      <trkpt lat="45.04527" lon="5.60032">
        <ele>1621.2</ele>
        <time>2011-01-29T14:57:25Z</time>
      </trkpt>
      <trkpt lat="45.04526" lon="5.60033">
        <ele>1621.2</ele>
        <time>2011-01-29T14:57:26Z</time>
      </trkpt>
      <trkpt lat="45.04521" lon="5.6004">
        <ele>1621</ele>
        <time>2011-01-29T14:57:31Z</time>
      </trkpt>
      <trkpt lat="45.04516" lon="5.60044">
        <ele>1620.8</ele>
        <time>2011-01-29T14:57:35Z</time>
      </trkpt>
      <trkpt lat="45.04512" lon="5.60047">
        <ele>1620.6</ele>
        <time>2011-01-29T14:57:38Z</time>
      </trkpt>
      <trkpt lat="45.04504" lon="5.60053">
        <ele>1620.2</ele>
        <time>2011-01-29T14:57:45Z</time>
      </trkpt>
      <trkpt lat="45.04502" lon="5.60054">
        <ele>1620</ele>
        <time>2011-01-29T14:57:47Z</time>
      </trkpt>
      <trkpt lat="45.04499" lon="5.60057">
        <ele>1619.8</ele>
        <time>2011-01-29T14:57:50Z</time>
      </trkpt>
      <trkpt lat="45.04498" lon="5.60058">
        <ele>1619.8</ele>
        <time>2011-01-29T14:57:51Z</time>
      </trkpt>
      <trkpt lat="45.04492" lon="5.6006">
        <ele>1619.4</ele>
        <time>2011-01-29T14:57:56Z</time>
      </trkpt>
      <trkpt lat="45.04483" lon="5.6006">
        <ele>1618.6</ele>
        <time>2011-01-29T14:58:04Z</time>
      </trkpt>
      <trkpt lat="45.04481" lon="5.60059">
        <ele>1618.4</ele>
        <time>2011-01-29T14:58:06Z</time>
      </trkpt>
      <trkpt lat="45.04474" lon="5.6006">
        <ele>1618</ele>
        <time>2011-01-29T14:58:12Z</time>
      </trkpt>
      <trkpt lat="45.04465" lon="5.6006">
        <ele>1617.2</ele>
        <time>2011-01-29T14:58:20Z</time>
      </trkpt>
      <trkpt lat="45.04462" lon="5.6006">
        <ele>1617</ele>
        <time>2011-01-29T14:58:22Z</time>
      </trkpt>
      <trkpt lat="45.04457" lon="5.60061">
        <ele>1616.6</ele>
        <time>2011-01-29T14:58:27Z</time>
      </trkpt>
      <trkpt lat="45.04444" lon="5.60063">
        <ele>1616.2</ele>
        <time>2011-01-29T14:58:32Z</time>
      </trkpt>
      <trkpt lat="45.04432" lon="5.60061">
        <ele>1615.6</ele>
        <time>2011-01-29T14:58:37Z</time>
      </trkpt>
      <trkpt lat="45.04424" lon="5.60061">
        <ele>1615.4</ele>
        <time>2011-01-29T14:58:40Z</time>
      </trkpt>
      <trkpt lat="45.04419" lon="5.6006">
        <ele>1615.2</ele>
        <time>2011-01-29T14:58:42Z</time>
      </trkpt>
      <trkpt lat="45.04405" lon="5.60063">
        <ele>1614.6</ele>
        <time>2011-01-29T14:58:48Z</time>
      </trkpt>
      <trkpt lat="45.04402" lon="5.60063">
        <ele>1614.6</ele>
        <time>2011-01-29T14:58:49Z</time>
      </trkpt>
      <trkpt lat="45.04388" lon="5.60063">
        <ele>1614</ele>
        <time>2011-01-29T14:58:55Z</time>
      </trkpt>
      <trkpt lat="45.04385" lon="5.60062">
        <ele>1614</ele>
        <time>2011-01-29T14:58:56Z</time>
      </trkpt>
      <trkpt lat="45.04376" lon="5.60059">
        <ele>1613.6</ele>
        <time>2011-01-29T14:59:01Z</time>
      </trkpt>
      <trkpt lat="45.0437" lon="5.60058">
        <ele>1613.2</ele>
        <time>2011-01-29T14:59:06Z</time>
      </trkpt>
      <trkpt lat="45.04369" lon="5.60058">
        <ele>1613</ele>
        <time>2011-01-29T14:59:08Z</time>
      </trkpt>
      <trkpt lat="45.04367" lon="5.60058">
        <ele>1612.8</ele>
        <time>2011-01-29T14:59:11Z</time>
      </trkpt>
      <trkpt lat="45.04364" lon="5.60058">
        <ele>1612.6</ele>
        <time>2011-01-29T14:59:14Z</time>
      </trkpt>
      <trkpt lat="45.04357" lon="5.60057">
        <ele>1612</ele>
        <time>2011-01-29T14:59:20Z</time>
      </trkpt>
      <trkpt lat="45.04349" lon="5.60058">
        <ele>1611.2</ele>
        <time>2011-01-29T14:59:27Z</time>
      </trkpt>
      <trkpt lat="45.04343" lon="5.60056">
        <ele>1610.4</ele>
        <time>2011-01-29T14:59:33Z</time>
      </trkpt>
      <trkpt lat="45.04332" lon="5.60052">
        <ele>1609.8</ele>
        <time>2011-01-29T14:59:39Z</time>
      </trkpt>
      <trkpt lat="45.04318" lon="5.60052">
        <ele>1609</ele>
        <time>2011-01-29T14:59:45Z</time>
      </trkpt>
      <trkpt lat="45.04314" lon="5.60053">
        <ele>1608.8</ele>
        <time>2011-01-29T14:59:47Z</time>
      </trkpt>
      <trkpt lat="45.04307" lon="5.60051">
        <ele>1608.4</ele>
        <time>2011-01-29T14:59:50Z</time>
      </trkpt>
      <trkpt lat="45.04294" lon="5.60053">
        <ele>1607.8</ele>
        <time>2011-01-29T14:59:55Z</time>
      </trkpt>
      <trkpt lat="45.04293" lon="5.60053">
        <ele>1607.8</ele>
        <time>2011-01-29T14:59:56Z</time>
      </trkpt>
      <trkpt lat="45.04287" lon="5.60057">
        <ele>1607.2</ele>
        <time>2011-01-29T15:00:00Z</time>
      </trkpt>
      <trkpt lat="45.04286" lon="5.60057">
        <ele>1607</ele>
        <time>2011-01-29T15:00:01Z</time>
      </trkpt>
      <trkpt lat="45.0428" lon="5.60056">
        <ele>1606.8</ele>
        <time>2011-01-29T15:00:04Z</time>
      </trkpt>
      <trkpt lat="45.04275" lon="5.60057">
        <ele>1606.6</ele>
        <time>2011-01-29T15:00:06Z</time>
      </trkpt>
      <trkpt lat="45.04271" lon="5.60056">
        <ele>1606.4</ele>
        <time>2011-01-29T15:00:08Z</time>
      </trkpt>
      <trkpt lat="45.04268" lon="5.60056">
        <ele>1606.2</ele>
        <time>2011-01-29T15:00:09Z</time>
      </trkpt>
      <trkpt lat="45.04258" lon="5.60055">
        <ele>1605.8</ele>
        <time>2011-01-29T15:00:14Z</time>
      </trkpt>
      <trkpt lat="45.04256" lon="5.60055">
        <ele>1605.8</ele>
        <time>2011-01-29T15:00:15Z</time>
      </trkpt>
      <trkpt lat="45.04246" lon="5.60054">
        <ele>1605.4</ele>
        <time>2011-01-29T15:00:20Z</time>
      </trkpt>
      <trkpt lat="45.04239" lon="5.60052">
        <ele>1604.8</ele>
        <time>2011-01-29T15:00:26Z</time>
      </trkpt>
      <trkpt lat="45.04238" lon="5.60052">
        <ele>1604.6</ele>
        <time>2011-01-29T15:00:27Z</time>
      </trkpt>
      <trkpt lat="45.04231" lon="5.60051">
        <ele>1604.2</ele>
        <time>2011-01-29T15:00:32Z</time>
      </trkpt>
      <trkpt lat="45.04225" lon="5.60051">
        <ele>1603.6</ele>
        <time>2011-01-29T15:00:38Z</time>
      </trkpt>
      <trkpt lat="45.04219" lon="5.60051">
        <ele>1603.2</ele>
        <time>2011-01-29T15:00:42Z</time>
      </trkpt>
      <trkpt lat="45.04214" lon="5.60052">
        <ele>1602.8</ele>
        <time>2011-01-29T15:00:45Z</time>
      </trkpt>
      <trkpt lat="45.04202" lon="5.60052">
        <ele>1602.2</ele>
        <time>2011-01-29T15:00:50Z</time>
      </trkpt>
      <trkpt lat="45.04199" lon="5.60052">
        <ele>1602</ele>
        <time>2011-01-29T15:00:51Z</time>
      </trkpt>
      <trkpt lat="45.0419" lon="5.60052">
        <ele>1601.6</ele>
        <time>2011-01-29T15:00:55Z</time>
      </trkpt>
      <trkpt lat="45.0418" lon="5.60049">
        <ele>1600.8</ele>
        <time>2011-01-29T15:01:00Z</time>
      </trkpt>
      <trkpt lat="45.04178" lon="5.60048">
        <ele>1600.6</ele>
        <time>2011-01-29T15:01:01Z</time>
      </trkpt>
      <trkpt lat="45.04165" lon="5.60048">
        <ele>1599.6</ele>
        <time>2011-01-29T15:01:07Z</time>
      </trkpt>
      <trkpt lat="45.04161" lon="5.60049">
        <ele>1599.2</ele>
        <time>2011-01-29T15:01:09Z</time>
      </trkpt>
      <trkpt lat="45.04151" lon="5.60049">
        <ele>1598.6</ele>
        <time>2011-01-29T15:01:13Z</time>
      </trkpt>
      <trkpt lat="45.04141" lon="5.60046">
        <ele>1597.8</ele>
        <time>2011-01-29T15:01:17Z</time>
      </trkpt>
      <trkpt lat="45.04136" lon="5.60045">
        <ele>1597.6</ele>
        <time>2011-01-29T15:01:19Z</time>
      </trkpt>
      <trkpt lat="45.04128" lon="5.60044">
        <ele>1597</ele>
        <time>2011-01-29T15:01:23Z</time>
      </trkpt>
      <trkpt lat="45.04125" lon="5.60044">
        <ele>1596.8</ele>
        <time>2011-01-29T15:01:25Z</time>
      </trkpt>
      <trkpt lat="45.04121" lon="5.60044">
        <ele>1596.6</ele>
        <time>2011-01-29T15:01:28Z</time>
      </trkpt>
      <trkpt lat="45.04116" lon="5.60043">
        <ele>1596.2</ele>
        <time>2011-01-29T15:01:31Z</time>
      </trkpt>
      <trkpt lat="45.04104" lon="5.6004">
        <ele>1595.4</ele>
        <time>2011-01-29T15:01:37Z</time>
      </trkpt>
      <trkpt lat="45.04102" lon="5.60039">
        <ele>1595.2</ele>
        <time>2011-01-29T15:01:38Z</time>
      </trkpt>
      <trkpt lat="45.04098" lon="5.60037">
        <ele>1594.8</ele>
        <time>2011-01-29T15:01:41Z</time>
      </trkpt>
      <trkpt lat="45.04096" lon="5.60037">
        <ele>1594.8</ele>
        <time>2011-01-29T15:01:42Z</time>
      </trkpt>
      <trkpt lat="45.04088" lon="5.60033">
        <ele>1594</ele>
        <time>2011-01-29T15:01:47Z</time>
      </trkpt>
      <trkpt lat="45.04084" lon="5.60031">
        <ele>1593.6</ele>
        <time>2011-01-29T15:01:50Z</time>
      </trkpt>
      <trkpt lat="45.04079" lon="5.6003">
        <ele>1593.2</ele>
        <time>2011-01-29T15:01:53Z</time>
      </trkpt>
      <trkpt lat="45.04078" lon="5.60029">
        <ele>1593</ele>
        <time>2011-01-29T15:01:54Z</time>
      </trkpt>
      <trkpt lat="45.04072" lon="5.60026">
        <ele>1592.2</ele>
        <time>2011-01-29T15:01:58Z</time>
      </trkpt>
      <trkpt lat="45.04065" lon="5.60025">
        <ele>1591.8</ele>
        <time>2011-01-29T15:02:01Z</time>
      </trkpt>
      <trkpt lat="45.0406" lon="5.60025">
        <ele>1591.2</ele>
        <time>2011-01-29T15:02:04Z</time>
      </trkpt>
      <trkpt lat="45.0405" lon="5.6003">
        <ele>1590.2</ele>
        <time>2011-01-29T15:02:09Z</time>
      </trkpt>
      <trkpt lat="45.04048" lon="5.60032">
        <ele>1590</ele>
        <time>2011-01-29T15:02:10Z</time>
      </trkpt>
      <trkpt lat="45.04038" lon="5.60037">
        <ele>1589.2</ele>
        <time>2011-01-29T15:02:15Z</time>
      </trkpt>
      <trkpt lat="45.0403" lon="5.60033">
        <ele>1588.2</ele>
        <time>2011-01-29T15:02:21Z</time>
      </trkpt>
      <trkpt lat="45.04023" lon="5.60025">
        <ele>1587.4</ele>
        <time>2011-01-29T15:02:26Z</time>
      </trkpt>
      <trkpt lat="45.04015" lon="5.60021">
        <ele>1586.8</ele>
        <time>2011-01-29T15:02:30Z</time>
      </trkpt>
      <trkpt lat="45.04012" lon="5.6002">
        <ele>1586.6</ele>
        <time>2011-01-29T15:02:32Z</time>
      </trkpt>
      <trkpt lat="45.04005" lon="5.60021">
        <ele>1585.8</ele>
        <time>2011-01-29T15:02:38Z</time>
      </trkpt>
      <trkpt lat="45.03999" lon="5.60025">
        <ele>1585.2</ele>
        <time>2011-01-29T15:02:43Z</time>
      </trkpt>
      <trkpt lat="45.03998" lon="5.60024">
        <ele>1585</ele>
        <time>2011-01-29T15:02:44Z</time>
      </trkpt>
      <trkpt lat="45.03997" lon="5.60024">
        <ele>1585</ele>
        <time>2011-01-29T15:02:45Z</time>
      </trkpt>
      <trkpt lat="45.03987" lon="5.60017">
        <ele>1584.2</ele>
        <time>2011-01-29T15:02:51Z</time>
      </trkpt>
      <trkpt lat="45.03979" lon="5.60014">
        <ele>1583.8</ele>
        <time>2011-01-29T15:02:55Z</time>
      </trkpt>
      <trkpt lat="45.03977" lon="5.60013">
        <ele>1583.6</ele>
        <time>2011-01-29T15:02:56Z</time>
      </trkpt>
      <trkpt lat="45.0397" lon="5.60013">
        <ele>1582.8</ele>
        <time>2011-01-29T15:03:01Z</time>
      </trkpt>
      <trkpt lat="45.03967" lon="5.60013">
        <ele>1582.6</ele>
        <time>2011-01-29T15:03:03Z</time>
      </trkpt>
      <trkpt lat="45.03961" lon="5.6001">
        <ele>1582</ele>
        <time>2011-01-29T15:03:07Z</time>
      </trkpt>
      <trkpt lat="45.0396" lon="5.60009">
        <ele>1581.8</ele>
        <time>2011-01-29T15:03:08Z</time>
      </trkpt>
      <trkpt lat="45.03952" lon="5.60008">
        <ele>1580.8</ele>
        <time>2011-01-29T15:03:15Z</time>
      </trkpt>
      <trkpt lat="45.03942" lon="5.60006">
        <ele>1580</ele>
        <time>2011-01-29T15:03:20Z</time>
      </trkpt>
      <trkpt lat="45.03932" lon="5.60003">
        <ele>1579</ele>
        <time>2011-01-29T15:03:26Z</time>
      </trkpt>
      <trkpt lat="45.03924" lon="5.59999">
        <ele>1577.8</ele>
        <time>2011-01-29T15:03:32Z</time>
      </trkpt>
      <trkpt lat="45.03917" lon="5.59993">
        <ele>1577</ele>
        <time>2011-01-29T15:03:36Z</time>
      </trkpt>
      <trkpt lat="45.03912" lon="5.59987">
        <ele>1576.2</ele>
        <time>2011-01-29T15:03:40Z</time>
      </trkpt>
      <trkpt lat="45.03911" lon="5.59985">
        <ele>1576</ele>
        <time>2011-01-29T15:03:41Z</time>
      </trkpt>
      <trkpt lat="45.0391" lon="5.59984">
        <ele>1575.8</ele>
        <time>2011-01-29T15:03:42Z</time>
      </trkpt>
      <trkpt lat="45.03904" lon="5.59981">
        <ele>1575.2</ele>
        <time>2011-01-29T15:03:45Z</time>
      </trkpt>
      <trkpt lat="45.03894" lon="5.5998">
        <ele>1574.4</ele>
        <time>2011-01-29T15:03:50Z</time>
      </trkpt>
      <trkpt lat="45.03893" lon="5.59981">
        <ele>1574.2</ele>
        <time>2011-01-29T15:03:51Z</time>
      </trkpt>
      <trkpt lat="45.03892" lon="5.59981">
        <ele>1574</ele>
        <time>2011-01-29T15:03:52Z</time>
      </trkpt>
      <trkpt lat="45.03882" lon="5.59979">
        <ele>1573</ele>
        <time>2011-01-29T15:03:58Z</time>
      </trkpt>
      <trkpt lat="45.03873" lon="5.59978">
        <ele>1572</ele>
        <time>2011-01-29T15:04:05Z</time>
      </trkpt>
      <trkpt lat="45.03871" lon="5.59977">
        <ele>1572</ele>
        <time>2011-01-29T15:04:06Z</time>
      </trkpt>
      <trkpt lat="45.03863" lon="5.59978">
        <ele>1571.2</ele>
        <time>2011-01-29T15:04:12Z</time>
      </trkpt>
      <trkpt lat="45.03856" lon="5.59979">
        <ele>1570.4</ele>
        <time>2011-01-29T15:04:19Z</time>
      </trkpt>
      <trkpt lat="45.03855" lon="5.59979">
        <ele>1570.4</ele>
        <time>2011-01-29T15:04:20Z</time>
      </trkpt>
      <trkpt lat="45.0385" lon="5.59984">
        <ele>1569.8</ele>
        <time>2011-01-29T15:04:25Z</time>
      </trkpt>
      <trkpt lat="45.03845" lon="5.59987">
        <ele>1569.4</ele>
        <time>2011-01-29T15:04:29Z</time>
      </trkpt>
      <trkpt lat="45.03843" lon="5.59989">
        <ele>1569</ele>
        <time>2011-01-29T15:04:32Z</time>
      </trkpt>
      <trkpt lat="45.03842" lon="5.59989">
        <ele>1569</ele>
        <time>2011-01-29T15:04:33Z</time>
      </trkpt>
      <trkpt lat="45.03839" lon="5.59991">
        <ele>1568.6</ele>
        <time>2011-01-29T15:04:36Z</time>
      </trkpt>
      <trkpt lat="45.03836" lon="5.59992">
        <ele>1568.4</ele>
        <time>2011-01-29T15:04:38Z</time>
      </trkpt>
      <trkpt lat="45.03825" lon="5.59996">
        <ele>1568</ele>
        <time>2011-01-29T15:04:43Z</time>
      </trkpt>
      <trkpt lat="45.0382" lon="5.59996">
        <ele>1567.8</ele>
        <time>2011-01-29T15:04:45Z</time>
      </trkpt>
      <trkpt lat="45.03815" lon="5.59995">
        <ele>1567.6</ele>
        <time>2011-01-29T15:04:47Z</time>
      </trkpt>
      <trkpt lat="45.03804" lon="5.59984">
        <ele>1567</ele>
        <time>2011-01-29T15:04:53Z</time>
      </trkpt>
      <trkpt lat="45.03791" lon="5.59972">
        <ele>1566.2</ele>
        <time>2011-01-29T15:04:59Z</time>
      </trkpt>
      <trkpt lat="45.03787" lon="5.59967">
        <ele>1566</ele>
        <time>2011-01-29T15:05:01Z</time>
      </trkpt>
      <trkpt lat="45.03782" lon="5.5996">
        <ele>1565.8</ele>
        <time>2011-01-29T15:05:04Z</time>
      </trkpt>
      <trkpt lat="45.03772" lon="5.59956">
        <ele>1565</ele>
        <time>2011-01-29T15:05:10Z</time>
      </trkpt>
      <trkpt lat="45.0377" lon="5.59955">
        <ele>1564.8</ele>
        <time>2011-01-29T15:05:11Z</time>
      </trkpt>
      <trkpt lat="45.03765" lon="5.59953">
        <ele>1564.2</ele>
        <time>2011-01-29T15:05:16Z</time>
      </trkpt>
      <trkpt lat="45.03758" lon="5.59954">
        <ele>1563.6</ele>
        <time>2011-01-29T15:05:20Z</time>
      </trkpt>
      <trkpt lat="45.03751" lon="5.59955">
        <ele>1563</ele>
        <time>2011-01-29T15:05:24Z</time>
      </trkpt>
      <trkpt lat="45.03749" lon="5.59954">
        <ele>1562.8</ele>
        <time>2011-01-29T15:05:25Z</time>
      </trkpt>
      <trkpt lat="45.03739" lon="5.59951">
        <ele>1562</ele>
        <time>2011-01-29T15:05:30Z</time>
      </trkpt>
      <trkpt lat="45.03733" lon="5.59951">
        <ele>1561.4</ele>
        <time>2011-01-29T15:05:33Z</time>
      </trkpt>
      <trkpt lat="45.03726" lon="5.5995">
        <ele>1560.4</ele>
        <time>2011-01-29T15:05:37Z</time>
      </trkpt>
      <trkpt lat="45.03715" lon="5.5995">
        <ele>1559.6</ele>
        <time>2011-01-29T15:05:42Z</time>
      </trkpt>
      <trkpt lat="45.0371" lon="5.59949">
        <ele>1559</ele>
        <time>2011-01-29T15:05:45Z</time>
      </trkpt>
      <trkpt lat="45.03706" lon="5.59951">
        <ele>1558.6</ele>
        <time>2011-01-29T15:05:47Z</time>
      </trkpt>
      <trkpt lat="45.03703" lon="5.5995">
        <ele>1558</ele>
        <time>2011-01-29T15:05:51Z</time>
      </trkpt>
      <trkpt lat="45.03702" lon="5.59949">
        <ele>1557.8</ele>
        <time>2011-01-29T15:05:52Z</time>
      </trkpt>
      <trkpt lat="45.037" lon="5.59949">
        <ele>1557.2</ele>
        <time>2011-01-29T15:05:55Z</time>
      </trkpt>
      <trkpt lat="45.03699" lon="5.59949">
        <ele>1557</ele>
        <time>2011-01-29T15:05:56Z</time>
      </trkpt>
      <trkpt lat="45.03697" lon="5.59948">
        <ele>1556.6</ele>
        <time>2011-01-29T15:05:58Z</time>
      </trkpt>
      <trkpt lat="45.03695" lon="5.59949">
        <ele>1556.2</ele>
        <time>2011-01-29T15:06:00Z</time>
      </trkpt>
      <trkpt lat="45.03687" lon="5.59951">
        <ele>1555</ele>
        <time>2011-01-29T15:06:06Z</time>
      </trkpt>
      <trkpt lat="45.03685" lon="5.59951">
        <ele>1554.8</ele>
        <time>2011-01-29T15:06:07Z</time>
      </trkpt>
      <trkpt lat="45.03681" lon="5.59952">
        <ele>1554.6</ele>
        <time>2011-01-29T15:06:09Z</time>
      </trkpt>
      <trkpt lat="45.03679" lon="5.59953">
        <ele>1554.2</ele>
        <time>2011-01-29T15:06:11Z</time>
      </trkpt>
      <trkpt lat="45.03675" lon="5.59955">
        <ele>1553.4</ele>
        <time>2011-01-29T15:06:15Z</time>
      </trkpt>
      <trkpt lat="45.03669" lon="5.59956">
        <ele>1552.8</ele>
        <time>2011-01-29T15:06:18Z</time>
      </trkpt>
      <trkpt lat="45.03664" lon="5.59958">
        <ele>1552.4</ele>
        <time>2011-01-29T15:06:20Z</time>
      </trkpt>
      <trkpt lat="45.03659" lon="5.59959">
        <ele>1552.2</ele>
        <time>2011-01-29T15:06:22Z</time>
      </trkpt>
      <trkpt lat="45.03654" lon="5.5996">
        <ele>1551.6</ele>
        <time>2011-01-29T15:06:25Z</time>
      </trkpt>
      <trkpt lat="45.03651" lon="5.59961">
        <ele>1551.2</ele>
        <time>2011-01-29T15:06:27Z</time>
      </trkpt>
      <trkpt lat="45.03647" lon="5.5996">
        <ele>1550.6</ele>
        <time>2011-01-29T15:06:30Z</time>
      </trkpt>
      <trkpt lat="45.0364" lon="5.59961">
        <ele>1550.2</ele>
        <time>2011-01-29T15:06:33Z</time>
      </trkpt>
      <trkpt lat="45.03634" lon="5.59963">
        <ele>1550.2</ele>
        <time>2011-01-29T15:06:35Z</time>
      </trkpt>
      <trkpt lat="45.03629" lon="5.59964">
        <ele>1550</ele>
        <time>2011-01-29T15:06:37Z</time>
      </trkpt>
      <trkpt lat="45.03621" lon="5.59966">
        <ele>1549.6</ele>
        <time>2011-01-29T15:06:41Z</time>
      </trkpt>
      <trkpt lat="45.03612" lon="5.59966">
        <ele>1549.2</ele>
        <time>2011-01-29T15:06:46Z</time>
      </trkpt>
      <trkpt lat="45.03607" lon="5.59958">
        <ele>1548.4</ele>
        <time>2011-01-29T15:06:52Z</time>
      </trkpt>
      <trkpt lat="45.03604" lon="5.59955">
        <ele>1547.8</ele>
        <time>2011-01-29T15:06:55Z</time>
      </trkpt>
      <trkpt lat="45.03597" lon="5.59954">
        <ele>1547.4</ele>
        <time>2011-01-29T15:06:58Z</time>
      </trkpt>
      <trkpt lat="45.03585" lon="5.59954">
        <ele>1546.2</ele>
        <time>2011-01-29T15:07:04Z</time>
      </trkpt>
      <trkpt lat="45.03577" lon="5.5995">
        <ele>1545</ele>
        <time>2011-01-29T15:07:09Z</time>
      </trkpt>
      <trkpt lat="45.0357" lon="5.5995">
        <ele>1543.6</ele>
        <time>2011-01-29T15:07:14Z</time>
      </trkpt>
      <trkpt lat="45.03566" lon="5.59951">
        <ele>1543</ele>
        <time>2011-01-29T15:07:17Z</time>
      </trkpt>
      <trkpt lat="45.03561" lon="5.59951">
        <ele>1542.2</ele>
        <time>2011-01-29T15:07:20Z</time>
      </trkpt>
      <trkpt lat="45.03552" lon="5.59953">
        <ele>1540.2</ele>
        <time>2011-01-29T15:07:27Z</time>
      </trkpt>
      <trkpt lat="45.03548" lon="5.59955">
        <ele>1539.4</ele>
        <time>2011-01-29T15:07:30Z</time>
      </trkpt>
      <trkpt lat="45.03541" lon="5.59958">
        <ele>1538.2</ele>
        <time>2011-01-29T15:07:35Z</time>
      </trkpt>
      <trkpt lat="45.03534" lon="5.59964">
        <ele>1536.6</ele>
        <time>2011-01-29T15:07:41Z</time>
      </trkpt>
      <trkpt lat="45.03531" lon="5.59967">
        <ele>1536</ele>
        <time>2011-01-29T15:07:43Z</time>
      </trkpt>
      <trkpt lat="45.03524" lon="5.5997">
        <ele>1535.2</ele>
        <time>2011-01-29T15:07:46Z</time>
      </trkpt>
      <trkpt lat="45.03514" lon="5.59975">
        <ele>1533.8</ele>
        <time>2011-01-29T15:07:51Z</time>
      </trkpt>
      <trkpt lat="45.03512" lon="5.59976">
        <ele>1533.6</ele>
        <time>2011-01-29T15:07:52Z</time>
      </trkpt>
      <trkpt lat="45.03506" lon="5.59979">
        <ele>1532.4</ele>
        <time>2011-01-29T15:07:56Z</time>
      </trkpt>
      <trkpt lat="45.03494" lon="5.59983">
        <ele>1530.8</ele>
        <time>2011-01-29T15:08:01Z</time>
      </trkpt>
      <trkpt lat="45.03493" lon="5.59983">
        <ele>1530.4</ele>
        <time>2011-01-29T15:08:02Z</time>
      </trkpt>
      <trkpt lat="45.03485" lon="5.59984">
        <ele>1528.8</ele>
        <time>2011-01-29T15:08:07Z</time>
      </trkpt>
      <trkpt lat="45.03484" lon="5.59983">
        <ele>1528.6</ele>
        <time>2011-01-29T15:08:08Z</time>
      </trkpt>
      <trkpt lat="45.03476" lon="5.59986">
        <ele>1527</ele>
        <time>2011-01-29T15:08:13Z</time>
      </trkpt>
      <trkpt lat="45.03474" lon="5.59987">
        <ele>1526.8</ele>
        <time>2011-01-29T15:08:14Z</time>
      </trkpt>
      <trkpt lat="45.03466" lon="5.5999">
        <ele>1525.8</ele>
        <time>2011-01-29T15:08:18Z</time>
      </trkpt>
      <trkpt lat="45.03458" lon="5.59988">
        <ele>1524.2</ele>
        <time>2011-01-29T15:08:23Z</time>
      </trkpt>
      <trkpt lat="45.03451" lon="5.59985">
        <ele>1522.6</ele>
        <time>2011-01-29T15:08:28Z</time>
      </trkpt>
      <trkpt lat="45.0344" lon="5.59988">
        <ele>1521.4</ele>
        <time>2011-01-29T15:08:32Z</time>
      </trkpt>
      <trkpt lat="45.03434" lon="5.59992">
        <ele>1521</ele>
        <time>2011-01-29T15:08:34Z</time>
      </trkpt>
      <trkpt lat="45.03432" lon="5.59993">
        <ele>1520.8</ele>
        <time>2011-01-29T15:08:35Z</time>
      </trkpt>
      <trkpt lat="45.03431" lon="5.59992">
        <ele>1520.4</ele>
        <time>2011-01-29T15:08:36Z</time>
      </trkpt>
      <trkpt lat="45.03426" lon="5.59994">
        <ele>1519.6</ele>
        <time>2011-01-29T15:08:39Z</time>
      </trkpt>
      <trkpt lat="45.03422" lon="5.59995">
        <ele>1519.2</ele>
        <time>2011-01-29T15:08:41Z</time>
      </trkpt>
      <trkpt lat="45.03409" lon="5.59999">
        <ele>1518.2</ele>
        <time>2011-01-29T15:08:45Z</time>
      </trkpt>
      <trkpt lat="45.03404" lon="5.6">
        <ele>1517.8</ele>
        <time>2011-01-29T15:08:47Z</time>
      </trkpt>
      <trkpt lat="45.034" lon="5.59998">
        <ele>1516.8</ele>
        <time>2011-01-29T15:08:50Z</time>
      </trkpt>
      <trkpt lat="45.03399" lon="5.59997">
        <ele>1516.6</ele>
        <time>2011-01-29T15:08:51Z</time>
      </trkpt>
      <trkpt lat="45.03395" lon="5.59994">
        <ele>1515.4</ele>
        <time>2011-01-29T15:08:55Z</time>
      </trkpt>
      <trkpt lat="45.03389" lon="5.59993">
        <ele>1514</ele>
        <time>2011-01-29T15:08:59Z</time>
      </trkpt>
      <trkpt lat="45.03385" lon="5.59993">
        <ele>1513.4</ele>
        <time>2011-01-29T15:09:01Z</time>
      </trkpt>
      <trkpt lat="45.03377" lon="5.59994">
        <ele>1511.6</ele>
        <time>2011-01-29T15:09:06Z</time>
      </trkpt>
      <trkpt lat="45.03366" lon="5.59999">
        <ele>1509.4</ele>
        <time>2011-01-29T15:09:12Z</time>
      </trkpt>
      <trkpt lat="45.0335" lon="5.60005">
        <ele>1506.8</ele>
        <time>2011-01-29T15:09:19Z</time>
      </trkpt>
      <trkpt lat="45.03347" lon="5.60005">
        <ele>1506.2</ele>
        <time>2011-01-29T15:09:21Z</time>
      </trkpt>
      <trkpt lat="45.03342" lon="5.60008">
        <ele>1505.6</ele>
        <time>2011-01-29T15:09:23Z</time>
      </trkpt>
      <trkpt lat="45.03341" lon="5.6001">
        <ele>1505.4</ele>
        <time>2011-01-29T15:09:24Z</time>
      </trkpt>
      <trkpt lat="45.03334" lon="5.60012">
        <ele>1503.6</ele>
        <time>2011-01-29T15:09:29Z</time>
      </trkpt>
      <trkpt lat="45.0333" lon="5.60014">
        <ele>1501.6</ele>
        <time>2011-01-29T15:09:34Z</time>
      </trkpt>
      <trkpt lat="45.03326" lon="5.60017">
        <ele>1500.8</ele>
        <time>2011-01-29T15:09:36Z</time>
      </trkpt>
      <trkpt lat="45.03318" lon="5.6002">
        <ele>1498.2</ele>
        <time>2011-01-29T15:09:42Z</time>
      </trkpt>
      <trkpt lat="45.03312" lon="5.6002">
        <ele>1497</ele>
        <time>2011-01-29T15:09:45Z</time>
      </trkpt>
      <trkpt lat="45.03306" lon="5.6002">
        <ele>1495.6</ele>
        <time>2011-01-29T15:09:48Z</time>
      </trkpt>
      <trkpt lat="45.03302" lon="5.6002">
        <ele>1494.2</ele>
        <time>2011-01-29T15:09:51Z</time>
      </trkpt>
      <trkpt lat="45.03301" lon="5.60021">
        <ele>1493.8</ele>
        <time>2011-01-29T15:09:52Z</time>
      </trkpt>
      <trkpt lat="45.03301" lon="5.60022">
        <ele>1493.2</ele>
        <time>2011-01-29T15:09:53Z</time>
      </trkpt>
      <trkpt lat="45.03303" lon="5.60026">
        <ele>1492</ele>
        <time>2011-01-29T15:09:56Z</time>
      </trkpt>
      <trkpt lat="45.03305" lon="5.60028">
        <ele>1491</ele>
        <time>2011-01-29T15:09:58Z</time>
      </trkpt>
      <trkpt lat="45.03306" lon="5.60029">
        <ele>1490.6</ele>
        <time>2011-01-29T15:09:59Z</time>
      </trkpt>
      <trkpt lat="45.0331" lon="5.60033">
        <ele>1489</ele>
        <time>2011-01-29T15:10:03Z</time>
      </trkpt>
      <trkpt lat="45.03316" lon="5.60034">
        <ele>1486.4</ele>
        <time>2011-01-29T15:10:09Z</time>
      </trkpt>
      <trkpt lat="45.03316" lon="5.60035">
        <ele>1486</ele>
        <time>2011-01-29T15:10:10Z</time>
      </trkpt>
      <trkpt lat="45.03316" lon="5.60035">
        <ele>1484.6</ele>
        <time>2011-01-29T15:10:14Z</time>
      </trkpt>
      <trkpt lat="45.03318" lon="5.60035">
        <ele>1481.8</ele>
        <time>2011-01-29T15:10:21Z</time>
      </trkpt>
      <trkpt lat="45.0331" lon="5.60036">
        <ele>1479.4</ele>
        <time>2011-01-29T15:10:29Z</time>
      </trkpt>
      <trkpt lat="45.03307" lon="5.60037">
        <ele>1478</ele>
        <time>2011-01-29T15:10:35Z</time>
      </trkpt>
      <trkpt lat="45.03313" lon="5.60035">
        <ele>1475</ele>
        <time>2011-01-29T15:10:43Z</time>
      </trkpt>
      <trkpt lat="45.03315" lon="5.60034">
        <ele>1473.8</ele>
        <time>2011-01-29T15:10:46Z</time>
      </trkpt>
      <trkpt lat="45.03315" lon="5.60033">
        <ele>1473</ele>
        <time>2011-01-29T15:10:48Z</time>
      </trkpt>
      <trkpt lat="45.03317" lon="5.60032">
        <ele>1470.2</ele>
        <time>2011-01-29T15:10:55Z</time>
      </trkpt>
      <trkpt lat="45.03317" lon="5.60032">
        <ele>1468.6</ele>
        <time>2011-01-29T15:11:00Z</time>
      </trkpt>
      <trkpt lat="45.03316" lon="5.60032">
        <ele>1461.2</ele>
        <time>2011-01-29T15:11:38Z</time>
      </trkpt>
      <trkpt lat="45.03318" lon="5.60034">
        <ele>1460.8</ele>
        <time>2011-01-29T15:11:40Z</time>
      </trkpt>
      <trkpt lat="45.03324" lon="5.60039">
        <ele>1460.2</ele>
        <time>2011-01-29T15:11:44Z</time>
      </trkpt>
      <trkpt lat="45.03326" lon="5.60042">
        <ele>1459.8</ele>
        <time>2011-01-29T15:11:46Z</time>
      </trkpt>
      <trkpt lat="45.03328" lon="5.60051">
        <ele>1459.2</ele>
        <time>2011-01-29T15:11:50Z</time>
      </trkpt>
      <trkpt lat="45.03327" lon="5.60053">
        <ele>1459</ele>
        <time>2011-01-29T15:11:51Z</time>
      </trkpt>
      <trkpt lat="45.03325" lon="5.60058">
        <ele>1458.4</ele>
        <time>2011-01-29T15:11:54Z</time>
      </trkpt>
      <trkpt lat="45.03323" lon="5.6006">
        <ele>1457.8</ele>
        <time>2011-01-29T15:11:57Z</time>
      </trkpt>
      <trkpt lat="45.03316" lon="5.60062">
        <ele>1457</ele>
        <time>2011-01-29T15:12:01Z</time>
      </trkpt>
      <trkpt lat="45.03315" lon="5.60063">
        <ele>1456.8</ele>
        <time>2011-01-29T15:12:02Z</time>
      </trkpt>
      <trkpt lat="45.03313" lon="5.60067">
        <ele>1456</ele>
        <time>2011-01-29T15:12:05Z</time>
      </trkpt>
      <trkpt lat="45.03311" lon="5.60071">
        <ele>1455.6</ele>
        <time>2011-01-29T15:12:07Z</time>
      </trkpt>
      <trkpt lat="45.0331" lon="5.60074">
        <ele>1455</ele>
        <time>2011-01-29T15:12:09Z</time>
      </trkpt>
      <trkpt lat="45.03309" lon="5.60077">
        <ele>1454.6</ele>
        <time>2011-01-29T15:12:11Z</time>
      </trkpt>
      <trkpt lat="45.0331" lon="5.60079">
        <ele>1454.4</ele>
        <time>2011-01-29T15:12:12Z</time>
      </trkpt>
      <trkpt lat="45.03313" lon="5.60083">
        <ele>1453.6</ele>
        <time>2011-01-29T15:12:15Z</time>
      </trkpt>
      <trkpt lat="45.03314" lon="5.60086">
        <ele>1453</ele>
        <time>2011-01-29T15:12:17Z</time>
      </trkpt>
      <trkpt lat="45.03314" lon="5.60091">
        <ele>1452.4</ele>
        <time>2011-01-29T15:12:19Z</time>
      </trkpt>
      <trkpt lat="45.03312" lon="5.60093">
        <ele>1452.2</ele>
        <time>2011-01-29T15:12:20Z</time>
      </trkpt>
      <trkpt lat="45.03309" lon="5.60096">
        <ele>1451.6</ele>
        <time>2011-01-29T15:12:22Z</time>
      </trkpt>
      <trkpt lat="45.03305" lon="5.60101">
        <ele>1450.6</ele>
        <time>2011-01-29T15:12:25Z</time>
      </trkpt>
      <trkpt lat="45.03305" lon="5.60102">
        <ele>1450.4</ele>
        <time>2011-01-29T15:12:26Z</time>
      </trkpt>
      <trkpt lat="45.03305" lon="5.60107">
        <ele>1449.2</ele>
        <time>2011-01-29T15:12:29Z</time>
      </trkpt>
      <trkpt lat="45.03304" lon="5.60111">
        <ele>1448.4</ele>
        <time>2011-01-29T15:12:31Z</time>
      </trkpt>
      <trkpt lat="45.03303" lon="5.60116">
        <ele>1447.4</ele>
        <time>2011-01-29T15:12:34Z</time>
      </trkpt>
      <trkpt lat="45.03303" lon="5.60118">
        <ele>1446.8</ele>
        <time>2011-01-29T15:12:36Z</time>
      </trkpt>
      <trkpt lat="45.03303" lon="5.60118">
        <ele>1446.4</ele>
        <time>2011-01-29T15:12:37Z</time>
      </trkpt>
      <trkpt lat="45.03307" lon="5.60121">
        <ele>1445.2</ele>
        <time>2011-01-29T15:12:40Z</time>
      </trkpt>
      <trkpt lat="45.03309" lon="5.60123">
        <ele>1444.8</ele>
        <time>2011-01-29T15:12:41Z</time>
      </trkpt>
      <trkpt lat="45.0331" lon="5.60127">
        <ele>1444.2</ele>
        <time>2011-01-29T15:12:43Z</time>
      </trkpt>
      <trkpt lat="45.03309" lon="5.6013">
        <ele>1443.8</ele>
        <time>2011-01-29T15:12:44Z</time>
      </trkpt>
      <trkpt lat="45.03305" lon="5.60139">
        <ele>1442.4</ele>
        <time>2011-01-29T15:12:48Z</time>
      </trkpt>
      <trkpt lat="45.03304" lon="5.6014">
        <ele>1442</ele>
        <time>2011-01-29T15:12:49Z</time>
      </trkpt>
      <trkpt lat="45.03302" lon="5.60142">
        <ele>1441.6</ele>
        <time>2011-01-29T15:12:50Z</time>
      </trkpt>
      <trkpt lat="45.03296" lon="5.60145">
        <ele>1440</ele>
        <time>2011-01-29T15:12:54Z</time>
      </trkpt>
      <trkpt lat="45.03295" lon="5.60147">
        <ele>1439.6</ele>
        <time>2011-01-29T15:12:55Z</time>
      </trkpt>
      <trkpt lat="45.03294" lon="5.60155">
        <ele>1438</ele>
        <time>2011-01-29T15:12:59Z</time>
      </trkpt>
      <trkpt lat="45.03295" lon="5.60157">
        <ele>1437.6</ele>
        <time>2011-01-29T15:13:00Z</time>
      </trkpt>
      <trkpt lat="45.03298" lon="5.6016">
        <ele>1436.4</ele>
        <time>2011-01-29T15:13:03Z</time>
      </trkpt>
      <trkpt lat="45.03299" lon="5.60161">
        <ele>1436</ele>
        <time>2011-01-29T15:13:04Z</time>
      </trkpt>
      <trkpt lat="45.03307" lon="5.60166">
        <ele>1434</ele>
        <time>2011-01-29T15:13:09Z</time>
      </trkpt>
      <trkpt lat="45.0331" lon="5.6017">
        <ele>1433.2</ele>
        <time>2011-01-29T15:13:11Z</time>
      </trkpt>
      <trkpt lat="45.03311" lon="5.60176">
        <ele>1432</ele>
        <time>2011-01-29T15:13:14Z</time>
      </trkpt>
      <trkpt lat="45.03311" lon="5.60178">
        <ele>1431.6</ele>
        <time>2011-01-29T15:13:15Z</time>
      </trkpt>
      <trkpt lat="45.03308" lon="5.60188">
        <ele>1429.6</ele>
        <time>2011-01-29T15:13:19Z</time>
      </trkpt>
      <trkpt lat="45.03306" lon="5.60193">
        <ele>1428.8</ele>
        <time>2011-01-29T15:13:21Z</time>
      </trkpt>
      <trkpt lat="45.03304" lon="5.60198">
        <ele>1428</ele>
        <time>2011-01-29T15:13:23Z</time>
      </trkpt>
      <trkpt lat="45.03302" lon="5.60202">
        <ele>1427</ele>
        <time>2011-01-29T15:13:25Z</time>
      </trkpt>
      <trkpt lat="45.03292" lon="5.6021">
        <ele>1424.8</ele>
        <time>2011-01-29T15:13:30Z</time>
      </trkpt>
      <trkpt lat="45.03289" lon="5.60214">
        <ele>1423.8</ele>
        <time>2011-01-29T15:13:32Z</time>
      </trkpt>
      <trkpt lat="45.03279" lon="5.60222">
        <ele>1421</ele>
        <time>2011-01-29T15:13:38Z</time>
      </trkpt>
      <trkpt lat="45.03275" lon="5.60223">
        <ele>1420</ele>
        <time>2011-01-29T15:13:40Z</time>
      </trkpt>
      <trkpt lat="45.03273" lon="5.60225">
        <ele>1419.6</ele>
        <time>2011-01-29T15:13:41Z</time>
      </trkpt>
      <trkpt lat="45.0327" lon="5.60228">
        <ele>1418.6</ele>
        <time>2011-01-29T15:13:43Z</time>
      </trkpt>
      <trkpt lat="45.03261" lon="5.60233">
        <ele>1416</ele>
        <time>2011-01-29T15:13:48Z</time>
      </trkpt>
      <trkpt lat="45.03259" lon="5.60235">
        <ele>1415.6</ele>
        <time>2011-01-29T15:13:49Z</time>
      </trkpt>
      <trkpt lat="45.03252" lon="5.6024">
        <ele>1413.6</ele>
        <time>2011-01-29T15:13:53Z</time>
      </trkpt>
      <trkpt lat="45.03244" lon="5.60248">
        <ele>1410.4</ele>
        <time>2011-01-29T15:13:59Z</time>
      </trkpt>
      <trkpt lat="45.03242" lon="5.6025">
        <ele>1410</ele>
        <time>2011-01-29T15:14:00Z</time>
      </trkpt>
      <trkpt lat="45.03235" lon="5.60257">
        <ele>1407.4</ele>
        <time>2011-01-29T15:14:05Z</time>
      </trkpt>
      <trkpt lat="45.03227" lon="5.60263">
        <ele>1405.4</ele>
        <time>2011-01-29T15:14:09Z</time>
      </trkpt>
      <trkpt lat="45.03225" lon="5.60264">
        <ele>1405</ele>
        <time>2011-01-29T15:14:10Z</time>
      </trkpt>
      <trkpt lat="45.03217" lon="5.60269">
        <ele>1402.2</ele>
        <time>2011-01-29T15:14:15Z</time>
      </trkpt>
      <trkpt lat="45.03208" lon="5.60275">
        <ele>1399.6</ele>
        <time>2011-01-29T15:14:20Z</time>
      </trkpt>
      <trkpt lat="45.03203" lon="5.6028">
        <ele>1397.6</ele>
        <time>2011-01-29T15:14:24Z</time>
      </trkpt>
      <trkpt lat="45.03202" lon="5.60281">
        <ele>1397</ele>
        <time>2011-01-29T15:14:25Z</time>
      </trkpt>
      <trkpt lat="45.03199" lon="5.60285">
        <ele>1395.6</ele>
        <time>2011-01-29T15:14:28Z</time>
      </trkpt>
      <trkpt lat="45.03197" lon="5.60287">
        <ele>1394.6</ele>
        <time>2011-01-29T15:14:30Z</time>
      </trkpt>
      <trkpt lat="45.03196" lon="5.60293">
        <ele>1393</ele>
        <time>2011-01-29T15:14:33Z</time>
      </trkpt>
      <trkpt lat="45.03195" lon="5.60296">
        <ele>1391.8</ele>
        <time>2011-01-29T15:14:35Z</time>
      </trkpt>
      <trkpt lat="45.03196" lon="5.60306">
        <ele>1389.4</ele>
        <time>2011-01-29T15:14:40Z</time>
      </trkpt>
      <trkpt lat="45.03197" lon="5.60308">
        <ele>1388.8</ele>
        <time>2011-01-29T15:14:41Z</time>
      </trkpt>
      <trkpt lat="45.03199" lon="5.60318">
        <ele>1385.8</ele>
        <time>2011-01-29T15:14:47Z</time>
      </trkpt>
      <trkpt lat="45.03202" lon="5.60324">
        <ele>1384</ele>
        <time>2011-01-29T15:14:50Z</time>
      </trkpt>
      <trkpt lat="45.03206" lon="5.6033">
        <ele>1382.4</ele>
        <time>2011-01-29T15:14:53Z</time>
      </trkpt>
      <trkpt lat="45.03205" lon="5.60342">
        <ele>1379.6</ele>
        <time>2011-01-29T15:14:58Z</time>
      </trkpt>
      <trkpt lat="45.03203" lon="5.60351">
        <ele>1378.2</ele>
        <time>2011-01-29T15:15:01Z</time>
      </trkpt>
      <trkpt lat="45.03201" lon="5.60357">
        <ele>1376.6</ele>
        <time>2011-01-29T15:15:04Z</time>
      </trkpt>
      <trkpt lat="45.032" lon="5.60367">
        <ele>1374</ele>
        <time>2011-01-29T15:15:09Z</time>
      </trkpt>
      <trkpt lat="45.03199" lon="5.60369">
        <ele>1373.4</ele>
        <time>2011-01-29T15:15:10Z</time>
      </trkpt>
      <trkpt lat="45.03196" lon="5.60377">
        <ele>1370.8</ele>
        <time>2011-01-29T15:15:15Z</time>
      </trkpt>
      <trkpt lat="45.03194" lon="5.60378">
        <ele>1370.2</ele>
        <time>2011-01-29T15:15:16Z</time>
      </trkpt>
      <trkpt lat="45.0319" lon="5.60384">
        <ele>1368</ele>
        <time>2011-01-29T15:15:20Z</time>
      </trkpt>
      <trkpt lat="45.03188" lon="5.60387">
        <ele>1366.4</ele>
        <time>2011-01-29T15:15:23Z</time>
      </trkpt>
      <trkpt lat="45.03184" lon="5.60391">
        <ele>1365.2</ele>
        <time>2011-01-29T15:15:25Z</time>
      </trkpt>
      <trkpt lat="45.03176" lon="5.60402">
        <ele>1362</ele>
        <time>2011-01-29T15:15:31Z</time>
      </trkpt>
      <trkpt lat="45.03174" lon="5.60406">
        <ele>1361</ele>
        <time>2011-01-29T15:15:33Z</time>
      </trkpt>
      <trkpt lat="45.03171" lon="5.60414">
        <ele>1358.8</ele>
        <time>2011-01-29T15:15:37Z</time>
      </trkpt>
      <trkpt lat="45.03165" lon="5.60423">
        <ele>1356.6</ele>
        <time>2011-01-29T15:15:41Z</time>
      </trkpt>
      <trkpt lat="45.03164" lon="5.60426">
        <ele>1355.4</ele>
        <time>2011-01-29T15:15:43Z</time>
      </trkpt>
      <trkpt lat="45.03165" lon="5.60434">
        <ele>1353.8</ele>
        <time>2011-01-29T15:15:46Z</time>
      </trkpt>
      <trkpt lat="45.03164" lon="5.60437">
        <ele>1353.2</ele>
        <time>2011-01-29T15:15:47Z</time>
      </trkpt>
      <trkpt lat="45.03164" lon="5.60447">
        <ele>1350.8</ele>
        <time>2011-01-29T15:15:51Z</time>
      </trkpt>
      <trkpt lat="45.03165" lon="5.60452">
        <ele>1349.6</ele>
        <time>2011-01-29T15:15:53Z</time>
      </trkpt>
      <trkpt lat="45.03164" lon="5.60464">
        <ele>1346.8</ele>
        <time>2011-01-29T15:15:58Z</time>
      </trkpt>
      <trkpt lat="45.03162" lon="5.60474">
        <ele>1344.4</ele>
        <time>2011-01-29T15:16:02Z</time>
      </trkpt>
      <trkpt lat="45.03161" lon="5.60476">
        <ele>1343.8</ele>
        <time>2011-01-29T15:16:03Z</time>
      </trkpt>
      <trkpt lat="45.03154" lon="5.60485">
        <ele>1341</ele>
        <time>2011-01-29T15:16:08Z</time>
      </trkpt>
      <trkpt lat="45.03147" lon="5.60492">
        <ele>1338.6</ele>
        <time>2011-01-29T15:16:12Z</time>
      </trkpt>
      <trkpt lat="45.03144" lon="5.60496">
        <ele>1337.2</ele>
        <time>2011-01-29T15:16:14Z</time>
      </trkpt>
      <trkpt lat="45.03142" lon="5.60498">
        <ele>1336.6</ele>
        <time>2011-01-29T15:16:15Z</time>
      </trkpt>
      <trkpt lat="45.03135" lon="5.60506">
        <ele>1334.2</ele>
        <time>2011-01-29T15:16:19Z</time>
      </trkpt>
      <trkpt lat="45.03132" lon="5.60506">
        <ele>1333.4</ele>
        <time>2011-01-29T15:16:20Z</time>
      </trkpt>
      <trkpt lat="45.03124" lon="5.60506">
        <ele>1331.6</ele>
        <time>2011-01-29T15:16:23Z</time>
      </trkpt>
      <trkpt lat="45.03114" lon="5.60509">
        <ele>1329</ele>
        <time>2011-01-29T15:16:27Z</time>
      </trkpt>
      <trkpt lat="45.03108" lon="5.60512">
        <ele>1327.8</ele>
        <time>2011-01-29T15:16:29Z</time>
      </trkpt>
      <trkpt lat="45.03094" lon="5.60517">
        <ele>1324.2</ele>
        <time>2011-01-29T15:16:35Z</time>
      </trkpt>
      <trkpt lat="45.03081" lon="5.60532">
        <ele>1320.8</ele>
        <time>2011-01-29T15:16:41Z</time>
      </trkpt>
      <trkpt lat="45.03079" lon="5.60536">
        <ele>1320.2</ele>
        <time>2011-01-29T15:16:42Z</time>
      </trkpt>
      <trkpt lat="45.0307" lon="5.60546">
        <ele>1317.6</ele>
        <time>2011-01-29T15:16:47Z</time>
      </trkpt>
      <trkpt lat="45.03065" lon="5.60553">
        <ele>1316</ele>
        <time>2011-01-29T15:16:50Z</time>
      </trkpt>
      <trkpt lat="45.03062" lon="5.60557">
        <ele>1315</ele>
        <time>2011-01-29T15:16:52Z</time>
      </trkpt>
      <trkpt lat="45.03056" lon="5.60567">
        <ele>1312.6</ele>
        <time>2011-01-29T15:16:57Z</time>
      </trkpt>
      <trkpt lat="45.03055" lon="5.60572">
        <ele>1311.6</ele>
        <time>2011-01-29T15:16:59Z</time>
      </trkpt>
      <trkpt lat="45.03055" lon="5.60574">
        <ele>1311.2</ele>
        <time>2011-01-29T15:17:00Z</time>
      </trkpt>
      <trkpt lat="45.03053" lon="5.60579">
        <ele>1310.4</ele>
        <time>2011-01-29T15:17:02Z</time>
      </trkpt>
      <trkpt lat="45.0305" lon="5.60581">
        <ele>1309.4</ele>
        <time>2011-01-29T15:17:04Z</time>
      </trkpt>
      <trkpt lat="45.03048" lon="5.60582">
        <ele>1309</ele>
        <time>2011-01-29T15:17:05Z</time>
      </trkpt>
      <trkpt lat="45.03045" lon="5.60581">
        <ele>1308.6</ele>
        <time>2011-01-29T15:17:06Z</time>
      </trkpt>
      <trkpt lat="45.0304" lon="5.60583">
        <ele>1307.4</ele>
        <time>2011-01-29T15:17:09Z</time>
      </trkpt>
      <trkpt lat="45.03038" lon="5.60585">
        <ele>1307</ele>
        <time>2011-01-29T15:17:10Z</time>
      </trkpt>
      <trkpt lat="45.03036" lon="5.60587">
        <ele>1306.6</ele>
        <time>2011-01-29T15:17:11Z</time>
      </trkpt>
      <trkpt lat="45.03031" lon="5.60596">
        <ele>1305.2</ele>
        <time>2011-01-29T15:17:15Z</time>
      </trkpt>
      <trkpt lat="45.03027" lon="5.60603">
        <ele>1304</ele>
        <time>2011-01-29T15:17:18Z</time>
      </trkpt>
      <trkpt lat="45.03027" lon="5.60607">
        <ele>1303.2</ele>
        <time>2011-01-29T15:17:20Z</time>
      </trkpt>
      <trkpt lat="45.03031" lon="5.60617">
        <ele>1301.6</ele>
        <time>2011-01-29T15:17:24Z</time>
      </trkpt>
      <trkpt lat="45.03029" lon="5.60623">
        <ele>1300.8</ele>
        <time>2011-01-29T15:17:26Z</time>
      </trkpt>
      <trkpt lat="45.03025" lon="5.60627">
        <ele>1300</ele>
        <time>2011-01-29T15:17:28Z</time>
      </trkpt>
      <trkpt lat="45.03017" lon="5.60637">
        <ele>1297.8</ele>
        <time>2011-01-29T15:17:33Z</time>
      </trkpt>
      <trkpt lat="45.03015" lon="5.60641">
        <ele>1296</ele>
        <time>2011-01-29T15:17:37Z</time>
      </trkpt>
      <trkpt lat="45.03015" lon="5.60643">
        <ele>1295.4</ele>
        <time>2011-01-29T15:17:38Z</time>
      </trkpt>
      <trkpt lat="45.03016" lon="5.60647">
        <ele>1293.8</ele>
        <time>2011-01-29T15:17:41Z</time>
      </trkpt>
      <trkpt lat="45.03016" lon="5.60657">
        <ele>1292.6</ele>
        <time>2011-01-29T15:17:44Z</time>
      </trkpt>
      <trkpt lat="45.03017" lon="5.6067">
        <ele>1290.2</ele>
        <time>2011-01-29T15:17:49Z</time>
      </trkpt>
      <trkpt lat="45.03016" lon="5.60672">
        <ele>1289.6</ele>
        <time>2011-01-29T15:17:50Z</time>
      </trkpt>
      <trkpt lat="45.03015" lon="5.60674">
        <ele>1289</ele>
        <time>2011-01-29T15:17:51Z</time>
      </trkpt>
      <trkpt lat="45.03014" lon="5.60678">
        <ele>1288</ele>
        <time>2011-01-29T15:17:53Z</time>
      </trkpt>
      <trkpt lat="45.03013" lon="5.60683">
        <ele>1287.2</ele>
        <time>2011-01-29T15:17:55Z</time>
      </trkpt>
      <trkpt lat="45.03013" lon="5.60688">
        <ele>1286.2</ele>
        <time>2011-01-29T15:17:57Z</time>
      </trkpt>
      <trkpt lat="45.03012" lon="5.60693">
        <ele>1285</ele>
        <time>2011-01-29T15:17:59Z</time>
      </trkpt>
      <trkpt lat="45.0301" lon="5.60698">
        <ele>1284</ele>
        <time>2011-01-29T15:18:01Z</time>
      </trkpt>
      <trkpt lat="45.0301" lon="5.607">
        <ele>1283.6</ele>
        <time>2011-01-29T15:18:02Z</time>
      </trkpt>
      <trkpt lat="45.03012" lon="5.60714">
        <ele>1280.2</ele>
        <time>2011-01-29T15:18:08Z</time>
      </trkpt>
      <trkpt lat="45.03014" lon="5.60721">
        <ele>1278.8</ele>
        <time>2011-01-29T15:18:11Z</time>
      </trkpt>
      <trkpt lat="45.03014" lon="5.60723">
        <ele>1278.2</ele>
        <time>2011-01-29T15:18:12Z</time>
      </trkpt>
      <trkpt lat="45.03013" lon="5.60728">
        <ele>1277</ele>
        <time>2011-01-29T15:18:14Z</time>
      </trkpt>
      <trkpt lat="45.03012" lon="5.6073">
        <ele>1276.4</ele>
        <time>2011-01-29T15:18:15Z</time>
      </trkpt>
      <trkpt lat="45.03012" lon="5.6074">
        <ele>1274.2</ele>
        <time>2011-01-29T15:18:19Z</time>
      </trkpt>
      <trkpt lat="45.03011" lon="5.60743">
        <ele>1273.6</ele>
        <time>2011-01-29T15:18:20Z</time>
      </trkpt>
      <trkpt lat="45.0301" lon="5.6075">
        <ele>1271.4</ele>
        <time>2011-01-29T15:18:24Z</time>
      </trkpt>
      <trkpt lat="45.03011" lon="5.60752">
        <ele>1270.8</ele>
        <time>2011-01-29T15:18:25Z</time>
      </trkpt>
      <trkpt lat="45.03012" lon="5.60754">
        <ele>1270.2</ele>
        <time>2011-01-29T15:18:26Z</time>
      </trkpt>
      <trkpt lat="45.0301" lon="5.60769">
        <ele>1269</ele>
        <time>2011-01-29T15:18:29Z</time>
      </trkpt>
      <trkpt lat="45.03009" lon="5.60777">
        <ele>1268</ele>
        <time>2011-01-29T15:18:31Z</time>
      </trkpt>
      <trkpt lat="45.03008" lon="5.60787">
        <ele>1266.4</ele>
        <time>2011-01-29T15:18:34Z</time>
      </trkpt>
      <trkpt lat="45.03008" lon="5.60803">
        <ele>1264</ele>
        <time>2011-01-29T15:18:39Z</time>
      </trkpt>
      <trkpt lat="45.03006" lon="5.60818">
        <ele>1261.4</ele>
        <time>2011-01-29T15:18:44Z</time>
      </trkpt>
      <trkpt lat="45.03007" lon="5.6083">
        <ele>1259.4</ele>
        <time>2011-01-29T15:18:48Z</time>
      </trkpt>
      <trkpt lat="45.0301" lon="5.6084">
        <ele>1257.8</ele>
        <time>2011-01-29T15:18:51Z</time>
      </trkpt>
      <trkpt lat="45.03009" lon="5.60842">
        <ele>1257.2</ele>
        <time>2011-01-29T15:18:52Z</time>
      </trkpt>
      <trkpt lat="45.0301" lon="5.60857">
        <ele>1255.4</ele>
        <time>2011-01-29T15:18:56Z</time>
      </trkpt>
      <trkpt lat="45.0301" lon="5.60861">
        <ele>1254.8</ele>
        <time>2011-01-29T15:18:57Z</time>
      </trkpt>
      <trkpt lat="45.03011" lon="5.60873">
        <ele>1253.4</ele>
        <time>2011-01-29T15:19:00Z</time>
      </trkpt>
      <trkpt lat="45.0301" lon="5.6088">
        <ele>1252.4</ele>
        <time>2011-01-29T15:19:02Z</time>
      </trkpt>
      <trkpt lat="45.0301" lon="5.60883">
        <ele>1252</ele>
        <time>2011-01-29T15:19:03Z</time>
      </trkpt>
      <trkpt lat="45.0301" lon="5.60894">
        <ele>1250</ele>
        <time>2011-01-29T15:19:07Z</time>
      </trkpt>
      <trkpt lat="45.0301" lon="5.60897">
        <ele>1249.6</ele>
        <time>2011-01-29T15:19:08Z</time>
      </trkpt>
      <trkpt lat="45.03012" lon="5.60906">
        <ele>1248.2</ele>
        <time>2011-01-29T15:19:11Z</time>
      </trkpt>
      <trkpt lat="45.03012" lon="5.60909">
        <ele>1247.6</ele>
        <time>2011-01-29T15:19:12Z</time>
      </trkpt>
      <trkpt lat="45.03015" lon="5.6092">
        <ele>1245.2</ele>
        <time>2011-01-29T15:19:17Z</time>
      </trkpt>
      <trkpt lat="45.03016" lon="5.60925">
        <ele>1243.8</ele>
        <time>2011-01-29T15:19:20Z</time>
      </trkpt>
      <trkpt lat="45.03019" lon="5.6093">
        <ele>1243</ele>
        <time>2011-01-29T15:19:22Z</time>
      </trkpt>
      <trkpt lat="45.0302" lon="5.60932">
        <ele>1242.6</ele>
        <time>2011-01-29T15:19:23Z</time>
      </trkpt>
      <trkpt lat="45.03023" lon="5.60939">
        <ele>1241.4</ele>
        <time>2011-01-29T15:19:26Z</time>
      </trkpt>
      <trkpt lat="45.03022" lon="5.60941">
        <ele>1241</ele>
        <time>2011-01-29T15:19:27Z</time>
      </trkpt>
      <trkpt lat="45.03017" lon="5.60949">
        <ele>1239.2</ele>
        <time>2011-01-29T15:19:31Z</time>
      </trkpt>
      <trkpt lat="45.03015" lon="5.60954">
        <ele>1238.2</ele>
        <time>2011-01-29T15:19:34Z</time>
      </trkpt>
      <trkpt lat="45.03016" lon="5.60956">
        <ele>1237.8</ele>
        <time>2011-01-29T15:19:35Z</time>
      </trkpt>
      <trkpt lat="45.03018" lon="5.6096">
        <ele>1236.4</ele>
        <time>2011-01-29T15:19:38Z</time>
      </trkpt>
      <trkpt lat="45.03018" lon="5.60961">
        <ele>1236</ele>
        <time>2011-01-29T15:19:39Z</time>
      </trkpt>
      <trkpt lat="45.0302" lon="5.60962">
        <ele>1235.2</ele>
        <time>2011-01-29T15:19:41Z</time>
      </trkpt>
      <trkpt lat="45.03022" lon="5.60966">
        <ele>1234.4</ele>
        <time>2011-01-29T15:19:43Z</time>
      </trkpt>
      <trkpt lat="45.03025" lon="5.6097">
        <ele>1233</ele>
        <time>2011-01-29T15:19:46Z</time>
      </trkpt>
      <trkpt lat="45.03026" lon="5.60971">
        <ele>1232.8</ele>
        <time>2011-01-29T15:19:47Z</time>
      </trkpt>
      <trkpt lat="45.03027" lon="5.60974">
        <ele>1232.4</ele>
        <time>2011-01-29T15:19:48Z</time>
      </trkpt>
      <trkpt lat="45.03035" lon="5.6099">
        <ele>1230</ele>
        <time>2011-01-29T15:19:54Z</time>
      </trkpt>
      <trkpt lat="45.03036" lon="5.60992">
        <ele>1229.6</ele>
        <time>2011-01-29T15:19:55Z</time>
      </trkpt>
      <trkpt lat="45.0304" lon="5.60995">
        <ele>1228.4</ele>
        <time>2011-01-29T15:19:58Z</time>
      </trkpt>
      <trkpt lat="45.03041" lon="5.60998">
        <ele>1228</ele>
        <time>2011-01-29T15:19:59Z</time>
      </trkpt>
      <trkpt lat="45.03041" lon="5.61009">
        <ele>1226.4</ele>
        <time>2011-01-29T15:20:03Z</time>
      </trkpt>
      <trkpt lat="45.0304" lon="5.61011">
        <ele>1226</ele>
        <time>2011-01-29T15:20:04Z</time>
      </trkpt>
      <trkpt lat="45.03039" lon="5.61022">
        <ele>1224.4</ele>
        <time>2011-01-29T15:20:08Z</time>
      </trkpt>
      <trkpt lat="45.03038" lon="5.61024">
        <ele>1224</ele>
        <time>2011-01-29T15:20:09Z</time>
      </trkpt>
      <trkpt lat="45.03034" lon="5.6104">
        <ele>1221.6</ele>
        <time>2011-01-29T15:20:15Z</time>
      </trkpt>
      <trkpt lat="45.03032" lon="5.61045">
        <ele>1220.8</ele>
        <time>2011-01-29T15:20:17Z</time>
      </trkpt>
      <trkpt lat="45.03032" lon="5.61057">
        <ele>1219.8</ele>
        <time>2011-01-29T15:20:20Z</time>
      </trkpt>
      <trkpt lat="45.03035" lon="5.6107">
        <ele>1218.2</ele>
        <time>2011-01-29T15:20:25Z</time>
      </trkpt>
      <trkpt lat="45.0304" lon="5.61087">
        <ele>1216.4</ele>
        <time>2011-01-29T15:20:31Z</time>
      </trkpt>
      <trkpt lat="45.03044" lon="5.61092">
        <ele>1215.8</ele>
        <time>2011-01-29T15:20:33Z</time>
      </trkpt>
      <trkpt lat="45.03048" lon="5.61099">
        <ele>1214.8</ele>
        <time>2011-01-29T15:20:36Z</time>
      </trkpt>
      <trkpt lat="45.03054" lon="5.61109">
        <ele>1213.6</ele>
        <time>2011-01-29T15:20:40Z</time>
      </trkpt>
      <trkpt lat="45.03057" lon="5.61109">
        <ele>1213</ele>
        <time>2011-01-29T15:20:42Z</time>
      </trkpt>
      <trkpt lat="45.03058" lon="5.61107">
        <ele>1212.2</ele>
        <time>2011-01-29T15:20:44Z</time>
      </trkpt>
      <trkpt lat="45.03061" lon="5.61092">
        <ele>1210.2</ele>
        <time>2011-01-29T15:20:50Z</time>
      </trkpt>
      <trkpt lat="45.03062" lon="5.61084">
        <ele>1209.2</ele>
        <time>2011-01-29T15:20:53Z</time>
      </trkpt>
      <trkpt lat="45.03061" lon="5.61078">
        <ele>1208.4</ele>
        <time>2011-01-29T15:20:55Z</time>
      </trkpt>
      <trkpt lat="45.03063" lon="5.61069">
        <ele>1207</ele>
        <time>2011-01-29T15:20:59Z</time>
      </trkpt>
      <trkpt lat="45.03069" lon="5.61062">
        <ele>1205</ele>
        <time>2011-01-29T15:21:04Z</time>
      </trkpt>
      <trkpt lat="45.0307" lon="5.61061">
        <ele>1204.6</ele>
        <time>2011-01-29T15:21:05Z</time>
      </trkpt>
      <trkpt lat="45.03074" lon="5.61061">
        <ele>1204</ele>
        <time>2011-01-29T15:21:07Z</time>
      </trkpt>
      <trkpt lat="45.03075" lon="5.61061">
        <ele>1203.2</ele>
        <time>2011-01-29T15:21:09Z</time>
      </trkpt>
      <trkpt lat="45.03086" lon="5.61067">
        <ele>1197</ele>
        <time>2011-01-29T15:21:30Z</time>
      </trkpt>
      <trkpt lat="45.0309" lon="5.61063">
        <ele>1196</ele>
        <time>2011-01-29T15:21:33Z</time>
      </trkpt>
      <trkpt lat="45.03099" lon="5.61052">
        <ele>1194.6</ele>
        <time>2011-01-29T15:21:38Z</time>
      </trkpt>
      <trkpt lat="45.031" lon="5.61051">
        <ele>1194.4</ele>
        <time>2011-01-29T15:21:39Z</time>
      </trkpt>
      <trkpt lat="45.03103" lon="5.6104">
        <ele>1193</ele>
        <time>2011-01-29T15:21:44Z</time>
      </trkpt>
      <trkpt lat="45.03112" lon="5.61029">
        <ele>1191</ele>
        <time>2011-01-29T15:21:51Z</time>
      </trkpt>
      <trkpt lat="45.03117" lon="5.6102">
        <ele>1189.6</ele>
        <time>2011-01-29T15:21:56Z</time>
      </trkpt>
      <trkpt lat="45.0312" lon="5.61018">
        <ele>1189</ele>
        <time>2011-01-29T15:21:58Z</time>
      </trkpt>
      <trkpt lat="45.03126" lon="5.6101">
        <ele>1187.6</ele>
        <time>2011-01-29T15:22:03Z</time>
      </trkpt>
      <trkpt lat="45.03128" lon="5.61008">
        <ele>1187</ele>
        <time>2011-01-29T15:22:05Z</time>
      </trkpt>
      <trkpt lat="45.03129" lon="5.61006">
        <ele>1186.4</ele>
        <time>2011-01-29T15:22:07Z</time>
      </trkpt>
      <trkpt lat="45.0313" lon="5.61005">
        <ele>1186</ele>
        <time>2011-01-29T15:22:08Z</time>
      </trkpt>
      <trkpt lat="45.03137" lon="5.60998">
        <ele>1185</ele>
        <time>2011-01-29T15:22:12Z</time>
      </trkpt>
      <trkpt lat="45.03138" lon="5.60996">
        <ele>1184.8</ele>
        <time>2011-01-29T15:22:13Z</time>
      </trkpt>
      <trkpt lat="45.03138" lon="5.60992">
        <ele>1184.2</ele>
        <time>2011-01-29T15:22:15Z</time>
      </trkpt>
      <trkpt lat="45.0314" lon="5.6099">
        <ele>1183.8</ele>
        <time>2011-01-29T15:22:16Z</time>
      </trkpt>
      <trkpt lat="45.03143" lon="5.60988">
        <ele>1183.6</ele>
        <time>2011-01-29T15:22:17Z</time>
      </trkpt>
      <trkpt lat="45.03152" lon="5.60979">
        <ele>1182.4</ele>
        <time>2011-01-29T15:22:22Z</time>
      </trkpt>
      <trkpt lat="45.03153" lon="5.60973">
        <ele>1181.6</ele>
        <time>2011-01-29T15:22:25Z</time>
      </trkpt>
      <trkpt lat="45.03155" lon="5.6097">
        <ele>1181.2</ele>
        <time>2011-01-29T15:22:27Z</time>
      </trkpt>
      <trkpt lat="45.03155" lon="5.60968">
        <ele>1181</ele>
        <time>2011-01-29T15:22:28Z</time>
      </trkpt>
      <trkpt lat="45.03154" lon="5.60956">
        <ele>1179.6</ele>
        <time>2011-01-29T15:22:33Z</time>
      </trkpt>
      <trkpt lat="45.03158" lon="5.60954">
        <ele>1179</ele>
        <time>2011-01-29T15:22:35Z</time>
      </trkpt>
      <trkpt lat="45.03162" lon="5.60951">
        <ele>1178.4</ele>
        <time>2011-01-29T15:22:37Z</time>
      </trkpt>
      <trkpt lat="45.03162" lon="5.60948">
        <ele>1177.8</ele>
        <time>2011-01-29T15:22:39Z</time>
      </trkpt>
      <trkpt lat="45.03167" lon="5.60942">
        <ele>1177</ele>
        <time>2011-01-29T15:22:42Z</time>
      </trkpt>
      <trkpt lat="45.03171" lon="5.60933">
        <ele>1176</ele>
        <time>2011-01-29T15:22:45Z</time>
      </trkpt>
      <trkpt lat="45.03174" lon="5.6093">
        <ele>1175.8</ele>
        <time>2011-01-29T15:22:46Z</time>
      </trkpt>
      <trkpt lat="45.0318" lon="5.60923">
        <ele>1175.4</ele>
        <time>2011-01-29T15:22:48Z</time>
      </trkpt>
      <trkpt lat="45.03184" lon="5.60913">
        <ele>1174.8</ele>
        <time>2011-01-29T15:22:51Z</time>
      </trkpt>
      <trkpt lat="45.03189" lon="5.60903">
        <ele>1173.6</ele>
        <time>2011-01-29T15:22:56Z</time>
      </trkpt>
      <trkpt lat="45.03186" lon="5.60895">
        <ele>1173</ele>
        <time>2011-01-29T15:22:59Z</time>
      </trkpt>
      <trkpt lat="45.03185" lon="5.60892">
        <ele>1172.6</ele>
        <time>2011-01-29T15:23:01Z</time>
      </trkpt>
      <trkpt lat="45.03188" lon="5.6089">
        <ele>1171</ele>
        <time>2011-01-29T15:23:06Z</time>
      </trkpt>
      <trkpt lat="45.03193" lon="5.60889">
        <ele>1170.4</ele>
        <time>2011-01-29T15:23:08Z</time>
      </trkpt>
      <trkpt lat="45.03201" lon="5.60882">
        <ele>1169.4</ele>
        <time>2011-01-29T15:23:11Z</time>
      </trkpt>
      <trkpt lat="45.03207" lon="5.6087">
        <ele>1167.4</ele>
        <time>2011-01-29T15:23:17Z</time>
      </trkpt>
      <trkpt lat="45.0321" lon="5.60867">
        <ele>1166.8</ele>
        <time>2011-01-29T15:23:19Z</time>
      </trkpt>
      <trkpt lat="45.03212" lon="5.60866">
        <ele>1166.4</ele>
        <time>2011-01-29T15:23:20Z</time>
      </trkpt>
      <trkpt lat="45.03215" lon="5.60866">
        <ele>1166.2</ele>
        <time>2011-01-29T15:23:21Z</time>
      </trkpt>
      <trkpt lat="45.03221" lon="5.60865">
        <ele>1165.4</ele>
        <time>2011-01-29T15:23:24Z</time>
      </trkpt>
      <trkpt lat="45.03229" lon="5.60861">
        <ele>1163.8</ele>
        <time>2011-01-29T15:23:30Z</time>
      </trkpt>
      <trkpt lat="45.03231" lon="5.6086">
        <ele>1163.2</ele>
        <time>2011-01-29T15:23:32Z</time>
      </trkpt>
      <trkpt lat="45.03233" lon="5.60859">
        <ele>1163</ele>
        <time>2011-01-29T15:23:33Z</time>
      </trkpt>
      <trkpt lat="45.03238" lon="5.60858">
        <ele>1162.2</ele>
        <time>2011-01-29T15:23:36Z</time>
      </trkpt>
      <trkpt lat="45.03246" lon="5.60856">
        <ele>1161.4</ele>
        <time>2011-01-29T15:23:40Z</time>
      </trkpt>
      <trkpt lat="45.03247" lon="5.60856">
        <ele>1161</ele>
        <time>2011-01-29T15:23:41Z</time>
      </trkpt>
      <trkpt lat="45.03251" lon="5.60855">
        <ele>1160</ele>
        <time>2011-01-29T15:23:44Z</time>
      </trkpt>
      <trkpt lat="45.03255" lon="5.60853">
        <ele>1159.2</ele>
        <time>2011-01-29T15:23:46Z</time>
      </trkpt>
      <trkpt lat="45.03259" lon="5.60854">
        <ele>1158.6</ele>
        <time>2011-01-29T15:23:48Z</time>
      </trkpt>
      <trkpt lat="45.03271" lon="5.60857">
        <ele>1157.4</ele>
        <time>2011-01-29T15:23:52Z</time>
      </trkpt>
      <trkpt lat="45.03272" lon="5.6086">
        <ele>1156.6</ele>
        <time>2011-01-29T15:23:54Z</time>
      </trkpt>
      <trkpt lat="45.03277" lon="5.60865">
        <ele>1155.4</ele>
        <time>2011-01-29T15:23:57Z</time>
      </trkpt>
      <trkpt lat="45.03279" lon="5.60868">
        <ele>1155.2</ele>
        <time>2011-01-29T15:23:58Z</time>
      </trkpt>
      <trkpt lat="45.03281" lon="5.60869">
        <ele>1154.8</ele>
        <time>2011-01-29T15:23:59Z</time>
      </trkpt>
      <trkpt lat="45.03288" lon="5.60872">
        <ele>1153.8</ele>
        <time>2011-01-29T15:24:02Z</time>
      </trkpt>
      <trkpt lat="45.0329" lon="5.60872">
        <ele>1153.4</ele>
        <time>2011-01-29T15:24:03Z</time>
      </trkpt>
      <trkpt lat="45.03295" lon="5.60871">
        <ele>1152.6</ele>
        <time>2011-01-29T15:24:05Z</time>
      </trkpt>
      <trkpt lat="45.03303" lon="5.60867">
        <ele>1151</ele>
        <time>2011-01-29T15:24:09Z</time>
      </trkpt>
      <trkpt lat="45.03307" lon="5.60866">
        <ele>1150.2</ele>
        <time>2011-01-29T15:24:11Z</time>
      </trkpt>
      <trkpt lat="45.03307" lon="5.60866">
        <ele>1149.8</ele>
        <time>2011-01-29T15:24:12Z</time>
      </trkpt>
      <trkpt lat="45.0331" lon="5.60864">
        <ele>1149</ele>
        <time>2011-01-29T15:24:14Z</time>
      </trkpt>
      <trkpt lat="45.03319" lon="5.60861">
        <ele>1147.4</ele>
        <time>2011-01-29T15:24:18Z</time>
      </trkpt>
      <trkpt lat="45.03323" lon="5.60859">
        <ele>1146.6</ele>
        <time>2011-01-29T15:24:20Z</time>
      </trkpt>
      <trkpt lat="45.03326" lon="5.60857">
        <ele>1146</ele>
        <time>2011-01-29T15:24:22Z</time>
      </trkpt>
      <trkpt lat="45.03331" lon="5.60854">
        <ele>1144.8</ele>
        <time>2011-01-29T15:24:25Z</time>
      </trkpt>
      <trkpt lat="45.03332" lon="5.60852">
        <ele>1144.4</ele>
        <time>2011-01-29T15:24:26Z</time>
      </trkpt>
      <trkpt lat="45.03334" lon="5.6085">
        <ele>1143.4</ele>
        <time>2011-01-29T15:24:29Z</time>
      </trkpt>
      <trkpt lat="45.03337" lon="5.6085">
        <ele>1142.6</ele>
        <time>2011-01-29T15:24:31Z</time>
      </trkpt>
      <trkpt lat="45.03345" lon="5.60852">
        <ele>1141</ele>
        <time>2011-01-29T15:24:35Z</time>
      </trkpt>
      <trkpt lat="45.03355" lon="5.60858">
        <ele>1139.8</ele>
        <time>2011-01-29T15:24:39Z</time>
      </trkpt>
      <trkpt lat="45.03362" lon="5.60861">
        <ele>1139.4</ele>
        <time>2011-01-29T15:24:41Z</time>
      </trkpt>
      <trkpt lat="45.03367" lon="5.60863">
        <ele>1139</ele>
        <time>2011-01-29T15:24:42Z</time>
      </trkpt>
      <trkpt lat="45.0337" lon="5.60864">
        <ele>1138.8</ele>
        <time>2011-01-29T15:24:43Z</time>
      </trkpt>
      <trkpt lat="45.0338" lon="5.60868">
        <ele>1138.6</ele>
        <time>2011-01-29T15:24:45Z</time>
      </trkpt>
      <trkpt lat="45.03384" lon="5.6087">
        <ele>1138.4</ele>
        <time>2011-01-29T15:24:46Z</time>
      </trkpt>
      <trkpt lat="45.03386" lon="5.60873">
        <ele>1138</ele>
        <time>2011-01-29T15:24:47Z</time>
      </trkpt>
      <trkpt lat="45.03388" lon="5.60883">
        <ele>1137</ele>
        <time>2011-01-29T15:24:51Z</time>
      </trkpt>
      <trkpt lat="45.03394" lon="5.60888">
        <ele>1136.2</ele>
        <time>2011-01-29T15:24:54Z</time>
      </trkpt>
      <trkpt lat="45.03398" lon="5.60893">
        <ele>1135.6</ele>
        <time>2011-01-29T15:24:56Z</time>
      </trkpt>
      <trkpt lat="45.03405" lon="5.60899">
        <ele>1134.2</ele>
        <time>2011-01-29T15:25:00Z</time>
      </trkpt>
      <trkpt lat="45.03409" lon="5.60905">
        <ele>1133.6</ele>
        <time>2011-01-29T15:25:02Z</time>
      </trkpt>
      <trkpt lat="45.03414" lon="5.60913">
        <ele>1132.6</ele>
        <time>2011-01-29T15:25:05Z</time>
      </trkpt>
      <trkpt lat="45.03421" lon="5.60922">
        <ele>1130.8</ele>
        <time>2011-01-29T15:25:10Z</time>
      </trkpt>
      <trkpt lat="45.03421" lon="5.60924">
        <ele>1130.4</ele>
        <time>2011-01-29T15:25:11Z</time>
      </trkpt>
      <trkpt lat="45.03423" lon="5.60932">
        <ele>1129</ele>
        <time>2011-01-29T15:25:15Z</time>
      </trkpt>
      <trkpt lat="45.03429" lon="5.60941">
        <ele>1126.4</ele>
        <time>2011-01-29T15:25:21Z</time>
      </trkpt>
      <trkpt lat="45.03429" lon="5.60942">
        <ele>1126</ele>
        <time>2011-01-29T15:25:22Z</time>
      </trkpt>
      <trkpt lat="45.03431" lon="5.60946">
        <ele>1125.2</ele>
        <time>2011-01-29T15:25:24Z</time>
      </trkpt>
      <trkpt lat="45.03432" lon="5.60949">
        <ele>1124.2</ele>
        <time>2011-01-29T15:25:26Z</time>
      </trkpt>
      <trkpt lat="45.03432" lon="5.60951">
        <ele>1123.8</ele>
        <time>2011-01-29T15:25:27Z</time>
      </trkpt>
      <trkpt lat="45.03435" lon="5.60957">
        <ele>1122.4</ele>
        <time>2011-01-29T15:25:30Z</time>
      </trkpt>
      <trkpt lat="45.03436" lon="5.60959">
        <ele>1122</ele>
        <time>2011-01-29T15:25:31Z</time>
      </trkpt>
      <trkpt lat="45.03441" lon="5.60967">
        <ele>1119.8</ele>
        <time>2011-01-29T15:25:36Z</time>
      </trkpt>
      <trkpt lat="45.03442" lon="5.6097">
        <ele>1119.4</ele>
        <time>2011-01-29T15:25:37Z</time>
      </trkpt>
      <trkpt lat="45.03444" lon="5.60971">
        <ele>1118.8</ele>
        <time>2011-01-29T15:25:38Z</time>
      </trkpt>
      <trkpt lat="45.03447" lon="5.60978">
        <ele>1117</ele>
        <time>2011-01-29T15:25:42Z</time>
      </trkpt>
      <trkpt lat="45.03447" lon="5.60983">
        <ele>1115</ele>
        <time>2011-01-29T15:25:46Z</time>
      </trkpt>
      <trkpt lat="45.03447" lon="5.60993">
        <ele>1113.2</ele>
        <time>2011-01-29T15:25:50Z</time>
      </trkpt>
      <trkpt lat="45.03449" lon="5.60998">
        <ele>1112.2</ele>
        <time>2011-01-29T15:25:52Z</time>
      </trkpt>
      <trkpt lat="45.03455" lon="5.61015">
        <ele>1109.2</ele>
        <time>2011-01-29T15:25:59Z</time>
      </trkpt>
      <trkpt lat="45.03456" lon="5.61018">
        <ele>1109</ele>
        <time>2011-01-29T15:26:00Z</time>
      </trkpt>
      <trkpt lat="45.03461" lon="5.61027">
        <ele>1107.6</ele>
        <time>2011-01-29T15:26:04Z</time>
      </trkpt>
      <trkpt lat="45.03465" lon="5.61037">
        <ele>1105.8</ele>
        <time>2011-01-29T15:26:09Z</time>
      </trkpt>
      <trkpt lat="45.03465" lon="5.6104">
        <ele>1105.6</ele>
        <time>2011-01-29T15:26:10Z</time>
      </trkpt>
      <trkpt lat="45.03471" lon="5.61049">
        <ele>1104.2</ele>
        <time>2011-01-29T15:26:15Z</time>
      </trkpt>
      <trkpt lat="45.03474" lon="5.61052">
        <ele>1103.6</ele>
        <time>2011-01-29T15:26:17Z</time>
      </trkpt>
      <trkpt lat="45.03478" lon="5.61058">
        <ele>1102.6</ele>
        <time>2011-01-29T15:26:20Z</time>
      </trkpt>
      <trkpt lat="45.03482" lon="5.6107">
        <ele>1100.4</ele>
        <time>2011-01-29T15:26:26Z</time>
      </trkpt>
      <trkpt lat="45.03488" lon="5.6108">
        <ele>1098.6</ele>
        <time>2011-01-29T15:26:31Z</time>
      </trkpt>
      <trkpt lat="45.03497" lon="5.61093">
        <ele>1096.2</ele>
        <time>2011-01-29T15:26:37Z</time>
      </trkpt>
      <trkpt lat="45.035" lon="5.611">
        <ele>1095</ele>
        <time>2011-01-29T15:26:40Z</time>
      </trkpt>
      <trkpt lat="45.03505" lon="5.61106">
        <ele>1093.6</ele>
        <time>2011-01-29T15:26:43Z</time>
      </trkpt>
      <trkpt lat="45.03513" lon="5.6112">
        <ele>1091.2</ele>
        <time>2011-01-29T15:26:49Z</time>
      </trkpt>
      <trkpt lat="45.03518" lon="5.61137">
        <ele>1088.4</ele>
        <time>2011-01-29T15:26:55Z</time>
      </trkpt>
      <trkpt lat="45.03521" lon="5.61144">
        <ele>1087.6</ele>
        <time>2011-01-29T15:26:57Z</time>
      </trkpt>
      <trkpt lat="45.03523" lon="5.61153">
        <ele>1086.2</ele>
        <time>2011-01-29T15:27:00Z</time>
      </trkpt>
      <trkpt lat="45.03528" lon="5.61167">
        <ele>1083.8</ele>
        <time>2011-01-29T15:27:05Z</time>
      </trkpt>
      <trkpt lat="45.03529" lon="5.61169">
        <ele>1083.4</ele>
        <time>2011-01-29T15:27:06Z</time>
      </trkpt>
      <trkpt lat="45.03533" lon="5.61183">
        <ele>1081</ele>
        <time>2011-01-29T15:27:11Z</time>
      </trkpt>
      <trkpt lat="45.03537" lon="5.61194">
        <ele>1079.2</ele>
        <time>2011-01-29T15:27:15Z</time>
      </trkpt>
      <trkpt lat="45.03538" lon="5.61197">
        <ele>1078.8</ele>
        <time>2011-01-29T15:27:16Z</time>
      </trkpt>
      <trkpt lat="45.03544" lon="5.61206">
        <ele>1076.8</ele>
        <time>2011-01-29T15:27:20Z</time>
      </trkpt>
      <trkpt lat="45.03547" lon="5.61216">
        <ele>1075</ele>
        <time>2011-01-29T15:27:24Z</time>
      </trkpt>
      <trkpt lat="45.03551" lon="5.61221">
        <ele>1074</ele>
        <time>2011-01-29T15:27:26Z</time>
      </trkpt>
      <trkpt lat="45.03561" lon="5.61235">
        <ele>1071.4</ele>
        <time>2011-01-29T15:27:32Z</time>
      </trkpt>
      <trkpt lat="45.03563" lon="5.61239">
        <ele>1070.6</ele>
        <time>2011-01-29T15:27:34Z</time>
      </trkpt>
      <trkpt lat="45.03569" lon="5.61244">
        <ele>1069.4</ele>
        <time>2011-01-29T15:27:37Z</time>
      </trkpt>
      <trkpt lat="45.03576" lon="5.61249">
        <ele>1068.2</ele>
        <time>2011-01-29T15:27:40Z</time>
      </trkpt>
      <trkpt lat="45.03579" lon="5.61252">
        <ele>1067.4</ele>
        <time>2011-01-29T15:27:42Z</time>
      </trkpt>
      <trkpt lat="45.03589" lon="5.61261">
        <ele>1065.4</ele>
        <time>2011-01-29T15:27:47Z</time>
      </trkpt>
      <trkpt lat="45.03591" lon="5.61262">
        <ele>1065</ele>
        <time>2011-01-29T15:27:48Z</time>
      </trkpt>
      <trkpt lat="45.036" lon="5.61267">
        <ele>1062.8</ele>
        <time>2011-01-29T15:27:53Z</time>
      </trkpt>
      <trkpt lat="45.03609" lon="5.6127">
        <ele>1061.8</ele>
        <time>2011-01-29T15:27:56Z</time>
      </trkpt>
      <trkpt lat="45.03614" lon="5.6127">
        <ele>1061</ele>
        <time>2011-01-29T15:27:58Z</time>
      </trkpt>
      <trkpt lat="45.03628" lon="5.61271">
        <ele>1059.4</ele>
        <time>2011-01-29T15:28:03Z</time>
      </trkpt>
      <trkpt lat="45.03637" lon="5.61274">
        <ele>1057.2</ele>
        <time>2011-01-29T15:28:09Z</time>
      </trkpt>
      <trkpt lat="45.03646" lon="5.61275">
        <ele>1056.2</ele>
        <time>2011-01-29T15:28:12Z</time>
      </trkpt>
      <trkpt lat="45.0365" lon="5.61276">
        <ele>1055.8</ele>
        <time>2011-01-29T15:28:13Z</time>
      </trkpt>
      <trkpt lat="45.0366" lon="5.61277">
        <ele>1054.2</ele>
        <time>2011-01-29T15:28:18Z</time>
      </trkpt>
      <trkpt lat="45.03663" lon="5.6128">
        <ele>1053.6</ele>
        <time>2011-01-29T15:28:20Z</time>
      </trkpt>
      <trkpt lat="45.03668" lon="5.61284">
        <ele>1053</ele>
        <time>2011-01-29T15:28:22Z</time>
      </trkpt>
      <trkpt lat="45.03678" lon="5.61291">
        <ele>1051.4</ele>
        <time>2011-01-29T15:28:27Z</time>
      </trkpt>
      <trkpt lat="45.0368" lon="5.61293">
        <ele>1051</ele>
        <time>2011-01-29T15:28:28Z</time>
      </trkpt>
      <trkpt lat="45.03687" lon="5.61299">
        <ele>1049.6</ele>
        <time>2011-01-29T15:28:33Z</time>
      </trkpt>
      <trkpt lat="45.03695" lon="5.61303">
        <ele>1048.4</ele>
        <time>2011-01-29T15:28:37Z</time>
      </trkpt>
      <trkpt lat="45.03698" lon="5.61303">
        <ele>1048.2</ele>
        <time>2011-01-29T15:28:38Z</time>
      </trkpt>
      <trkpt lat="45.03711" lon="5.61309">
        <ele>1047</ele>
        <time>2011-01-29T15:28:43Z</time>
      </trkpt>
      <trkpt lat="45.03716" lon="5.61312">
        <ele>1046.2</ele>
        <time>2011-01-29T15:28:46Z</time>
      </trkpt>
      <trkpt lat="45.03719" lon="5.61315">
        <ele>1045.6</ele>
        <time>2011-01-29T15:28:48Z</time>
      </trkpt>
      <trkpt lat="45.03734" lon="5.61322">
        <ele>1044.4</ele>
        <time>2011-01-29T15:28:53Z</time>
      </trkpt>
      <trkpt lat="45.03742" lon="5.61332">
        <ele>1043</ele>
        <time>2011-01-29T15:28:58Z</time>
      </trkpt>
      <trkpt lat="45.03744" lon="5.61333">
        <ele>1042.6</ele>
        <time>2011-01-29T15:28:59Z</time>
      </trkpt>
      <trkpt lat="45.03748" lon="5.61338">
        <ele>1041.4</ele>
        <time>2011-01-29T15:29:03Z</time>
      </trkpt>
      <trkpt lat="45.03749" lon="5.61339">
        <ele>1041</ele>
        <time>2011-01-29T15:29:04Z</time>
      </trkpt>
      <trkpt lat="45.03754" lon="5.61343">
        <ele>1040.2</ele>
        <time>2011-01-29T15:29:07Z</time>
      </trkpt>
      <trkpt lat="45.03761" lon="5.61356">
        <ele>1037.6</ele>
        <time>2011-01-29T15:29:15Z</time>
      </trkpt>
      <trkpt lat="45.03762" lon="5.61359">
        <ele>1037</ele>
        <time>2011-01-29T15:29:17Z</time>
      </trkpt>
      <trkpt lat="45.03766" lon="5.61367">
        <ele>1035.4</ele>
        <time>2011-01-29T15:29:22Z</time>
      </trkpt>
      <trkpt lat="45.0377" lon="5.61378">
        <ele>1033.4</ele>
        <time>2011-01-29T15:29:28Z</time>
      </trkpt>
      <trkpt lat="45.0377" lon="5.6138">
        <ele>1033</ele>
        <time>2011-01-29T15:29:29Z</time>
      </trkpt>
      <trkpt lat="45.03769" lon="5.61382">
        <ele>1032.6</ele>
        <time>2011-01-29T15:29:30Z</time>
      </trkpt>
      <trkpt lat="45.03766" lon="5.61389">
        <ele>1031.2</ele>
        <time>2011-01-29T15:29:34Z</time>
      </trkpt>
      <trkpt lat="45.03766" lon="5.6139">
        <ele>1031</ele>
        <time>2011-01-29T15:29:35Z</time>
      </trkpt>
      <trkpt lat="45.03765" lon="5.61401">
        <ele>1029.2</ele>
        <time>2011-01-29T15:29:40Z</time>
      </trkpt>
      <trkpt lat="45.03763" lon="5.61406">
        <ele>1028.2</ele>
        <time>2011-01-29T15:29:43Z</time>
      </trkpt>
      <trkpt lat="45.03762" lon="5.61413">
        <ele>1027.2</ele>
        <time>2011-01-29T15:29:46Z</time>
      </trkpt>
      <trkpt lat="45.03759" lon="5.61428">
        <ele>1025.4</ele>
        <time>2011-01-29T15:29:52Z</time>
      </trkpt>
      <trkpt lat="45.03759" lon="5.61432">
        <ele>1024.8</ele>
        <time>2011-01-29T15:29:54Z</time>
      </trkpt>
      <trkpt lat="45.03759" lon="5.61435">
        <ele>1024.4</ele>
        <time>2011-01-29T15:29:55Z</time>
      </trkpt>
      <trkpt lat="45.03761" lon="5.6144">
        <ele>1023.6</ele>
        <time>2011-01-29T15:29:58Z</time>
      </trkpt>
      <trkpt lat="45.03767" lon="5.61449">
        <ele>1021.6</ele>
        <time>2011-01-29T15:30:05Z</time>
      </trkpt>
      <trkpt lat="45.03769" lon="5.61454">
        <ele>1020.6</ele>
        <time>2011-01-29T15:30:08Z</time>
      </trkpt>
      <trkpt lat="45.03772" lon="5.61462">
        <ele>1019.6</ele>
        <time>2011-01-29T15:30:12Z</time>
      </trkpt>
      <trkpt lat="45.03773" lon="5.6147">
        <ele>1018.6</ele>
        <time>2011-01-29T15:30:16Z</time>
      </trkpt>
      <trkpt lat="45.03774" lon="5.61474">
        <ele>1018.2</ele>
        <time>2011-01-29T15:30:18Z</time>
      </trkpt>
      <trkpt lat="45.03775" lon="5.61477">
        <ele>1017.8</ele>
        <time>2011-01-29T15:30:20Z</time>
      </trkpt>
      <trkpt lat="45.03777" lon="5.6148">
        <ele>1017.4</ele>
        <time>2011-01-29T15:30:22Z</time>
      </trkpt>
      <trkpt lat="45.03778" lon="5.6149">
        <ele>1016.4</ele>
        <time>2011-01-29T15:30:26Z</time>
      </trkpt>
      <trkpt lat="45.0378" lon="5.61498">
        <ele>1015.6</ele>
        <time>2011-01-29T15:30:30Z</time>
      </trkpt>
      <trkpt lat="45.03781" lon="5.615">
        <ele>1015.4</ele>
        <time>2011-01-29T15:30:31Z</time>
      </trkpt>
      <trkpt lat="45.03783" lon="5.61504">
        <ele>1014.8</ele>
        <time>2011-01-29T15:30:33Z</time>
      </trkpt>
      <trkpt lat="45.03787" lon="5.61508">
        <ele>1014.2</ele>
        <time>2011-01-29T15:30:36Z</time>
      </trkpt>
      <trkpt lat="45.03791" lon="5.61512">
        <ele>1013.2</ele>
        <time>2011-01-29T15:30:40Z</time>
      </trkpt>
      <trkpt lat="45.03793" lon="5.61516">
        <ele>1012.6</ele>
        <time>2011-01-29T15:30:42Z</time>
      </trkpt>
      <trkpt lat="45.03797" lon="5.61522">
        <ele>1012</ele>
        <time>2011-01-29T15:30:45Z</time>
      </trkpt>
      <trkpt lat="45.03798" lon="5.61525">
        <ele>1011.8</ele>
        <time>2011-01-29T15:30:46Z</time>
      </trkpt>
      <trkpt lat="45.03805" lon="5.6154">
        <ele>1010.6</ele>
        <time>2011-01-29T15:30:51Z</time>
      </trkpt>
      <trkpt lat="45.03809" lon="5.61545">
        <ele>1010</ele>
        <time>2011-01-29T15:30:53Z</time>
      </trkpt>
      <trkpt lat="45.03813" lon="5.61548">
        <ele>1009.6</ele>
        <time>2011-01-29T15:30:55Z</time>
      </trkpt>
      <trkpt lat="45.03816" lon="5.6155">
        <ele>1008.8</ele>
        <time>2011-01-29T15:30:58Z</time>
      </trkpt>
      <trkpt lat="45.03818" lon="5.61551">
        <ele>1008.4</ele>
        <time>2011-01-29T15:31:00Z</time>
      </trkpt>
      <trkpt lat="45.03821" lon="5.61553">
        <ele>1007.6</ele>
        <time>2011-01-29T15:31:03Z</time>
      </trkpt>
      <trkpt lat="45.03823" lon="5.61556">
        <ele>1006.8</ele>
        <time>2011-01-29T15:31:06Z</time>
      </trkpt>
      <trkpt lat="45.03825" lon="5.61557">
        <ele>1006.2</ele>
        <time>2011-01-29T15:31:08Z</time>
      </trkpt>
      <trkpt lat="45.03826" lon="5.61559">
        <ele>1006</ele>
        <time>2011-01-29T15:31:09Z</time>
      </trkpt>
      <trkpt lat="45.03829" lon="5.61562">
        <ele>1005.2</ele>
        <time>2011-01-29T15:31:12Z</time>
      </trkpt>
      <trkpt lat="45.03832" lon="5.61571">
        <ele>1003</ele>
        <time>2011-01-29T15:31:20Z</time>
      </trkpt>
      <trkpt lat="45.03837" lon="5.61578">
        <ele>1001.4</ele>
        <time>2011-01-29T15:31:26Z</time>
      </trkpt>
      <trkpt lat="45.03838" lon="5.61579">
        <ele>1001</ele>
        <time>2011-01-29T15:31:27Z</time>
      </trkpt>
      <trkpt lat="45.03838" lon="5.6158">
        <ele>1000.8</ele>
        <time>2011-01-29T15:31:28Z</time>
      </trkpt>
      <trkpt lat="45.0384" lon="5.61583">
        <ele>999.8</ele>
        <time>2011-01-29T15:31:31Z</time>
      </trkpt>
      <trkpt lat="45.03843" lon="5.61586">
        <ele>998.4</ele>
        <time>2011-01-29T15:31:36Z</time>
      </trkpt>
      <trkpt lat="45.03845" lon="5.61588">
        <ele>997.4</ele>
        <time>2011-01-29T15:31:39Z</time>
      </trkpt>
      <trkpt lat="45.03846" lon="5.61589">
        <ele>996.8</ele>
        <time>2011-01-29T15:31:41Z</time>
      </trkpt>
      <trkpt lat="45.03853" lon="5.61595">
        <ele>995.8</ele>
        <time>2011-01-29T15:31:45Z</time>
      </trkpt>
      <trkpt lat="45.03855" lon="5.61596">
        <ele>995.4</ele>
        <time>2011-01-29T15:31:46Z</time>
      </trkpt>
      <trkpt lat="45.03864" lon="5.61606">
        <ele>994</ele>
        <time>2011-01-29T15:31:51Z</time>
      </trkpt>
      <trkpt lat="45.03868" lon="5.61611">
        <ele>993.6</ele>
        <time>2011-01-29T15:31:53Z</time>
      </trkpt>
      <trkpt lat="45.03876" lon="5.61618">
        <ele>993</ele>
        <time>2011-01-29T15:31:56Z</time>
      </trkpt>
      <trkpt lat="45.03884" lon="5.61627">
        <ele>992.2</ele>
        <time>2011-01-29T15:32:00Z</time>
      </trkpt>
      <trkpt lat="45.03886" lon="5.6163">
        <ele>991.8</ele>
        <time>2011-01-29T15:32:01Z</time>
      </trkpt>
      <trkpt lat="45.03896" lon="5.61639">
        <ele>991.2</ele>
        <time>2011-01-29T15:32:05Z</time>
      </trkpt>
      <trkpt lat="45.03898" lon="5.61644">
        <ele>990.8</ele>
        <time>2011-01-29T15:32:07Z</time>
      </trkpt>
      <trkpt lat="45.03903" lon="5.61655">
        <ele>990</ele>
        <time>2011-01-29T15:32:11Z</time>
      </trkpt>
      <trkpt lat="45.0391" lon="5.61664">
        <ele>989</ele>
        <time>2011-01-29T15:32:15Z</time>
      </trkpt>
      <trkpt lat="45.03912" lon="5.61668">
        <ele>988.6</ele>
        <time>2011-01-29T15:32:17Z</time>
      </trkpt>
      <trkpt lat="45.03923" lon="5.61678">
        <ele>986.8</ele>
        <time>2011-01-29T15:32:23Z</time>
      </trkpt>
      <trkpt lat="45.03927" lon="5.61679">
        <ele>986.6</ele>
        <time>2011-01-29T15:32:24Z</time>
      </trkpt>
      <trkpt lat="45.03939" lon="5.6169">
        <ele>985.2</ele>
        <time>2011-01-29T15:32:29Z</time>
      </trkpt>
      <trkpt lat="45.03943" lon="5.61695">
        <ele>984.6</ele>
        <time>2011-01-29T15:32:31Z</time>
      </trkpt>
      <trkpt lat="45.03945" lon="5.61705">
        <ele>984</ele>
        <time>2011-01-29T15:32:34Z</time>
      </trkpt>
      <trkpt lat="45.03946" lon="5.6172">
        <ele>983</ele>
        <time>2011-01-29T15:32:38Z</time>
      </trkpt>
      <trkpt lat="45.03945" lon="5.61723">
        <ele>982.8</ele>
        <time>2011-01-29T15:32:39Z</time>
      </trkpt>
      <trkpt lat="45.0394" lon="5.61734">
        <ele>981.6</ele>
        <time>2011-01-29T15:32:44Z</time>
      </trkpt>
      <trkpt lat="45.0394" lon="5.61741">
        <ele>981</ele>
        <time>2011-01-29T15:32:46Z</time>
      </trkpt>
      <trkpt lat="45.0394" lon="5.61744">
        <ele>980.8</ele>
        <time>2011-01-29T15:32:47Z</time>
      </trkpt>
      <trkpt lat="45.0394" lon="5.61753">
        <ele>980.2</ele>
        <time>2011-01-29T15:32:50Z</time>
      </trkpt>
      <trkpt lat="45.03947" lon="5.61766">
        <ele>979.4</ele>
        <time>2011-01-29T15:32:55Z</time>
      </trkpt>
      <trkpt lat="45.03949" lon="5.61769">
        <ele>979.2</ele>
        <time>2011-01-29T15:32:56Z</time>
      </trkpt>
      <trkpt lat="45.0396" lon="5.61779">
        <ele>978.4</ele>
        <time>2011-01-29T15:33:01Z</time>
      </trkpt>
      <trkpt lat="45.03963" lon="5.61781">
        <ele>978.4</ele>
        <time>2011-01-29T15:33:02Z</time>
      </trkpt>
      <trkpt lat="45.03971" lon="5.61785">
        <ele>978</ele>
        <time>2011-01-29T15:33:06Z</time>
      </trkpt>
      <trkpt lat="45.0398" lon="5.61792">
        <ele>977.6</ele>
        <time>2011-01-29T15:33:10Z</time>
      </trkpt>
      <trkpt lat="45.0398" lon="5.61794">
        <ele>977.4</ele>
        <time>2011-01-29T15:33:11Z</time>
      </trkpt>
      <trkpt lat="45.03986" lon="5.61811">
        <ele>976.4</ele>
        <time>2011-01-29T15:33:17Z</time>
      </trkpt>
      <trkpt lat="45.03988" lon="5.61817">
        <ele>976</ele>
        <time>2011-01-29T15:33:19Z</time>
      </trkpt>
      <trkpt lat="45.0399" lon="5.61825">
        <ele>975.4</ele>
        <time>2011-01-29T15:33:22Z</time>
      </trkpt>
      <trkpt lat="45.03999" lon="5.61836">
        <ele>974.4</ele>
        <time>2011-01-29T15:33:27Z</time>
      </trkpt>
      <trkpt lat="45.04006" lon="5.61852">
        <ele>973.4</ele>
        <time>2011-01-29T15:33:32Z</time>
      </trkpt>
      <trkpt lat="45.0401" lon="5.6186">
        <ele>972.8</ele>
        <time>2011-01-29T15:33:35Z</time>
      </trkpt>
      <trkpt lat="45.04012" lon="5.61865">
        <ele>972.4</ele>
        <time>2011-01-29T15:33:37Z</time>
      </trkpt>
      <trkpt lat="45.04018" lon="5.61877">
        <ele>971.4</ele>
        <time>2011-01-29T15:33:41Z</time>
      </trkpt>
      <trkpt lat="45.0402" lon="5.61882">
        <ele>971</ele>
        <time>2011-01-29T15:33:43Z</time>
      </trkpt>
      <trkpt lat="45.04026" lon="5.61891">
        <ele>970.2</ele>
        <time>2011-01-29T15:33:46Z</time>
      </trkpt>
      <trkpt lat="45.04033" lon="5.61901">
        <ele>969</ele>
        <time>2011-01-29T15:33:50Z</time>
      </trkpt>
      <trkpt lat="45.04046" lon="5.6191">
        <ele>967.8</ele>
        <time>2011-01-29T15:33:55Z</time>
      </trkpt>
      <trkpt lat="45.0405" lon="5.61914">
        <ele>967.4</ele>
        <time>2011-01-29T15:33:57Z</time>
      </trkpt>
      <trkpt lat="45.04057" lon="5.61919">
        <ele>966.6</ele>
        <time>2011-01-29T15:34:00Z</time>
      </trkpt>
      <trkpt lat="45.04065" lon="5.61922">
        <ele>965.4</ele>
        <time>2011-01-29T15:34:04Z</time>
      </trkpt>
      <trkpt lat="45.04069" lon="5.61923">
        <ele>965</ele>
        <time>2011-01-29T15:34:06Z</time>
      </trkpt>
      <trkpt lat="45.04073" lon="5.61921">
        <ele>964</ele>
        <time>2011-01-29T15:34:09Z</time>
      </trkpt>
      <trkpt lat="45.04086" lon="5.61924">
        <ele>962.6</ele>
        <time>2011-01-29T15:34:14Z</time>
      </trkpt>
      <trkpt lat="45.04096" lon="5.6193">
        <ele>961.4</ele>
        <time>2011-01-29T15:34:19Z</time>
      </trkpt>
      <trkpt lat="45.04102" lon="5.61935">
        <ele>960.4</ele>
        <time>2011-01-29T15:34:23Z</time>
      </trkpt>
      <trkpt lat="45.04104" lon="5.61936">
        <ele>960</ele>
        <time>2011-01-29T15:34:24Z</time>
      </trkpt>
      <trkpt lat="45.0411" lon="5.61945">
        <ele>958.6</ele>
        <time>2011-01-29T15:34:29Z</time>
      </trkpt>
      <trkpt lat="45.04112" lon="5.6195">
        <ele>957.6</ele>
        <time>2011-01-29T15:34:32Z</time>
      </trkpt>
      <trkpt lat="45.04113" lon="5.61957">
        <ele>956.6</ele>
        <time>2011-01-29T15:34:35Z</time>
      </trkpt>
      <trkpt lat="45.04113" lon="5.61959">
        <ele>956.2</ele>
        <time>2011-01-29T15:34:36Z</time>
      </trkpt>
      <trkpt lat="45.04112" lon="5.61974">
        <ele>954.4</ele>
        <time>2011-01-29T15:34:41Z</time>
      </trkpt>
      <trkpt lat="45.04113" lon="5.6198">
        <ele>953.4</ele>
        <time>2011-01-29T15:34:44Z</time>
      </trkpt>
      <trkpt lat="45.04113" lon="5.61983">
        <ele>952.8</ele>
        <time>2011-01-29T15:34:46Z</time>
      </trkpt>
      <trkpt lat="45.04115" lon="5.61985">
        <ele>952.4</ele>
        <time>2011-01-29T15:34:47Z</time>
      </trkpt>
      <trkpt lat="45.04118" lon="5.61991">
        <ele>951.4</ele>
        <time>2011-01-29T15:34:50Z</time>
      </trkpt>
      <trkpt lat="45.04123" lon="5.61997">
        <ele>950.6</ele>
        <time>2011-01-29T15:34:53Z</time>
      </trkpt>
      <trkpt lat="45.04129" lon="5.61999">
        <ele>950.2</ele>
        <time>2011-01-29T15:34:55Z</time>
      </trkpt>
      <trkpt lat="45.04129" lon="5.62">
        <ele>949.8</ele>
        <time>2011-01-29T15:34:56Z</time>
      </trkpt>
      <trkpt lat="45.04133" lon="5.62003">
        <ele>948.6</ele>
        <time>2011-01-29T15:35:00Z</time>
      </trkpt>
      <trkpt lat="45.0414" lon="5.62005">
        <ele>947.2</ele>
        <time>2011-01-29T15:35:04Z</time>
      </trkpt>
      <trkpt lat="45.04147" lon="5.62006">
        <ele>945.8</ele>
        <time>2011-01-29T15:35:09Z</time>
      </trkpt>
      <trkpt lat="45.0415" lon="5.62007">
        <ele>945</ele>
        <time>2011-01-29T15:35:11Z</time>
      </trkpt>
      <trkpt lat="45.0416" lon="5.62015">
        <ele>943.8</ele>
        <time>2011-01-29T15:35:15Z</time>
      </trkpt>
      <trkpt lat="45.04163" lon="5.62021">
        <ele>942.8</ele>
        <time>2011-01-29T15:35:18Z</time>
      </trkpt>
      <trkpt lat="45.04165" lon="5.62023">
        <ele>942.4</ele>
        <time>2011-01-29T15:35:19Z</time>
      </trkpt>
      <trkpt lat="45.04169" lon="5.62029">
        <ele>941.4</ele>
        <time>2011-01-29T15:35:22Z</time>
      </trkpt>
      <trkpt lat="45.04171" lon="5.6203">
        <ele>941.2</ele>
        <time>2011-01-29T15:35:23Z</time>
      </trkpt>
      <trkpt lat="45.04172" lon="5.62031">
        <ele>940.8</ele>
        <time>2011-01-29T15:35:24Z</time>
      </trkpt>
      <trkpt lat="45.04178" lon="5.62036">
        <ele>939.4</ele>
        <time>2011-01-29T15:35:28Z</time>
      </trkpt>
      <trkpt lat="45.04179" lon="5.62037">
        <ele>939</ele>
        <time>2011-01-29T15:35:29Z</time>
      </trkpt>
      <trkpt lat="45.04179" lon="5.62039">
        <ele>938.2</ele>
        <time>2011-01-29T15:35:31Z</time>
      </trkpt>
      <trkpt lat="45.04179" lon="5.62041">
        <ele>937.6</ele>
        <time>2011-01-29T15:35:32Z</time>
      </trkpt>
      <trkpt lat="45.04184" lon="5.62043">
        <ele>935.6</ele>
        <time>2011-01-29T15:35:37Z</time>
      </trkpt>
      <trkpt lat="45.04192" lon="5.62045">
        <ele>933</ele>
        <time>2011-01-29T15:35:43Z</time>
      </trkpt>
      <trkpt lat="45.04194" lon="5.62045">
        <ele>932.6</ele>
        <time>2011-01-29T15:35:44Z</time>
      </trkpt>
      <trkpt lat="45.04196" lon="5.62042">
        <ele>931</ele>
        <time>2011-01-29T15:35:47Z</time>
      </trkpt>
      <trkpt lat="45.04193" lon="5.62033">
        <ele>929.6</ele>
        <time>2011-01-29T15:35:50Z</time>
      </trkpt>
      <trkpt lat="45.04192" lon="5.62031">
        <ele>929</ele>
        <time>2011-01-29T15:35:51Z</time>
      </trkpt>
      <trkpt lat="45.04187" lon="5.62024">
        <ele>927</ele>
        <time>2011-01-29T15:35:55Z</time>
      </trkpt>
      <trkpt lat="45.04185" lon="5.62012">
        <ele>924</ele>
        <time>2011-01-29T15:36:01Z</time>
      </trkpt>
      <trkpt lat="45.04186" lon="5.61998">
        <ele>921.6</ele>
        <time>2011-01-29T15:36:06Z</time>
      </trkpt>
      <trkpt lat="45.04186" lon="5.61996">
        <ele>921.2</ele>
        <time>2011-01-29T15:36:07Z</time>
      </trkpt>
      <trkpt lat="45.04188" lon="5.61977">
        <ele>919</ele>
        <time>2011-01-29T15:36:12Z</time>
      </trkpt>
      <trkpt lat="45.04191" lon="5.61972">
        <ele>918</ele>
        <time>2011-01-29T15:36:14Z</time>
      </trkpt>
      <trkpt lat="45.04195" lon="5.61959">
        <ele>916.2</ele>
        <time>2011-01-29T15:36:18Z</time>
      </trkpt>
      <trkpt lat="45.04198" lon="5.61948">
        <ele>914.6</ele>
        <time>2011-01-29T15:36:22Z</time>
      </trkpt>
      <trkpt lat="45.04199" lon="5.61946">
        <ele>914.2</ele>
        <time>2011-01-29T15:36:23Z</time>
      </trkpt>
      <trkpt lat="45.04196" lon="5.61934">
        <ele>912.2</ele>
        <time>2011-01-29T15:36:28Z</time>
      </trkpt>
      <trkpt lat="45.04193" lon="5.61923">
        <ele>910.8</ele>
        <time>2011-01-29T15:36:32Z</time>
      </trkpt>
      <trkpt lat="45.04191" lon="5.61905">
        <ele>909</ele>
        <time>2011-01-29T15:36:38Z</time>
      </trkpt>
      <trkpt lat="45.04188" lon="5.61898">
        <ele>908</ele>
        <time>2011-01-29T15:36:41Z</time>
      </trkpt>
      <trkpt lat="45.04188" lon="5.6189">
        <ele>907</ele>
        <time>2011-01-29T15:36:44Z</time>
      </trkpt>
      <trkpt lat="45.04189" lon="5.61875">
        <ele>905.4</ele>
        <time>2011-01-29T15:36:49Z</time>
      </trkpt>
      <trkpt lat="45.04189" lon="5.61873">
        <ele>905.2</ele>
        <time>2011-01-29T15:36:50Z</time>
      </trkpt>
      <trkpt lat="45.04188" lon="5.61866">
        <ele>903.8</ele>
        <time>2011-01-29T15:36:54Z</time>
      </trkpt>
      <trkpt lat="45.04186" lon="5.61864">
        <ele>903.4</ele>
        <time>2011-01-29T15:36:55Z</time>
      </trkpt>
      <trkpt lat="45.04184" lon="5.61862">
        <ele>902.6</ele>
        <time>2011-01-29T15:36:57Z</time>
      </trkpt>
      <trkpt lat="45.04178" lon="5.61854">
        <ele>900.6</ele>
        <time>2011-01-29T15:37:02Z</time>
      </trkpt>
      <trkpt lat="45.04178" lon="5.61853">
        <ele>900.2</ele>
        <time>2011-01-29T15:37:03Z</time>
      </trkpt>
      <trkpt lat="45.04171" lon="5.61844">
        <ele>897.6</ele>
        <time>2011-01-29T15:37:09Z</time>
      </trkpt>
      <trkpt lat="45.04167" lon="5.61835">
        <ele>896</ele>
        <time>2011-01-29T15:37:13Z</time>
      </trkpt>
      <trkpt lat="45.04166" lon="5.61832">
        <ele>895.4</ele>
        <time>2011-01-29T15:37:14Z</time>
      </trkpt>
      <trkpt lat="45.04161" lon="5.61822">
        <ele>893.6</ele>
        <time>2011-01-29T15:37:19Z</time>
      </trkpt>
      <trkpt lat="45.04154" lon="5.61817">
        <ele>892.2</ele>
        <time>2011-01-29T15:37:23Z</time>
      </trkpt>
      <trkpt lat="45.04152" lon="5.61813">
        <ele>891.4</ele>
        <time>2011-01-29T15:37:25Z</time>
      </trkpt>
      <trkpt lat="45.04149" lon="5.61805">
        <ele>890.4</ele>
        <time>2011-01-29T15:37:28Z</time>
      </trkpt>
      <trkpt lat="45.04147" lon="5.61799">
        <ele>889.4</ele>
        <time>2011-01-29T15:37:31Z</time>
      </trkpt>
      <trkpt lat="45.04146" lon="5.61793">
        <ele>888.4</ele>
        <time>2011-01-29T15:37:34Z</time>
      </trkpt>
      <trkpt lat="45.04148" lon="5.6179">
        <ele>887.6</ele>
        <time>2011-01-29T15:37:36Z</time>
      </trkpt>
      <trkpt lat="45.0415" lon="5.61784">
        <ele>885.8</ele>
        <time>2011-01-29T15:37:40Z</time>
      </trkpt>
      <trkpt lat="45.04151" lon="5.61783">
        <ele>885</ele>
        <time>2011-01-29T15:37:42Z</time>
      </trkpt>
      <trkpt lat="45.04151" lon="5.61778">
        <ele>879.2</ele>
        <time>2011-01-29T15:37:56Z</time>
      </trkpt>
      <trkpt lat="45.04149" lon="5.61777">
        <ele>878.2</ele>
        <time>2011-01-29T15:37:59Z</time>
      </trkpt>
      <trkpt lat="45.04148" lon="5.61776">
        <ele>876.8</ele>
        <time>2011-01-29T15:38:03Z</time>
      </trkpt>
      <trkpt lat="45.04144" lon="5.61789">
        <ele>863.2</ele>
        <time>2011-01-29T15:38:53Z</time>
      </trkpt>
      <trkpt lat="45.04146" lon="5.6179">
        <ele>863</ele>
        <time>2011-01-29T15:38:57Z</time>
      </trkpt>
      <trkpt lat="45.04147" lon="5.61779">
        <ele>859</ele>
        <time>2011-01-29T15:39:21Z</time>
      </trkpt>
      <trkpt lat="45.04144" lon="5.61786">
        <ele>857.4</ele>
        <time>2011-01-29T15:39:29Z</time>
      </trkpt>
      <trkpt lat="45.04147" lon="5.61788">
        <ele>856.8</ele>
        <time>2011-01-29T15:39:32Z</time>
      </trkpt>
      <trkpt lat="45.04154" lon="5.61786">
        <ele>855.8</ele>
        <time>2011-01-29T15:39:37Z</time>
      </trkpt>
      <trkpt lat="45.04158" lon="5.61789">
        <ele>854.8</ele>
        <time>2011-01-29T15:39:42Z</time>
      </trkpt>
      <trkpt lat="45.0417" lon="5.61783">
        <ele>852.4</ele>
        <time>2011-01-29T15:39:56Z</time>
      </trkpt>
      <trkpt lat="45.04172" lon="5.61782">
        <ele>852.2</ele>
        <time>2011-01-29T15:39:58Z</time>
      </trkpt>
      <trkpt lat="45.04177" lon="5.61782">
        <ele>851.8</ele>
        <time>2011-01-29T15:40:01Z</time>
      </trkpt>
      <trkpt lat="45.04179" lon="5.61783">
        <ele>851.6</ele>
        <time>2011-01-29T15:40:02Z</time>
      </trkpt>
      <trkpt lat="45.0418" lon="5.61785">
        <ele>851.2</ele>
        <time>2011-01-29T15:40:04Z</time>
      </trkpt>
      <trkpt lat="45.04183" lon="5.61785">
        <ele>851</ele>
        <time>2011-01-29T15:40:06Z</time>
      </trkpt>
      <trkpt lat="45.04185" lon="5.61785">
        <ele>850.8</ele>
        <time>2011-01-29T15:40:07Z</time>
      </trkpt>
      <trkpt lat="45.04193" lon="5.61785">
        <ele>850.2</ele>
        <time>2011-01-29T15:40:11Z</time>
      </trkpt>
      <trkpt lat="45.04194" lon="5.61787">
        <ele>849.6</ele>
        <time>2011-01-29T15:40:13Z</time>
      </trkpt>
      <trkpt lat="45.04195" lon="5.6179">
        <ele>849.2</ele>
        <time>2011-01-29T15:40:15Z</time>
      </trkpt>
      <trkpt lat="45.04199" lon="5.61792">
        <ele>848.4</ele>
        <time>2011-01-29T15:40:18Z</time>
      </trkpt>
      <trkpt lat="45.04207" lon="5.61796">
        <ele>847.6</ele>
        <time>2011-01-29T15:40:22Z</time>
      </trkpt>
      <trkpt lat="45.04212" lon="5.61797">
        <ele>847.2</ele>
        <time>2011-01-29T15:40:24Z</time>
      </trkpt>
      <trkpt lat="45.04218" lon="5.618">
        <ele>846.8</ele>
        <time>2011-01-29T15:40:27Z</time>
      </trkpt>
      <trkpt lat="45.04222" lon="5.61804">
        <ele>846</ele>
        <time>2011-01-29T15:40:30Z</time>
      </trkpt>
      <trkpt lat="45.04229" lon="5.61808">
        <ele>845.2</ele>
        <time>2011-01-29T15:40:34Z</time>
      </trkpt>
      <trkpt lat="45.04233" lon="5.6181">
        <ele>844.8</ele>
        <time>2011-01-29T15:40:36Z</time>
      </trkpt>
      <trkpt lat="45.04248" lon="5.61812">
        <ele>843.6</ele>
        <time>2011-01-29T15:40:42Z</time>
      </trkpt>
      <trkpt lat="45.04264" lon="5.61816">
        <ele>842.6</ele>
        <time>2011-01-29T15:40:48Z</time>
      </trkpt>
      <trkpt lat="45.04267" lon="5.61817">
        <ele>842.4</ele>
        <time>2011-01-29T15:40:49Z</time>
      </trkpt>
      <trkpt lat="45.04277" lon="5.6182">
        <ele>842</ele>
        <time>2011-01-29T15:40:53Z</time>
      </trkpt>
      <trkpt lat="45.04283" lon="5.61826">
        <ele>841</ele>
        <time>2011-01-29T15:40:58Z</time>
      </trkpt>
      <trkpt lat="45.04284" lon="5.61828">
        <ele>840.8</ele>
        <time>2011-01-29T15:40:59Z</time>
      </trkpt>
      <trkpt lat="45.04285" lon="5.61832">
        <ele>840.2</ele>
        <time>2011-01-29T15:41:02Z</time>
      </trkpt>
      <trkpt lat="45.04285" lon="5.61833">
        <ele>839.8</ele>
        <time>2011-01-29T15:41:03Z</time>
      </trkpt>
      <trkpt lat="45.04291" lon="5.61832">
        <ele>838.8</ele>
        <time>2011-01-29T15:41:07Z</time>
      </trkpt>
      <trkpt lat="45.04292" lon="5.61833">
        <ele>838.6</ele>
        <time>2011-01-29T15:41:08Z</time>
      </trkpt>
      <trkpt lat="45.04295" lon="5.61833">
        <ele>838</ele>
        <time>2011-01-29T15:41:10Z</time>
      </trkpt>
      <trkpt lat="45.04297" lon="5.61835">
        <ele>837.2</ele>
        <time>2011-01-29T15:41:12Z</time>
      </trkpt>
      <trkpt lat="45.04299" lon="5.61839">
        <ele>836.6</ele>
        <time>2011-01-29T15:41:14Z</time>
      </trkpt>
      <trkpt lat="45.043" lon="5.61847">
        <ele>835.6</ele>
        <time>2011-01-29T15:41:17Z</time>
      </trkpt>
      <trkpt lat="45.04308" lon="5.61855">
        <ele>834</ele>
        <time>2011-01-29T15:41:22Z</time>
      </trkpt>
      <trkpt lat="45.0431" lon="5.61858">
        <ele>833.4</ele>
        <time>2011-01-29T15:41:24Z</time>
      </trkpt>
      <trkpt lat="45.04314" lon="5.61863">
        <ele>832.4</ele>
        <time>2011-01-29T15:41:27Z</time>
      </trkpt>
      <trkpt lat="45.04319" lon="5.61869">
        <ele>831</ele>
        <time>2011-01-29T15:41:31Z</time>
      </trkpt>
      <trkpt lat="45.04322" lon="5.61873">
        <ele>830</ele>
        <time>2011-01-29T15:41:34Z</time>
      </trkpt>
      <trkpt lat="45.04323" lon="5.61874">
        <ele>829.8</ele>
        <time>2011-01-29T15:41:35Z</time>
      </trkpt>
      <trkpt lat="45.04325" lon="5.61875">
        <ele>829.6</ele>
        <time>2011-01-29T15:41:36Z</time>
      </trkpt>
      <trkpt lat="45.04335" lon="5.61882">
        <ele>827.8</ele>
        <time>2011-01-29T15:41:42Z</time>
      </trkpt>
      <trkpt lat="45.04343" lon="5.61887">
        <ele>827</ele>
        <time>2011-01-29T15:41:45Z</time>
      </trkpt>
      <trkpt lat="45.04346" lon="5.6189">
        <ele>826.4</ele>
        <time>2011-01-29T15:41:47Z</time>
      </trkpt>
      <trkpt lat="45.04353" lon="5.61904">
        <ele>825.2</ele>
        <time>2011-01-29T15:41:52Z</time>
      </trkpt>
      <trkpt lat="45.04355" lon="5.61906">
        <ele>825</ele>
        <time>2011-01-29T15:41:53Z</time>
      </trkpt>
      <trkpt lat="45.04356" lon="5.61915">
        <ele>824.2</ele>
        <time>2011-01-29T15:41:56Z</time>
      </trkpt>
      <trkpt lat="45.04358" lon="5.61918">
        <ele>824</ele>
        <time>2011-01-29T15:41:57Z</time>
      </trkpt>
      <trkpt lat="45.04362" lon="5.61926">
        <ele>822.6</ele>
        <time>2011-01-29T15:42:02Z</time>
      </trkpt>
      <trkpt lat="45.04366" lon="5.61929">
        <ele>822</ele>
        <time>2011-01-29T15:42:04Z</time>
      </trkpt>
      <trkpt lat="45.0437" lon="5.61934">
        <ele>821</ele>
        <time>2011-01-29T15:42:07Z</time>
      </trkpt>
      <trkpt lat="45.04379" lon="5.61947">
        <ele>819</ele>
        <time>2011-01-29T15:42:13Z</time>
      </trkpt>
      <trkpt lat="45.04382" lon="5.61956">
        <ele>817.6</ele>
        <time>2011-01-29T15:42:17Z</time>
      </trkpt>
      <trkpt lat="45.04388" lon="5.61962">
        <ele>816.2</ele>
        <time>2011-01-29T15:42:21Z</time>
      </trkpt>
      <trkpt lat="45.04393" lon="5.61965">
        <ele>815.6</ele>
        <time>2011-01-29T15:42:23Z</time>
      </trkpt>
      <trkpt lat="45.04404" lon="5.61977">
        <ele>814.2</ele>
        <time>2011-01-29T15:42:28Z</time>
      </trkpt>
      <trkpt lat="45.04407" lon="5.61984">
        <ele>813</ele>
        <time>2011-01-29T15:42:31Z</time>
      </trkpt>
      <trkpt lat="45.04411" lon="5.61989">
        <ele>812.4</ele>
        <time>2011-01-29T15:42:33Z</time>
      </trkpt>
      <trkpt lat="45.04422" lon="5.62004">
        <ele>810.6</ele>
        <time>2011-01-29T15:42:39Z</time>
      </trkpt>
      <trkpt lat="45.04432" lon="5.62017">
        <ele>809</ele>
        <time>2011-01-29T15:42:44Z</time>
      </trkpt>
      <trkpt lat="45.04438" lon="5.62022">
        <ele>808.4</ele>
        <time>2011-01-29T15:42:46Z</time>
      </trkpt>
      <trkpt lat="45.04443" lon="5.62029">
        <ele>807.4</ele>
        <time>2011-01-29T15:42:49Z</time>
      </trkpt>
      <trkpt lat="45.04451" lon="5.62044">
        <ele>806.2</ele>
        <time>2011-01-29T15:42:54Z</time>
      </trkpt>
      <trkpt lat="45.04457" lon="5.62054">
        <ele>804.8</ele>
        <time>2011-01-29T15:42:58Z</time>
      </trkpt>
      <trkpt lat="45.04463" lon="5.62062">
        <ele>804</ele>
        <time>2011-01-29T15:43:01Z</time>
      </trkpt>
      <trkpt lat="45.04467" lon="5.62067">
        <ele>803.6</ele>
        <time>2011-01-29T15:43:03Z</time>
      </trkpt>
      <trkpt lat="45.04469" lon="5.62079">
        <ele>801.8</ele>
        <time>2011-01-29T15:43:08Z</time>
      </trkpt>
      <trkpt lat="45.04468" lon="5.62089">
        <ele>800</ele>
        <time>2011-01-29T15:43:12Z</time>
      </trkpt>
      <trkpt lat="45.04469" lon="5.62095">
        <ele>799</ele>
        <time>2011-01-29T15:43:14Z</time>
      </trkpt>
      <trkpt lat="45.04472" lon="5.62109">
        <ele>796</ele>
        <time>2011-01-29T15:43:20Z</time>
      </trkpt>
      <trkpt lat="45.04476" lon="5.62113">
        <ele>795</ele>
        <time>2011-01-29T15:43:22Z</time>
      </trkpt>
      <trkpt lat="45.04482" lon="5.62121">
        <ele>793</ele>
        <time>2011-01-29T15:43:26Z</time>
      </trkpt>
      <trkpt lat="45.0449" lon="5.62131">
        <ele>790.8</ele>
        <time>2011-01-29T15:43:31Z</time>
      </trkpt>
      <trkpt lat="45.04499" lon="5.62141">
        <ele>789.4</ele>
        <time>2011-01-29T15:43:35Z</time>
      </trkpt>
      <trkpt lat="45.04502" lon="5.62152">
        <ele>787.8</ele>
        <time>2011-01-29T15:43:39Z</time>
      </trkpt>
      <trkpt lat="45.04502" lon="5.62155">
        <ele>787.2</ele>
        <time>2011-01-29T15:43:40Z</time>
      </trkpt>
      <trkpt lat="45.04512" lon="5.62174">
        <ele>784.8</ele>
        <time>2011-01-29T15:43:47Z</time>
      </trkpt>
      <trkpt lat="45.04514" lon="5.62177">
        <ele>784.4</ele>
        <time>2011-01-29T15:43:48Z</time>
      </trkpt>
      <trkpt lat="45.04516" lon="5.62191">
        <ele>782.4</ele>
        <time>2011-01-29T15:43:53Z</time>
      </trkpt>
      <trkpt lat="45.04519" lon="5.62203">
        <ele>780.6</ele>
        <time>2011-01-29T15:43:57Z</time>
      </trkpt>
      <trkpt lat="45.04526" lon="5.6222">
        <ele>778.2</ele>
        <time>2011-01-29T15:44:03Z</time>
      </trkpt>
      <trkpt lat="45.04527" lon="5.62227">
        <ele>777.4</ele>
        <time>2011-01-29T15:44:05Z</time>
      </trkpt>
      <trkpt lat="45.0453" lon="5.62232">
        <ele>776.8</ele>
        <time>2011-01-29T15:44:07Z</time>
      </trkpt>
      <trkpt lat="45.04533" lon="5.62253">
        <ele>774</ele>
        <time>2011-01-29T15:44:14Z</time>
      </trkpt>
      <trkpt lat="45.04539" lon="5.62267">
        <ele>772.2</ele>
        <time>2011-01-29T15:44:19Z</time>
      </trkpt>
      <trkpt lat="45.04542" lon="5.62277">
        <ele>770.6</ele>
        <time>2011-01-29T15:44:23Z</time>
      </trkpt>
      <trkpt lat="45.04543" lon="5.62279">
        <ele>770.2</ele>
        <time>2011-01-29T15:44:24Z</time>
      </trkpt>
      <trkpt lat="45.04547" lon="5.62289">
        <ele>768.2</ele>
        <time>2011-01-29T15:44:29Z</time>
      </trkpt>
      <trkpt lat="45.04548" lon="5.62291">
        <ele>767.8</ele>
        <time>2011-01-29T15:44:30Z</time>
      </trkpt>
      <trkpt lat="45.04549" lon="5.62297">
        <ele>766.6</ele>
        <time>2011-01-29T15:44:33Z</time>
      </trkpt>
      <trkpt lat="45.04549" lon="5.62299">
        <ele>766</ele>
        <time>2011-01-29T15:44:34Z</time>
      </trkpt>
      <trkpt lat="45.0455" lon="5.62301">
        <ele>765.6</ele>
        <time>2011-01-29T15:44:35Z</time>
      </trkpt>
      <trkpt lat="45.04554" lon="5.62312">
        <ele>763.4</ele>
        <time>2011-01-29T15:44:40Z</time>
      </trkpt>
      <trkpt lat="45.0456" lon="5.62322">
        <ele>761.4</ele>
        <time>2011-01-29T15:44:44Z</time>
      </trkpt>
      <trkpt lat="45.04562" lon="5.62325">
        <ele>760.8</ele>
        <time>2011-01-29T15:44:45Z</time>
      </trkpt>
      <trkpt lat="45.04567" lon="5.62338">
        <ele>758.4</ele>
        <time>2011-01-29T15:44:50Z</time>
      </trkpt>
      <trkpt lat="45.0457" lon="5.62345">
        <ele>757.2</ele>
        <time>2011-01-29T15:44:52Z</time>
      </trkpt>
      <trkpt lat="45.04571" lon="5.62351">
        <ele>756.2</ele>
        <time>2011-01-29T15:44:54Z</time>
      </trkpt>
      <trkpt lat="45.04578" lon="5.62366">
        <ele>753</ele>
        <time>2011-01-29T15:45:00Z</time>
      </trkpt>
      <trkpt lat="45.0458" lon="5.62368">
        <ele>752.4</ele>
        <time>2011-01-29T15:45:01Z</time>
      </trkpt>
      <trkpt lat="45.0459" lon="5.62373">
        <ele>750.2</ele>
        <time>2011-01-29T15:45:05Z</time>
      </trkpt>
      <trkpt lat="45.04598" lon="5.62377">
        <ele>748.8</ele>
        <time>2011-01-29T15:45:08Z</time>
      </trkpt>
      <trkpt lat="45.04602" lon="5.62381">
        <ele>747.8</ele>
        <time>2011-01-29T15:45:10Z</time>
      </trkpt>
      <trkpt lat="45.04614" lon="5.62391">
        <ele>745.2</ele>
        <time>2011-01-29T15:45:15Z</time>
      </trkpt>
      <trkpt lat="45.04616" lon="5.62393">
        <ele>744.6</ele>
        <time>2011-01-29T15:45:16Z</time>
      </trkpt>
      <trkpt lat="45.04628" lon="5.62402">
        <ele>742.6</ele>
        <time>2011-01-29T15:45:21Z</time>
      </trkpt>
      <trkpt lat="45.04633" lon="5.6241">
        <ele>741.4</ele>
        <time>2011-01-29T15:45:24Z</time>
      </trkpt>
      <trkpt lat="45.04635" lon="5.62414">
        <ele>740.4</ele>
        <time>2011-01-29T15:45:26Z</time>
      </trkpt>
      <trkpt lat="45.04646" lon="5.62424">
        <ele>738</ele>
        <time>2011-01-29T15:45:32Z</time>
      </trkpt>
      <trkpt lat="45.04649" lon="5.62426">
        <ele>737.2</ele>
        <time>2011-01-29T15:45:34Z</time>
      </trkpt>
      <trkpt lat="45.04658" lon="5.62429">
        <ele>735.8</ele>
        <time>2011-01-29T15:45:38Z</time>
      </trkpt>
      <trkpt lat="45.04667" lon="5.62438">
        <ele>734.4</ele>
        <time>2011-01-29T15:45:42Z</time>
      </trkpt>
      <trkpt lat="45.0467" lon="5.6244">
        <ele>734.2</ele>
        <time>2011-01-29T15:45:43Z</time>
      </trkpt>
      <trkpt lat="45.04677" lon="5.62453">
        <ele>732.6</ele>
        <time>2011-01-29T15:45:48Z</time>
      </trkpt>
      <trkpt lat="45.04679" lon="5.62458">
        <ele>732</ele>
        <time>2011-01-29T15:45:50Z</time>
      </trkpt>
      <trkpt lat="45.04686" lon="5.62468">
        <ele>730.8</ele>
        <time>2011-01-29T15:45:54Z</time>
      </trkpt>
      <trkpt lat="45.04693" lon="5.62476">
        <ele>729.4</ele>
        <time>2011-01-29T15:45:58Z</time>
      </trkpt>
      <trkpt lat="45.04694" lon="5.62478">
        <ele>729</ele>
        <time>2011-01-29T15:45:59Z</time>
      </trkpt>
      <trkpt lat="45.04704" lon="5.62489">
        <ele>727.6</ele>
        <time>2011-01-29T15:46:04Z</time>
      </trkpt>
      <trkpt lat="45.04709" lon="5.62493">
        <ele>727</ele>
        <time>2011-01-29T15:46:06Z</time>
      </trkpt>
      <trkpt lat="45.04712" lon="5.62496">
        <ele>726.6</ele>
        <time>2011-01-29T15:46:08Z</time>
      </trkpt>
      <trkpt lat="45.04724" lon="5.62502">
        <ele>725.2</ele>
        <time>2011-01-29T15:46:13Z</time>
      </trkpt>
      <trkpt lat="45.04727" lon="5.62504">
        <ele>725</ele>
        <time>2011-01-29T15:46:14Z</time>
      </trkpt>
      <trkpt lat="45.04735" lon="5.6251">
        <ele>723.8</ele>
        <time>2011-01-29T15:46:18Z</time>
      </trkpt>
      <trkpt lat="45.04739" lon="5.62515">
        <ele>723</ele>
        <time>2011-01-29T15:46:21Z</time>
      </trkpt>
      <trkpt lat="45.04742" lon="5.62517">
        <ele>722.2</ele>
        <time>2011-01-29T15:46:23Z</time>
      </trkpt>
      <trkpt lat="45.04748" lon="5.62519">
        <ele>721.8</ele>
        <time>2011-01-29T15:46:25Z</time>
      </trkpt>
      <trkpt lat="45.04753" lon="5.62525">
        <ele>720.4</ele>
        <time>2011-01-29T15:46:29Z</time>
      </trkpt>
      <trkpt lat="45.0476" lon="5.62529">
        <ele>719.4</ele>
        <time>2011-01-29T15:46:32Z</time>
      </trkpt>
      <trkpt lat="45.04764" lon="5.62533">
        <ele>718.8</ele>
        <time>2011-01-29T15:46:34Z</time>
      </trkpt>
      <trkpt lat="45.04773" lon="5.62545">
        <ele>716.8</ele>
        <time>2011-01-29T15:46:39Z</time>
      </trkpt>
      <trkpt lat="45.04774" lon="5.62548">
        <ele>716.6</ele>
        <time>2011-01-29T15:46:40Z</time>
      </trkpt>
      <trkpt lat="45.04783" lon="5.62555">
        <ele>715.6</ele>
        <time>2011-01-29T15:46:43Z</time>
      </trkpt>
      <trkpt lat="45.04789" lon="5.62565">
        <ele>713.8</ele>
        <time>2011-01-29T15:46:48Z</time>
      </trkpt>
      <trkpt lat="45.04792" lon="5.62566">
        <ele>713.4</ele>
        <time>2011-01-29T15:46:49Z</time>
      </trkpt>
      <trkpt lat="45.04807" lon="5.6257">
        <ele>711.4</ele>
        <time>2011-01-29T15:46:55Z</time>
      </trkpt>
      <trkpt lat="45.04808" lon="5.6257">
        <ele>711</ele>
        <time>2011-01-29T15:46:56Z</time>
      </trkpt>
      <trkpt lat="45.04815" lon="5.6257">
        <ele>709.4</ele>
        <time>2011-01-29T15:47:00Z</time>
      </trkpt>
      <trkpt lat="45.04829" lon="5.62575">
        <ele>707</ele>
        <time>2011-01-29T15:47:06Z</time>
      </trkpt>
      <trkpt lat="45.04841" lon="5.62581">
        <ele>705</ele>
        <time>2011-01-29T15:47:11Z</time>
      </trkpt>
      <trkpt lat="45.04846" lon="5.62585">
        <ele>704.2</ele>
        <time>2011-01-29T15:47:13Z</time>
      </trkpt>
      <trkpt lat="45.04854" lon="5.62592">
        <ele>702.6</ele>
        <time>2011-01-29T15:47:17Z</time>
      </trkpt>
      <trkpt lat="45.04863" lon="5.62598">
        <ele>701.2</ele>
        <time>2011-01-29T15:47:21Z</time>
      </trkpt>
      <trkpt lat="45.04869" lon="5.626">
        <ele>700.6</ele>
        <time>2011-01-29T15:47:23Z</time>
      </trkpt>
      <trkpt lat="45.04882" lon="5.62607">
        <ele>698.6</ele>
        <time>2011-01-29T15:47:29Z</time>
      </trkpt>
      <trkpt lat="45.04894" lon="5.62608">
        <ele>696.8</ele>
        <time>2011-01-29T15:47:34Z</time>
      </trkpt>
      <trkpt lat="45.04902" lon="5.6261">
        <ele>695.6</ele>
        <time>2011-01-29T15:47:38Z</time>
      </trkpt>
      <trkpt lat="45.04913" lon="5.62613">
        <ele>694.2</ele>
        <time>2011-01-29T15:47:43Z</time>
      </trkpt>
      <trkpt lat="45.0492" lon="5.62616">
        <ele>693.2</ele>
        <time>2011-01-29T15:47:46Z</time>
      </trkpt>
      <trkpt lat="45.04926" lon="5.62618">
        <ele>692.2</ele>
        <time>2011-01-29T15:47:49Z</time>
      </trkpt>
      <trkpt lat="45.04935" lon="5.62622">
        <ele>690.6</ele>
        <time>2011-01-29T15:47:54Z</time>
      </trkpt>
      <trkpt lat="45.04939" lon="5.62623">
        <ele>689.8</ele>
        <time>2011-01-29T15:47:56Z</time>
      </trkpt>
      <trkpt lat="45.04947" lon="5.62626">
        <ele>688.8</ele>
        <time>2011-01-29T15:47:59Z</time>
      </trkpt>
      <trkpt lat="45.04959" lon="5.62629">
        <ele>686.8</ele>
        <time>2011-01-29T15:48:05Z</time>
      </trkpt>
      <trkpt lat="45.04969" lon="5.62629">
        <ele>685.4</ele>
        <time>2011-01-29T15:48:09Z</time>
      </trkpt>
      <trkpt lat="45.04978" lon="5.62627">
        <ele>683.6</ele>
        <time>2011-01-29T15:48:14Z</time>
      </trkpt>
      <trkpt lat="45.04992" lon="5.62624">
        <ele>680.8</ele>
        <time>2011-01-29T15:48:21Z</time>
      </trkpt>
      <trkpt lat="45.04997" lon="5.62622">
        <ele>679.6</ele>
        <time>2011-01-29T15:48:24Z</time>
      </trkpt>
      <trkpt lat="45.05" lon="5.62619">
        <ele>678.8</ele>
        <time>2011-01-29T15:48:26Z</time>
      </trkpt>
      <trkpt lat="45.05007" lon="5.62611">
        <ele>676.8</ele>
        <time>2011-01-29T15:48:31Z</time>
      </trkpt>
      <trkpt lat="45.05011" lon="5.62603">
        <ele>675.4</ele>
        <time>2011-01-29T15:48:35Z</time>
      </trkpt>
      <trkpt lat="45.05013" lon="5.62601">
        <ele>675</ele>
        <time>2011-01-29T15:48:36Z</time>
      </trkpt>
      <trkpt lat="45.05021" lon="5.6259">
        <ele>673.2</ele>
        <time>2011-01-29T15:48:41Z</time>
      </trkpt>
      <trkpt lat="45.05025" lon="5.62586">
        <ele>672.6</ele>
        <time>2011-01-29T15:48:43Z</time>
      </trkpt>
      <trkpt lat="45.05027" lon="5.62585">
        <ele>672.2</ele>
        <time>2011-01-29T15:48:44Z</time>
      </trkpt>
      <trkpt lat="45.05028" lon="5.62584">
        <ele>671.8</ele>
        <time>2011-01-29T15:48:45Z</time>
      </trkpt>
      <trkpt lat="45.05038" lon="5.62583">
        <ele>670.4</ele>
        <time>2011-01-29T15:48:49Z</time>
      </trkpt>
      <trkpt lat="45.05043" lon="5.62584">
        <ele>669.6</ele>
        <time>2011-01-29T15:48:51Z</time>
      </trkpt>
      <trkpt lat="45.05045" lon="5.62584">
        <ele>669.2</ele>
        <time>2011-01-29T15:48:52Z</time>
      </trkpt>
      <trkpt lat="45.05053" lon="5.62587">
        <ele>668.2</ele>
        <time>2011-01-29T15:48:55Z</time>
      </trkpt>
      <trkpt lat="45.05064" lon="5.62592">
        <ele>667</ele>
        <time>2011-01-29T15:48:59Z</time>
      </trkpt>
      <trkpt lat="45.05066" lon="5.62593">
        <ele>666.6</ele>
        <time>2011-01-29T15:49:00Z</time>
      </trkpt>
      <trkpt lat="45.05076" lon="5.62598">
        <ele>665</ele>
        <time>2011-01-29T15:49:05Z</time>
      </trkpt>
      <trkpt lat="45.05082" lon="5.62595">
        <ele>664</ele>
        <time>2011-01-29T15:49:08Z</time>
      </trkpt>
      <trkpt lat="45.05083" lon="5.62594">
        <ele>663.6</ele>
        <time>2011-01-29T15:49:09Z</time>
      </trkpt>
      <trkpt lat="45.05096" lon="5.62586">
        <ele>661.8</ele>
        <time>2011-01-29T15:49:15Z</time>
      </trkpt>
      <trkpt lat="45.051" lon="5.62583">
        <ele>661</ele>
        <time>2011-01-29T15:49:17Z</time>
      </trkpt>
      <trkpt lat="45.05105" lon="5.62576">
        <ele>660.2</ele>
        <time>2011-01-29T15:49:20Z</time>
      </trkpt>
      <trkpt lat="45.05114" lon="5.62563">
        <ele>659</ele>
        <time>2011-01-29T15:49:25Z</time>
      </trkpt>
      <trkpt lat="45.05125" lon="5.62553">
        <ele>657</ele>
        <time>2011-01-29T15:49:32Z</time>
      </trkpt>
      <trkpt lat="45.05131" lon="5.6255">
        <ele>656.2</ele>
        <time>2011-01-29T15:49:35Z</time>
      </trkpt>
      <trkpt lat="45.05139" lon="5.62548">
        <ele>655.2</ele>
        <time>2011-01-29T15:49:39Z</time>
      </trkpt>
      <trkpt lat="45.05149" lon="5.6255">
        <ele>653.8</ele>
        <time>2011-01-29T15:49:43Z</time>
      </trkpt>
      <trkpt lat="45.05151" lon="5.62551">
        <ele>653.4</ele>
        <time>2011-01-29T15:49:44Z</time>
      </trkpt>
      <trkpt lat="45.05162" lon="5.62557">
        <ele>651.6</ele>
        <time>2011-01-29T15:49:49Z</time>
      </trkpt>
      <trkpt lat="45.05166" lon="5.62559">
        <ele>651</ele>
        <time>2011-01-29T15:49:51Z</time>
      </trkpt>
      <trkpt lat="45.05173" lon="5.62562">
        <ele>650</ele>
        <time>2011-01-29T15:49:54Z</time>
      </trkpt>
      <trkpt lat="45.05184" lon="5.62565">
        <ele>648.4</ele>
        <time>2011-01-29T15:49:59Z</time>
      </trkpt>
      <trkpt lat="45.05187" lon="5.62566">
        <ele>648</ele>
        <time>2011-01-29T15:50:00Z</time>
      </trkpt>
      <trkpt lat="45.05203" lon="5.62568">
        <ele>646.8</ele>
        <time>2011-01-29T15:50:05Z</time>
      </trkpt>
      <trkpt lat="45.05212" lon="5.62572">
        <ele>645.8</ele>
        <time>2011-01-29T15:50:09Z</time>
      </trkpt>
      <trkpt lat="45.0522" lon="5.62574">
        <ele>645</ele>
        <time>2011-01-29T15:50:13Z</time>
      </trkpt>
      <trkpt lat="45.05226" lon="5.62575">
        <ele>644.8</ele>
        <time>2011-01-29T15:50:15Z</time>
      </trkpt>
      <trkpt lat="45.05236" lon="5.62574">
        <ele>644.2</ele>
        <time>2011-01-29T15:50:19Z</time>
      </trkpt>
      <trkpt lat="45.05239" lon="5.62574">
        <ele>644.2</ele>
        <time>2011-01-29T15:50:20Z</time>
      </trkpt>
      <trkpt lat="45.05249" lon="5.62576">
        <ele>643.4</ele>
        <time>2011-01-29T15:50:25Z</time>
      </trkpt>
      <trkpt lat="45.05258" lon="5.62576">
        <ele>642.2</ele>
        <time>2011-01-29T15:50:30Z</time>
      </trkpt>
      <trkpt lat="45.05259" lon="5.62575">
        <ele>642</ele>
        <time>2011-01-29T15:50:31Z</time>
      </trkpt>
      <trkpt lat="45.05263" lon="5.62574">
        <ele>641</ele>
        <time>2011-01-29T15:50:35Z</time>
      </trkpt>
      <trkpt lat="45.05265" lon="5.62575">
        <ele>640.6</ele>
        <time>2011-01-29T15:50:36Z</time>
      </trkpt>
      <trkpt lat="45.05276" lon="5.6258">
        <ele>639.4</ele>
        <time>2011-01-29T15:50:41Z</time>
      </trkpt>
      <trkpt lat="45.05277" lon="5.62581">
        <ele>639</ele>
        <time>2011-01-29T15:50:42Z</time>
      </trkpt>
      <trkpt lat="45.05284" lon="5.62582">
        <ele>637.8</ele>
        <time>2011-01-29T15:50:46Z</time>
      </trkpt>
      <trkpt lat="45.05293" lon="5.62584">
        <ele>636</ele>
        <time>2011-01-29T15:50:53Z</time>
      </trkpt>
      <trkpt lat="45.05295" lon="5.62585">
        <ele>635.8</ele>
        <time>2011-01-29T15:50:54Z</time>
      </trkpt>
      <trkpt lat="45.05303" lon="5.62587">
        <ele>634.4</ele>
        <time>2011-01-29T15:51:00Z</time>
      </trkpt>
      <trkpt lat="45.05311" lon="5.62585">
        <ele>633.2</ele>
        <time>2011-01-29T15:51:06Z</time>
      </trkpt>
      <trkpt lat="45.05313" lon="5.62586">
        <ele>632.8</ele>
        <time>2011-01-29T15:51:08Z</time>
      </trkpt>
      <trkpt lat="45.05317" lon="5.6259">
        <ele>632</ele>
        <time>2011-01-29T15:51:11Z</time>
      </trkpt>
      <trkpt lat="45.05324" lon="5.62591">
        <ele>630.8</ele>
        <time>2011-01-29T15:51:16Z</time>
      </trkpt>
      <trkpt lat="45.0533" lon="5.62594">
        <ele>629.8</ele>
        <time>2011-01-29T15:51:20Z</time>
      </trkpt>
      <trkpt lat="45.05335" lon="5.62596">
        <ele>629</ele>
        <time>2011-01-29T15:51:23Z</time>
      </trkpt>
      <trkpt lat="45.05337" lon="5.62598">
        <ele>628.6</ele>
        <time>2011-01-29T15:51:25Z</time>
      </trkpt>
      <trkpt lat="45.05342" lon="5.626">
        <ele>627.2</ele>
        <time>2011-01-29T15:51:30Z</time>
      </trkpt>
      <trkpt lat="45.05348" lon="5.62596">
        <ele>626.4</ele>
        <time>2011-01-29T15:51:34Z</time>
      </trkpt>
      <trkpt lat="45.05354" lon="5.62593">
        <ele>625.8</ele>
        <time>2011-01-29T15:51:38Z</time>
      </trkpt>
      <trkpt lat="45.05356" lon="5.62593">
        <ele>624.8</ele>
        <time>2011-01-29T15:51:44Z</time>
      </trkpt>
      <trkpt lat="45.0536" lon="5.62591">
        <ele>624</ele>
        <time>2011-01-29T15:51:48Z</time>
      </trkpt>
      <trkpt lat="45.05366" lon="5.62588">
        <ele>623</ele>
        <time>2011-01-29T15:51:53Z</time>
      </trkpt>
      <trkpt lat="45.05368" lon="5.62586">
        <ele>622.4</ele>
        <time>2011-01-29T15:51:56Z</time>
      </trkpt>
      <trkpt lat="45.0537" lon="5.62585">
        <ele>622.2</ele>
        <time>2011-01-29T15:51:57Z</time>
      </trkpt>
      <trkpt lat="45.05375" lon="5.62581">
        <ele>621.4</ele>
        <time>2011-01-29T15:52:01Z</time>
      </trkpt>
      <trkpt lat="45.05376" lon="5.6258">
        <ele>621.4</ele>
        <time>2011-01-29T15:52:02Z</time>
      </trkpt>
      <trkpt lat="45.05382" lon="5.62576">
        <ele>620.4</ele>
        <time>2011-01-29T15:52:07Z</time>
      </trkpt>
      <trkpt lat="45.05383" lon="5.62576">
        <ele>620.2</ele>
        <time>2011-01-29T15:52:08Z</time>
      </trkpt>
      <trkpt lat="45.05386" lon="5.62575">
        <ele>619.8</ele>
        <time>2011-01-29T15:52:10Z</time>
      </trkpt>
      <trkpt lat="45.0539" lon="5.62572">
        <ele>619.2</ele>
        <time>2011-01-29T15:52:14Z</time>
      </trkpt>
      <trkpt lat="45.05393" lon="5.62571">
        <ele>618.6</ele>
        <time>2011-01-29T15:52:16Z</time>
      </trkpt>
      <trkpt lat="45.05399" lon="5.62567">
        <ele>617.6</ele>
        <time>2011-01-29T15:52:21Z</time>
      </trkpt>
      <trkpt lat="45.05401" lon="5.62567">
        <ele>617.4</ele>
        <time>2011-01-29T15:52:22Z</time>
      </trkpt>
      <trkpt lat="45.05405" lon="5.62566">
        <ele>616.2</ele>
        <time>2011-01-29T15:52:27Z</time>
      </trkpt>
      <trkpt lat="45.05408" lon="5.62564">
        <ele>615.2</ele>
        <time>2011-01-29T15:52:31Z</time>
      </trkpt>
      <trkpt lat="45.05417" lon="5.62556">
        <ele>614.4</ele>
        <time>2011-01-29T15:52:36Z</time>
      </trkpt>
      <trkpt lat="45.0542" lon="5.62554">
        <ele>613.8</ele>
        <time>2011-01-29T15:52:39Z</time>
      </trkpt>
      <trkpt lat="45.05426" lon="5.62546">
        <ele>612.6</ele>
        <time>2011-01-29T15:52:45Z</time>
      </trkpt>
      <trkpt lat="45.0543" lon="5.62545">
        <ele>611.8</ele>
        <time>2011-01-29T15:52:49Z</time>
      </trkpt>
      <trkpt lat="45.05432" lon="5.62545">
        <ele>611.2</ele>
        <time>2011-01-29T15:52:51Z</time>
      </trkpt>
      <trkpt lat="45.05433" lon="5.62544">
        <ele>611</ele>
        <time>2011-01-29T15:52:52Z</time>
      </trkpt>
      <trkpt lat="45.05439" lon="5.62543">
        <ele>610</ele>
        <time>2011-01-29T15:52:56Z</time>
      </trkpt>
      <trkpt lat="45.05446" lon="5.62543">
        <ele>608.4</ele>
        <time>2011-01-29T15:53:01Z</time>
      </trkpt>
      <trkpt lat="45.0545" lon="5.62537">
        <ele>607.4</ele>
        <time>2011-01-29T15:53:05Z</time>
      </trkpt>
      <trkpt lat="45.05452" lon="5.62536">
        <ele>607</ele>
        <time>2011-01-29T15:53:06Z</time>
      </trkpt>
      <trkpt lat="45.05457" lon="5.62526">
        <ele>605.8</ele>
        <time>2011-01-29T15:53:11Z</time>
      </trkpt>
      <trkpt lat="45.0546" lon="5.62522">
        <ele>605.2</ele>
        <time>2011-01-29T15:53:14Z</time>
      </trkpt>
      <trkpt lat="45.05462" lon="5.62519">
        <ele>605</ele>
        <time>2011-01-29T15:53:16Z</time>
      </trkpt>
      <trkpt lat="45.05463" lon="5.62517">
        <ele>604.8</ele>
        <time>2011-01-29T15:53:17Z</time>
      </trkpt>
      <trkpt lat="45.05468" lon="5.62517">
        <ele>604.2</ele>
        <time>2011-01-29T15:53:20Z</time>
      </trkpt>
      <trkpt lat="45.05469" lon="5.62517">
        <ele>604</ele>
        <time>2011-01-29T15:53:21Z</time>
      </trkpt>
      <trkpt lat="45.05473" lon="5.62516">
        <ele>603.2</ele>
        <time>2011-01-29T15:53:26Z</time>
      </trkpt>
      <trkpt lat="45.05473" lon="5.62517">
        <ele>603</ele>
        <time>2011-01-29T15:53:27Z</time>
      </trkpt>
      <trkpt lat="45.05474" lon="5.62524">
        <ele>601.6</ele>
        <time>2011-01-29T15:53:32Z</time>
      </trkpt>
      <trkpt lat="45.05474" lon="5.62526">
        <ele>600</ele>
        <time>2011-01-29T15:53:39Z</time>
      </trkpt>
      <trkpt lat="45.05479" lon="5.62529">
        <ele>595.2</ele>
        <time>2011-01-29T15:54:07Z</time>
      </trkpt>
      <trkpt lat="45.05479" lon="5.62526">
        <ele>593.8</ele>
        <time>2011-01-29T15:54:14Z</time>
      </trkpt>
      <trkpt lat="45.05481" lon="5.62533">
        <ele>585.4</ele>
        <time>2011-01-29T15:55:05Z</time>
      </trkpt>
      <trkpt lat="45.05483" lon="5.62531">
        <ele>583.6</ele>
        <time>2011-01-29T15:55:19Z</time>
      </trkpt>
      <trkpt lat="45.05484" lon="5.62534">
        <ele>582.6</ele>
        <time>2011-01-29T15:55:26Z</time>
      </trkpt>
      <trkpt lat="45.05485" lon="5.62533">
        <ele>585.4</ele>
        <time>2011-01-29T15:56:20Z</time>
      </trkpt>
      <trkpt lat="45.05487" lon="5.62532">
        <ele>585.2</ele>
        <time>2011-01-29T15:56:21Z</time>
      </trkpt>
      <trkpt lat="45.05491" lon="5.62531">
        <ele>585</ele>
        <time>2011-01-29T15:56:24Z</time>
      </trkpt>
      <trkpt lat="45.055" lon="5.6253">
        <ele>584.8</ele>
        <time>2011-01-29T15:56:29Z</time>
      </trkpt>
      <trkpt lat="45.05502" lon="5.62529">
        <ele>584.8</ele>
        <time>2011-01-29T15:56:30Z</time>
      </trkpt>
      <trkpt lat="45.05507" lon="5.62527">
        <ele>584.6</ele>
        <time>2011-01-29T15:56:34Z</time>
      </trkpt>
      <trkpt lat="45.0551" lon="5.62527">
        <ele>584.4</ele>
        <time>2011-01-29T15:56:37Z</time>
      </trkpt>
      <trkpt lat="45.05516" lon="5.62528">
        <ele>584.2</ele>
        <time>2011-01-29T15:56:40Z</time>
      </trkpt>
      <trkpt lat="45.05527" lon="5.62531">
        <ele>584.6</ele>
        <time>2011-01-29T15:56:44Z</time>
      </trkpt>
      <trkpt lat="45.05528" lon="5.62533">
        <ele>584.4</ele>
        <time>2011-01-29T15:56:45Z</time>
      </trkpt>
      <trkpt lat="45.05531" lon="5.62533">
        <ele>584.4</ele>
        <time>2011-01-29T15:56:46Z</time>
      </trkpt>
      <trkpt lat="45.05538" lon="5.62537">
        <ele>584.2</ele>
        <time>2011-01-29T15:56:49Z</time>
      </trkpt>
      <trkpt lat="45.05548" lon="5.62542">
        <ele>584.4</ele>
        <time>2011-01-29T15:56:52Z</time>
      </trkpt>
      <trkpt lat="45.05556" lon="5.62546">
        <ele>584.4</ele>
        <time>2011-01-29T15:56:55Z</time>
      </trkpt>
      <trkpt lat="45.05565" lon="5.62555">
        <ele>584.2</ele>
        <time>2011-01-29T15:56:59Z</time>
      </trkpt>
      <trkpt lat="45.05573" lon="5.62557">
        <ele>584</ele>
        <time>2011-01-29T15:57:01Z</time>
      </trkpt>
      <trkpt lat="45.05586" lon="5.62562">
        <ele>584</ele>
        <time>2011-01-29T15:57:05Z</time>
      </trkpt>
      <trkpt lat="45.05589" lon="5.62563">
        <ele>583.8</ele>
        <time>2011-01-29T15:57:06Z</time>
      </trkpt>
      <trkpt lat="45.05599" lon="5.62571">
        <ele>583.2</ele>
        <time>2011-01-29T15:57:11Z</time>
      </trkpt>
      <trkpt lat="45.05602" lon="5.62575">
        <ele>582.8</ele>
        <time>2011-01-29T15:57:13Z</time>
      </trkpt>
      <trkpt lat="45.05612" lon="5.6258">
        <ele>582.6</ele>
        <time>2011-01-29T15:57:16Z</time>
      </trkpt>
      <trkpt lat="45.05619" lon="5.62585">
        <ele>582.4</ele>
        <time>2011-01-29T15:57:19Z</time>
      </trkpt>
      <trkpt lat="45.05623" lon="5.62588">
        <ele>582</ele>
        <time>2011-01-29T15:57:21Z</time>
      </trkpt>
      <trkpt lat="45.05631" lon="5.62594">
        <ele>581.6</ele>
        <time>2011-01-29T15:57:25Z</time>
      </trkpt>
      <trkpt lat="45.05634" lon="5.62597">
        <ele>581.6</ele>
        <time>2011-01-29T15:57:26Z</time>
      </trkpt>
      <trkpt lat="45.05636" lon="5.62598">
        <ele>581.4</ele>
        <time>2011-01-29T15:57:27Z</time>
      </trkpt>
      <trkpt lat="45.05642" lon="5.62603">
        <ele>580.8</ele>
        <time>2011-01-29T15:57:30Z</time>
      </trkpt>
      <trkpt lat="45.05652" lon="5.62609">
        <ele>580.4</ele>
        <time>2011-01-29T15:57:34Z</time>
      </trkpt>
      <trkpt lat="45.05663" lon="5.62617">
        <ele>579.6</ele>
        <time>2011-01-29T15:57:39Z</time>
      </trkpt>
      <trkpt lat="45.05667" lon="5.62623">
        <ele>578.8</ele>
        <time>2011-01-29T15:57:42Z</time>
      </trkpt>
      <trkpt lat="45.0567" lon="5.62628">
        <ele>578.4</ele>
        <time>2011-01-29T15:57:44Z</time>
      </trkpt>
      <trkpt lat="45.05673" lon="5.62632">
        <ele>578</ele>
        <time>2011-01-29T15:57:46Z</time>
      </trkpt>
      <trkpt lat="45.05681" lon="5.62637">
        <ele>577.4</ele>
        <time>2011-01-29T15:57:49Z</time>
      </trkpt>
      <trkpt lat="45.05683" lon="5.6264">
        <ele>577.2</ele>
        <time>2011-01-29T15:57:50Z</time>
      </trkpt>
      <trkpt lat="45.05688" lon="5.62656">
        <ele>576</ele>
        <time>2011-01-29T15:57:55Z</time>
      </trkpt>
      <trkpt lat="45.0569" lon="5.62667">
        <ele>575.4</ele>
        <time>2011-01-29T15:57:58Z</time>
      </trkpt>
      <trkpt lat="45.05692" lon="5.62676">
        <ele>575</ele>
        <time>2011-01-29T15:58:00Z</time>
      </trkpt>
      <trkpt lat="45.05697" lon="5.62693">
        <ele>573.8</ele>
        <time>2011-01-29T15:58:05Z</time>
      </trkpt>
      <trkpt lat="45.05699" lon="5.627">
        <ele>573.2</ele>
        <time>2011-01-29T15:58:07Z</time>
      </trkpt>
      <trkpt lat="45.05705" lon="5.62719">
        <ele>571.8</ele>
        <time>2011-01-29T15:58:12Z</time>
      </trkpt>
      <trkpt lat="45.05712" lon="5.62736">
        <ele>570.6</ele>
        <time>2011-01-29T15:58:17Z</time>
      </trkpt>
      <trkpt lat="45.05714" lon="5.62743">
        <ele>570</ele>
        <time>2011-01-29T15:58:19Z</time>
      </trkpt>
      <trkpt lat="45.05721" lon="5.62757">
        <ele>568.8</ele>
        <time>2011-01-29T15:58:23Z</time>
      </trkpt>
      <trkpt lat="45.05725" lon="5.62763">
        <ele>568</ele>
        <time>2011-01-29T15:58:25Z</time>
      </trkpt>
      <trkpt lat="45.05731" lon="5.6277">
        <ele>567.4</ele>
        <time>2011-01-29T15:58:27Z</time>
      </trkpt>
      <trkpt lat="45.05733" lon="5.62773">
        <ele>567.2</ele>
        <time>2011-01-29T15:58:28Z</time>
      </trkpt>
      <trkpt lat="45.05739" lon="5.62783">
        <ele>566.2</ele>
        <time>2011-01-29T15:58:31Z</time>
      </trkpt>
      <trkpt lat="45.0574" lon="5.62786">
        <ele>565.8</ele>
        <time>2011-01-29T15:58:32Z</time>
      </trkpt>
      <trkpt lat="45.05746" lon="5.62802">
        <ele>564.2</ele>
        <time>2011-01-29T15:58:37Z</time>
      </trkpt>
      <trkpt lat="45.05746" lon="5.62809">
        <ele>563.6</ele>
        <time>2011-01-29T15:58:39Z</time>
      </trkpt>
      <trkpt lat="45.05747" lon="5.62811">
        <ele>563.2</ele>
        <time>2011-01-29T15:58:40Z</time>
      </trkpt>
      <trkpt lat="45.0575" lon="5.62816">
        <ele>562.6</ele>
        <time>2011-01-29T15:58:42Z</time>
      </trkpt>
      <trkpt lat="45.05758" lon="5.62828">
        <ele>561</ele>
        <time>2011-01-29T15:58:47Z</time>
      </trkpt>
      <trkpt lat="45.0576" lon="5.62831">
        <ele>560.6</ele>
        <time>2011-01-29T15:58:48Z</time>
      </trkpt>
      <trkpt lat="45.05769" lon="5.62844">
        <ele>559.2</ele>
        <time>2011-01-29T15:58:53Z</time>
      </trkpt>
      <trkpt lat="45.0577" lon="5.62847">
        <ele>559</ele>
        <time>2011-01-29T15:58:54Z</time>
      </trkpt>
      <trkpt lat="45.05773" lon="5.6285">
        <ele>558.6</ele>
        <time>2011-01-29T15:58:55Z</time>
      </trkpt>
      <trkpt lat="45.05779" lon="5.62859">
        <ele>557.6</ele>
        <time>2011-01-29T15:58:59Z</time>
      </trkpt>
      <trkpt lat="45.0579" lon="5.62868">
        <ele>556.6</ele>
        <time>2011-01-29T15:59:03Z</time>
      </trkpt>
      <trkpt lat="45.05794" lon="5.6287">
        <ele>556.2</ele>
        <time>2011-01-29T15:59:05Z</time>
      </trkpt>
      <trkpt lat="45.05796" lon="5.62872">
        <ele>556</ele>
        <time>2011-01-29T15:59:06Z</time>
      </trkpt>
      <trkpt lat="45.05798" lon="5.62874">
        <ele>555.8</ele>
        <time>2011-01-29T15:59:07Z</time>
      </trkpt>
      <trkpt lat="45.05807" lon="5.62879">
        <ele>555.2</ele>
        <time>2011-01-29T15:59:10Z</time>
      </trkpt>
      <trkpt lat="45.05813" lon="5.62883">
        <ele>554.8</ele>
        <time>2011-01-29T15:59:12Z</time>
      </trkpt>
      <trkpt lat="45.05815" lon="5.62885">
        <ele>554.6</ele>
        <time>2011-01-29T15:59:13Z</time>
      </trkpt>
      <trkpt lat="45.05821" lon="5.62891">
        <ele>553.6</ele>
        <time>2011-01-29T15:59:17Z</time>
      </trkpt>
      <trkpt lat="45.05825" lon="5.62894">
        <ele>553.2</ele>
        <time>2011-01-29T15:59:19Z</time>
      </trkpt>
      <trkpt lat="45.0583" lon="5.629">
        <ele>552.2</ele>
        <time>2011-01-29T15:59:22Z</time>
      </trkpt>
      <trkpt lat="45.05837" lon="5.62913">
        <ele>550.8</ele>
        <time>2011-01-29T15:59:27Z</time>
      </trkpt>
      <trkpt lat="45.05839" lon="5.62916">
        <ele>550.6</ele>
        <time>2011-01-29T15:59:28Z</time>
      </trkpt>
      <trkpt lat="45.05848" lon="5.62934">
        <ele>548.8</ele>
        <time>2011-01-29T15:59:34Z</time>
      </trkpt>
      <trkpt lat="45.05857" lon="5.62952">
        <ele>546.4</ele>
        <time>2011-01-29T15:59:41Z</time>
      </trkpt>
      <trkpt lat="45.05859" lon="5.62955">
        <ele>546</ele>
        <time>2011-01-29T15:59:42Z</time>
      </trkpt>
      <trkpt lat="45.05865" lon="5.62961">
        <ele>545</ele>
        <time>2011-01-29T15:59:45Z</time>
      </trkpt>
      <trkpt lat="45.05866" lon="5.62965">
        <ele>544.2</ele>
        <time>2011-01-29T15:59:47Z</time>
      </trkpt>
      <trkpt lat="45.05868" lon="5.62967">
        <ele>544</ele>
        <time>2011-01-29T15:59:48Z</time>
      </trkpt>
      <trkpt lat="45.05874" lon="5.62974">
        <ele>543</ele>
        <time>2011-01-29T15:59:51Z</time>
      </trkpt>
      <trkpt lat="45.0588" lon="5.62988">
        <ele>541.4</ele>
        <time>2011-01-29T15:59:56Z</time>
      </trkpt>
      <trkpt lat="45.05883" lon="5.62997">
        <ele>540.4</ele>
        <time>2011-01-29T15:59:59Z</time>
      </trkpt>
      <trkpt lat="45.05885" lon="5.63004">
        <ele>539.8</ele>
        <time>2011-01-29T16:00:01Z</time>
      </trkpt>
      <trkpt lat="45.05891" lon="5.63018">
        <ele>538</ele>
        <time>2011-01-29T16:00:06Z</time>
      </trkpt>
      <trkpt lat="45.05893" lon="5.6302">
        <ele>537.8</ele>
        <time>2011-01-29T16:00:07Z</time>
      </trkpt>
      <trkpt lat="45.059" lon="5.63031">
        <ele>536.6</ele>
        <time>2011-01-29T16:00:11Z</time>
      </trkpt>
      <trkpt lat="45.05905" lon="5.63043">
        <ele>535.4</ele>
        <time>2011-01-29T16:00:15Z</time>
      </trkpt>
      <trkpt lat="45.05907" lon="5.63048">
        <ele>534.8</ele>
        <time>2011-01-29T16:00:17Z</time>
      </trkpt>
      <trkpt lat="45.05912" lon="5.63052">
        <ele>534.2</ele>
        <time>2011-01-29T16:00:19Z</time>
      </trkpt>
      <trkpt lat="45.05922" lon="5.63059">
        <ele>533.2</ele>
        <time>2011-01-29T16:00:23Z</time>
      </trkpt>
      <trkpt lat="45.05924" lon="5.63061">
        <ele>532.8</ele>
        <time>2011-01-29T16:00:24Z</time>
      </trkpt>
      <trkpt lat="45.05934" lon="5.63069">
        <ele>531.6</ele>
        <time>2011-01-29T16:00:28Z</time>
      </trkpt>
      <trkpt lat="45.05939" lon="5.63073">
        <ele>531</ele>
        <time>2011-01-29T16:00:30Z</time>
      </trkpt>
      <trkpt lat="45.05942" lon="5.63075">
        <ele>530.8</ele>
        <time>2011-01-29T16:00:31Z</time>
      </trkpt>
      <trkpt lat="45.05945" lon="5.6308">
        <ele>530.2</ele>
        <time>2011-01-29T16:00:33Z</time>
      </trkpt>
      <trkpt lat="45.05954" lon="5.63093">
        <ele>528.8</ele>
        <time>2011-01-29T16:00:38Z</time>
      </trkpt>
      <trkpt lat="45.05957" lon="5.63096">
        <ele>528.4</ele>
        <time>2011-01-29T16:00:39Z</time>
      </trkpt>
      <trkpt lat="45.05969" lon="5.63105">
        <ele>526.6</ele>
        <time>2011-01-29T16:00:45Z</time>
      </trkpt>
      <trkpt lat="45.05971" lon="5.63107">
        <ele>526.2</ele>
        <time>2011-01-29T16:00:46Z</time>
      </trkpt>
      <trkpt lat="45.05982" lon="5.63121">
        <ele>524.4</ele>
        <time>2011-01-29T16:00:52Z</time>
      </trkpt>
      <trkpt lat="45.05986" lon="5.63126">
        <ele>523.6</ele>
        <time>2011-01-29T16:00:54Z</time>
      </trkpt>
      <trkpt lat="45.05991" lon="5.63136">
        <ele>522.4</ele>
        <time>2011-01-29T16:00:58Z</time>
      </trkpt>
      <trkpt lat="45.05996" lon="5.63141">
        <ele>521.2</ele>
        <time>2011-01-29T16:01:02Z</time>
      </trkpt>
      <trkpt lat="45.05997" lon="5.63143">
        <ele>520.8</ele>
        <time>2011-01-29T16:01:03Z</time>
      </trkpt>
      <trkpt lat="45.05999" lon="5.63147">
        <ele>519.8</ele>
        <time>2011-01-29T16:01:06Z</time>
      </trkpt>
      <trkpt lat="45.06002" lon="5.63148">
        <ele>518.8</ele>
        <time>2011-01-29T16:01:09Z</time>
      </trkpt>
      <trkpt lat="45.06003" lon="5.63148">
        <ele>518.4</ele>
        <time>2011-01-29T16:01:10Z</time>
      </trkpt>
      <trkpt lat="45.06006" lon="5.63148">
        <ele>515.6</ele>
        <time>2011-01-29T16:01:19Z</time>
      </trkpt>
      <trkpt lat="45.06009" lon="5.63155">
        <ele>510.6</ele>
        <time>2011-01-29T16:01:36Z</time>
      </trkpt>
      <trkpt lat="45.06013" lon="5.63161">
        <ele>509.2</ele>
        <time>2011-01-29T16:01:41Z</time>
      </trkpt>
      <trkpt lat="45.06014" lon="5.63164">
        <ele>508.8</ele>
        <time>2011-01-29T16:01:43Z</time>
      </trkpt>
      <trkpt lat="45.06019" lon="5.63175">
        <ele>507.4</ele>
        <time>2011-01-29T16:01:48Z</time>
      </trkpt>
      <trkpt lat="45.06024" lon="5.63183">
        <ele>506.2</ele>
        <time>2011-01-29T16:01:52Z</time>
      </trkpt>
      <trkpt lat="45.06026" lon="5.63186">
        <ele>506</ele>
        <time>2011-01-29T16:01:53Z</time>
      </trkpt>
      <trkpt lat="45.0603" lon="5.63193">
        <ele>505.2</ele>
        <time>2011-01-29T16:01:56Z</time>
      </trkpt>
      <trkpt lat="45.06037" lon="5.63202">
        <ele>504</ele>
        <time>2011-01-29T16:02:00Z</time>
      </trkpt>
      <trkpt lat="45.06038" lon="5.63205">
        <ele>503.8</ele>
        <time>2011-01-29T16:02:01Z</time>
      </trkpt>
      <trkpt lat="45.06047" lon="5.6322">
        <ele>502.4</ele>
        <time>2011-01-29T16:02:06Z</time>
      </trkpt>
      <trkpt lat="45.06052" lon="5.63228">
        <ele>501.6</ele>
        <time>2011-01-29T16:02:09Z</time>
      </trkpt>
      <trkpt lat="45.06056" lon="5.63233">
        <ele>500.8</ele>
        <time>2011-01-29T16:02:11Z</time>
      </trkpt>
      <trkpt lat="45.06063" lon="5.63244">
        <ele>499.4</ele>
        <time>2011-01-29T16:02:15Z</time>
      </trkpt>
      <trkpt lat="45.06066" lon="5.63246">
        <ele>499.2</ele>
        <time>2011-01-29T16:02:16Z</time>
      </trkpt>
      <trkpt lat="45.06069" lon="5.63248">
        <ele>498.8</ele>
        <time>2011-01-29T16:02:17Z</time>
      </trkpt>
      <trkpt lat="45.06079" lon="5.63252">
        <ele>498</ele>
        <time>2011-01-29T16:02:20Z</time>
      </trkpt>
      <trkpt lat="45.06085" lon="5.63255">
        <ele>496.8</ele>
        <time>2011-01-29T16:02:23Z</time>
      </trkpt>
      <trkpt lat="45.06092" lon="5.63256">
        <ele>495.8</ele>
        <time>2011-01-29T16:02:26Z</time>
      </trkpt>
      <trkpt lat="45.06104" lon="5.63253">
        <ele>494.4</ele>
        <time>2011-01-29T16:02:30Z</time>
      </trkpt>
      <trkpt lat="45.06107" lon="5.63254">
        <ele>494.2</ele>
        <time>2011-01-29T16:02:31Z</time>
      </trkpt>
      <trkpt lat="45.06115" lon="5.63264">
        <ele>492.8</ele>
        <time>2011-01-29T16:02:35Z</time>
      </trkpt>
      <trkpt lat="45.06118" lon="5.63269">
        <ele>492.2</ele>
        <time>2011-01-29T16:02:37Z</time>
      </trkpt>
      <trkpt lat="45.06127" lon="5.63279">
        <ele>491</ele>
        <time>2011-01-29T16:02:41Z</time>
      </trkpt>
      <trkpt lat="45.06132" lon="5.63288">
        <ele>490</ele>
        <time>2011-01-29T16:02:44Z</time>
      </trkpt>
      <trkpt lat="45.06137" lon="5.63296">
        <ele>489.2</ele>
        <time>2011-01-29T16:02:47Z</time>
      </trkpt>
      <trkpt lat="45.06145" lon="5.63307">
        <ele>488</ele>
        <time>2011-01-29T16:02:51Z</time>
      </trkpt>
      <trkpt lat="45.06148" lon="5.6331">
        <ele>487.8</ele>
        <time>2011-01-29T16:02:52Z</time>
      </trkpt>
      <trkpt lat="45.0616" lon="5.63324">
        <ele>486.2</ele>
        <time>2011-01-29T16:02:58Z</time>
      </trkpt>
      <trkpt lat="45.0617" lon="5.63338">
        <ele>484.8</ele>
        <time>2011-01-29T16:03:03Z</time>
      </trkpt>
      <trkpt lat="45.06173" lon="5.63343">
        <ele>484.4</ele>
        <time>2011-01-29T16:03:05Z</time>
      </trkpt>
      <trkpt lat="45.06182" lon="5.63356">
        <ele>483</ele>
        <time>2011-01-29T16:03:10Z</time>
      </trkpt>
      <trkpt lat="45.06187" lon="5.63361">
        <ele>482.6</ele>
        <time>2011-01-29T16:03:12Z</time>
      </trkpt>
      <trkpt lat="45.06195" lon="5.6337">
        <ele>481.4</ele>
        <time>2011-01-29T16:03:16Z</time>
      </trkpt>
      <trkpt lat="45.06202" lon="5.63377">
        <ele>480.8</ele>
        <time>2011-01-29T16:03:19Z</time>
      </trkpt>
      <trkpt lat="45.0621" lon="5.63386">
        <ele>479.6</ele>
        <time>2011-01-29T16:03:23Z</time>
      </trkpt>
      <trkpt lat="45.06216" lon="5.63394">
        <ele>478.8</ele>
        <time>2011-01-29T16:03:26Z</time>
      </trkpt>
      <trkpt lat="45.06221" lon="5.63402">
        <ele>478</ele>
        <time>2011-01-29T16:03:29Z</time>
      </trkpt>
      <trkpt lat="45.06228" lon="5.63414">
        <ele>476.8</ele>
        <time>2011-01-29T16:03:33Z</time>
      </trkpt>
      <trkpt lat="45.06233" lon="5.63424">
        <ele>475.8</ele>
        <time>2011-01-29T16:03:36Z</time>
      </trkpt>
      <trkpt lat="45.06236" lon="5.63438">
        <ele>474.8</ele>
        <time>2011-01-29T16:03:40Z</time>
      </trkpt>
      <trkpt lat="45.06237" lon="5.63441">
        <ele>474.4</ele>
        <time>2011-01-29T16:03:41Z</time>
      </trkpt>
      <trkpt lat="45.06238" lon="5.63458">
        <ele>473</ele>
        <time>2011-01-29T16:03:46Z</time>
      </trkpt>
      <trkpt lat="45.06239" lon="5.63466">
        <ele>472.6</ele>
        <time>2011-01-29T16:03:48Z</time>
      </trkpt>
      <trkpt lat="45.06239" lon="5.63481">
        <ele>471.2</ele>
        <time>2011-01-29T16:03:53Z</time>
      </trkpt>
      <trkpt lat="45.0624" lon="5.63492">
        <ele>470.4</ele>
        <time>2011-01-29T16:03:56Z</time>
      </trkpt>
      <trkpt lat="45.06242" lon="5.63502">
        <ele>469.8</ele>
        <time>2011-01-29T16:03:59Z</time>
      </trkpt>
      <trkpt lat="45.06245" lon="5.63516">
        <ele>468.8</ele>
        <time>2011-01-29T16:04:03Z</time>
      </trkpt>
      <trkpt lat="45.06245" lon="5.6352">
        <ele>468.6</ele>
        <time>2011-01-29T16:04:04Z</time>
      </trkpt>
      <trkpt lat="45.06251" lon="5.63532">
        <ele>467.8</ele>
        <time>2011-01-29T16:04:08Z</time>
      </trkpt>
      <trkpt lat="45.06254" lon="5.63542">
        <ele>467.2</ele>
        <time>2011-01-29T16:04:11Z</time>
      </trkpt>
      <trkpt lat="45.06258" lon="5.63552">
        <ele>466.8</ele>
        <time>2011-01-29T16:04:14Z</time>
      </trkpt>
      <trkpt lat="45.06262" lon="5.63568">
        <ele>466</ele>
        <time>2011-01-29T16:04:19Z</time>
      </trkpt>
      <trkpt lat="45.06263" lon="5.63571">
        <ele>465.8</ele>
        <time>2011-01-29T16:04:20Z</time>
      </trkpt>
      <trkpt lat="45.06269" lon="5.63586">
        <ele>465</ele>
        <time>2011-01-29T16:04:25Z</time>
      </trkpt>
      <trkpt lat="45.06272" lon="5.63591">
        <ele>464.4</ele>
        <time>2011-01-29T16:04:27Z</time>
      </trkpt>
      <trkpt lat="45.0628" lon="5.63601">
        <ele>463.6</ele>
        <time>2011-01-29T16:04:31Z</time>
      </trkpt>
      <trkpt lat="45.06286" lon="5.6361">
        <ele>462.8</ele>
        <time>2011-01-29T16:04:35Z</time>
      </trkpt>
      <trkpt lat="45.06287" lon="5.63613">
        <ele>462.6</ele>
        <time>2011-01-29T16:04:36Z</time>
      </trkpt>
      <trkpt lat="45.06297" lon="5.63624">
        <ele>461.6</ele>
        <time>2011-01-29T16:04:41Z</time>
      </trkpt>
      <trkpt lat="45.06299" lon="5.63629">
        <ele>461</ele>
        <time>2011-01-29T16:04:43Z</time>
      </trkpt>
      <trkpt lat="45.06308" lon="5.63642">
        <ele>459.8</ele>
        <time>2011-01-29T16:04:48Z</time>
      </trkpt>
      <trkpt lat="45.06312" lon="5.63648">
        <ele>459.4</ele>
        <time>2011-01-29T16:04:50Z</time>
      </trkpt>
      <trkpt lat="45.06317" lon="5.63657">
        <ele>458.6</ele>
        <time>2011-01-29T16:04:53Z</time>
      </trkpt>
      <trkpt lat="45.06325" lon="5.63671">
        <ele>457.4</ele>
        <time>2011-01-29T16:04:58Z</time>
      </trkpt>
      <trkpt lat="45.06327" lon="5.63674">
        <ele>457.2</ele>
        <time>2011-01-29T16:04:59Z</time>
      </trkpt>
      <trkpt lat="45.06336" lon="5.63694">
        <ele>455.6</ele>
        <time>2011-01-29T16:05:06Z</time>
      </trkpt>
      <trkpt lat="45.06337" lon="5.63697">
        <ele>455.2</ele>
        <time>2011-01-29T16:05:07Z</time>
      </trkpt>
      <trkpt lat="45.06344" lon="5.63711">
        <ele>454.2</ele>
        <time>2011-01-29T16:05:12Z</time>
      </trkpt>
      <trkpt lat="45.06346" lon="5.63717">
        <ele>453.6</ele>
        <time>2011-01-29T16:05:14Z</time>
      </trkpt>
      <trkpt lat="45.06351" lon="5.63728">
        <ele>452.6</ele>
        <time>2011-01-29T16:05:18Z</time>
      </trkpt>
      <trkpt lat="45.06356" lon="5.63739">
        <ele>451.8</ele>
        <time>2011-01-29T16:05:22Z</time>
      </trkpt>
      <trkpt lat="45.06358" lon="5.63745">
        <ele>451.2</ele>
        <time>2011-01-29T16:05:24Z</time>
      </trkpt>
      <trkpt lat="45.06365" lon="5.6376">
        <ele>450.2</ele>
        <time>2011-01-29T16:05:29Z</time>
      </trkpt>
      <trkpt lat="45.06366" lon="5.63762">
        <ele>450</ele>
        <time>2011-01-29T16:05:30Z</time>
      </trkpt>
      <trkpt lat="45.0637" lon="5.63776">
        <ele>448.8</ele>
        <time>2011-01-29T16:05:35Z</time>
      </trkpt>
      <trkpt lat="45.06374" lon="5.63788">
        <ele>448</ele>
        <time>2011-01-29T16:05:39Z</time>
      </trkpt>
      <trkpt lat="45.06377" lon="5.63793">
        <ele>447.6</ele>
        <time>2011-01-29T16:05:41Z</time>
      </trkpt>
      <trkpt lat="45.06383" lon="5.63811">
        <ele>446.4</ele>
        <time>2011-01-29T16:05:47Z</time>
      </trkpt>
      <trkpt lat="45.06384" lon="5.63814">
        <ele>446.2</ele>
        <time>2011-01-29T16:05:48Z</time>
      </trkpt>
      <trkpt lat="45.0639" lon="5.63833">
        <ele>445</ele>
        <time>2011-01-29T16:05:54Z</time>
      </trkpt>
      <trkpt lat="45.06391" lon="5.63836">
        <ele>444.8</ele>
        <time>2011-01-29T16:05:55Z</time>
      </trkpt>
      <trkpt lat="45.06396" lon="5.63853">
        <ele>444</ele>
        <time>2011-01-29T16:06:00Z</time>
      </trkpt>
      <trkpt lat="45.06399" lon="5.6386">
        <ele>443.6</ele>
        <time>2011-01-29T16:06:02Z</time>
      </trkpt>
      <trkpt lat="45.06403" lon="5.6387">
        <ele>443.2</ele>
        <time>2011-01-29T16:06:05Z</time>
      </trkpt>
      <trkpt lat="45.06408" lon="5.63883">
        <ele>442.6</ele>
        <time>2011-01-29T16:06:09Z</time>
      </trkpt>
      <trkpt lat="45.06411" lon="5.6389">
        <ele>442.2</ele>
        <time>2011-01-29T16:06:11Z</time>
      </trkpt>
      <trkpt lat="45.06418" lon="5.63904">
        <ele>441.4</ele>
        <time>2011-01-29T16:06:16Z</time>
      </trkpt>
      <trkpt lat="45.06419" lon="5.63907">
        <ele>441.2</ele>
        <time>2011-01-29T16:06:17Z</time>
      </trkpt>
      <trkpt lat="45.06431" lon="5.63919">
        <ele>440.2</ele>
        <time>2011-01-29T16:06:23Z</time>
      </trkpt>
      <trkpt lat="45.06435" lon="5.63923">
        <ele>439.8</ele>
        <time>2011-01-29T16:06:25Z</time>
      </trkpt>
      <trkpt lat="45.0644" lon="5.63929">
        <ele>439.2</ele>
        <time>2011-01-29T16:06:28Z</time>
      </trkpt>
      <trkpt lat="45.0645" lon="5.6394">
        <ele>438.2</ele>
        <time>2011-01-29T16:06:33Z</time>
      </trkpt>
      <trkpt lat="45.06452" lon="5.63941">
        <ele>438</ele>
        <time>2011-01-29T16:06:34Z</time>
      </trkpt>
      <trkpt lat="45.06467" lon="5.63954">
        <ele>436.8</ele>
        <time>2011-01-29T16:06:40Z</time>
      </trkpt>
      <trkpt lat="45.06469" lon="5.63956">
        <ele>436.4</ele>
        <time>2011-01-29T16:06:41Z</time>
      </trkpt>
      <trkpt lat="45.06481" lon="5.6397">
        <ele>435.2</ele>
        <time>2011-01-29T16:06:47Z</time>
      </trkpt>
      <trkpt lat="45.06482" lon="5.63973">
        <ele>435</ele>
        <time>2011-01-29T16:06:48Z</time>
      </trkpt>
      <trkpt lat="45.06491" lon="5.63987">
        <ele>434</ele>
        <time>2011-01-29T16:06:53Z</time>
      </trkpt>
      <trkpt lat="45.06496" lon="5.63994">
        <ele>433.4</ele>
        <time>2011-01-29T16:06:56Z</time>
      </trkpt>
      <trkpt lat="45.065" lon="5.64">
        <ele>433</ele>
        <time>2011-01-29T16:06:58Z</time>
      </trkpt>
      <trkpt lat="45.06508" lon="5.64013">
        <ele>432</ele>
        <time>2011-01-29T16:07:03Z</time>
      </trkpt>
      <trkpt lat="45.0651" lon="5.64016">
        <ele>431.8</ele>
        <time>2011-01-29T16:07:04Z</time>
      </trkpt>
      <trkpt lat="45.06519" lon="5.64032">
        <ele>430.8</ele>
        <time>2011-01-29T16:07:10Z</time>
      </trkpt>
      <trkpt lat="45.06521" lon="5.64034">
        <ele>430.6</ele>
        <time>2011-01-29T16:07:11Z</time>
      </trkpt>
      <trkpt lat="45.0653" lon="5.64051">
        <ele>429.4</ele>
        <time>2011-01-29T16:07:17Z</time>
      </trkpt>
      <trkpt lat="45.06534" lon="5.64057">
        <ele>429</ele>
        <time>2011-01-29T16:07:19Z</time>
      </trkpt>
      <trkpt lat="45.06538" lon="5.64066">
        <ele>428.4</ele>
        <time>2011-01-29T16:07:22Z</time>
      </trkpt>
      <trkpt lat="45.06544" lon="5.64081">
        <ele>427.4</ele>
        <time>2011-01-29T16:07:27Z</time>
      </trkpt>
      <trkpt lat="45.06552" lon="5.64099">
        <ele>426.4</ele>
        <time>2011-01-29T16:07:33Z</time>
      </trkpt>
      <trkpt lat="45.06554" lon="5.64103">
        <ele>426.2</ele>
        <time>2011-01-29T16:07:34Z</time>
      </trkpt>
      <trkpt lat="45.06559" lon="5.64119">
        <ele>425.4</ele>
        <time>2011-01-29T16:07:39Z</time>
      </trkpt>
      <trkpt lat="45.06562" lon="5.64126">
        <ele>425</ele>
        <time>2011-01-29T16:07:41Z</time>
      </trkpt>
      <trkpt lat="45.06567" lon="5.64142">
        <ele>424</ele>
        <time>2011-01-29T16:07:46Z</time>
      </trkpt>
      <trkpt lat="45.06569" lon="5.64151">
        <ele>423.4</ele>
        <time>2011-01-29T16:07:49Z</time>
      </trkpt>
      <trkpt lat="45.06569" lon="5.64151">
        <ele>423.4</ele>
        <time>2011-01-29T16:07:49Z</time>
      </trkpt>
      <trkpt lat="45.06572" lon="5.64162">
        <ele>423</ele>
        <time>2011-01-29T16:07:52Z</time>
      </trkpt>
      <trkpt lat="45.06576" lon="5.64175">
        <ele>422.2</ele>
        <time>2011-01-29T16:07:56Z</time>
      </trkpt>
      <trkpt lat="45.06577" lon="5.64179">
        <ele>422</ele>
        <time>2011-01-29T16:07:57Z</time>
      </trkpt>
      <trkpt lat="45.06584" lon="5.642">
        <ele>421</ele>
        <time>2011-01-29T16:08:03Z</time>
      </trkpt>
      <trkpt lat="45.06593" lon="5.6422">
        <ele>420</ele>
        <time>2011-01-29T16:08:09Z</time>
      </trkpt>
      <trkpt lat="45.06594" lon="5.64223">
        <ele>419.8</ele>
        <time>2011-01-29T16:08:10Z</time>
      </trkpt>
      <trkpt lat="45.06599" lon="5.64236">
        <ele>419</ele>
        <time>2011-01-29T16:08:14Z</time>
      </trkpt>
      <trkpt lat="45.06603" lon="5.64246">
        <ele>418.4</ele>
        <time>2011-01-29T16:08:17Z</time>
      </trkpt>
      <trkpt lat="45.06606" lon="5.64256">
        <ele>417.8</ele>
        <time>2011-01-29T16:08:20Z</time>
      </trkpt>
      <trkpt lat="45.06611" lon="5.64269">
        <ele>417</ele>
        <time>2011-01-29T16:08:24Z</time>
      </trkpt>
      <trkpt lat="45.06614" lon="5.64276">
        <ele>416.6</ele>
        <time>2011-01-29T16:08:26Z</time>
      </trkpt>
      <trkpt lat="45.0662" lon="5.64293">
        <ele>415.8</ele>
        <time>2011-01-29T16:08:31Z</time>
      </trkpt>
      <trkpt lat="45.06621" lon="5.64297">
        <ele>415.6</ele>
        <time>2011-01-29T16:08:32Z</time>
      </trkpt>
      <trkpt lat="45.06626" lon="5.64316">
        <ele>414.6</ele>
        <time>2011-01-29T16:08:37Z</time>
      </trkpt>
      <trkpt lat="45.06627" lon="5.64319">
        <ele>414.4</ele>
        <time>2011-01-29T16:08:38Z</time>
      </trkpt>
      <trkpt lat="45.06631" lon="5.64337">
        <ele>413.6</ele>
        <time>2011-01-29T16:08:43Z</time>
      </trkpt>
      <trkpt lat="45.06632" lon="5.64345">
        <ele>413.2</ele>
        <time>2011-01-29T16:08:45Z</time>
      </trkpt>
      <trkpt lat="45.06633" lon="5.64356">
        <ele>412.8</ele>
        <time>2011-01-29T16:08:48Z</time>
      </trkpt>
      <trkpt lat="45.06636" lon="5.6437">
        <ele>412</ele>
        <time>2011-01-29T16:08:52Z</time>
      </trkpt>
      <trkpt lat="45.06637" lon="5.64373">
        <ele>412</ele>
        <time>2011-01-29T16:08:53Z</time>
      </trkpt>
      <trkpt lat="45.06642" lon="5.64394">
        <ele>410.8</ele>
        <time>2011-01-29T16:08:59Z</time>
      </trkpt>
      <trkpt lat="45.06643" lon="5.64398">
        <ele>410.8</ele>
        <time>2011-01-29T16:09:00Z</time>
      </trkpt>
      <trkpt lat="45.06649" lon="5.64417">
        <ele>409.8</ele>
        <time>2011-01-29T16:09:06Z</time>
      </trkpt>
      <trkpt lat="45.0665" lon="5.64421">
        <ele>409.6</ele>
        <time>2011-01-29T16:09:07Z</time>
      </trkpt>
      <trkpt lat="45.06657" lon="5.6444">
        <ele>408.6</ele>
        <time>2011-01-29T16:09:13Z</time>
      </trkpt>
      <trkpt lat="45.06659" lon="5.64446">
        <ele>408.4</ele>
        <time>2011-01-29T16:09:15Z</time>
      </trkpt>
      <trkpt lat="45.06665" lon="5.64458">
        <ele>407.6</ele>
        <time>2011-01-29T16:09:19Z</time>
      </trkpt>
      <trkpt lat="45.06669" lon="5.64468">
        <ele>407.2</ele>
        <time>2011-01-29T16:09:22Z</time>
      </trkpt>
      <trkpt lat="45.06674" lon="5.64477">
        <ele>406.8</ele>
        <time>2011-01-29T16:09:25Z</time>
      </trkpt>
      <trkpt lat="45.0668" lon="5.64492">
        <ele>406</ele>
        <time>2011-01-29T16:09:30Z</time>
      </trkpt>
      <trkpt lat="45.06681" lon="5.64495">
        <ele>406</ele>
        <time>2011-01-29T16:09:31Z</time>
      </trkpt>
      <trkpt lat="45.06687" lon="5.64511">
        <ele>405.2</ele>
        <time>2011-01-29T16:09:36Z</time>
      </trkpt>
      <trkpt lat="45.06689" lon="5.64517">
        <ele>404.8</ele>
        <time>2011-01-29T16:09:38Z</time>
      </trkpt>
      <trkpt lat="45.06693" lon="5.64531">
        <ele>404.4</ele>
        <time>2011-01-29T16:09:42Z</time>
      </trkpt>
      <trkpt lat="45.06696" lon="5.6454">
        <ele>404</ele>
        <time>2011-01-29T16:09:45Z</time>
      </trkpt>
      <trkpt lat="45.067" lon="5.64553">
        <ele>403.4</ele>
        <time>2011-01-29T16:09:49Z</time>
      </trkpt>
      <trkpt lat="45.06703" lon="5.64566">
        <ele>402.8</ele>
        <time>2011-01-29T16:09:53Z</time>
      </trkpt>
      <trkpt lat="45.06704" lon="5.64573">
        <ele>402.6</ele>
        <time>2011-01-29T16:09:55Z</time>
      </trkpt>
      <trkpt lat="45.06708" lon="5.64593">
        <ele>401.8</ele>
        <time>2011-01-29T16:10:01Z</time>
      </trkpt>
      <trkpt lat="45.06713" lon="5.64613">
        <ele>400.8</ele>
        <time>2011-01-29T16:10:07Z</time>
      </trkpt>
      <trkpt lat="45.06715" lon="5.64619">
        <ele>400.6</ele>
        <time>2011-01-29T16:10:09Z</time>
      </trkpt>
      <trkpt lat="45.06719" lon="5.64631">
        <ele>400</ele>
        <time>2011-01-29T16:10:13Z</time>
      </trkpt>
      <trkpt lat="45.06724" lon="5.64643">
        <ele>399.4</ele>
        <time>2011-01-29T16:10:17Z</time>
      </trkpt>
      <trkpt lat="45.06726" lon="5.64645">
        <ele>399.4</ele>
        <time>2011-01-29T16:10:18Z</time>
      </trkpt>
      <trkpt lat="45.06734" lon="5.64658">
        <ele>398.6</ele>
        <time>2011-01-29T16:10:23Z</time>
      </trkpt>
      <trkpt lat="45.06738" lon="5.64663">
        <ele>398.4</ele>
        <time>2011-01-29T16:10:25Z</time>
      </trkpt>
      <trkpt lat="45.06745" lon="5.64673">
        <ele>397.8</ele>
        <time>2011-01-29T16:10:29Z</time>
      </trkpt>
      <trkpt lat="45.06752" lon="5.64683">
        <ele>397.2</ele>
        <time>2011-01-29T16:10:33Z</time>
      </trkpt>
      <trkpt lat="45.06755" lon="5.64688">
        <ele>396.8</ele>
        <time>2011-01-29T16:10:35Z</time>
      </trkpt>
      <trkpt lat="45.06764" lon="5.64702">
        <ele>396.2</ele>
        <time>2011-01-29T16:10:40Z</time>
      </trkpt>
      <trkpt lat="45.06766" lon="5.64708">
        <ele>395.8</ele>
        <time>2011-01-29T16:10:42Z</time>
      </trkpt>
      <trkpt lat="45.06774" lon="5.64724">
        <ele>395</ele>
        <time>2011-01-29T16:10:47Z</time>
      </trkpt>
      <trkpt lat="45.06775" lon="5.64727">
        <ele>395</ele>
        <time>2011-01-29T16:10:48Z</time>
      </trkpt>
      <trkpt lat="45.0678" lon="5.64748">
        <ele>394</ele>
        <time>2011-01-29T16:10:54Z</time>
      </trkpt>
      <trkpt lat="45.06782" lon="5.64766">
        <ele>393.2</ele>
        <time>2011-01-29T16:10:59Z</time>
      </trkpt>
      <trkpt lat="45.06782" lon="5.64774">
        <ele>392.8</ele>
        <time>2011-01-29T16:11:01Z</time>
      </trkpt>
      <trkpt lat="45.06783" lon="5.64788">
        <ele>392.2</ele>
        <time>2011-01-29T16:11:05Z</time>
      </trkpt>
      <trkpt lat="45.06784" lon="5.64799">
        <ele>391.6</ele>
        <time>2011-01-29T16:11:08Z</time>
      </trkpt>
      <trkpt lat="45.06785" lon="5.64806">
        <ele>391</ele>
        <time>2011-01-29T16:11:10Z</time>
      </trkpt>
      <trkpt lat="45.0679" lon="5.64827">
        <ele>389.8</ele>
        <time>2011-01-29T16:11:16Z</time>
      </trkpt>
      <trkpt lat="45.06791" lon="5.6483">
        <ele>389.6</ele>
        <time>2011-01-29T16:11:17Z</time>
      </trkpt>
      <trkpt lat="45.06796" lon="5.6485">
        <ele>388.4</ele>
        <time>2011-01-29T16:11:23Z</time>
      </trkpt>
      <trkpt lat="45.06797" lon="5.64853">
        <ele>388.2</ele>
        <time>2011-01-29T16:11:24Z</time>
      </trkpt>
      <trkpt lat="45.06802" lon="5.64869">
        <ele>387.2</ele>
        <time>2011-01-29T16:11:29Z</time>
      </trkpt>
      <trkpt lat="45.06805" lon="5.64879">
        <ele>386.6</ele>
        <time>2011-01-29T16:11:32Z</time>
      </trkpt>
      <trkpt lat="45.0681" lon="5.64891">
        <ele>385.6</ele>
        <time>2011-01-29T16:11:36Z</time>
      </trkpt>
      <trkpt lat="45.06815" lon="5.649">
        <ele>385</ele>
        <time>2011-01-29T16:11:39Z</time>
      </trkpt>
      <trkpt lat="45.0682" lon="5.6491">
        <ele>384.4</ele>
        <time>2011-01-29T16:11:42Z</time>
      </trkpt>
      <trkpt lat="45.06826" lon="5.64922">
        <ele>383.6</ele>
        <time>2011-01-29T16:11:46Z</time>
      </trkpt>
      <trkpt lat="45.06827" lon="5.64925">
        <ele>383.4</ele>
        <time>2011-01-29T16:11:47Z</time>
      </trkpt>
      <trkpt lat="45.06834" lon="5.6494">
        <ele>382.2</ele>
        <time>2011-01-29T16:11:52Z</time>
      </trkpt>
      <trkpt lat="45.06837" lon="5.64947">
        <ele>381.8</ele>
        <time>2011-01-29T16:11:54Z</time>
      </trkpt>
      <trkpt lat="45.06843" lon="5.64959">
        <ele>381</ele>
        <time>2011-01-29T16:11:58Z</time>
      </trkpt>
      <trkpt lat="45.06846" lon="5.64972">
        <ele>380.2</ele>
        <time>2011-01-29T16:12:02Z</time>
      </trkpt>
      <trkpt lat="45.06849" lon="5.64979">
        <ele>379.8</ele>
        <time>2011-01-29T16:12:04Z</time>
      </trkpt>
      <trkpt lat="45.06854" lon="5.64995">
        <ele>378.8</ele>
        <time>2011-01-29T16:12:09Z</time>
      </trkpt>
      <trkpt lat="45.06862" lon="5.65009">
        <ele>377.8</ele>
        <time>2011-01-29T16:12:14Z</time>
      </trkpt>
      <trkpt lat="45.06866" lon="5.65017">
        <ele>377.2</ele>
        <time>2011-01-29T16:12:17Z</time>
      </trkpt>
      <trkpt lat="45.06875" lon="5.65026">
        <ele>376.6</ele>
        <time>2011-01-29T16:12:21Z</time>
      </trkpt>
      <trkpt lat="45.06881" lon="5.65033">
        <ele>376</ele>
        <time>2011-01-29T16:12:24Z</time>
      </trkpt>
      <trkpt lat="45.06889" lon="5.65042">
        <ele>375.4</ele>
        <time>2011-01-29T16:12:28Z</time>
      </trkpt>
      <trkpt lat="45.06896" lon="5.65052">
        <ele>374.8</ele>
        <time>2011-01-29T16:12:32Z</time>
      </trkpt>
      <trkpt lat="45.069" lon="5.65058">
        <ele>374.4</ele>
        <time>2011-01-29T16:12:34Z</time>
      </trkpt>
      <trkpt lat="45.06909" lon="5.65072">
        <ele>373.6</ele>
        <time>2011-01-29T16:12:39Z</time>
      </trkpt>
      <trkpt lat="45.06915" lon="5.65082">
        <ele>372.8</ele>
        <time>2011-01-29T16:12:44Z</time>
      </trkpt>
      <trkpt lat="45.06921" lon="5.65092">
        <ele>371.8</ele>
        <time>2011-01-29T16:12:50Z</time>
      </trkpt>
      <trkpt lat="45.06927" lon="5.65105">
        <ele>370.6</ele>
        <time>2011-01-29T16:12:57Z</time>
      </trkpt>
      <trkpt lat="45.06932" lon="5.65114">
        <ele>369.8</ele>
        <time>2011-01-29T16:13:02Z</time>
      </trkpt>
      <trkpt lat="45.06934" lon="5.65119">
        <ele>369.4</ele>
        <time>2011-01-29T16:13:05Z</time>
      </trkpt>
      <trkpt lat="45.0694" lon="5.65131">
        <ele>368.6</ele>
        <time>2011-01-29T16:13:12Z</time>
      </trkpt>
      <trkpt lat="45.06941" lon="5.65137">
        <ele>368.2</ele>
        <time>2011-01-29T16:13:15Z</time>
      </trkpt>
      <trkpt lat="45.06944" lon="5.65148">
        <ele>367.6</ele>
        <time>2011-01-29T16:13:20Z</time>
      </trkpt>
      <trkpt lat="45.06948" lon="5.65162">
        <ele>366.8</ele>
        <time>2011-01-29T16:13:27Z</time>
      </trkpt>
      <trkpt lat="45.06948" lon="5.65164">
        <ele>366.8</ele>
        <time>2011-01-29T16:13:28Z</time>
      </trkpt>
      <trkpt lat="45.06951" lon="5.65181">
        <ele>366.2</ele>
        <time>2011-01-29T16:13:33Z</time>
      </trkpt>
      <trkpt lat="45.06952" lon="5.65188">
        <ele>366</ele>
        <time>2011-01-29T16:13:35Z</time>
      </trkpt>
      <trkpt lat="45.06955" lon="5.65206">
        <ele>365.2</ele>
        <time>2011-01-29T16:13:40Z</time>
      </trkpt>
      <trkpt lat="45.06956" lon="5.65213">
        <ele>365</ele>
        <time>2011-01-29T16:13:42Z</time>
      </trkpt>
      <trkpt lat="45.06959" lon="5.65226">
        <ele>364.4</ele>
        <time>2011-01-29T16:13:46Z</time>
      </trkpt>
      <trkpt lat="45.06962" lon="5.65241">
        <ele>363.8</ele>
        <time>2011-01-29T16:13:50Z</time>
      </trkpt>
      <trkpt lat="45.06963" lon="5.65248">
        <ele>363.4</ele>
        <time>2011-01-29T16:13:52Z</time>
      </trkpt>
      <trkpt lat="45.06968" lon="5.65266">
        <ele>362.8</ele>
        <time>2011-01-29T16:13:57Z</time>
      </trkpt>
      <trkpt lat="45.06972" lon="5.65288">
        <ele>361.8</ele>
        <time>2011-01-29T16:14:03Z</time>
      </trkpt>
      <trkpt lat="45.06972" lon="5.65292">
        <ele>361.8</ele>
        <time>2011-01-29T16:14:04Z</time>
      </trkpt>
      <trkpt lat="45.06975" lon="5.65317">
        <ele>360.6</ele>
        <time>2011-01-29T16:14:11Z</time>
      </trkpt>
      <trkpt lat="45.06975" lon="5.65321">
        <ele>360.6</ele>
        <time>2011-01-29T16:14:12Z</time>
      </trkpt>
      <trkpt lat="45.06975" lon="5.65343">
        <ele>359.6</ele>
        <time>2011-01-29T16:14:18Z</time>
      </trkpt>
      <trkpt lat="45.06975" lon="5.65347">
        <ele>359.6</ele>
        <time>2011-01-29T16:14:19Z</time>
      </trkpt>
      <trkpt lat="45.0697" lon="5.65366">
        <ele>358.6</ele>
        <time>2011-01-29T16:14:24Z</time>
      </trkpt>
      <trkpt lat="45.06971" lon="5.65374">
        <ele>358.4</ele>
        <time>2011-01-29T16:14:26Z</time>
      </trkpt>
      <trkpt lat="45.06973" lon="5.65388">
        <ele>357.6</ele>
        <time>2011-01-29T16:14:30Z</time>
      </trkpt>
      <trkpt lat="45.06974" lon="5.654">
        <ele>357.2</ele>
        <time>2011-01-29T16:14:33Z</time>
      </trkpt>
      <trkpt lat="45.06976" lon="5.65414">
        <ele>356.6</ele>
        <time>2011-01-29T16:14:37Z</time>
      </trkpt>
      <trkpt lat="45.06979" lon="5.65424">
        <ele>356</ele>
        <time>2011-01-29T16:14:40Z</time>
      </trkpt>
      <trkpt lat="45.06981" lon="5.65434">
        <ele>355.6</ele>
        <time>2011-01-29T16:14:43Z</time>
      </trkpt>
      <trkpt lat="45.06986" lon="5.6545">
        <ele>354.6</ele>
        <time>2011-01-29T16:14:48Z</time>
      </trkpt>
      <trkpt lat="45.06987" lon="5.65453">
        <ele>354.4</ele>
        <time>2011-01-29T16:14:49Z</time>
      </trkpt>
      <trkpt lat="45.06995" lon="5.6547">
        <ele>353.4</ele>
        <time>2011-01-29T16:14:55Z</time>
      </trkpt>
      <trkpt lat="45.06996" lon="5.65473">
        <ele>353.2</ele>
        <time>2011-01-29T16:14:56Z</time>
      </trkpt>
      <trkpt lat="45.07006" lon="5.65485">
        <ele>352.4</ele>
        <time>2011-01-29T16:15:01Z</time>
      </trkpt>
      <trkpt lat="45.07014" lon="5.65491">
        <ele>352</ele>
        <time>2011-01-29T16:15:04Z</time>
      </trkpt>
      <trkpt lat="45.07027" lon="5.65496">
        <ele>351.8</ele>
        <time>2011-01-29T16:15:07Z</time>
      </trkpt>
      <trkpt lat="45.07033" lon="5.65499">
        <ele>351.6</ele>
        <time>2011-01-29T16:15:09Z</time>
      </trkpt>
      <trkpt lat="45.07042" lon="5.65504">
        <ele>351.2</ele>
        <time>2011-01-29T16:15:12Z</time>
      </trkpt>
      <trkpt lat="45.07051" lon="5.65507">
        <ele>351</ele>
        <time>2011-01-29T16:15:15Z</time>
      </trkpt>
      <trkpt lat="45.07061" lon="5.65512">
        <ele>350.6</ele>
        <time>2011-01-29T16:15:19Z</time>
      </trkpt>
      <trkpt lat="45.07069" lon="5.65514">
        <ele>350.2</ele>
        <time>2011-01-29T16:15:22Z</time>
      </trkpt>
      <trkpt lat="45.07077" lon="5.65516">
        <ele>349.8</ele>
        <time>2011-01-29T16:15:25Z</time>
      </trkpt>
      <trkpt lat="45.07087" lon="5.6552">
        <ele>349.4</ele>
        <time>2011-01-29T16:15:29Z</time>
      </trkpt>
      <trkpt lat="45.07092" lon="5.65522">
        <ele>349.2</ele>
        <time>2011-01-29T16:15:31Z</time>
      </trkpt>
      <trkpt lat="45.07106" lon="5.65528">
        <ele>348.8</ele>
        <time>2011-01-29T16:15:37Z</time>
      </trkpt>
      <trkpt lat="45.07122" lon="5.65533">
        <ele>348.4</ele>
        <time>2011-01-29T16:15:43Z</time>
      </trkpt>
      <trkpt lat="45.07124" lon="5.65534">
        <ele>348.2</ele>
        <time>2011-01-29T16:15:44Z</time>
      </trkpt>
      <trkpt lat="45.07138" lon="5.6554">
        <ele>348</ele>
        <time>2011-01-29T16:15:50Z</time>
      </trkpt>
      <trkpt lat="45.07142" lon="5.65542">
        <ele>347.8</ele>
        <time>2011-01-29T16:15:52Z</time>
      </trkpt>
      <trkpt lat="45.07151" lon="5.65545">
        <ele>347.6</ele>
        <time>2011-01-29T16:15:56Z</time>
      </trkpt>
      <trkpt lat="45.0716" lon="5.65548">
        <ele>347.4</ele>
        <time>2011-01-29T16:16:00Z</time>
      </trkpt>
      <trkpt lat="45.07165" lon="5.6555">
        <ele>347.4</ele>
        <time>2011-01-29T16:16:02Z</time>
      </trkpt>
      <trkpt lat="45.07179" lon="5.65549">
        <ele>347.2</ele>
        <time>2011-01-29T16:16:08Z</time>
      </trkpt>
      <trkpt lat="45.07188" lon="5.6555">
        <ele>347</ele>
        <time>2011-01-29T16:16:12Z</time>
      </trkpt>
      <trkpt lat="45.07191" lon="5.65554">
        <ele>347</ele>
        <time>2011-01-29T16:16:14Z</time>
      </trkpt>
      <trkpt lat="45.07194" lon="5.65561">
        <ele>346.8</ele>
        <time>2011-01-29T16:16:16Z</time>
      </trkpt>
      <trkpt lat="45.07197" lon="5.65567">
        <ele>346.8</ele>
        <time>2011-01-29T16:16:18Z</time>
      </trkpt>
      <trkpt lat="45.07203" lon="5.65583">
        <ele>346.6</ele>
        <time>2011-01-29T16:16:23Z</time>
      </trkpt>
      <trkpt lat="45.0721" lon="5.656">
        <ele>346.4</ele>
        <time>2011-01-29T16:16:29Z</time>
      </trkpt>
      <trkpt lat="45.07212" lon="5.65607">
        <ele>346.4</ele>
        <time>2011-01-29T16:16:31Z</time>
      </trkpt>
      <trkpt lat="45.07214" lon="5.65615">
        <ele>346.2</ele>
        <time>2011-01-29T16:16:34Z</time>
      </trkpt>
      <trkpt lat="45.0722" lon="5.6563">
        <ele>346.2</ele>
        <time>2011-01-29T16:16:39Z</time>
      </trkpt>
      <trkpt lat="45.07226" lon="5.65646">
        <ele>346</ele>
        <time>2011-01-29T16:16:45Z</time>
      </trkpt>
      <trkpt lat="45.07229" lon="5.65652">
        <ele>345.8</ele>
        <time>2011-01-29T16:16:47Z</time>
      </trkpt>
      <trkpt lat="45.07235" lon="5.65663">
        <ele>345.6</ele>
        <time>2011-01-29T16:16:51Z</time>
      </trkpt>
      <trkpt lat="45.0724" lon="5.65673">
        <ele>345.4</ele>
        <time>2011-01-29T16:16:55Z</time>
      </trkpt>
      <trkpt lat="45.07242" lon="5.65678">
        <ele>345.2</ele>
        <time>2011-01-29T16:16:57Z</time>
      </trkpt>
      <trkpt lat="45.0725" lon="5.65696">
        <ele>344.8</ele>
        <time>2011-01-29T16:17:04Z</time>
      </trkpt>
      <trkpt lat="45.07262" lon="5.65708">
        <ele>344.2</ele>
        <time>2011-01-29T16:17:10Z</time>
      </trkpt>
      <trkpt lat="45.07266" lon="5.65711">
        <ele>344</ele>
        <time>2011-01-29T16:17:12Z</time>
      </trkpt>
      <trkpt lat="45.07275" lon="5.65719">
        <ele>343.8</ele>
        <time>2011-01-29T16:17:16Z</time>
      </trkpt>
      <trkpt lat="45.07284" lon="5.65725">
        <ele>343.6</ele>
        <time>2011-01-29T16:17:20Z</time>
      </trkpt>
      <trkpt lat="45.07286" lon="5.65727">
        <ele>343.6</ele>
        <time>2011-01-29T16:17:21Z</time>
      </trkpt>
      <trkpt lat="45.07296" lon="5.65732">
        <ele>343</ele>
        <time>2011-01-29T16:17:28Z</time>
      </trkpt>
      <trkpt lat="45.07302" lon="5.65736">
        <ele>342.8</ele>
        <time>2011-01-29T16:17:33Z</time>
      </trkpt>
      <trkpt lat="45.07304" lon="5.65738">
        <ele>342.4</ele>
        <time>2011-01-29T16:17:36Z</time>
      </trkpt>
    </trkseg>
  </trk>
</gpx>